<?xml version="1.0"?>
<gpx xmlns:xsi="http://www.w3.org/2001/XMLSchema-instance" xmlns:xsd="http://www.w3.org/2001/XMLSchema" version="1.1" creator="Ski Blackbox" xmlns="http://www.topografix.com/GPX/1/1">
  <trk>
    <trkseg>
      <trkpt lat="42.97768385945" lon="-5.77548969538">
        <ele>1474.12</ele>
        <time>2012-12-20T12:19:07+01:00</time>
      </trkpt>
      <trkpt lat="42.97766295205" lon="-5.77550168988">
        <ele>1473.7</ele>
        <time>2012-12-20T12:19:10+01:00</time>
      </trkpt>
      <trkpt lat="42.97764019154" lon="-5.77552069249">
        <ele>1473.7</ele>
        <time>2012-12-20T12:19:14+01:00</time>
      </trkpt>
      <trkpt lat="42.97762030092" lon="-5.77554062223">
        <ele>1473.51</ele>
        <time>2012-12-20T12:19:17+01:00</time>
      </trkpt>
      <trkpt lat="42.97760904455" lon="-5.77556458904">
        <ele>1473.71</ele>
        <time>2012-12-20T12:19:21+01:00</time>
      </trkpt>
      <trkpt lat="42.97760654958" lon="-5.77560151429">
        <ele>1473.52</ele>
        <time>2012-12-20T12:19:25+01:00</time>
      </trkpt>
      <trkpt lat="42.97760584746" lon="-5.77563975702">
        <ele>1473.61</ele>
        <time>2012-12-20T12:19:30+01:00</time>
      </trkpt>
      <trkpt lat="42.97760121331" lon="-5.77567126672">
        <ele>1473.84</ele>
        <time>2012-12-20T12:19:41+01:00</time>
      </trkpt>
      <trkpt lat="42.97760361711" lon="-5.77568856569">
        <ele>1473.95</ele>
        <time>2012-12-20T12:19:56+01:00</time>
      </trkpt>
      <trkpt lat="42.9776020868" lon="-5.7756496324">
        <ele>1474.52</ele>
        <time>2012-12-20T12:20:28+01:00</time>
      </trkpt>
      <trkpt lat="42.97762253434" lon="-5.77563400028">
        <ele>1474.23</ele>
        <time>2012-12-20T12:20:35+01:00</time>
      </trkpt>
      <trkpt lat="42.97765301007" lon="-5.77565608662">
        <ele>1474.26</ele>
        <time>2012-12-20T12:20:42+01:00</time>
      </trkpt>
      <trkpt lat="42.97767493025" lon="-5.77564816573">
        <ele>1474.23</ele>
        <time>2012-12-20T12:20:47+01:00</time>
      </trkpt>
      <trkpt lat="42.97766295281" lon="-5.775667771">
        <ele>1473.98</ele>
        <time>2012-12-20T12:20:55+01:00</time>
      </trkpt>
      <trkpt lat="42.97765066668" lon="-5.775694692">
        <ele>1474.14</ele>
        <time>2012-12-20T12:20:56+01:00</time>
      </trkpt>
      <trkpt lat="42.97761602295" lon="-5.77573782829">
        <ele>1473.47</ele>
        <time>2012-12-20T12:20:58+01:00</time>
      </trkpt>
      <trkpt lat="42.97759796303" lon="-5.77578253126">
        <ele>1472.9</ele>
        <time>2012-12-20T12:20:59+01:00</time>
      </trkpt>
      <trkpt lat="42.97761912795" lon="-5.77576793547">
        <ele>1472.89</ele>
        <time>2012-12-20T12:21:12+01:00</time>
      </trkpt>
      <trkpt lat="42.97760785961" lon="-5.77577378044">
        <ele>1472.66</ele>
        <time>2012-12-20T12:21:14+01:00</time>
      </trkpt>
      <trkpt lat="42.97759046982" lon="-5.77577540373">
        <ele>1472.28</ele>
        <time>2012-12-20T12:21:17+01:00</time>
      </trkpt>
      <trkpt lat="42.97758635876" lon="-5.77577372204">
        <ele>1471.72</ele>
        <time>2012-12-20T12:21:20+01:00</time>
      </trkpt>
      <trkpt lat="42.97760455078" lon="-5.77575609615">
        <ele>1472.05</ele>
        <time>2012-12-20T12:21:34+01:00</time>
      </trkpt>
      <trkpt lat="42.97760916954" lon="-5.7757512574">
        <ele>1472.08</ele>
        <time>2012-12-20T12:21:37+01:00</time>
      </trkpt>
      <trkpt lat="42.97761634391" lon="-5.77574475676">
        <ele>1471.78</ele>
        <time>2012-12-20T12:21:40+01:00</time>
      </trkpt>
      <trkpt lat="42.97765807916" lon="-5.77570758299">
        <ele>1471.68</ele>
        <time>2012-12-20T12:21:45+01:00</time>
      </trkpt>
      <trkpt lat="42.97767795573" lon="-5.77570091096">
        <ele>1471.78</ele>
        <time>2012-12-20T12:21:56+01:00</time>
      </trkpt>
      <trkpt lat="42.97771545865" lon="-5.77567617428">
        <ele>1471.33</ele>
        <time>2012-12-20T12:22:22+01:00</time>
      </trkpt>
      <trkpt lat="42.97774347814" lon="-5.77565352437">
        <ele>1471.04</ele>
        <time>2012-12-20T12:22:25+01:00</time>
      </trkpt>
      <trkpt lat="42.97776453826" lon="-5.77563471162">
        <ele>1470.88</ele>
        <time>2012-12-20T12:22:27+01:00</time>
      </trkpt>
      <trkpt lat="42.97778075317" lon="-5.77560707741">
        <ele>1470.18</ele>
        <time>2012-12-20T12:22:33+01:00</time>
      </trkpt>
      <trkpt lat="42.97779854714" lon="-5.77557405793">
        <ele>1470.04</ele>
        <time>2012-12-20T12:22:34+01:00</time>
      </trkpt>
      <trkpt lat="42.97778953964" lon="-5.77558309008">
        <ele>1470.27</ele>
        <time>2012-12-20T12:22:35+01:00</time>
      </trkpt>
      <trkpt lat="42.97778889156" lon="-5.7755675315">
        <ele>1470.61</ele>
        <time>2012-12-20T12:22:42+01:00</time>
      </trkpt>
      <trkpt lat="42.97778381079" lon="-5.77558012023">
        <ele>1470.76</ele>
        <time>2012-12-20T12:22:49+01:00</time>
      </trkpt>
      <trkpt lat="42.97777039489" lon="-5.77559446123">
        <ele>1470.93</ele>
        <time>2012-12-20T12:22:51+01:00</time>
      </trkpt>
      <trkpt lat="42.97775511644" lon="-5.77561835362">
        <ele>1471.25</ele>
        <time>2012-12-20T12:22:58+01:00</time>
      </trkpt>
      <trkpt lat="42.97776285801" lon="-5.77560046024">
        <ele>1470.42</ele>
        <time>2012-12-20T12:23:08+01:00</time>
      </trkpt>
      <trkpt lat="42.9777727009" lon="-5.77557164844">
        <ele>1470.44</ele>
        <time>2012-12-20T12:23:10+01:00</time>
      </trkpt>
      <trkpt lat="42.9778003565" lon="-5.77553196931">
        <ele>1471.31</ele>
        <time>2012-12-20T12:23:55+01:00</time>
      </trkpt>
      <trkpt lat="42.97780951315" lon="-5.7755428093">
        <ele>1471.57</ele>
        <time>2012-12-20T12:24:02+01:00</time>
      </trkpt>
      <trkpt lat="42.97780403091" lon="-5.77556992148">
        <ele>1471.61</ele>
        <time>2012-12-20T12:24:13+01:00</time>
      </trkpt>
      <trkpt lat="42.97782569972" lon="-5.77557346638">
        <ele>1471.66</ele>
        <time>2012-12-20T12:24:30+01:00</time>
      </trkpt>
      <trkpt lat="42.97781383964" lon="-5.77559254848">
        <ele>1471.63</ele>
        <time>2012-12-20T12:24:39+01:00</time>
      </trkpt>
      <trkpt lat="42.97779349682" lon="-5.77559777307">
        <ele>1472.26</ele>
        <time>2012-12-20T12:24:52+01:00</time>
      </trkpt>
      <trkpt lat="42.97777367028" lon="-5.77561202786">
        <ele>1472.63</ele>
        <time>2012-12-20T12:25:53+01:00</time>
      </trkpt>
      <trkpt lat="42.97775250531" lon="-5.77560575931">
        <ele>1472.59</ele>
        <time>2012-12-20T12:26:05+01:00</time>
      </trkpt>
      <trkpt lat="42.97772825633" lon="-5.77560376799">
        <ele>1472.63</ele>
        <time>2012-12-20T12:26:18+01:00</time>
      </trkpt>
      <trkpt lat="42.97770905672" lon="-5.77562274869">
        <ele>1472.84</ele>
        <time>2012-12-20T12:26:25+01:00</time>
      </trkpt>
      <trkpt lat="42.97772426048" lon="-5.77560924458">
        <ele>1472.31</ele>
        <time>2012-12-20T12:26:36+01:00</time>
      </trkpt>
      <trkpt lat="42.97771975752" lon="-5.77563376818">
        <ele>1472.19</ele>
        <time>2012-12-20T12:26:42+01:00</time>
      </trkpt>
      <trkpt lat="42.97774849533" lon="-5.77563491781">
        <ele>1472.26</ele>
        <time>2012-12-20T12:27:17+01:00</time>
      </trkpt>
      <trkpt lat="42.9777472021" lon="-5.77560785626">
        <ele>1472.95</ele>
        <time>2012-12-20T12:28:33+01:00</time>
      </trkpt>
      <trkpt lat="42.97773775749" lon="-5.77562123737">
        <ele>1472.09</ele>
        <time>2012-12-20T12:29:17+01:00</time>
      </trkpt>
      <trkpt lat="42.97772720976" lon="-5.77564121324">
        <ele>1472.11</ele>
        <time>2012-12-20T12:29:22+01:00</time>
      </trkpt>
      <trkpt lat="42.977699862" lon="-5.77565565167">
        <ele>1472.5</ele>
        <time>2012-12-20T12:29:31+01:00</time>
      </trkpt>
      <trkpt lat="42.97770129914" lon="-5.77568516028">
        <ele>1473</ele>
        <time>2012-12-20T12:31:09+01:00</time>
      </trkpt>
      <trkpt lat="42.97768691225" lon="-5.77572657623">
        <ele>1473.64</ele>
        <time>2012-12-20T12:31:30+01:00</time>
      </trkpt>
      <trkpt lat="42.97766389855" lon="-5.77575221741">
        <ele>1474.31</ele>
        <time>2012-12-20T12:31:32+01:00</time>
      </trkpt>
      <trkpt lat="42.97763964497" lon="-5.77578058103">
        <ele>1475.11</ele>
        <time>2012-12-20T12:31:34+01:00</time>
      </trkpt>
      <trkpt lat="42.97761236308" lon="-5.77581502554">
        <ele>1475.87</ele>
        <time>2012-12-20T12:31:36+01:00</time>
      </trkpt>
      <trkpt lat="42.97758511783" lon="-5.77584849397">
        <ele>1476.75</ele>
        <time>2012-12-20T12:31:38+01:00</time>
      </trkpt>
      <trkpt lat="42.97756029022" lon="-5.77588111042">
        <ele>1477.4</ele>
        <time>2012-12-20T12:31:40+01:00</time>
      </trkpt>
      <trkpt lat="42.97753374302" lon="-5.77590994525">
        <ele>1478.11</ele>
        <time>2012-12-20T12:31:42+01:00</time>
      </trkpt>
      <trkpt lat="42.97751079571" lon="-5.77594157028">
        <ele>1478.79</ele>
        <time>2012-12-20T12:31:44+01:00</time>
      </trkpt>
      <trkpt lat="42.97748775577" lon="-5.7759701551">
        <ele>1479.52</ele>
        <time>2012-12-20T12:31:46+01:00</time>
      </trkpt>
      <trkpt lat="42.97746466884" lon="-5.77600092532">
        <ele>1480.29</ele>
        <time>2012-12-20T12:31:48+01:00</time>
      </trkpt>
      <trkpt lat="42.97744108688" lon="-5.77603266845">
        <ele>1481.11</ele>
        <time>2012-12-20T12:31:50+01:00</time>
      </trkpt>
      <trkpt lat="42.97741853886" lon="-5.77605869117">
        <ele>1481.15</ele>
        <time>2012-12-20T12:31:52+01:00</time>
      </trkpt>
      <trkpt lat="42.97739612551" lon="-5.77608857203">
        <ele>1481.73</ele>
        <time>2012-12-20T12:31:54+01:00</time>
      </trkpt>
      <trkpt lat="42.97736935662" lon="-5.77612101929">
        <ele>1483.16</ele>
        <time>2012-12-20T12:31:56+01:00</time>
      </trkpt>
      <trkpt lat="42.97734800904" lon="-5.77614802671">
        <ele>1483.8</ele>
        <time>2012-12-20T12:31:58+01:00</time>
      </trkpt>
      <trkpt lat="42.97732693956" lon="-5.77617728132">
        <ele>1484.46</ele>
        <time>2012-12-20T12:32:00+01:00</time>
      </trkpt>
      <trkpt lat="42.97730499265" lon="-5.77620668522">
        <ele>1485.2</ele>
        <time>2012-12-20T12:32:02+01:00</time>
      </trkpt>
      <trkpt lat="42.97728503251" lon="-5.77623881977">
        <ele>1486.16</ele>
        <time>2012-12-20T12:32:04+01:00</time>
      </trkpt>
      <trkpt lat="42.97726323425" lon="-5.77626903972">
        <ele>1486.76</ele>
        <time>2012-12-20T12:32:06+01:00</time>
      </trkpt>
      <trkpt lat="42.97724208199" lon="-5.77629831384">
        <ele>1487.36</ele>
        <time>2012-12-20T12:32:08+01:00</time>
      </trkpt>
      <trkpt lat="42.97722208816" lon="-5.77633020911">
        <ele>1488.06</ele>
        <time>2012-12-20T12:32:10+01:00</time>
      </trkpt>
      <trkpt lat="42.9772008146" lon="-5.77636025425">
        <ele>1488.65</ele>
        <time>2012-12-20T12:32:12+01:00</time>
      </trkpt>
      <trkpt lat="42.97718099723" lon="-5.77639192487">
        <ele>1489.18</ele>
        <time>2012-12-20T12:32:14+01:00</time>
      </trkpt>
      <trkpt lat="42.97715898694" lon="-5.776419609">
        <ele>1489.73</ele>
        <time>2012-12-20T12:32:16+01:00</time>
      </trkpt>
      <trkpt lat="42.9771380775" lon="-5.77644825235">
        <ele>1490.28</ele>
        <time>2012-12-20T12:32:18+01:00</time>
      </trkpt>
      <trkpt lat="42.9771163729" lon="-5.77647668987">
        <ele>1490.73</ele>
        <time>2012-12-20T12:32:20+01:00</time>
      </trkpt>
      <trkpt lat="42.97709534316" lon="-5.77650669099">
        <ele>1491.19</ele>
        <time>2012-12-20T12:32:22+01:00</time>
      </trkpt>
      <trkpt lat="42.97707377741" lon="-5.77653737653">
        <ele>1491.76</ele>
        <time>2012-12-20T12:32:24+01:00</time>
      </trkpt>
      <trkpt lat="42.97705336505" lon="-5.7765632271">
        <ele>1491.65</ele>
        <time>2012-12-20T12:32:26+01:00</time>
      </trkpt>
      <trkpt lat="42.9770326154" lon="-5.77659025378">
        <ele>1491.98</ele>
        <time>2012-12-20T12:32:28+01:00</time>
      </trkpt>
      <trkpt lat="42.97701145485" lon="-5.7766184542">
        <ele>1492.83</ele>
        <time>2012-12-20T12:32:30+01:00</time>
      </trkpt>
      <trkpt lat="42.97698987601" lon="-5.77664805442">
        <ele>1493.32</ele>
        <time>2012-12-20T12:32:32+01:00</time>
      </trkpt>
      <trkpt lat="42.97696716151" lon="-5.77667673851">
        <ele>1493.71</ele>
        <time>2012-12-20T12:32:34+01:00</time>
      </trkpt>
      <trkpt lat="42.9769458799" lon="-5.77670766953">
        <ele>1494.24</ele>
        <time>2012-12-20T12:32:36+01:00</time>
      </trkpt>
      <trkpt lat="42.97692308197" lon="-5.77673641125">
        <ele>1494.81</ele>
        <time>2012-12-20T12:32:38+01:00</time>
      </trkpt>
      <trkpt lat="42.97690164115" lon="-5.77676719716">
        <ele>1495.31</ele>
        <time>2012-12-20T12:32:40+01:00</time>
      </trkpt>
      <trkpt lat="42.97687927991" lon="-5.77679667875">
        <ele>1495.33</ele>
        <time>2012-12-20T12:32:42+01:00</time>
      </trkpt>
      <trkpt lat="42.97685746786" lon="-5.77682308785">
        <ele>1496.26</ele>
        <time>2012-12-20T12:32:44+01:00</time>
      </trkpt>
      <trkpt lat="42.97683601246" lon="-5.77685650711">
        <ele>1496.95</ele>
        <time>2012-12-20T12:32:46+01:00</time>
      </trkpt>
      <trkpt lat="42.97681463046" lon="-5.77688572397">
        <ele>1497.5</ele>
        <time>2012-12-20T12:32:48+01:00</time>
      </trkpt>
      <trkpt lat="42.97679310491" lon="-5.77691640652">
        <ele>1498.13</ele>
        <time>2012-12-20T12:32:50+01:00</time>
      </trkpt>
      <trkpt lat="42.97677216851" lon="-5.77694693389">
        <ele>1498.89</ele>
        <time>2012-12-20T12:32:52+01:00</time>
      </trkpt>
      <trkpt lat="42.97675031035" lon="-5.77697774749">
        <ele>1499.71</ele>
        <time>2012-12-20T12:32:54+01:00</time>
      </trkpt>
      <trkpt lat="42.97673073187" lon="-5.77700643685">
        <ele>1500.43</ele>
        <time>2012-12-20T12:32:56+01:00</time>
      </trkpt>
      <trkpt lat="42.97670724112" lon="-5.77703627747">
        <ele>1500.89</ele>
        <time>2012-12-20T12:32:58+01:00</time>
      </trkpt>
      <trkpt lat="42.97668682486" lon="-5.77706332597">
        <ele>1501.6</ele>
        <time>2012-12-20T12:33:00+01:00</time>
      </trkpt>
      <trkpt lat="42.97666641429" lon="-5.77709130226">
        <ele>1502.13</ele>
        <time>2012-12-20T12:33:02+01:00</time>
      </trkpt>
      <trkpt lat="42.97664592885" lon="-5.77712005026">
        <ele>1502.71</ele>
        <time>2012-12-20T12:33:04+01:00</time>
      </trkpt>
      <trkpt lat="42.9766267938" lon="-5.77714698951">
        <ele>1503.23</ele>
        <time>2012-12-20T12:33:06+01:00</time>
      </trkpt>
      <trkpt lat="42.97660613417" lon="-5.77717269176">
        <ele>1503.76</ele>
        <time>2012-12-20T12:33:08+01:00</time>
      </trkpt>
      <trkpt lat="42.97658618961" lon="-5.77719925099">
        <ele>1504.15</ele>
        <time>2012-12-20T12:33:10+01:00</time>
      </trkpt>
      <trkpt lat="42.97656529815" lon="-5.7772274801">
        <ele>1504.62</ele>
        <time>2012-12-20T12:33:12+01:00</time>
      </trkpt>
      <trkpt lat="42.976545519" lon="-5.77725829018">
        <ele>1505.06</ele>
        <time>2012-12-20T12:33:14+01:00</time>
      </trkpt>
      <trkpt lat="42.97652449321" lon="-5.77728686894">
        <ele>1505.44</ele>
        <time>2012-12-20T12:33:16+01:00</time>
      </trkpt>
      <trkpt lat="42.97650387081" lon="-5.77731673331">
        <ele>1505.95</ele>
        <time>2012-12-20T12:33:18+01:00</time>
      </trkpt>
      <trkpt lat="42.97648208177" lon="-5.77734416137">
        <ele>1506.29</ele>
        <time>2012-12-20T12:33:20+01:00</time>
      </trkpt>
      <trkpt lat="42.9764600629" lon="-5.77737451417">
        <ele>1506.73</ele>
        <time>2012-12-20T12:33:22+01:00</time>
      </trkpt>
      <trkpt lat="42.97643930347" lon="-5.77740561206">
        <ele>1507.1</ele>
        <time>2012-12-20T12:33:24+01:00</time>
      </trkpt>
      <trkpt lat="42.97641821738" lon="-5.77743572834">
        <ele>1507.48</ele>
        <time>2012-12-20T12:33:26+01:00</time>
      </trkpt>
      <trkpt lat="42.97639819245" lon="-5.77746574646">
        <ele>1507.84</ele>
        <time>2012-12-20T12:33:28+01:00</time>
      </trkpt>
      <trkpt lat="42.97637782101" lon="-5.7774917566">
        <ele>1508.09</ele>
        <time>2012-12-20T12:33:30+01:00</time>
      </trkpt>
      <trkpt lat="42.97635779212" lon="-5.77751804487">
        <ele>1508.36</ele>
        <time>2012-12-20T12:33:32+01:00</time>
      </trkpt>
      <trkpt lat="42.97633749572" lon="-5.7775426259">
        <ele>1508.61</ele>
        <time>2012-12-20T12:33:34+01:00</time>
      </trkpt>
      <trkpt lat="42.97631634277" lon="-5.77757118525">
        <ele>1508.86</ele>
        <time>2012-12-20T12:33:36+01:00</time>
      </trkpt>
      <trkpt lat="42.9762947647" lon="-5.77759901088">
        <ele>1509.12</ele>
        <time>2012-12-20T12:33:38+01:00</time>
      </trkpt>
      <trkpt lat="42.97626873104" lon="-5.77759583391">
        <ele>1507.84</ele>
        <time>2012-12-20T12:33:41+01:00</time>
      </trkpt>
      <trkpt lat="42.97624904963" lon="-5.7776024582">
        <ele>1508.14</ele>
        <time>2012-12-20T12:33:44+01:00</time>
      </trkpt>
      <trkpt lat="42.97623404924" lon="-5.77763094042">
        <ele>1507.8</ele>
        <time>2012-12-20T12:33:46+01:00</time>
      </trkpt>
      <trkpt lat="42.97621753753" lon="-5.77766386129">
        <ele>1507.59</ele>
        <time>2012-12-20T12:33:48+01:00</time>
      </trkpt>
      <trkpt lat="42.97620008654" lon="-5.77770189436">
        <ele>1507.36</ele>
        <time>2012-12-20T12:33:51+01:00</time>
      </trkpt>
      <trkpt lat="42.9761858675" lon="-5.77773431141">
        <ele>1506.81</ele>
        <time>2012-12-20T12:33:53+01:00</time>
      </trkpt>
      <trkpt lat="42.97617836948" lon="-5.77775428916">
        <ele>1506.13</ele>
        <time>2012-12-20T12:33:55+01:00</time>
      </trkpt>
      <trkpt lat="42.97615795418" lon="-5.77779890394">
        <ele>1505.9</ele>
        <time>2012-12-20T12:33:58+01:00</time>
      </trkpt>
      <trkpt lat="42.97613616854" lon="-5.77781929334">
        <ele>1505.29</ele>
        <time>2012-12-20T12:34:01+01:00</time>
      </trkpt>
      <trkpt lat="42.97612290509" lon="-5.77783831245">
        <ele>1504.96</ele>
        <time>2012-12-20T12:34:02+01:00</time>
      </trkpt>
      <trkpt lat="42.97608946203" lon="-5.77787297376">
        <ele>1504.7</ele>
        <time>2012-12-20T12:34:04+01:00</time>
      </trkpt>
      <trkpt lat="42.97607305041" lon="-5.77790605756">
        <ele>1504.3</ele>
        <time>2012-12-20T12:34:06+01:00</time>
      </trkpt>
      <trkpt lat="42.97605176376" lon="-5.77794667132">
        <ele>1504.05</ele>
        <time>2012-12-20T12:34:07+01:00</time>
      </trkpt>
      <trkpt lat="42.97602782572" lon="-5.77798932751">
        <ele>1504.14</ele>
        <time>2012-12-20T12:34:09+01:00</time>
      </trkpt>
      <trkpt lat="42.97601338216" lon="-5.77802065752">
        <ele>1504.17</ele>
        <time>2012-12-20T12:34:10+01:00</time>
      </trkpt>
      <trkpt lat="42.97599020924" lon="-5.77804864942">
        <ele>1504.09</ele>
        <time>2012-12-20T12:34:13+01:00</time>
      </trkpt>
      <trkpt lat="42.97596706741" lon="-5.77809360922">
        <ele>1504.1</ele>
        <time>2012-12-20T12:34:14+01:00</time>
      </trkpt>
      <trkpt lat="42.97595426309" lon="-5.77811138295">
        <ele>1503.9</ele>
        <time>2012-12-20T12:34:18+01:00</time>
      </trkpt>
      <trkpt lat="42.97593738354" lon="-5.77813363895">
        <ele>1503.78</ele>
        <time>2012-12-20T12:34:19+01:00</time>
      </trkpt>
      <trkpt lat="42.97590617733" lon="-5.77818000928">
        <ele>1503.95</ele>
        <time>2012-12-20T12:34:21+01:00</time>
      </trkpt>
      <trkpt lat="42.97589393656" lon="-5.77821120274">
        <ele>1504</ele>
        <time>2012-12-20T12:34:23+01:00</time>
      </trkpt>
      <trkpt lat="42.97587943427" lon="-5.77824071343">
        <ele>1504.21</ele>
        <time>2012-12-20T12:34:25+01:00</time>
      </trkpt>
      <trkpt lat="42.97586717494" lon="-5.77827214876">
        <ele>1504.39</ele>
        <time>2012-12-20T12:34:25+01:00</time>
      </trkpt>
      <trkpt lat="42.97583802204" lon="-5.77833860304">
        <ele>1505.35</ele>
        <time>2012-12-20T12:34:28+01:00</time>
      </trkpt>
      <trkpt lat="42.97581200784" lon="-5.77838374513">
        <ele>1505.81</ele>
        <time>2012-12-20T12:34:29+01:00</time>
      </trkpt>
      <trkpt lat="42.9757859173" lon="-5.77840477643">
        <ele>1506.15</ele>
        <time>2012-12-20T12:34:31+01:00</time>
      </trkpt>
      <trkpt lat="42.97576792517" lon="-5.77842883104">
        <ele>1506.51</ele>
        <time>2012-12-20T12:34:33+01:00</time>
      </trkpt>
      <trkpt lat="42.97574823349" lon="-5.77845033871">
        <ele>1507.13</ele>
        <time>2012-12-20T12:34:36+01:00</time>
      </trkpt>
      <trkpt lat="42.9757275984" lon="-5.77848199878">
        <ele>1507.53</ele>
        <time>2012-12-20T12:34:38+01:00</time>
      </trkpt>
      <trkpt lat="42.97570610408" lon="-5.77851454939">
        <ele>1508.08</ele>
        <time>2012-12-20T12:34:39+01:00</time>
      </trkpt>
      <trkpt lat="42.97568111868" lon="-5.7785492227">
        <ele>1508.75</ele>
        <time>2012-12-20T12:34:41+01:00</time>
      </trkpt>
      <trkpt lat="42.97565580386" lon="-5.77855769964">
        <ele>1509.37</ele>
        <time>2012-12-20T12:34:43+01:00</time>
      </trkpt>
      <trkpt lat="42.97563083384" lon="-5.77857854167">
        <ele>1509.82</ele>
        <time>2012-12-20T12:34:46+01:00</time>
      </trkpt>
      <trkpt lat="42.97560564787" lon="-5.77860030969">
        <ele>1511.58</ele>
        <time>2012-12-20T12:34:47+01:00</time>
      </trkpt>
      <trkpt lat="42.97557678411" lon="-5.77861667394">
        <ele>1511.72</ele>
        <time>2012-12-20T12:34:50+01:00</time>
      </trkpt>
      <trkpt lat="42.97555135261" lon="-5.7786195367">
        <ele>1512.37</ele>
        <time>2012-12-20T12:34:51+01:00</time>
      </trkpt>
      <trkpt lat="42.97552004772" lon="-5.77862064569">
        <ele>1513.49</ele>
        <time>2012-12-20T12:34:53+01:00</time>
      </trkpt>
      <trkpt lat="42.97548951275" lon="-5.77863092578">
        <ele>1514.41</ele>
        <time>2012-12-20T12:34:55+01:00</time>
      </trkpt>
      <trkpt lat="42.97546620609" lon="-5.77866624119">
        <ele>1515.14</ele>
        <time>2012-12-20T12:34:57+01:00</time>
      </trkpt>
      <trkpt lat="42.97545034653" lon="-5.77870522255">
        <ele>1517.16</ele>
        <time>2012-12-20T12:34:59+01:00</time>
      </trkpt>
      <trkpt lat="42.97544026794" lon="-5.7787421208">
        <ele>1516.42</ele>
        <time>2012-12-20T12:35:01+01:00</time>
      </trkpt>
      <trkpt lat="42.97542769102" lon="-5.77877813303">
        <ele>1517</ele>
        <time>2012-12-20T12:35:03+01:00</time>
      </trkpt>
      <trkpt lat="42.97540238095" lon="-5.77881241246">
        <ele>1517.69</ele>
        <time>2012-12-20T12:35:06+01:00</time>
      </trkpt>
      <trkpt lat="42.97538400438" lon="-5.77883906296">
        <ele>1517.74</ele>
        <time>2012-12-20T12:35:08+01:00</time>
      </trkpt>
      <trkpt lat="42.97536668333" lon="-5.77887483613">
        <ele>1517.87</ele>
        <time>2012-12-20T12:35:10+01:00</time>
      </trkpt>
      <trkpt lat="42.97534337077" lon="-5.77890458838">
        <ele>1517.92</ele>
        <time>2012-12-20T12:35:13+01:00</time>
      </trkpt>
      <trkpt lat="42.97531815583" lon="-5.77891871957">
        <ele>1517.96</ele>
        <time>2012-12-20T12:35:16+01:00</time>
      </trkpt>
      <trkpt lat="42.97530578387" lon="-5.77894378765">
        <ele>1518.38</ele>
        <time>2012-12-20T12:35:18+01:00</time>
      </trkpt>
      <trkpt lat="42.97527727848" lon="-5.77899690035">
        <ele>1518.88</ele>
        <time>2012-12-20T12:35:20+01:00</time>
      </trkpt>
      <trkpt lat="42.97525414304" lon="-5.77904158695">
        <ele>1519.21</ele>
        <time>2012-12-20T12:35:22+01:00</time>
      </trkpt>
      <trkpt lat="42.97523120988" lon="-5.77907976034">
        <ele>1519.51</ele>
        <time>2012-12-20T12:35:24+01:00</time>
      </trkpt>
      <trkpt lat="42.97520788131" lon="-5.7791166311">
        <ele>1520.05</ele>
        <time>2012-12-20T12:35:26+01:00</time>
      </trkpt>
      <trkpt lat="42.97517488476" lon="-5.77916249495">
        <ele>1520.81</ele>
        <time>2012-12-20T12:35:29+01:00</time>
      </trkpt>
      <trkpt lat="42.97515088462" lon="-5.77919473472">
        <ele>1521.52</ele>
        <time>2012-12-20T12:35:31+01:00</time>
      </trkpt>
      <trkpt lat="42.97513133245" lon="-5.77922062869">
        <ele>1521.83</ele>
        <time>2012-12-20T12:35:33+01:00</time>
      </trkpt>
      <trkpt lat="42.97510760719" lon="-5.77921561509">
        <ele>1521.43</ele>
        <time>2012-12-20T12:35:36+01:00</time>
      </trkpt>
      <trkpt lat="42.97508291321" lon="-5.77921025378">
        <ele>1521.84</ele>
        <time>2012-12-20T12:35:39+01:00</time>
      </trkpt>
      <trkpt lat="42.97506372518" lon="-5.77923841759">
        <ele>1522.07</ele>
        <time>2012-12-20T12:35:41+01:00</time>
      </trkpt>
      <trkpt lat="42.97505227422" lon="-5.77926163554">
        <ele>1521.94</ele>
        <time>2012-12-20T12:35:43+01:00</time>
      </trkpt>
      <trkpt lat="42.97503699337" lon="-5.77928703275">
        <ele>1521.94</ele>
        <time>2012-12-20T12:35:45+01:00</time>
      </trkpt>
      <trkpt lat="42.97502053099" lon="-5.77931758481">
        <ele>1522.11</ele>
        <time>2012-12-20T12:35:47+01:00</time>
      </trkpt>
      <trkpt lat="42.97500255584" lon="-5.77935176203">
        <ele>1522.2</ele>
        <time>2012-12-20T12:35:49+01:00</time>
      </trkpt>
      <trkpt lat="42.97499798392" lon="-5.77935854927">
        <ele>1522.46</ele>
        <time>2012-12-20T12:35:51+01:00</time>
      </trkpt>
      <trkpt lat="42.97496387348" lon="-5.77940292203">
        <ele>1522.6</ele>
        <time>2012-12-20T12:35:53+01:00</time>
      </trkpt>
      <trkpt lat="42.97493388918" lon="-5.77943638206">
        <ele>1522.74</ele>
        <time>2012-12-20T12:35:55+01:00</time>
      </trkpt>
      <trkpt lat="42.97490741382" lon="-5.77946782232">
        <ele>1522.94</ele>
        <time>2012-12-20T12:35:57+01:00</time>
      </trkpt>
      <trkpt lat="42.97488212715" lon="-5.77949666013">
        <ele>1523.12</ele>
        <time>2012-12-20T12:35:59+01:00</time>
      </trkpt>
      <trkpt lat="42.97485890167" lon="-5.77952134686">
        <ele>1523.79</ele>
        <time>2012-12-20T12:36:01+01:00</time>
      </trkpt>
      <trkpt lat="42.97483601526" lon="-5.77954747846">
        <ele>1523.67</ele>
        <time>2012-12-20T12:36:03+01:00</time>
      </trkpt>
      <trkpt lat="42.97481336127" lon="-5.77957579932">
        <ele>1524.68</ele>
        <time>2012-12-20T12:36:05+01:00</time>
      </trkpt>
      <trkpt lat="42.97477834015" lon="-5.7796317154">
        <ele>1525.36</ele>
        <time>2012-12-20T12:36:07+01:00</time>
      </trkpt>
      <trkpt lat="42.974751387" lon="-5.7796715312">
        <ele>1526.09</ele>
        <time>2012-12-20T12:36:09+01:00</time>
      </trkpt>
      <trkpt lat="42.97472581275" lon="-5.77969116197">
        <ele>1526.74</ele>
        <time>2012-12-20T12:36:11+01:00</time>
      </trkpt>
      <trkpt lat="42.97471044125" lon="-5.77969998606">
        <ele>1526.53</ele>
        <time>2012-12-20T12:36:13+01:00</time>
      </trkpt>
      <trkpt lat="42.97470682958" lon="-5.77970288013">
        <ele>1526.85</ele>
        <time>2012-12-20T12:36:15+01:00</time>
      </trkpt>
      <trkpt lat="42.97468070737" lon="-5.77973664864">
        <ele>1528.38</ele>
        <time>2012-12-20T12:36:17+01:00</time>
      </trkpt>
      <trkpt lat="42.97465742035" lon="-5.7797808998">
        <ele>1529.5</ele>
        <time>2012-12-20T12:36:19+01:00</time>
      </trkpt>
      <trkpt lat="42.97464210975" lon="-5.77982666236">
        <ele>1530.04</ele>
        <time>2012-12-20T12:36:21+01:00</time>
      </trkpt>
      <trkpt lat="42.97462154643" lon="-5.77989150265">
        <ele>1531.03</ele>
        <time>2012-12-20T12:36:22+01:00</time>
      </trkpt>
      <trkpt lat="42.97461076177" lon="-5.77993156101">
        <ele>1531.9</ele>
        <time>2012-12-20T12:36:24+01:00</time>
      </trkpt>
      <trkpt lat="42.97459670253" lon="-5.77996947932">
        <ele>1533.04</ele>
        <time>2012-12-20T12:36:26+01:00</time>
      </trkpt>
      <trkpt lat="42.97457910501" lon="-5.77999369268">
        <ele>1534.08</ele>
        <time>2012-12-20T12:36:28+01:00</time>
      </trkpt>
      <trkpt lat="42.97455851995" lon="-5.78001630498">
        <ele>1534.34</ele>
        <time>2012-12-20T12:36:32+01:00</time>
      </trkpt>
      <trkpt lat="42.97454535048" lon="-5.779998431">
        <ele>1534.53</ele>
        <time>2012-12-20T12:36:34+01:00</time>
      </trkpt>
      <trkpt lat="42.97453061312" lon="-5.78001805731">
        <ele>1535.65</ele>
        <time>2012-12-20T12:36:36+01:00</time>
      </trkpt>
      <trkpt lat="42.97450764966" lon="-5.78003686883">
        <ele>1536.25</ele>
        <time>2012-12-20T12:36:39+01:00</time>
      </trkpt>
      <trkpt lat="42.97448468384" lon="-5.78007650568">
        <ele>1537.6</ele>
        <time>2012-12-20T12:36:42+01:00</time>
      </trkpt>
      <trkpt lat="42.97447398865" lon="-5.78010971287">
        <ele>1538.68</ele>
        <time>2012-12-20T12:36:43+01:00</time>
      </trkpt>
      <trkpt lat="42.97446808361" lon="-5.78013062758">
        <ele>1539.87</ele>
        <time>2012-12-20T12:36:44+01:00</time>
      </trkpt>
      <trkpt lat="42.97445417302" lon="-5.78017719892">
        <ele>1540.82</ele>
        <time>2012-12-20T12:36:45+01:00</time>
      </trkpt>
      <trkpt lat="42.97444317219" lon="-5.78019102505">
        <ele>1541.6</ele>
        <time>2012-12-20T12:36:47+01:00</time>
      </trkpt>
      <trkpt lat="42.97440882349" lon="-5.78022736578">
        <ele>1542.79</ele>
        <time>2012-12-20T12:36:50+01:00</time>
      </trkpt>
      <trkpt lat="42.97438096546" lon="-5.78027459884">
        <ele>1544.06</ele>
        <time>2012-12-20T12:36:53+01:00</time>
      </trkpt>
      <trkpt lat="42.97435983704" lon="-5.78031502496">
        <ele>1545.63</ele>
        <time>2012-12-20T12:36:55+01:00</time>
      </trkpt>
      <trkpt lat="42.97434126154" lon="-5.78034664657">
        <ele>1546.8</ele>
        <time>2012-12-20T12:36:57+01:00</time>
      </trkpt>
      <trkpt lat="42.97433005479" lon="-5.78036669253">
        <ele>1548.13</ele>
        <time>2012-12-20T12:36:59+01:00</time>
      </trkpt>
      <trkpt lat="42.97430707484" lon="-5.78040552807">
        <ele>1549.52</ele>
        <time>2012-12-20T12:37:01+01:00</time>
      </trkpt>
      <trkpt lat="42.97428256345" lon="-5.78041510567">
        <ele>1550.44</ele>
        <time>2012-12-20T12:37:04+01:00</time>
      </trkpt>
      <trkpt lat="42.97425741049" lon="-5.78041688708">
        <ele>1551.81</ele>
        <time>2012-12-20T12:37:07+01:00</time>
      </trkpt>
      <trkpt lat="42.97424380995" lon="-5.78043584331">
        <ele>1551.56</ele>
        <time>2012-12-20T12:37:10+01:00</time>
      </trkpt>
      <trkpt lat="42.97422902591" lon="-5.78046661146">
        <ele>1552.38</ele>
        <time>2012-12-20T12:37:12+01:00</time>
      </trkpt>
      <trkpt lat="42.97421656285" lon="-5.78049821451">
        <ele>1553.2</ele>
        <time>2012-12-20T12:37:14+01:00</time>
      </trkpt>
      <trkpt lat="42.97420000062" lon="-5.78052390669">
        <ele>1553.84</ele>
        <time>2012-12-20T12:37:16+01:00</time>
      </trkpt>
      <trkpt lat="42.97418302328" lon="-5.78054806835">
        <ele>1554.48</ele>
        <time>2012-12-20T12:37:18+01:00</time>
      </trkpt>
      <trkpt lat="42.97416407818" lon="-5.78057737398">
        <ele>1555.12</ele>
        <time>2012-12-20T12:37:21+01:00</time>
      </trkpt>
      <trkpt lat="42.97414115268" lon="-5.78061260438">
        <ele>1555.94</ele>
        <time>2012-12-20T12:37:24+01:00</time>
      </trkpt>
      <trkpt lat="42.97412419978" lon="-5.78064363062">
        <ele>1556.72</ele>
        <time>2012-12-20T12:37:25+01:00</time>
      </trkpt>
      <trkpt lat="42.97411088279" lon="-5.78067418925">
        <ele>1557.5</ele>
        <time>2012-12-20T12:37:26+01:00</time>
      </trkpt>
      <trkpt lat="42.97410777831" lon="-5.78068186355">
        <ele>1558.28</ele>
        <time>2012-12-20T12:37:28+01:00</time>
      </trkpt>
      <trkpt lat="42.97408546819" lon="-5.78070487275">
        <ele>1561.1</ele>
        <time>2012-12-20T12:37:30+01:00</time>
      </trkpt>
      <trkpt lat="42.97406098591" lon="-5.78072999794">
        <ele>1560.64</ele>
        <time>2012-12-20T12:37:33+01:00</time>
      </trkpt>
      <trkpt lat="42.97403457935" lon="-5.78075002043">
        <ele>1561.43</ele>
        <time>2012-12-20T12:37:36+01:00</time>
      </trkpt>
      <trkpt lat="42.97400700111" lon="-5.78075315851">
        <ele>1562.4</ele>
        <time>2012-12-20T12:37:40+01:00</time>
      </trkpt>
      <trkpt lat="42.973981163" lon="-5.78075409891">
        <ele>1563.4</ele>
        <time>2012-12-20T12:37:41+01:00</time>
      </trkpt>
      <trkpt lat="42.97395544059" lon="-5.7807681897">
        <ele>1564.17</ele>
        <time>2012-12-20T12:37:43+01:00</time>
      </trkpt>
      <trkpt lat="42.97392927311" lon="-5.78077527701">
        <ele>1564.84</ele>
        <time>2012-12-20T12:37:45+01:00</time>
      </trkpt>
      <trkpt lat="42.97390889712" lon="-5.78080291863">
        <ele>1568.84</ele>
        <time>2012-12-20T12:37:46+01:00</time>
      </trkpt>
      <trkpt lat="42.97387190978" lon="-5.78085775488">
        <ele>1570.85</ele>
        <time>2012-12-20T12:37:48+01:00</time>
      </trkpt>
      <trkpt lat="42.97384509983" lon="-5.78090640717">
        <ele>1572.71</ele>
        <time>2012-12-20T12:37:50+01:00</time>
      </trkpt>
      <trkpt lat="42.97383219413" lon="-5.78094242327">
        <ele>1574.69</ele>
        <time>2012-12-20T12:37:51+01:00</time>
      </trkpt>
      <trkpt lat="42.97382136519" lon="-5.78097436987">
        <ele>1577.06</ele>
        <time>2012-12-20T12:37:53+01:00</time>
      </trkpt>
      <trkpt lat="42.97381185686" lon="-5.78100436263">
        <ele>1579.02</ele>
        <time>2012-12-20T12:37:53+01:00</time>
      </trkpt>
      <trkpt lat="42.97379473366" lon="-5.78102712499">
        <ele>1580.67</ele>
        <time>2012-12-20T12:37:55+01:00</time>
      </trkpt>
      <trkpt lat="42.97377464579" lon="-5.78102101568">
        <ele>1582.52</ele>
        <time>2012-12-20T12:37:58+01:00</time>
      </trkpt>
      <trkpt lat="42.97375510493" lon="-5.78104976751">
        <ele>1584.7</ele>
        <time>2012-12-20T12:38:00+01:00</time>
      </trkpt>
      <trkpt lat="42.97374408891" lon="-5.78108428456">
        <ele>1586.63</ele>
        <time>2012-12-20T12:38:00+01:00</time>
      </trkpt>
      <trkpt lat="42.97373538135" lon="-5.78111485847">
        <ele>1588.27</ele>
        <time>2012-12-20T12:38:02+01:00</time>
      </trkpt>
      <trkpt lat="42.9737178148" lon="-5.78116978945">
        <ele>1590.18</ele>
        <time>2012-12-20T12:38:03+01:00</time>
      </trkpt>
      <trkpt lat="42.97369904643" lon="-5.78121443737">
        <ele>1592.17</ele>
        <time>2012-12-20T12:38:05+01:00</time>
      </trkpt>
      <trkpt lat="42.97367876364" lon="-5.78124904911">
        <ele>1593.86</ele>
        <time>2012-12-20T12:38:07+01:00</time>
      </trkpt>
      <trkpt lat="42.97366018963" lon="-5.78128742036">
        <ele>1595.54</ele>
        <time>2012-12-20T12:38:09+01:00</time>
      </trkpt>
      <trkpt lat="42.97364135387" lon="-5.78132567179">
        <ele>1597.29</ele>
        <time>2012-12-20T12:38:12+01:00</time>
      </trkpt>
      <trkpt lat="42.9736212923" lon="-5.78134659901">
        <ele>1598.82</ele>
        <time>2012-12-20T12:38:13+01:00</time>
      </trkpt>
      <trkpt lat="42.97359826983" lon="-5.78137069986">
        <ele>1600.27</ele>
        <time>2012-12-20T12:38:15+01:00</time>
      </trkpt>
      <trkpt lat="42.97357767266" lon="-5.78141970942">
        <ele>1602.02</ele>
        <time>2012-12-20T12:38:17+01:00</time>
      </trkpt>
      <trkpt lat="42.97356470194" lon="-5.78145707103">
        <ele>1602.97</ele>
        <time>2012-12-20T12:38:19+01:00</time>
      </trkpt>
      <trkpt lat="42.97355513405" lon="-5.78150497765">
        <ele>1604.18</ele>
        <time>2012-12-20T12:38:21+01:00</time>
      </trkpt>
      <trkpt lat="42.97354594498" lon="-5.78154325861">
        <ele>1605.52</ele>
        <time>2012-12-20T12:38:23+01:00</time>
      </trkpt>
      <trkpt lat="42.97352660576" lon="-5.78158263193">
        <ele>1606.57</ele>
        <time>2012-12-20T12:38:25+01:00</time>
      </trkpt>
      <trkpt lat="42.97351408779" lon="-5.78161343948">
        <ele>1607.7</ele>
        <time>2012-12-20T12:38:27+01:00</time>
      </trkpt>
      <trkpt lat="42.97349401572" lon="-5.78165735308">
        <ele>1611.23</ele>
        <time>2012-12-20T12:38:29+01:00</time>
      </trkpt>
      <trkpt lat="42.97347045471" lon="-5.78169456721">
        <ele>1612.93</ele>
        <time>2012-12-20T12:38:30+01:00</time>
      </trkpt>
      <trkpt lat="42.97344324548" lon="-5.78172273011">
        <ele>1614.84</ele>
        <time>2012-12-20T12:38:32+01:00</time>
      </trkpt>
      <trkpt lat="42.97341802235" lon="-5.78174653465">
        <ele>1616.83</ele>
        <time>2012-12-20T12:38:34+01:00</time>
      </trkpt>
      <trkpt lat="42.97339356523" lon="-5.7817710098">
        <ele>1619.01</ele>
        <time>2012-12-20T12:38:36+01:00</time>
      </trkpt>
      <trkpt lat="42.97337036773" lon="-5.78179454618">
        <ele>1620.81</ele>
        <time>2012-12-20T12:38:38+01:00</time>
      </trkpt>
      <trkpt lat="42.9733428189" lon="-5.78182594311">
        <ele>1623.04</ele>
        <time>2012-12-20T12:38:40+01:00</time>
      </trkpt>
      <trkpt lat="42.97332158192" lon="-5.78186385932">
        <ele>1625.12</ele>
        <time>2012-12-20T12:38:42+01:00</time>
      </trkpt>
      <trkpt lat="42.97331590557" lon="-5.78190075726">
        <ele>1627.13</ele>
        <time>2012-12-20T12:38:43+01:00</time>
      </trkpt>
      <trkpt lat="42.97329616248" lon="-5.78192302311">
        <ele>1628.28</ele>
        <time>2012-12-20T12:38:46+01:00</time>
      </trkpt>
      <trkpt lat="42.97327816579" lon="-5.78194833046">
        <ele>1629.97</ele>
        <time>2012-12-20T12:38:47+01:00</time>
      </trkpt>
      <trkpt lat="42.97325327642" lon="-5.78195513536">
        <ele>1630.98</ele>
        <time>2012-12-20T12:38:50+01:00</time>
      </trkpt>
      <trkpt lat="42.97322935544" lon="-5.78195830683">
        <ele>1631.83</ele>
        <time>2012-12-20T12:38:54+01:00</time>
      </trkpt>
      <trkpt lat="42.97320267771" lon="-5.78195880702">
        <ele>1633.06</ele>
        <time>2012-12-20T12:38:57+01:00</time>
      </trkpt>
      <trkpt lat="42.97318279119" lon="-5.78198090117">
        <ele>1634.47</ele>
        <time>2012-12-20T12:38:59+01:00</time>
      </trkpt>
      <trkpt lat="42.97316392762" lon="-5.78201683595">
        <ele>1635.61</ele>
        <time>2012-12-20T12:39:02+01:00</time>
      </trkpt>
      <trkpt lat="42.97313906604" lon="-5.78206345138">
        <ele>1635.77</ele>
        <time>2012-12-20T12:39:04+01:00</time>
      </trkpt>
      <trkpt lat="42.97312128617" lon="-5.7820936957">
        <ele>1636.55</ele>
        <time>2012-12-20T12:39:07+01:00</time>
      </trkpt>
      <trkpt lat="42.97309436145" lon="-5.78211308855">
        <ele>1637.34</ele>
        <time>2012-12-20T12:39:09+01:00</time>
      </trkpt>
      <trkpt lat="42.9730638308" lon="-5.78211871056">
        <ele>1639.23</ele>
        <time>2012-12-20T12:39:12+01:00</time>
      </trkpt>
      <trkpt lat="42.97303392007" lon="-5.78218963945">
        <ele>1640.91</ele>
        <time>2012-12-20T12:39:14+01:00</time>
      </trkpt>
      <trkpt lat="42.97301352104" lon="-5.78222561818">
        <ele>1642.12</ele>
        <time>2012-12-20T12:39:16+01:00</time>
      </trkpt>
      <trkpt lat="42.97299485673" lon="-5.78227458933">
        <ele>1642.21</ele>
        <time>2012-12-20T12:39:19+01:00</time>
      </trkpt>
      <trkpt lat="42.97298498831" lon="-5.78230919399">
        <ele>1643.41</ele>
        <time>2012-12-20T12:39:19+01:00</time>
      </trkpt>
      <trkpt lat="42.97296769251" lon="-5.7823324764">
        <ele>1644.16</ele>
        <time>2012-12-20T12:39:21+01:00</time>
      </trkpt>
      <trkpt lat="42.97294602786" lon="-5.78235745061">
        <ele>1645.07</ele>
        <time>2012-12-20T12:39:24+01:00</time>
      </trkpt>
      <trkpt lat="42.97293291069" lon="-5.78239007221">
        <ele>1646</ele>
        <time>2012-12-20T12:39:25+01:00</time>
      </trkpt>
      <trkpt lat="42.97291261821" lon="-5.78241899297">
        <ele>1646.97</ele>
        <time>2012-12-20T12:39:27+01:00</time>
      </trkpt>
      <trkpt lat="42.97289176238" lon="-5.78245193449">
        <ele>1647.84</ele>
        <time>2012-12-20T12:39:29+01:00</time>
      </trkpt>
      <trkpt lat="42.97287059271" lon="-5.78247897464">
        <ele>1650.34</ele>
        <time>2012-12-20T12:39:31+01:00</time>
      </trkpt>
      <trkpt lat="42.97284282239" lon="-5.78250557212">
        <ele>1651.44</ele>
        <time>2012-12-20T12:39:34+01:00</time>
      </trkpt>
      <trkpt lat="42.97281480483" lon="-5.78250324732">
        <ele>1652.95</ele>
        <time>2012-12-20T12:39:37+01:00</time>
      </trkpt>
      <trkpt lat="42.9727910964" lon="-5.78250566574">
        <ele>1654.17</ele>
        <time>2012-12-20T12:39:39+01:00</time>
      </trkpt>
      <trkpt lat="42.97276607051" lon="-5.78251795114">
        <ele>1655.53</ele>
        <time>2012-12-20T12:39:41+01:00</time>
      </trkpt>
      <trkpt lat="42.97274138463" lon="-5.78253710497">
        <ele>1656.92</ele>
        <time>2012-12-20T12:39:44+01:00</time>
      </trkpt>
      <trkpt lat="42.97271485567" lon="-5.78252638475">
        <ele>1657.22</ele>
        <time>2012-12-20T12:39:45+01:00</time>
      </trkpt>
      <trkpt lat="42.97268768987" lon="-5.78250238071">
        <ele>1657.26</ele>
        <time>2012-12-20T12:39:48+01:00</time>
      </trkpt>
      <trkpt lat="42.97265935735" lon="-5.78249060615">
        <ele>1658</ele>
        <time>2012-12-20T12:39:51+01:00</time>
      </trkpt>
      <trkpt lat="42.97263575358" lon="-5.78250581971">
        <ele>1658.66</ele>
        <time>2012-12-20T12:39:53+01:00</time>
      </trkpt>
      <trkpt lat="42.97261426902" lon="-5.78254782151">
        <ele>1660.35</ele>
        <time>2012-12-20T12:39:56+01:00</time>
      </trkpt>
      <trkpt lat="42.97259441529" lon="-5.78260027715">
        <ele>1661.27</ele>
        <time>2012-12-20T12:39:58+01:00</time>
      </trkpt>
      <trkpt lat="42.97257391543" lon="-5.78264255246">
        <ele>1662.33</ele>
        <time>2012-12-20T12:39:59+01:00</time>
      </trkpt>
      <trkpt lat="42.97255134175" lon="-5.78267474507">
        <ele>1663.09</ele>
        <time>2012-12-20T12:40:01+01:00</time>
      </trkpt>
      <trkpt lat="42.97252922501" lon="-5.78271410771">
        <ele>1664.22</ele>
        <time>2012-12-20T12:40:03+01:00</time>
      </trkpt>
      <trkpt lat="42.97250753495" lon="-5.78275906177">
        <ele>1665.53</ele>
        <time>2012-12-20T12:40:06+01:00</time>
      </trkpt>
      <trkpt lat="42.97248683546" lon="-5.78280285425">
        <ele>1666.82</ele>
        <time>2012-12-20T12:40:07+01:00</time>
      </trkpt>
      <trkpt lat="42.97246516062" lon="-5.78284654852">
        <ele>1667.97</ele>
        <time>2012-12-20T12:40:10+01:00</time>
      </trkpt>
      <trkpt lat="42.97244007206" lon="-5.78287855553">
        <ele>1669.01</ele>
        <time>2012-12-20T12:40:11+01:00</time>
      </trkpt>
      <trkpt lat="42.97241470308" lon="-5.78290265952">
        <ele>1670.09</ele>
        <time>2012-12-20T12:40:13+01:00</time>
      </trkpt>
      <trkpt lat="42.97238558999" lon="-5.78293141903">
        <ele>1671.17</ele>
        <time>2012-12-20T12:40:16+01:00</time>
      </trkpt>
      <trkpt lat="42.97237507351" lon="-5.78296191431">
        <ele>1672.28</ele>
        <time>2012-12-20T12:40:17+01:00</time>
      </trkpt>
      <trkpt lat="42.97235627346" lon="-5.78299215324">
        <ele>1673.49</ele>
        <time>2012-12-20T12:40:20+01:00</time>
      </trkpt>
      <trkpt lat="42.97233789541" lon="-5.78304165282">
        <ele>1674.63</ele>
        <time>2012-12-20T12:40:21+01:00</time>
      </trkpt>
      <trkpt lat="42.97232694431" lon="-5.78307488795">
        <ele>1676.16</ele>
        <time>2012-12-20T12:40:23+01:00</time>
      </trkpt>
      <trkpt lat="42.97232012728" lon="-5.78311077106">
        <ele>1677.33</ele>
        <time>2012-12-20T12:40:23+01:00</time>
      </trkpt>
      <trkpt lat="42.9723014301" lon="-5.78313417504">
        <ele>1678.18</ele>
        <time>2012-12-20T12:40:25+01:00</time>
      </trkpt>
      <trkpt lat="42.97227898225" lon="-5.78316540971">
        <ele>1679.33</ele>
        <time>2012-12-20T12:40:28+01:00</time>
      </trkpt>
      <trkpt lat="42.97226627842" lon="-5.78319955162">
        <ele>1680.4</ele>
        <time>2012-12-20T12:40:28+01:00</time>
      </trkpt>
      <trkpt lat="42.97224653799" lon="-5.78323306798">
        <ele>1681.83</ele>
        <time>2012-12-20T12:40:30+01:00</time>
      </trkpt>
      <trkpt lat="42.97222780422" lon="-5.78327182365">
        <ele>1682.93</ele>
        <time>2012-12-20T12:40:32+01:00</time>
      </trkpt>
      <trkpt lat="42.97220518247" lon="-5.78331011503">
        <ele>1684.02</ele>
        <time>2012-12-20T12:40:35+01:00</time>
      </trkpt>
      <trkpt lat="42.97218996176" lon="-5.7833391338">
        <ele>1685.29</ele>
        <time>2012-12-20T12:40:36+01:00</time>
      </trkpt>
      <trkpt lat="42.97216921504" lon="-5.78336337774">
        <ele>1686.31</ele>
        <time>2012-12-20T12:40:38+01:00</time>
      </trkpt>
      <trkpt lat="42.97216208174" lon="-5.78341342175">
        <ele>1688.35</ele>
        <time>2012-12-20T12:40:40+01:00</time>
      </trkpt>
      <trkpt lat="42.97214406917" lon="-5.78344851979">
        <ele>1689.15</ele>
        <time>2012-12-20T12:40:43+01:00</time>
      </trkpt>
      <trkpt lat="42.97212962698" lon="-5.78347919931">
        <ele>1690.28</ele>
        <time>2012-12-20T12:40:44+01:00</time>
      </trkpt>
      <trkpt lat="42.97210978132" lon="-5.78351589987">
        <ele>1691.72</ele>
        <time>2012-12-20T12:40:46+01:00</time>
      </trkpt>
      <trkpt lat="42.97209029534" lon="-5.7835475571">
        <ele>1693.38</ele>
        <time>2012-12-20T12:40:48+01:00</time>
      </trkpt>
      <trkpt lat="42.97207706328" lon="-5.78357672378">
        <ele>1694.53</ele>
        <time>2012-12-20T12:40:50+01:00</time>
      </trkpt>
      <trkpt lat="42.9720564715" lon="-5.78360870859">
        <ele>1695.7</ele>
        <time>2012-12-20T12:40:53+01:00</time>
      </trkpt>
      <trkpt lat="42.97204156535" lon="-5.78363582568">
        <ele>1696.89</ele>
        <time>2012-12-20T12:40:54+01:00</time>
      </trkpt>
      <trkpt lat="42.9720228932" lon="-5.78366331027">
        <ele>1698.02</ele>
        <time>2012-12-20T12:40:57+01:00</time>
      </trkpt>
      <trkpt lat="42.97199880751" lon="-5.78369375173">
        <ele>1699.6</ele>
        <time>2012-12-20T12:40:58+01:00</time>
      </trkpt>
      <trkpt lat="42.97197149334" lon="-5.78372002364">
        <ele>1700.86</ele>
        <time>2012-12-20T12:41:00+01:00</time>
      </trkpt>
      <trkpt lat="42.97194437167" lon="-5.78373956079">
        <ele>1701.97</ele>
        <time>2012-12-20T12:41:03+01:00</time>
      </trkpt>
      <trkpt lat="42.97191551153" lon="-5.78376224368">
        <ele>1702.7</ele>
        <time>2012-12-20T12:41:05+01:00</time>
      </trkpt>
      <trkpt lat="42.9718891026" lon="-5.78378854517">
        <ele>1704.28</ele>
        <time>2012-12-20T12:41:07+01:00</time>
      </trkpt>
      <trkpt lat="42.97187029308" lon="-5.78381321247">
        <ele>1704.13</ele>
        <time>2012-12-20T12:41:10+01:00</time>
      </trkpt>
      <trkpt lat="42.97185057203" lon="-5.78384939366">
        <ele>1705.22</ele>
        <time>2012-12-20T12:41:11+01:00</time>
      </trkpt>
      <trkpt lat="42.97182969638" lon="-5.78389357733">
        <ele>1705.93</ele>
        <time>2012-12-20T12:41:14+01:00</time>
      </trkpt>
      <trkpt lat="42.97180832158" lon="-5.78393587462">
        <ele>1706.65</ele>
        <time>2012-12-20T12:41:15+01:00</time>
      </trkpt>
      <trkpt lat="42.97179177552" lon="-5.78397129028">
        <ele>1707.59</ele>
        <time>2012-12-20T12:41:17+01:00</time>
      </trkpt>
      <trkpt lat="42.97178206253" lon="-5.78400392145">
        <ele>1708.64</ele>
        <time>2012-12-20T12:41:19+01:00</time>
      </trkpt>
      <trkpt lat="42.97176989401" lon="-5.78403639806">
        <ele>1709.47</ele>
        <time>2012-12-20T12:41:21+01:00</time>
      </trkpt>
      <trkpt lat="42.97174825909" lon="-5.78407372927">
        <ele>1711.82</ele>
        <time>2012-12-20T12:41:24+01:00</time>
      </trkpt>
      <trkpt lat="42.97173228792" lon="-5.78409863938">
        <ele>1713.16</ele>
        <time>2012-12-20T12:41:26+01:00</time>
      </trkpt>
      <trkpt lat="42.97171481092" lon="-5.7841317846">
        <ele>1714.73</ele>
        <time>2012-12-20T12:41:29+01:00</time>
      </trkpt>
      <trkpt lat="42.97169485347" lon="-5.78416691212">
        <ele>1716.18</ele>
        <time>2012-12-20T12:41:30+01:00</time>
      </trkpt>
      <trkpt lat="42.97167335197" lon="-5.7842024258">
        <ele>1717.26</ele>
        <time>2012-12-20T12:41:32+01:00</time>
      </trkpt>
      <trkpt lat="42.9716537004" lon="-5.78423056967">
        <ele>1718.52</ele>
        <time>2012-12-20T12:41:35+01:00</time>
      </trkpt>
      <trkpt lat="42.97163710086" lon="-5.78426270975">
        <ele>1718.77</ele>
        <time>2012-12-20T12:41:36+01:00</time>
      </trkpt>
      <trkpt lat="42.97161822414" lon="-5.78428804735">
        <ele>1720.53</ele>
        <time>2012-12-20T12:41:38+01:00</time>
      </trkpt>
      <trkpt lat="42.97159262232" lon="-5.78432007106">
        <ele>1721.91</ele>
        <time>2012-12-20T12:41:40+01:00</time>
      </trkpt>
      <trkpt lat="42.97156226941" lon="-5.78434538131">
        <ele>1722.81</ele>
        <time>2012-12-20T12:41:42+01:00</time>
      </trkpt>
      <trkpt lat="42.97153852663" lon="-5.78437159959">
        <ele>1723.94</ele>
        <time>2012-12-20T12:41:44+01:00</time>
      </trkpt>
      <trkpt lat="42.97152528499" lon="-5.78439525367">
        <ele>1724.92</ele>
        <time>2012-12-20T12:41:46+01:00</time>
      </trkpt>
      <trkpt lat="42.97150208424" lon="-5.78441949756">
        <ele>1726.13</ele>
        <time>2012-12-20T12:41:48+01:00</time>
      </trkpt>
      <trkpt lat="42.97147879687" lon="-5.78445007299">
        <ele>1726.98</ele>
        <time>2012-12-20T12:41:50+01:00</time>
      </trkpt>
      <trkpt lat="42.97145758262" lon="-5.78447263916">
        <ele>1727.88</ele>
        <time>2012-12-20T12:41:52+01:00</time>
      </trkpt>
      <trkpt lat="42.97143657596" lon="-5.78449700074">
        <ele>1728.79</ele>
        <time>2012-12-20T12:41:54+01:00</time>
      </trkpt>
      <trkpt lat="42.97141329193" lon="-5.78452669741">
        <ele>1730.22</ele>
        <time>2012-12-20T12:41:56+01:00</time>
      </trkpt>
      <trkpt lat="42.97138927535" lon="-5.78455403327">
        <ele>1731.25</ele>
        <time>2012-12-20T12:41:58+01:00</time>
      </trkpt>
      <trkpt lat="42.97137366245" lon="-5.78458013362">
        <ele>1731.85</ele>
        <time>2012-12-20T12:42:00+01:00</time>
      </trkpt>
      <trkpt lat="42.97135147885" lon="-5.78461256007">
        <ele>1733.1</ele>
        <time>2012-12-20T12:42:02+01:00</time>
      </trkpt>
      <trkpt lat="42.97133055209" lon="-5.78464409164">
        <ele>1734.32</ele>
        <time>2012-12-20T12:42:04+01:00</time>
      </trkpt>
      <trkpt lat="42.97131135815" lon="-5.78467029671">
        <ele>1735.47</ele>
        <time>2012-12-20T12:42:06+01:00</time>
      </trkpt>
      <trkpt lat="42.97128553994" lon="-5.78470101167">
        <ele>1736.39</ele>
        <time>2012-12-20T12:42:08+01:00</time>
      </trkpt>
      <trkpt lat="42.97126594474" lon="-5.78472587012">
        <ele>1737.52</ele>
        <time>2012-12-20T12:42:10+01:00</time>
      </trkpt>
      <trkpt lat="42.97124173357" lon="-5.78475507509">
        <ele>1738.64</ele>
        <time>2012-12-20T12:42:12+01:00</time>
      </trkpt>
      <trkpt lat="42.97122358879" lon="-5.78477932992">
        <ele>1739.7</ele>
        <time>2012-12-20T12:42:14+01:00</time>
      </trkpt>
      <trkpt lat="42.97120053378" lon="-5.78481051132">
        <ele>1740.69</ele>
        <time>2012-12-20T12:42:16+01:00</time>
      </trkpt>
      <trkpt lat="42.9711787655" lon="-5.78483859915">
        <ele>1741.65</ele>
        <time>2012-12-20T12:42:18+01:00</time>
      </trkpt>
      <trkpt lat="42.97115667327" lon="-5.78486750918">
        <ele>1742.66</ele>
        <time>2012-12-20T12:42:20+01:00</time>
      </trkpt>
      <trkpt lat="42.97113481268" lon="-5.78489823648">
        <ele>1743.52</ele>
        <time>2012-12-20T12:42:22+01:00</time>
      </trkpt>
      <trkpt lat="42.97111640746" lon="-5.78492517474">
        <ele>1744.32</ele>
        <time>2012-12-20T12:42:24+01:00</time>
      </trkpt>
      <trkpt lat="42.9710928035" lon="-5.7849596002">
        <ele>1745.15</ele>
        <time>2012-12-20T12:42:26+01:00</time>
      </trkpt>
      <trkpt lat="42.97107461212" lon="-5.78498680013">
        <ele>1745.93</ele>
        <time>2012-12-20T12:42:28+01:00</time>
      </trkpt>
      <trkpt lat="42.97105064137" lon="-5.78502218971">
        <ele>1746.82</ele>
        <time>2012-12-20T12:42:30+01:00</time>
      </trkpt>
      <trkpt lat="42.97103600484" lon="-5.78504659196">
        <ele>1747.43</ele>
        <time>2012-12-20T12:42:32+01:00</time>
      </trkpt>
      <trkpt lat="42.97101815775" lon="-5.78507594757">
        <ele>1747.95</ele>
        <time>2012-12-20T12:42:34+01:00</time>
      </trkpt>
      <trkpt lat="42.97100027204" lon="-5.78511159121">
        <ele>1748.5</ele>
        <time>2012-12-20T12:42:36+01:00</time>
      </trkpt>
      <trkpt lat="42.97098284799" lon="-5.78514560908">
        <ele>1748.99</ele>
        <time>2012-12-20T12:42:38+01:00</time>
      </trkpt>
      <trkpt lat="42.9709645775" lon="-5.78517729015">
        <ele>1749.42</ele>
        <time>2012-12-20T12:42:40+01:00</time>
      </trkpt>
      <trkpt lat="42.97094798175" lon="-5.78521024728">
        <ele>1750.04</ele>
        <time>2012-12-20T12:42:42+01:00</time>
      </trkpt>
      <trkpt lat="42.97093014514" lon="-5.78524104565">
        <ele>1750.24</ele>
        <time>2012-12-20T12:42:44+01:00</time>
      </trkpt>
      <trkpt lat="42.97091239564" lon="-5.78527033937">
        <ele>1751.51</ele>
        <time>2012-12-20T12:42:46+01:00</time>
      </trkpt>
      <trkpt lat="42.97088896387" lon="-5.78530147794">
        <ele>1751.59</ele>
        <time>2012-12-20T12:42:48+01:00</time>
      </trkpt>
      <trkpt lat="42.97086590438" lon="-5.78533224786">
        <ele>1752.21</ele>
        <time>2012-12-20T12:42:50+01:00</time>
      </trkpt>
      <trkpt lat="42.97084181899" lon="-5.78536851614">
        <ele>1753.73</ele>
        <time>2012-12-20T12:42:52+01:00</time>
      </trkpt>
      <trkpt lat="42.97082160669" lon="-5.78539849502">
        <ele>1753.82</ele>
        <time>2012-12-20T12:42:54+01:00</time>
      </trkpt>
      <trkpt lat="42.9707973806" lon="-5.78542977062">
        <ele>1754.38</ele>
        <time>2012-12-20T12:42:57+01:00</time>
      </trkpt>
      <trkpt lat="42.97077466517" lon="-5.78546371954">
        <ele>1755.06</ele>
        <time>2012-12-20T12:43:00+01:00</time>
      </trkpt>
      <trkpt lat="42.97075092123" lon="-5.7854933857">
        <ele>1756.21</ele>
        <time>2012-12-20T12:43:02+01:00</time>
      </trkpt>
      <trkpt lat="42.97073080632" lon="-5.78551902263">
        <ele>1756.94</ele>
        <time>2012-12-20T12:43:04+01:00</time>
      </trkpt>
      <trkpt lat="42.97070183884" lon="-5.7855551921">
        <ele>1759.25</ele>
        <time>2012-12-20T12:43:06+01:00</time>
      </trkpt>
      <trkpt lat="42.97068336433" lon="-5.78559358556">
        <ele>1760.47</ele>
        <time>2012-12-20T12:43:08+01:00</time>
      </trkpt>
      <trkpt lat="42.97066717116" lon="-5.78562281458">
        <ele>1760.43</ele>
        <time>2012-12-20T12:43:10+01:00</time>
      </trkpt>
      <trkpt lat="42.97064591313" lon="-5.78565405905">
        <ele>1763.03</ele>
        <time>2012-12-20T12:43:12+01:00</time>
      </trkpt>
      <trkpt lat="42.97062466402" lon="-5.78568207775">
        <ele>1764.37</ele>
        <time>2012-12-20T12:43:14+01:00</time>
      </trkpt>
      <trkpt lat="42.97060828149" lon="-5.78571512991">
        <ele>1765.31</ele>
        <time>2012-12-20T12:43:16+01:00</time>
      </trkpt>
      <trkpt lat="42.97059363033" lon="-5.78574936434">
        <ele>1766.55</ele>
        <time>2012-12-20T12:43:18+01:00</time>
      </trkpt>
      <trkpt lat="42.97057854881" lon="-5.78577949253">
        <ele>1768.11</ele>
        <time>2012-12-20T12:43:20+01:00</time>
      </trkpt>
      <trkpt lat="42.97055829454" lon="-5.78580543824">
        <ele>1769.13</ele>
        <time>2012-12-20T12:43:22+01:00</time>
      </trkpt>
      <trkpt lat="42.9705423455" lon="-5.78582920219">
        <ele>1770.58</ele>
        <time>2012-12-20T12:43:24+01:00</time>
      </trkpt>
      <trkpt lat="42.97051959594" lon="-5.78585801003">
        <ele>1771.67</ele>
        <time>2012-12-20T12:43:26+01:00</time>
      </trkpt>
      <trkpt lat="42.97049246445" lon="-5.78588827449">
        <ele>1773.41</ele>
        <time>2012-12-20T12:43:29+01:00</time>
      </trkpt>
      <trkpt lat="42.97047236304" lon="-5.78592079686">
        <ele>1775.4</ele>
        <time>2012-12-20T12:43:31+01:00</time>
      </trkpt>
      <trkpt lat="42.97045455005" lon="-5.78598745725">
        <ele>1776.78</ele>
        <time>2012-12-20T12:43:34+01:00</time>
      </trkpt>
      <trkpt lat="42.97043667116" lon="-5.78603666388">
        <ele>1778.32</ele>
        <time>2012-12-20T12:43:36+01:00</time>
      </trkpt>
      <trkpt lat="42.97041234179" lon="-5.78606353723">
        <ele>1779.21</ele>
        <time>2012-12-20T12:43:38+01:00</time>
      </trkpt>
      <trkpt lat="42.97039393076" lon="-5.78608782147">
        <ele>1780.34</ele>
        <time>2012-12-20T12:43:40+01:00</time>
      </trkpt>
      <trkpt lat="42.97037995558" lon="-5.78611587943">
        <ele>1781.06</ele>
        <time>2012-12-20T12:43:42+01:00</time>
      </trkpt>
      <trkpt lat="42.97035848566" lon="-5.78614717317">
        <ele>1781.59</ele>
        <time>2012-12-20T12:43:45+01:00</time>
      </trkpt>
      <trkpt lat="42.97033558385" lon="-5.78616268554">
        <ele>1781.65</ele>
        <time>2012-12-20T12:43:47+01:00</time>
      </trkpt>
      <trkpt lat="42.97031611723" lon="-5.78617946728">
        <ele>1782.39</ele>
        <time>2012-12-20T12:43:49+01:00</time>
      </trkpt>
      <trkpt lat="42.97029227498" lon="-5.78620897517">
        <ele>1783.07</ele>
        <time>2012-12-20T12:43:52+01:00</time>
      </trkpt>
      <trkpt lat="42.97026857925" lon="-5.78623839646">
        <ele>1784.48</ele>
        <time>2012-12-20T12:43:54+01:00</time>
      </trkpt>
      <trkpt lat="42.97025070735" lon="-5.78627264499">
        <ele>1784.53</ele>
        <time>2012-12-20T12:43:56+01:00</time>
      </trkpt>
      <trkpt lat="42.97023929995" lon="-5.7862895513">
        <ele>1784.34</ele>
        <time>2012-12-20T12:43:58+01:00</time>
      </trkpt>
      <trkpt lat="42.97020801228" lon="-5.78631186057">
        <ele>1784.97</ele>
        <time>2012-12-20T12:44:00+01:00</time>
      </trkpt>
      <trkpt lat="42.97018023002" lon="-5.786335232">
        <ele>1785.57</ele>
        <time>2012-12-20T12:44:02+01:00</time>
      </trkpt>
      <trkpt lat="42.97015469111" lon="-5.78635687126">
        <ele>1785.94</ele>
        <time>2012-12-20T12:44:04+01:00</time>
      </trkpt>
      <trkpt lat="42.97013536762" lon="-5.7863874177">
        <ele>1786.24</ele>
        <time>2012-12-20T12:44:06+01:00</time>
      </trkpt>
      <trkpt lat="42.97011544207" lon="-5.78641526218">
        <ele>1787.37</ele>
        <time>2012-12-20T12:44:08+01:00</time>
      </trkpt>
      <trkpt lat="42.97009489198" lon="-5.78644527943">
        <ele>1788.4</ele>
        <time>2012-12-20T12:44:10+01:00</time>
      </trkpt>
      <trkpt lat="42.97007405312" lon="-5.7864737789">
        <ele>1789.37</ele>
        <time>2012-12-20T12:44:12+01:00</time>
      </trkpt>
      <trkpt lat="42.97005319062" lon="-5.78650715759">
        <ele>1790.64</ele>
        <time>2012-12-20T12:44:14+01:00</time>
      </trkpt>
      <trkpt lat="42.97002669523" lon="-5.78654152342">
        <ele>1791.78</ele>
        <time>2012-12-20T12:44:16+01:00</time>
      </trkpt>
      <trkpt lat="42.97001056024" lon="-5.78657059558">
        <ele>1792.61</ele>
        <time>2012-12-20T12:44:18+01:00</time>
      </trkpt>
      <trkpt lat="42.96998380838" lon="-5.78660527487">
        <ele>1793.98</ele>
        <time>2012-12-20T12:44:20+01:00</time>
      </trkpt>
      <trkpt lat="42.96996057658" lon="-5.78663227918">
        <ele>1794.91</ele>
        <time>2012-12-20T12:44:22+01:00</time>
      </trkpt>
      <trkpt lat="42.96993633891" lon="-5.78665828969">
        <ele>1795.84</ele>
        <time>2012-12-20T12:44:24+01:00</time>
      </trkpt>
      <trkpt lat="42.96991305678" lon="-5.78668548324">
        <ele>1796.66</ele>
        <time>2012-12-20T12:44:26+01:00</time>
      </trkpt>
      <trkpt lat="42.96989586745" lon="-5.78671241791">
        <ele>1797.61</ele>
        <time>2012-12-20T12:44:28+01:00</time>
      </trkpt>
      <trkpt lat="42.96987864619" lon="-5.78673600747">
        <ele>1798.49</ele>
        <time>2012-12-20T12:44:30+01:00</time>
      </trkpt>
      <trkpt lat="42.96985897003" lon="-5.7867625063">
        <ele>1799.69</ele>
        <time>2012-12-20T12:44:32+01:00</time>
      </trkpt>
      <trkpt lat="42.9698409343" lon="-5.78679699065">
        <ele>1800.5</ele>
        <time>2012-12-20T12:44:34+01:00</time>
      </trkpt>
      <trkpt lat="42.96982438277" lon="-5.78683265074">
        <ele>1801.5</ele>
        <time>2012-12-20T12:44:36+01:00</time>
      </trkpt>
      <trkpt lat="42.96980953401" lon="-5.78686217323">
        <ele>1802.51</ele>
        <time>2012-12-20T12:44:38+01:00</time>
      </trkpt>
      <trkpt lat="42.96978484433" lon="-5.78689174868">
        <ele>1803.84</ele>
        <time>2012-12-20T12:44:40+01:00</time>
      </trkpt>
      <trkpt lat="42.96976068719" lon="-5.78691929873">
        <ele>1804.59</ele>
        <time>2012-12-20T12:44:42+01:00</time>
      </trkpt>
      <trkpt lat="42.96973802099" lon="-5.78694152891">
        <ele>1805.77</ele>
        <time>2012-12-20T12:44:45+01:00</time>
      </trkpt>
      <trkpt lat="42.96971320354" lon="-5.78696562213">
        <ele>1806.76</ele>
        <time>2012-12-20T12:44:46+01:00</time>
      </trkpt>
      <trkpt lat="42.96969910011" lon="-5.78697932071">
        <ele>1807.48</ele>
        <time>2012-12-20T12:44:48+01:00</time>
      </trkpt>
      <trkpt lat="42.96966373817" lon="-5.7870175998">
        <ele>1808.34</ele>
        <time>2012-12-20T12:44:50+01:00</time>
      </trkpt>
      <trkpt lat="42.96964574215" lon="-5.78703957669">
        <ele>1808.85</ele>
        <time>2012-12-20T12:44:52+01:00</time>
      </trkpt>
      <trkpt lat="42.96961951453" lon="-5.7870626264">
        <ele>1810.06</ele>
        <time>2012-12-20T12:44:55+01:00</time>
      </trkpt>
      <trkpt lat="42.96959659918" lon="-5.78708718532">
        <ele>1811.21</ele>
        <time>2012-12-20T12:44:56+01:00</time>
      </trkpt>
      <trkpt lat="42.96957907251" lon="-5.78711163067">
        <ele>1811.95</ele>
        <time>2012-12-20T12:44:58+01:00</time>
      </trkpt>
      <trkpt lat="42.96955596797" lon="-5.78713961114">
        <ele>1813.01</ele>
        <time>2012-12-20T12:45:00+01:00</time>
      </trkpt>
      <trkpt lat="42.96953242304" lon="-5.78717073087">
        <ele>1813.23</ele>
        <time>2012-12-20T12:45:03+01:00</time>
      </trkpt>
      <trkpt lat="42.96950521702" lon="-5.78720029004">
        <ele>1813.86</ele>
        <time>2012-12-20T12:45:05+01:00</time>
      </trkpt>
      <trkpt lat="42.96948897993" lon="-5.7872265196">
        <ele>1814.57</ele>
        <time>2012-12-20T12:45:07+01:00</time>
      </trkpt>
      <trkpt lat="42.96947436665" lon="-5.78725818528">
        <ele>1814.79</ele>
        <time>2012-12-20T12:45:09+01:00</time>
      </trkpt>
      <trkpt lat="42.96945335093" lon="-5.78729480597">
        <ele>1815.31</ele>
        <time>2012-12-20T12:45:12+01:00</time>
      </trkpt>
      <trkpt lat="42.96943646369" lon="-5.78732864289">
        <ele>1815.83</ele>
        <time>2012-12-20T12:45:14+01:00</time>
      </trkpt>
      <trkpt lat="42.96941780161" lon="-5.7873588822">
        <ele>1816.52</ele>
        <time>2012-12-20T12:45:16+01:00</time>
      </trkpt>
      <trkpt lat="42.96939981481" lon="-5.787378401">
        <ele>1817.01</ele>
        <time>2012-12-20T12:45:17+01:00</time>
      </trkpt>
      <trkpt lat="42.96937921895" lon="-5.78740423182">
        <ele>1817.32</ele>
        <time>2012-12-20T12:45:19+01:00</time>
      </trkpt>
      <trkpt lat="42.96935934658" lon="-5.78743071353">
        <ele>1817.94</ele>
        <time>2012-12-20T12:45:22+01:00</time>
      </trkpt>
      <trkpt lat="42.96933770797" lon="-5.78746074537">
        <ele>1818.42</ele>
        <time>2012-12-20T12:45:23+01:00</time>
      </trkpt>
      <trkpt lat="42.96931767963" lon="-5.78749144396">
        <ele>1818.88</ele>
        <time>2012-12-20T12:45:25+01:00</time>
      </trkpt>
      <trkpt lat="42.96929431397" lon="-5.78752739443">
        <ele>1819.77</ele>
        <time>2012-12-20T12:45:27+01:00</time>
      </trkpt>
      <trkpt lat="42.96927383477" lon="-5.7875598819">
        <ele>1820.29</ele>
        <time>2012-12-20T12:45:29+01:00</time>
      </trkpt>
      <trkpt lat="42.96924957062" lon="-5.78759556861">
        <ele>1821.17</ele>
        <time>2012-12-20T12:45:32+01:00</time>
      </trkpt>
      <trkpt lat="42.96922719666" lon="-5.78762308181">
        <ele>1821.72</ele>
        <time>2012-12-20T12:45:33+01:00</time>
      </trkpt>
      <trkpt lat="42.96920263882" lon="-5.78764930451">
        <ele>1822.51</ele>
        <time>2012-12-20T12:45:35+01:00</time>
      </trkpt>
      <trkpt lat="42.96917538742" lon="-5.78767677964">
        <ele>1823.32</ele>
        <time>2012-12-20T12:45:37+01:00</time>
      </trkpt>
      <trkpt lat="42.96915978872" lon="-5.7877032947">
        <ele>1824.42</ele>
        <time>2012-12-20T12:45:40+01:00</time>
      </trkpt>
      <trkpt lat="42.9691399387" lon="-5.78772589796">
        <ele>1824.91</ele>
        <time>2012-12-20T12:45:42+01:00</time>
      </trkpt>
      <trkpt lat="42.96911755613" lon="-5.78775104997">
        <ele>1825.65</ele>
        <time>2012-12-20T12:45:46+01:00</time>
      </trkpt>
      <trkpt lat="42.96909170605" lon="-5.78775763878">
        <ele>1825.92</ele>
        <time>2012-12-20T12:45:49+01:00</time>
      </trkpt>
      <trkpt lat="42.96907082754" lon="-5.78777225353">
        <ele>1826</ele>
        <time>2012-12-20T12:45:50+01:00</time>
      </trkpt>
      <trkpt lat="42.96906012038" lon="-5.78780614145">
        <ele>1825.9</ele>
        <time>2012-12-20T12:45:52+01:00</time>
      </trkpt>
      <trkpt lat="42.96903980698" lon="-5.78783625426">
        <ele>1826.24</ele>
        <time>2012-12-20T12:45:54+01:00</time>
      </trkpt>
      <trkpt lat="42.96901897977" lon="-5.78787893771">
        <ele>1826.57</ele>
        <time>2012-12-20T12:45:56+01:00</time>
      </trkpt>
      <trkpt lat="42.9689975097" lon="-5.78791247566">
        <ele>1827.16</ele>
        <time>2012-12-20T12:45:59+01:00</time>
      </trkpt>
      <trkpt lat="42.96897522098" lon="-5.78794630606">
        <ele>1827.45</ele>
        <time>2012-12-20T12:46:00+01:00</time>
      </trkpt>
      <trkpt lat="42.96894870136" lon="-5.78798378668">
        <ele>1827.64</ele>
        <time>2012-12-20T12:46:03+01:00</time>
      </trkpt>
      <trkpt lat="42.96892262617" lon="-5.78802155689">
        <ele>1828.17</ele>
        <time>2012-12-20T12:46:04+01:00</time>
      </trkpt>
      <trkpt lat="42.9689008199" lon="-5.78805603682">
        <ele>1828.61</ele>
        <time>2012-12-20T12:46:06+01:00</time>
      </trkpt>
      <trkpt lat="42.96888257116" lon="-5.7880923754">
        <ele>1828.33</ele>
        <time>2012-12-20T12:46:08+01:00</time>
      </trkpt>
      <trkpt lat="42.96886177385" lon="-5.78813191733">
        <ele>1827.99</ele>
        <time>2012-12-20T12:46:11+01:00</time>
      </trkpt>
      <trkpt lat="42.96884151377" lon="-5.78816257627">
        <ele>1828</ele>
        <time>2012-12-20T12:46:12+01:00</time>
      </trkpt>
      <trkpt lat="42.96882443806" lon="-5.78818812243">
        <ele>1828.03</ele>
        <time>2012-12-20T12:46:15+01:00</time>
      </trkpt>
      <trkpt lat="42.96880949127" lon="-5.78821413799">
        <ele>1827.84</ele>
        <time>2012-12-20T12:46:16+01:00</time>
      </trkpt>
      <trkpt lat="42.96879366354" lon="-5.78823650407">
        <ele>1828.2</ele>
        <time>2012-12-20T12:46:18+01:00</time>
      </trkpt>
      <trkpt lat="42.96877495653" lon="-5.78826107007">
        <ele>1828.65</ele>
        <time>2012-12-20T12:46:21+01:00</time>
      </trkpt>
      <trkpt lat="42.96875347218" lon="-5.78829196647">
        <ele>1829.29</ele>
        <time>2012-12-20T12:46:23+01:00</time>
      </trkpt>
      <trkpt lat="42.96873148378" lon="-5.78832847476">
        <ele>1829.97</ele>
        <time>2012-12-20T12:46:25+01:00</time>
      </trkpt>
      <trkpt lat="42.96871249723" lon="-5.788364577">
        <ele>1830.64</ele>
        <time>2012-12-20T12:46:26+01:00</time>
      </trkpt>
      <trkpt lat="42.96868755548" lon="-5.78839932931">
        <ele>1831.56</ele>
        <time>2012-12-20T12:46:28+01:00</time>
      </trkpt>
      <trkpt lat="42.96866867521" lon="-5.78841804227">
        <ele>1832.1</ele>
        <time>2012-12-20T12:46:30+01:00</time>
      </trkpt>
      <trkpt lat="42.96864043815" lon="-5.78844209265">
        <ele>1833.22</ele>
        <time>2012-12-20T12:46:32+01:00</time>
      </trkpt>
      <trkpt lat="42.96861441752" lon="-5.78846577096">
        <ele>1834.58</ele>
        <time>2012-12-20T12:46:35+01:00</time>
      </trkpt>
      <trkpt lat="42.96859527372" lon="-5.78848906515">
        <ele>1835.35</ele>
        <time>2012-12-20T12:46:36+01:00</time>
      </trkpt>
      <trkpt lat="42.96856927819" lon="-5.78852810218">
        <ele>1836.69</ele>
        <time>2012-12-20T12:46:38+01:00</time>
      </trkpt>
      <trkpt lat="42.96854582027" lon="-5.78855901237">
        <ele>1837.27</ele>
        <time>2012-12-20T12:46:41+01:00</time>
      </trkpt>
      <trkpt lat="42.96852129596" lon="-5.78858164161">
        <ele>1838</ele>
        <time>2012-12-20T12:46:43+01:00</time>
      </trkpt>
      <trkpt lat="42.96847946535" lon="-5.78857636082">
        <ele>1839.46</ele>
        <time>2012-12-20T12:46:45+01:00</time>
      </trkpt>
      <trkpt lat="42.96843409361" lon="-5.78857538012">
        <ele>1840.26</ele>
        <time>2012-12-20T12:46:47+01:00</time>
      </trkpt>
      <trkpt lat="42.96840379466" lon="-5.78859278346">
        <ele>1840.5</ele>
        <time>2012-12-20T12:46:48+01:00</time>
      </trkpt>
      <trkpt lat="42.96838910973" lon="-5.78862356709">
        <ele>1841.04</ele>
        <time>2012-12-20T12:46:50+01:00</time>
      </trkpt>
      <trkpt lat="42.96836996771" lon="-5.78863864157">
        <ele>1841.85</ele>
        <time>2012-12-20T12:46:53+01:00</time>
      </trkpt>
      <trkpt lat="42.96834800087" lon="-5.78865030659">
        <ele>1842.17</ele>
        <time>2012-12-20T12:46:56+01:00</time>
      </trkpt>
      <trkpt lat="42.96833093407" lon="-5.78863513818">
        <ele>1842.21</ele>
        <time>2012-12-20T12:47:00+01:00</time>
      </trkpt>
      <trkpt lat="42.9683275207" lon="-5.78860722701">
        <ele>1842.99</ele>
        <time>2012-12-20T12:47:03+01:00</time>
      </trkpt>
      <trkpt lat="42.96833371119" lon="-5.78857643202">
        <ele>1843.2</ele>
        <time>2012-12-20T12:47:09+01:00</time>
      </trkpt>
      <trkpt lat="42.9683412899" lon="-5.78854030897">
        <ele>1843.66</ele>
        <time>2012-12-20T12:47:40+01:00</time>
      </trkpt>
      <trkpt lat="42.9683449521" lon="-5.7884890204">
        <ele>1843.77</ele>
        <time>2012-12-20T12:47:42+01:00</time>
      </trkpt>
      <trkpt lat="42.96834735512" lon="-5.78845439563">
        <ele>1843.9</ele>
        <time>2012-12-20T12:47:44+01:00</time>
      </trkpt>
      <trkpt lat="42.96830757602" lon="-5.78840634981">
        <ele>1843.21</ele>
        <time>2012-12-20T12:47:45+01:00</time>
      </trkpt>
      <trkpt lat="42.96826554008" lon="-5.78834775855">
        <ele>1842.93</ele>
        <time>2012-12-20T12:47:45+01:00</time>
      </trkpt>
      <trkpt lat="42.96823451859" lon="-5.78827785331">
        <ele>1842.56</ele>
        <time>2012-12-20T12:47:46+01:00</time>
      </trkpt>
      <trkpt lat="42.96819826182" lon="-5.78820666578">
        <ele>1842.38</ele>
        <time>2012-12-20T12:47:47+01:00</time>
      </trkpt>
      <trkpt lat="42.968155522" lon="-5.78813089924">
        <ele>1842.16</ele>
        <time>2012-12-20T12:47:49+01:00</time>
      </trkpt>
      <trkpt lat="42.96812154805" lon="-5.78807373891">
        <ele>1841.71</ele>
        <time>2012-12-20T12:47:49+01:00</time>
      </trkpt>
      <trkpt lat="42.96809998576" lon="-5.78796726036">
        <ele>1841.54</ele>
        <time>2012-12-20T12:47:50+01:00</time>
      </trkpt>
      <trkpt lat="42.96808304385" lon="-5.78788147713">
        <ele>1841.56</ele>
        <time>2012-12-20T12:47:52+01:00</time>
      </trkpt>
      <trkpt lat="42.96809323101" lon="-5.7877914267">
        <ele>1840.59</ele>
        <time>2012-12-20T12:47:52+01:00</time>
      </trkpt>
      <trkpt lat="42.96811718261" lon="-5.78770011975">
        <ele>1839.98</ele>
        <time>2012-12-20T12:47:54+01:00</time>
      </trkpt>
      <trkpt lat="42.96813311874" lon="-5.78764338823">
        <ele>1839.67</ele>
        <time>2012-12-20T12:47:54+01:00</time>
      </trkpt>
      <trkpt lat="42.96813161943" lon="-5.78758724764">
        <ele>1838.82</ele>
        <time>2012-12-20T12:47:56+01:00</time>
      </trkpt>
      <trkpt lat="42.96814282279" lon="-5.78752158563">
        <ele>1838.23</ele>
        <time>2012-12-20T12:47:57+01:00</time>
      </trkpt>
      <trkpt lat="42.96817623021" lon="-5.78741921427">
        <ele>1838.4</ele>
        <time>2012-12-20T12:47:57+01:00</time>
      </trkpt>
      <trkpt lat="42.96818741642" lon="-5.78734296965">
        <ele>1837.97</ele>
        <time>2012-12-20T12:47:59+01:00</time>
      </trkpt>
      <trkpt lat="42.96818412196" lon="-5.78727107275">
        <ele>1837.76</ele>
        <time>2012-12-20T12:47:59+01:00</time>
      </trkpt>
      <trkpt lat="42.96817764439" lon="-5.78721318931">
        <ele>1837.73</ele>
        <time>2012-12-20T12:48:01+01:00</time>
      </trkpt>
      <trkpt lat="42.96817126341" lon="-5.78718092254">
        <ele>1837.87</ele>
        <time>2012-12-20T12:48:02+01:00</time>
      </trkpt>
      <trkpt lat="42.96819038984" lon="-5.7871493315">
        <ele>1837.87</ele>
        <time>2012-12-20T12:48:04+01:00</time>
      </trkpt>
      <trkpt lat="42.96821998791" lon="-5.78715265999">
        <ele>1837.23</ele>
        <time>2012-12-20T12:48:07+01:00</time>
      </trkpt>
      <trkpt lat="42.96823633781" lon="-5.78710954105">
        <ele>1837.56</ele>
        <time>2012-12-20T12:48:07+01:00</time>
      </trkpt>
      <trkpt lat="42.96825441809" lon="-5.78707150876">
        <ele>1837.91</ele>
        <time>2012-12-20T12:48:08+01:00</time>
      </trkpt>
      <trkpt lat="42.96827685818" lon="-5.7870391903">
        <ele>1838.12</ele>
        <time>2012-12-20T12:48:09+01:00</time>
      </trkpt>
      <trkpt lat="42.9683055429" lon="-5.78700744322">
        <ele>1838.05</ele>
        <time>2012-12-20T12:48:11+01:00</time>
      </trkpt>
      <trkpt lat="42.96833979322" lon="-5.78698337242">
        <ele>1838.02</ele>
        <time>2012-12-20T12:48:12+01:00</time>
      </trkpt>
      <trkpt lat="42.96841428002" lon="-5.7870046526">
        <ele>1837.82</ele>
        <time>2012-12-20T12:48:12+01:00</time>
      </trkpt>
      <trkpt lat="42.96848071433" lon="-5.78697817981">
        <ele>1837.68</ele>
        <time>2012-12-20T12:48:13+01:00</time>
      </trkpt>
      <trkpt lat="42.96853279264" lon="-5.78691421193">
        <ele>1837.52</ele>
        <time>2012-12-20T12:48:14+01:00</time>
      </trkpt>
      <trkpt lat="42.96857660181" lon="-5.78683469841">
        <ele>1836.97</ele>
        <time>2012-12-20T12:48:16+01:00</time>
      </trkpt>
      <trkpt lat="42.96862680377" lon="-5.7867615976">
        <ele>1836.81</ele>
        <time>2012-12-20T12:48:16+01:00</time>
      </trkpt>
      <trkpt lat="42.96868700147" lon="-5.78671539442">
        <ele>1836.58</ele>
        <time>2012-12-20T12:48:17+01:00</time>
      </trkpt>
      <trkpt lat="42.96872191405" lon="-5.7866764686">
        <ele>1836.32</ele>
        <time>2012-12-20T12:48:18+01:00</time>
      </trkpt>
      <trkpt lat="42.96882759465" lon="-5.78665008886">
        <ele>1835.93</ele>
        <time>2012-12-20T12:48:19+01:00</time>
      </trkpt>
      <trkpt lat="42.96891397551" lon="-5.78661014536">
        <ele>1835.6</ele>
        <time>2012-12-20T12:48:21+01:00</time>
      </trkpt>
      <trkpt lat="42.96897567576" lon="-5.78656132003">
        <ele>1835.11</ele>
        <time>2012-12-20T12:48:21+01:00</time>
      </trkpt>
      <trkpt lat="42.96902382331" lon="-5.78650770085">
        <ele>1833.58</ele>
        <time>2012-12-20T12:48:22+01:00</time>
      </trkpt>
      <trkpt lat="42.9690669469" lon="-5.78642428914">
        <ele>1832.23</ele>
        <time>2012-12-20T12:48:24+01:00</time>
      </trkpt>
      <trkpt lat="42.9691071211" lon="-5.78632667115">
        <ele>1830.68</ele>
        <time>2012-12-20T12:48:24+01:00</time>
      </trkpt>
      <trkpt lat="42.96915958003" lon="-5.7862288941">
        <ele>1829.76</ele>
        <time>2012-12-20T12:48:25+01:00</time>
      </trkpt>
      <trkpt lat="42.96925073925" lon="-5.78621188679">
        <ele>1828.96</ele>
        <time>2012-12-20T12:48:26+01:00</time>
      </trkpt>
      <trkpt lat="42.96931859196" lon="-5.7861465263">
        <ele>1827.72</ele>
        <time>2012-12-20T12:48:27+01:00</time>
      </trkpt>
      <trkpt lat="42.96937252975" lon="-5.78606425321">
        <ele>1824.68</ele>
        <time>2012-12-20T12:48:28+01:00</time>
      </trkpt>
      <trkpt lat="42.96943602271" lon="-5.78597812821">
        <ele>1825.05</ele>
        <time>2012-12-20T12:48:29+01:00</time>
      </trkpt>
      <trkpt lat="42.96951855932" lon="-5.78598001395">
        <ele>1823.46</ele>
        <time>2012-12-20T12:48:31+01:00</time>
      </trkpt>
      <trkpt lat="42.96960302712" lon="-5.78597053398">
        <ele>1819.41</ele>
        <time>2012-12-20T12:48:31+01:00</time>
      </trkpt>
      <trkpt lat="42.96968945694" lon="-5.78593993835">
        <ele>1817.43</ele>
        <time>2012-12-20T12:48:32+01:00</time>
      </trkpt>
      <trkpt lat="42.96974952414" lon="-5.78584664743">
        <ele>1816.28</ele>
        <time>2012-12-20T12:48:34+01:00</time>
      </trkpt>
      <trkpt lat="42.96977364105" lon="-5.7857331061">
        <ele>1813.84</ele>
        <time>2012-12-20T12:48:34+01:00</time>
      </trkpt>
      <trkpt lat="42.96978600815" lon="-5.78561296659">
        <ele>1811.62</ele>
        <time>2012-12-20T12:48:35+01:00</time>
      </trkpt>
      <trkpt lat="42.96978720752" lon="-5.78552309046">
        <ele>1810.07</ele>
        <time>2012-12-20T12:48:37+01:00</time>
      </trkpt>
      <trkpt lat="42.96977457279" lon="-5.78542538657">
        <ele>1808.49</ele>
        <time>2012-12-20T12:48:37+01:00</time>
      </trkpt>
      <trkpt lat="42.96979189419" lon="-5.78540879622">
        <ele>1806.2</ele>
        <time>2012-12-20T12:48:39+01:00</time>
      </trkpt>
      <trkpt lat="42.96981175347" lon="-5.78537805257">
        <ele>1804.43</ele>
        <time>2012-12-20T12:48:40+01:00</time>
      </trkpt>
      <trkpt lat="42.96982165386" lon="-5.78536000228">
        <ele>1802.94</ele>
        <time>2012-12-20T12:48:41+01:00</time>
      </trkpt>
      <trkpt lat="42.96981700133" lon="-5.78524947192">
        <ele>1800.76</ele>
        <time>2012-12-20T12:48:44+01:00</time>
      </trkpt>
      <trkpt lat="42.96979850235" lon="-5.78518592572">
        <ele>1799.12</ele>
        <time>2012-12-20T12:48:46+01:00</time>
      </trkpt>
      <trkpt lat="42.96971963365" lon="-5.78514324279">
        <ele>1798.18</ele>
        <time>2012-12-20T12:48:46+01:00</time>
      </trkpt>
      <trkpt lat="42.96964294023" lon="-5.78509112031">
        <ele>1797.07</ele>
        <time>2012-12-20T12:48:47+01:00</time>
      </trkpt>
      <trkpt lat="42.96959672464" lon="-5.78506520089">
        <ele>1796.07</ele>
        <time>2012-12-20T12:48:48+01:00</time>
      </trkpt>
      <trkpt lat="42.96951495927" lon="-5.78494629651">
        <ele>1794.65</ele>
        <time>2012-12-20T12:48:49+01:00</time>
      </trkpt>
      <trkpt lat="42.96945357862" lon="-5.78484748084">
        <ele>1793.75</ele>
        <time>2012-12-20T12:48:51+01:00</time>
      </trkpt>
      <trkpt lat="42.96943168006" lon="-5.78472713486">
        <ele>1792.62</ele>
        <time>2012-12-20T12:48:51+01:00</time>
      </trkpt>
      <trkpt lat="42.96940461427" lon="-5.78466020764">
        <ele>1791.65</ele>
        <time>2012-12-20T12:48:52+01:00</time>
      </trkpt>
      <trkpt lat="42.96935830813" lon="-5.7845764526">
        <ele>1790.7</ele>
        <time>2012-12-20T12:48:53+01:00</time>
      </trkpt>
      <trkpt lat="42.96935298372" lon="-5.78456739916">
        <ele>1789.85</ele>
        <time>2012-12-20T12:48:54+01:00</time>
      </trkpt>
      <trkpt lat="42.96917604463" lon="-5.78442112553">
        <ele>1789.58</ele>
        <time>2012-12-20T12:48:56+01:00</time>
      </trkpt>
      <trkpt lat="42.96903307176" lon="-5.78431848442">
        <ele>1788.87</ele>
        <time>2012-12-20T12:48:58+01:00</time>
      </trkpt>
      <trkpt lat="42.96890997376" lon="-5.78423992268">
        <ele>1788.29</ele>
        <time>2012-12-20T12:48:58+01:00</time>
      </trkpt>
      <trkpt lat="42.96880938604" lon="-5.78420106091">
        <ele>1787.57</ele>
        <time>2012-12-20T12:48:59+01:00</time>
      </trkpt>
      <trkpt lat="42.96873541331" lon="-5.78416406993">
        <ele>1787.01</ele>
        <time>2012-12-20T12:49:01+01:00</time>
      </trkpt>
      <trkpt lat="42.96872021249" lon="-5.7841580239">
        <ele>1786.43</ele>
        <time>2012-12-20T12:49:01+01:00</time>
      </trkpt>
      <trkpt lat="42.96857998819" lon="-5.78413031751">
        <ele>1784.26</ele>
        <time>2012-12-20T12:49:03+01:00</time>
      </trkpt>
      <trkpt lat="42.96856679607" lon="-5.78406603586">
        <ele>1782.76</ele>
        <time>2012-12-20T12:49:04+01:00</time>
      </trkpt>
      <trkpt lat="42.96853767083" lon="-5.78403836032">
        <ele>1781.77</ele>
        <time>2012-12-20T12:49:06+01:00</time>
      </trkpt>
      <trkpt lat="42.96852641431" lon="-5.78399433552">
        <ele>1780.74</ele>
        <time>2012-12-20T12:49:06+01:00</time>
      </trkpt>
      <trkpt lat="42.96852258721" lon="-5.78395897669">
        <ele>1779.24</ele>
        <time>2012-12-20T12:49:07+01:00</time>
      </trkpt>
      <trkpt lat="42.96851829505" lon="-5.78393293152">
        <ele>1778.19</ele>
        <time>2012-12-20T12:49:08+01:00</time>
      </trkpt>
      <trkpt lat="42.9685304852" lon="-5.78389104005">
        <ele>1777.14</ele>
        <time>2012-12-20T12:49:09+01:00</time>
      </trkpt>
      <trkpt lat="42.9685312965" lon="-5.78386581278">
        <ele>1776.2</ele>
        <time>2012-12-20T12:49:10+01:00</time>
      </trkpt>
      <trkpt lat="42.96853148241" lon="-5.78385772447">
        <ele>1776.01</ele>
        <time>2012-12-20T12:49:12+01:00</time>
      </trkpt>
      <trkpt lat="42.96853917118" lon="-5.7837919485">
        <ele>1775.3</ele>
        <time>2012-12-20T12:49:13+01:00</time>
      </trkpt>
      <trkpt lat="42.96854287469" lon="-5.78368031912">
        <ele>1774.56</ele>
        <time>2012-12-20T12:49:14+01:00</time>
      </trkpt>
      <trkpt lat="42.96853501859" lon="-5.78362227664">
        <ele>1773.88</ele>
        <time>2012-12-20T12:49:16+01:00</time>
      </trkpt>
      <trkpt lat="42.96852239699" lon="-5.78348176417">
        <ele>1773.11</ele>
        <time>2012-12-20T12:49:16+01:00</time>
      </trkpt>
      <trkpt lat="42.96851459573" lon="-5.78341219041">
        <ele>1772.41</ele>
        <time>2012-12-20T12:49:17+01:00</time>
      </trkpt>
      <trkpt lat="42.9685124745" lon="-5.78339206506">
        <ele>1771.63</ele>
        <time>2012-12-20T12:49:18+01:00</time>
      </trkpt>
      <trkpt lat="42.96851112227" lon="-5.78324211522">
        <ele>1770.84</ele>
        <time>2012-12-20T12:49:19+01:00</time>
      </trkpt>
      <trkpt lat="42.96853925894" lon="-5.7830535236">
        <ele>1769.39</ele>
        <time>2012-12-20T12:49:20+01:00</time>
      </trkpt>
      <trkpt lat="42.96857656611" lon="-5.78286325499">
        <ele>1768.19</ele>
        <time>2012-12-20T12:49:21+01:00</time>
      </trkpt>
      <trkpt lat="42.96858209055" lon="-5.78282639144">
        <ele>1767.02</ele>
        <time>2012-12-20T12:49:22+01:00</time>
      </trkpt>
      <trkpt lat="42.96860843834" lon="-5.78258251186">
        <ele>1765.97</ele>
        <time>2012-12-20T12:49:23+01:00</time>
      </trkpt>
      <trkpt lat="42.96865503507" lon="-5.78234653628">
        <ele>1764.71</ele>
        <time>2012-12-20T12:49:25+01:00</time>
      </trkpt>
      <trkpt lat="42.96866237695" lon="-5.78230491763">
        <ele>1763.63</ele>
        <time>2012-12-20T12:49:25+01:00</time>
      </trkpt>
      <trkpt lat="42.96867328456" lon="-5.78225871851">
        <ele>1762.46</ele>
        <time>2012-12-20T12:49:26+01:00</time>
      </trkpt>
      <trkpt lat="42.96867232885" lon="-5.78212139814">
        <ele>1761.42</ele>
        <time>2012-12-20T12:49:28+01:00</time>
      </trkpt>
      <trkpt lat="42.96868371138" lon="-5.78199833941">
        <ele>1760.15</ele>
        <time>2012-12-20T12:49:28+01:00</time>
      </trkpt>
      <trkpt lat="42.968674881" lon="-5.78189318223">
        <ele>1758.54</ele>
        <time>2012-12-20T12:49:30+01:00</time>
      </trkpt>
      <trkpt lat="42.96866520155" lon="-5.78173355231">
        <ele>1756.71</ele>
        <time>2012-12-20T12:49:30+01:00</time>
      </trkpt>
      <trkpt lat="42.96866571317" lon="-5.7816050668">
        <ele>1755.13</ele>
        <time>2012-12-20T12:49:31+01:00</time>
      </trkpt>
      <trkpt lat="42.96862813046" lon="-5.78149447778">
        <ele>1753.08</ele>
        <time>2012-12-20T12:49:33+01:00</time>
      </trkpt>
      <trkpt lat="42.96859137784" lon="-5.78139209487">
        <ele>1751.1</ele>
        <time>2012-12-20T12:49:33+01:00</time>
      </trkpt>
      <trkpt lat="42.96858104336" lon="-5.7812742541">
        <ele>1749.1</ele>
        <time>2012-12-20T12:49:35+01:00</time>
      </trkpt>
      <trkpt lat="42.9685949748" lon="-5.78113948765">
        <ele>1747.32</ele>
        <time>2012-12-20T12:49:35+01:00</time>
      </trkpt>
      <trkpt lat="42.96863480343" lon="-5.78104435993">
        <ele>1745.43</ele>
        <time>2012-12-20T12:49:36+01:00</time>
      </trkpt>
      <trkpt lat="42.96869601101" lon="-5.78095304886">
        <ele>1743.39</ele>
        <time>2012-12-20T12:49:38+01:00</time>
      </trkpt>
      <trkpt lat="42.96876826695" lon="-5.78080624177">
        <ele>1741.75</ele>
        <time>2012-12-20T12:49:38+01:00</time>
      </trkpt>
      <trkpt lat="42.96882647167" lon="-5.78066080776">
        <ele>1739.76</ele>
        <time>2012-12-20T12:49:39+01:00</time>
      </trkpt>
      <trkpt lat="42.96886449885" lon="-5.78048540646">
        <ele>1737.72</ele>
        <time>2012-12-20T12:49:41+01:00</time>
      </trkpt>
      <trkpt lat="42.96888888685" lon="-5.7803679276">
        <ele>1735.87</ele>
        <time>2012-12-20T12:49:41+01:00</time>
      </trkpt>
      <trkpt lat="42.96893978429" lon="-5.78019984624">
        <ele>1733.79</ele>
        <time>2012-12-20T12:49:43+01:00</time>
      </trkpt>
      <trkpt lat="42.96904105311" lon="-5.77992758267">
        <ele>1731.67</ele>
        <time>2012-12-20T12:49:43+01:00</time>
      </trkpt>
      <trkpt lat="42.96909404963" lon="-5.77978399825">
        <ele>1729.64</ele>
        <time>2012-12-20T12:49:44+01:00</time>
      </trkpt>
      <trkpt lat="42.96910666249" lon="-5.77974788877">
        <ele>1727.76</ele>
        <time>2012-12-20T12:49:45+01:00</time>
      </trkpt>
      <trkpt lat="42.96926228397" lon="-5.7793242187">
        <ele>1726.19</ele>
        <time>2012-12-20T12:49:46+01:00</time>
      </trkpt>
      <trkpt lat="42.9693442026" lon="-5.77909129264">
        <ele>1724.62</ele>
        <time>2012-12-20T12:49:48+01:00</time>
      </trkpt>
      <trkpt lat="42.96936217473" lon="-5.7789878294">
        <ele>1722.92</ele>
        <time>2012-12-20T12:49:48+01:00</time>
      </trkpt>
      <trkpt lat="42.96936751749" lon="-5.77895997328">
        <ele>1721.47</ele>
        <time>2012-12-20T12:49:49+01:00</time>
      </trkpt>
      <trkpt lat="42.96941859154" lon="-5.77880419443">
        <ele>1719.92</ele>
        <time>2012-12-20T12:49:51+01:00</time>
      </trkpt>
      <trkpt lat="42.96947036392" lon="-5.7786751754">
        <ele>1718.13</ele>
        <time>2012-12-20T12:49:51+01:00</time>
      </trkpt>
      <trkpt lat="42.96955140304" lon="-5.77856355959">
        <ele>1716.89</ele>
        <time>2012-12-20T12:49:53+01:00</time>
      </trkpt>
      <trkpt lat="42.96964470763" lon="-5.77847770256">
        <ele>1715.6</ele>
        <time>2012-12-20T12:49:53+01:00</time>
      </trkpt>
      <trkpt lat="42.96972356739" lon="-5.7783605942">
        <ele>1716.04</ele>
        <time>2012-12-20T12:49:54+01:00</time>
      </trkpt>
      <trkpt lat="42.96979046895" lon="-5.77823314078">
        <ele>1715.31</ele>
        <time>2012-12-20T12:49:55+01:00</time>
      </trkpt>
      <trkpt lat="42.96985206198" lon="-5.7780973297">
        <ele>1714.62</ele>
        <time>2012-12-20T12:49:56+01:00</time>
      </trkpt>
      <trkpt lat="42.96986606255" lon="-5.77807847637">
        <ele>1713.91</ele>
        <time>2012-12-20T12:49:57+01:00</time>
      </trkpt>
      <trkpt lat="42.96989009179" lon="-5.77805408202">
        <ele>1713.43</ele>
        <time>2012-12-20T12:49:58+01:00</time>
      </trkpt>
      <trkpt lat="42.96990613107" lon="-5.77804049778">
        <ele>1712.72</ele>
        <time>2012-12-20T12:49:59+01:00</time>
      </trkpt>
      <trkpt lat="42.96994715431" lon="-5.77800855219">
        <ele>1712.01</ele>
        <time>2012-12-20T12:50:00+01:00</time>
      </trkpt>
      <trkpt lat="42.96997067325" lon="-5.77799148608">
        <ele>1711.3</ele>
        <time>2012-12-20T12:50:01+01:00</time>
      </trkpt>
      <trkpt lat="42.97002714839" lon="-5.77795559874">
        <ele>1710.53</ele>
        <time>2012-12-20T12:50:02+01:00</time>
      </trkpt>
      <trkpt lat="42.97008760262" lon="-5.77791824586">
        <ele>1709.74</ele>
        <time>2012-12-20T12:50:03+01:00</time>
      </trkpt>
      <trkpt lat="42.97015270255" lon="-5.77788281777">
        <ele>1708.97</ele>
        <time>2012-12-20T12:50:04+01:00</time>
      </trkpt>
      <trkpt lat="42.97022369351" lon="-5.77785354764">
        <ele>1708.06</ele>
        <time>2012-12-20T12:50:05+01:00</time>
      </trkpt>
      <trkpt lat="42.97029677194" lon="-5.77782371765">
        <ele>1707.17</ele>
        <time>2012-12-20T12:50:06+01:00</time>
      </trkpt>
      <trkpt lat="42.97037224458" lon="-5.77779225224">
        <ele>1706.26</ele>
        <time>2012-12-20T12:50:07+01:00</time>
      </trkpt>
      <trkpt lat="42.97044933557" lon="-5.77776187141">
        <ele>1705.25</ele>
        <time>2012-12-20T12:50:08+01:00</time>
      </trkpt>
      <trkpt lat="42.97052774477" lon="-5.77773627211">
        <ele>1704.2</ele>
        <time>2012-12-20T12:50:09+01:00</time>
      </trkpt>
      <trkpt lat="42.97090564806" lon="-5.77766327812">
        <ele>1703.18</ele>
        <time>2012-12-20T12:50:10+01:00</time>
      </trkpt>
      <trkpt lat="42.97111169878" lon="-5.77765867427">
        <ele>1702.13</ele>
        <time>2012-12-20T12:50:11+01:00</time>
      </trkpt>
      <trkpt lat="42.97121279631" lon="-5.77768558327">
        <ele>1701.05</ele>
        <time>2012-12-20T12:50:12+01:00</time>
      </trkpt>
      <trkpt lat="42.97126139628" lon="-5.7777260275">
        <ele>1700</ele>
        <time>2012-12-20T12:50:13+01:00</time>
      </trkpt>
      <trkpt lat="42.97126533427" lon="-5.77773691156">
        <ele>1698.95</ele>
        <time>2012-12-20T12:50:14+01:00</time>
      </trkpt>
      <trkpt lat="42.97126524367" lon="-5.77783660033">
        <ele>1694.23</ele>
        <time>2012-12-20T12:50:15+01:00</time>
      </trkpt>
      <trkpt lat="42.97124979662" lon="-5.77792215162">
        <ele>1692.07</ele>
        <time>2012-12-20T12:50:16+01:00</time>
      </trkpt>
      <trkpt lat="42.97122973075" lon="-5.77799719759">
        <ele>1690.11</ele>
        <time>2012-12-20T12:50:17+01:00</time>
      </trkpt>
      <trkpt lat="42.97122803429" lon="-5.77800213732">
        <ele>1687.65</ele>
        <time>2012-12-20T12:50:23+01:00</time>
      </trkpt>
      <trkpt lat="42.97121664933" lon="-5.77801422403">
        <ele>1684.31</ele>
        <time>2012-12-20T12:50:36+01:00</time>
      </trkpt>
      <trkpt lat="42.97119530365" lon="-5.77799830679">
        <ele>1681.94</ele>
        <time>2012-12-20T12:50:38+01:00</time>
      </trkpt>
      <trkpt lat="42.97116712946" lon="-5.77796485294">
        <ele>1679.39</ele>
        <time>2012-12-20T12:50:41+01:00</time>
      </trkpt>
      <trkpt lat="42.9711288052" lon="-5.77796044205">
        <ele>1676.65</ele>
        <time>2012-12-20T12:50:44+01:00</time>
      </trkpt>
      <trkpt lat="42.97110055439" lon="-5.77796827705">
        <ele>1674.07</ele>
        <time>2012-12-20T12:50:48+01:00</time>
      </trkpt>
      <trkpt lat="42.97107589408" lon="-5.77797983528">
        <ele>1672.15</ele>
        <time>2012-12-20T12:50:50+01:00</time>
      </trkpt>
      <trkpt lat="42.97105436584" lon="-5.77799549091">
        <ele>1670.08</ele>
        <time>2012-12-20T12:50:53+01:00</time>
      </trkpt>
      <trkpt lat="42.9710373197" lon="-5.77802108554">
        <ele>1667.91</ele>
        <time>2012-12-20T12:50:58+01:00</time>
      </trkpt>
      <trkpt lat="42.97103435075" lon="-5.77804008476">
        <ele>1665.86</ele>
        <time>2012-12-20T12:51:00+01:00</time>
      </trkpt>
      <trkpt lat="42.97104816942" lon="-5.77807037156">
        <ele>1663.94</ele>
        <time>2012-12-20T12:51:02+01:00</time>
      </trkpt>
      <trkpt lat="42.97106032088" lon="-5.77809902653">
        <ele>1662.08</ele>
        <time>2012-12-20T12:51:07+01:00</time>
      </trkpt>
      <trkpt lat="42.97105058065" lon="-5.7781455271">
        <ele>1660.46</ele>
        <time>2012-12-20T12:51:11+01:00</time>
      </trkpt>
      <trkpt lat="42.97104022685" lon="-5.77817204297">
        <ele>1658.84</ele>
        <time>2012-12-20T12:51:13+01:00</time>
      </trkpt>
      <trkpt lat="42.97101400653" lon="-5.7782231623">
        <ele>1657.5</ele>
        <time>2012-12-20T12:51:14+01:00</time>
      </trkpt>
      <trkpt lat="42.97100209563" lon="-5.77824254416">
        <ele>1656.3</ele>
        <time>2012-12-20T12:51:15+01:00</time>
      </trkpt>
      <trkpt lat="42.97097804946" lon="-5.77828560935">
        <ele>1654.89</ele>
        <time>2012-12-20T12:51:16+01:00</time>
      </trkpt>
      <trkpt lat="42.97095995626" lon="-5.77831781459">
        <ele>1653.83</ele>
        <time>2012-12-20T12:51:18+01:00</time>
      </trkpt>
      <trkpt lat="42.97094487469" lon="-5.77835466242">
        <ele>1652.63</ele>
        <time>2012-12-20T12:51:19+01:00</time>
      </trkpt>
      <trkpt lat="42.97091913017" lon="-5.77840345259">
        <ele>1651.53</ele>
        <time>2012-12-20T12:51:20+01:00</time>
      </trkpt>
      <trkpt lat="42.97089755274" lon="-5.7784551872">
        <ele>1650.98</ele>
        <time>2012-12-20T12:51:22+01:00</time>
      </trkpt>
      <trkpt lat="42.97088643174" lon="-5.77848344697">
        <ele>1650.34</ele>
        <time>2012-12-20T12:51:24+01:00</time>
      </trkpt>
      <trkpt lat="42.97087598879" lon="-5.77852791935">
        <ele>1649.41</ele>
        <time>2012-12-20T12:51:26+01:00</time>
      </trkpt>
      <trkpt lat="42.97085781083" lon="-5.77860319394">
        <ele>1648.7</ele>
        <time>2012-12-20T12:51:28+01:00</time>
      </trkpt>
      <trkpt lat="42.97084012717" lon="-5.77865331874">
        <ele>1647.87</ele>
        <time>2012-12-20T12:51:30+01:00</time>
      </trkpt>
      <trkpt lat="42.9708286128" lon="-5.77868158684">
        <ele>1647.16</ele>
        <time>2012-12-20T12:51:32+01:00</time>
      </trkpt>
      <trkpt lat="42.97081677874" lon="-5.77872522519">
        <ele>1646.56</ele>
        <time>2012-12-20T12:51:34+01:00</time>
      </trkpt>
      <trkpt lat="42.97080912246" lon="-5.77878015288">
        <ele>1646.03</ele>
        <time>2012-12-20T12:51:36+01:00</time>
      </trkpt>
      <trkpt lat="42.970808097" lon="-5.77879177282">
        <ele>1645.5</ele>
        <time>2012-12-20T12:51:38+01:00</time>
      </trkpt>
      <trkpt lat="42.97079864185" lon="-5.77886254465">
        <ele>1645.11</ele>
        <time>2012-12-20T12:51:39+01:00</time>
      </trkpt>
      <trkpt lat="42.97078987" lon="-5.77891343708">
        <ele>1644.69</ele>
        <time>2012-12-20T12:51:40+01:00</time>
      </trkpt>
      <trkpt lat="42.97077450379" lon="-5.77896272981">
        <ele>1644.39</ele>
        <time>2012-12-20T12:51:42+01:00</time>
      </trkpt>
      <trkpt lat="42.97075644808" lon="-5.7790033437">
        <ele>1643.72</ele>
        <time>2012-12-20T12:51:44+01:00</time>
      </trkpt>
      <trkpt lat="42.97074081947" lon="-5.77903609778">
        <ele>1642.98</ele>
        <time>2012-12-20T12:51:46+01:00</time>
      </trkpt>
      <trkpt lat="42.97070421023" lon="-5.77907940012">
        <ele>1642.91</ele>
        <time>2012-12-20T12:51:48+01:00</time>
      </trkpt>
      <trkpt lat="42.97068102983" lon="-5.77912836078">
        <ele>1642.83</ele>
        <time>2012-12-20T12:51:50+01:00</time>
      </trkpt>
      <trkpt lat="42.97067021138" lon="-5.77916029712">
        <ele>1642.74</ele>
        <time>2012-12-20T12:51:52+01:00</time>
      </trkpt>
      <trkpt lat="42.97066012924" lon="-5.77919231664">
        <ele>1642.65</ele>
        <time>2012-12-20T12:51:53+01:00</time>
      </trkpt>
      <trkpt lat="42.97064133469" lon="-5.77924448612">
        <ele>1642.7</ele>
        <time>2012-12-20T12:51:54+01:00</time>
      </trkpt>
      <trkpt lat="42.97063066634" lon="-5.77927468618">
        <ele>1642.8</ele>
        <time>2012-12-20T12:51:56+01:00</time>
      </trkpt>
      <trkpt lat="42.97061415208" lon="-5.77932446133">
        <ele>1643.13</ele>
        <time>2012-12-20T12:51:57+01:00</time>
      </trkpt>
      <trkpt lat="42.97060250085" lon="-5.77937605765">
        <ele>1643.32</ele>
        <time>2012-12-20T12:51:59+01:00</time>
      </trkpt>
      <trkpt lat="42.9705888718" lon="-5.77942707944">
        <ele>1643.66</ele>
        <time>2012-12-20T12:52:01+01:00</time>
      </trkpt>
      <trkpt lat="42.9705798428" lon="-5.77948375307">
        <ele>1644.18</ele>
        <time>2012-12-20T12:52:04+01:00</time>
      </trkpt>
      <trkpt lat="42.97057290971" lon="-5.77951824609">
        <ele>1644.75</ele>
        <time>2012-12-20T12:52:05+01:00</time>
      </trkpt>
      <trkpt lat="42.97055519271" lon="-5.77958728064">
        <ele>1646.03</ele>
        <time>2012-12-20T12:52:07+01:00</time>
      </trkpt>
      <trkpt lat="42.97054553915" lon="-5.77962151668">
        <ele>1646.62</ele>
        <time>2012-12-20T12:52:09+01:00</time>
      </trkpt>
      <trkpt lat="42.97052926675" lon="-5.77967177133">
        <ele>1647.63</ele>
        <time>2012-12-20T12:52:10+01:00</time>
      </trkpt>
      <trkpt lat="42.97052105105" lon="-5.77970089385">
        <ele>1647.53</ele>
        <time>2012-12-20T12:52:12+01:00</time>
      </trkpt>
      <trkpt lat="42.97049520011" lon="-5.77975731715">
        <ele>1649.53</ele>
        <time>2012-12-20T12:52:14+01:00</time>
      </trkpt>
      <trkpt lat="42.9704710533" lon="-5.77980675623">
        <ele>1649.31</ele>
        <time>2012-12-20T12:52:16+01:00</time>
      </trkpt>
      <trkpt lat="42.97044912485" lon="-5.77985546902">
        <ele>1650.14</ele>
        <time>2012-12-20T12:52:18+01:00</time>
      </trkpt>
      <trkpt lat="42.97043902867" lon="-5.77987413098">
        <ele>1650.8</ele>
        <time>2012-12-20T12:52:19+01:00</time>
      </trkpt>
      <trkpt lat="42.97041505964" lon="-5.77991058527">
        <ele>1652.65</ele>
        <time>2012-12-20T12:52:20+01:00</time>
      </trkpt>
      <trkpt lat="42.97040475031" lon="-5.77994313761">
        <ele>1653.53</ele>
        <time>2012-12-20T12:52:22+01:00</time>
      </trkpt>
      <trkpt lat="42.97038785271" lon="-5.77999157593">
        <ele>1654.32</ele>
        <time>2012-12-20T12:52:23+01:00</time>
      </trkpt>
      <trkpt lat="42.97037340908" lon="-5.78004156378">
        <ele>1655.62</ele>
        <time>2012-12-20T12:52:25+01:00</time>
      </trkpt>
      <trkpt lat="42.97035482943" lon="-5.78009501314">
        <ele>1656.88</ele>
        <time>2012-12-20T12:52:27+01:00</time>
      </trkpt>
      <trkpt lat="42.97033867476" lon="-5.78014868541">
        <ele>1657.95</ele>
        <time>2012-12-20T12:52:29+01:00</time>
      </trkpt>
      <trkpt lat="42.97032789633" lon="-5.78018007915">
        <ele>1659.04</ele>
        <time>2012-12-20T12:52:31+01:00</time>
      </trkpt>
      <trkpt lat="42.97031823235" lon="-5.78021145018">
        <ele>1660.02</ele>
        <time>2012-12-20T12:52:32+01:00</time>
      </trkpt>
      <trkpt lat="42.97029531316" lon="-5.78027751774">
        <ele>1661.17</ele>
        <time>2012-12-20T12:52:34+01:00</time>
      </trkpt>
      <trkpt lat="42.97028254858" lon="-5.7803143347">
        <ele>1662.11</ele>
        <time>2012-12-20T12:52:35+01:00</time>
      </trkpt>
      <trkpt lat="42.97027500186" lon="-5.78033591017">
        <ele>1663.03</ele>
        <time>2012-12-20T12:52:36+01:00</time>
      </trkpt>
      <trkpt lat="42.9702732665" lon="-5.78034106844">
        <ele>1663.88</ele>
        <time>2012-12-20T12:52:37+01:00</time>
      </trkpt>
      <trkpt lat="42.97025376467" lon="-5.78040234785">
        <ele>1664.1</ele>
        <time>2012-12-20T12:52:38+01:00</time>
      </trkpt>
      <trkpt lat="42.97024380419" lon="-5.78043817097">
        <ele>1665.91</ele>
        <time>2012-12-20T12:52:40+01:00</time>
      </trkpt>
      <trkpt lat="42.97023174543" lon="-5.78050015592">
        <ele>1666.64</ele>
        <time>2012-12-20T12:52:42+01:00</time>
      </trkpt>
      <trkpt lat="42.97022541849" lon="-5.78052848161">
        <ele>1667.42</ele>
        <time>2012-12-20T12:52:44+01:00</time>
      </trkpt>
      <trkpt lat="42.97021231031" lon="-5.78057367272">
        <ele>1667.42</ele>
        <time>2012-12-20T12:52:46+01:00</time>
      </trkpt>
      <trkpt lat="42.97019523828" lon="-5.78062153591">
        <ele>1669.44</ele>
        <time>2012-12-20T12:52:47+01:00</time>
      </trkpt>
      <trkpt lat="42.9701826373" lon="-5.78065310267">
        <ele>1670.64</ele>
        <time>2012-12-20T12:52:48+01:00</time>
      </trkpt>
      <trkpt lat="42.97016402385" lon="-5.78070065498">
        <ele>1671.63</ele>
        <time>2012-12-20T12:52:50+01:00</time>
      </trkpt>
      <trkpt lat="42.97015195279" lon="-5.78073236072">
        <ele>1671.45</ele>
        <time>2012-12-20T12:52:51+01:00</time>
      </trkpt>
      <trkpt lat="42.97013877211" lon="-5.78075413549">
        <ele>1672.75</ele>
        <time>2012-12-20T12:52:53+01:00</time>
      </trkpt>
      <trkpt lat="42.97011109495" lon="-5.78080964266">
        <ele>1673.79</ele>
        <time>2012-12-20T12:52:55+01:00</time>
      </trkpt>
      <trkpt lat="42.97008936568" lon="-5.78085339999">
        <ele>1674.55</ele>
        <time>2012-12-20T12:52:58+01:00</time>
      </trkpt>
      <trkpt lat="42.97007921955" lon="-5.78089453913">
        <ele>1675.14</ele>
        <time>2012-12-20T12:53:00+01:00</time>
      </trkpt>
      <trkpt lat="42.97007644254" lon="-5.78092122302">
        <ele>1675.88</ele>
        <time>2012-12-20T12:53:01+01:00</time>
      </trkpt>
      <trkpt lat="42.97008930836" lon="-5.78096416191">
        <ele>1676.46</ele>
        <time>2012-12-20T12:53:07+01:00</time>
      </trkpt>
      <trkpt lat="42.97007210023" lon="-5.78101291577">
        <ele>1678.42</ele>
        <time>2012-12-20T12:53:09+01:00</time>
      </trkpt>
      <trkpt lat="42.97005430879" lon="-5.78106517955">
        <ele>1679.34</ele>
        <time>2012-12-20T12:53:11+01:00</time>
      </trkpt>
      <trkpt lat="42.97004702893" lon="-5.78110325906">
        <ele>1679</ele>
        <time>2012-12-20T12:53:13+01:00</time>
      </trkpt>
      <trkpt lat="42.97004466772" lon="-5.78114473785">
        <ele>1679.47</ele>
        <time>2012-12-20T12:53:14+01:00</time>
      </trkpt>
      <trkpt lat="42.97004554603" lon="-5.78116668651">
        <ele>1680.01</ele>
        <time>2012-12-20T12:53:15+01:00</time>
      </trkpt>
      <trkpt lat="42.97005305479" lon="-5.78122608789">
        <ele>1680.41</ele>
        <time>2012-12-20T12:53:17+01:00</time>
      </trkpt>
      <trkpt lat="42.97006102737" lon="-5.78127739664">
        <ele>1680.92</ele>
        <time>2012-12-20T12:53:19+01:00</time>
      </trkpt>
      <trkpt lat="42.97006359419" lon="-5.78134150374">
        <ele>1681.28</ele>
        <time>2012-12-20T12:53:23+01:00</time>
      </trkpt>
      <trkpt lat="42.97005442253" lon="-5.7813771774">
        <ele>1681.88</ele>
        <time>2012-12-20T12:53:25+01:00</time>
      </trkpt>
      <trkpt lat="42.97003018729" lon="-5.78144514481">
        <ele>1682.33</ele>
        <time>2012-12-20T12:53:27+01:00</time>
      </trkpt>
      <trkpt lat="42.97002254784" lon="-5.78147522414">
        <ele>1682.76</ele>
        <time>2012-12-20T12:53:28+01:00</time>
      </trkpt>
      <trkpt lat="42.97001705174" lon="-5.78151369122">
        <ele>1683.33</ele>
        <time>2012-12-20T12:53:30+01:00</time>
      </trkpt>
      <trkpt lat="42.96999488522" lon="-5.78157168931">
        <ele>1683.78</ele>
        <time>2012-12-20T12:53:31+01:00</time>
      </trkpt>
      <trkpt lat="42.96997352047" lon="-5.78162814887">
        <ele>1684.31</ele>
        <time>2012-12-20T12:53:34+01:00</time>
      </trkpt>
      <trkpt lat="42.96995542717" lon="-5.78164698289">
        <ele>1685.14</ele>
        <time>2012-12-20T12:53:35+01:00</time>
      </trkpt>
      <trkpt lat="42.96993736998" lon="-5.78167986923">
        <ele>1686.31</ele>
        <time>2012-12-20T12:53:37+01:00</time>
      </trkpt>
      <trkpt lat="42.96992440189" lon="-5.78171362103">
        <ele>1686.99</ele>
        <time>2012-12-20T12:53:38+01:00</time>
      </trkpt>
      <trkpt lat="42.96991590619" lon="-5.78174893711">
        <ele>1687.59</ele>
        <time>2012-12-20T12:53:40+01:00</time>
      </trkpt>
      <trkpt lat="42.96991017055" lon="-5.78178298178">
        <ele>1688.39</ele>
        <time>2012-12-20T12:53:41+01:00</time>
      </trkpt>
      <trkpt lat="42.96990575207" lon="-5.78182401826">
        <ele>1688.94</ele>
        <time>2012-12-20T12:53:44+01:00</time>
      </trkpt>
      <trkpt lat="42.96990058822" lon="-5.7818603783">
        <ele>1689.81</ele>
        <time>2012-12-20T12:53:45+01:00</time>
      </trkpt>
      <trkpt lat="42.96988796896" lon="-5.78188668877">
        <ele>1690.69</ele>
        <time>2012-12-20T12:53:46+01:00</time>
      </trkpt>
      <trkpt lat="42.96988235084" lon="-5.78191908047">
        <ele>1691.11</ele>
        <time>2012-12-20T12:53:47+01:00</time>
      </trkpt>
      <trkpt lat="42.96986823392" lon="-5.78197557101">
        <ele>1691.85</ele>
        <time>2012-12-20T12:53:50+01:00</time>
      </trkpt>
      <trkpt lat="42.96985451406" lon="-5.78202804103">
        <ele>1692.55</ele>
        <time>2012-12-20T12:53:51+01:00</time>
      </trkpt>
      <trkpt lat="42.96985449641" lon="-5.78206100278">
        <ele>1692.91</ele>
        <time>2012-12-20T12:53:54+01:00</time>
      </trkpt>
      <trkpt lat="42.96984732106" lon="-5.78210627549">
        <ele>1693.28</ele>
        <time>2012-12-20T12:53:55+01:00</time>
      </trkpt>
      <trkpt lat="42.96984339811" lon="-5.78214617856">
        <ele>1693.9</ele>
        <time>2012-12-20T12:53:57+01:00</time>
      </trkpt>
      <trkpt lat="42.96983854488" lon="-5.78218222335">
        <ele>1694.32</ele>
        <time>2012-12-20T12:53:57+01:00</time>
      </trkpt>
      <trkpt lat="42.96983561535" lon="-5.78222430181">
        <ele>1694.55</ele>
        <time>2012-12-20T12:53:59+01:00</time>
      </trkpt>
      <trkpt lat="42.96982736124" lon="-5.78226378123">
        <ele>1695.31</ele>
        <time>2012-12-20T12:54:00+01:00</time>
      </trkpt>
      <trkpt lat="42.96981856128" lon="-5.782298776">
        <ele>1695.87</ele>
        <time>2012-12-20T12:54:01+01:00</time>
      </trkpt>
      <trkpt lat="42.96980850351" lon="-5.78233136081">
        <ele>1696.37</ele>
        <time>2012-12-20T12:54:02+01:00</time>
      </trkpt>
      <trkpt lat="42.96980506279" lon="-5.78234126614">
        <ele>1696.91</ele>
        <time>2012-12-20T12:54:04+01:00</time>
      </trkpt>
      <trkpt lat="42.96980074657" lon="-5.78235355046">
        <ele>1697.55</ele>
        <time>2012-12-20T12:54:06+01:00</time>
      </trkpt>
      <trkpt lat="42.96977306743" lon="-5.78243611301">
        <ele>1698.04</ele>
        <time>2012-12-20T12:54:07+01:00</time>
      </trkpt>
      <trkpt lat="42.9697505945" lon="-5.78249658884">
        <ele>1698.56</ele>
        <time>2012-12-20T12:54:07+01:00</time>
      </trkpt>
      <trkpt lat="42.9697327992" lon="-5.78254359056">
        <ele>1699.21</ele>
        <time>2012-12-20T12:54:09+01:00</time>
      </trkpt>
      <trkpt lat="42.96971132869" lon="-5.78259148276">
        <ele>1700.22</ele>
        <time>2012-12-20T12:54:11+01:00</time>
      </trkpt>
      <trkpt lat="42.96969210676" lon="-5.78263160594">
        <ele>1701.1</ele>
        <time>2012-12-20T12:54:12+01:00</time>
      </trkpt>
      <trkpt lat="42.96967042586" lon="-5.78267258037">
        <ele>1701.98</ele>
        <time>2012-12-20T12:54:14+01:00</time>
      </trkpt>
      <trkpt lat="42.96964345024" lon="-5.78271892576">
        <ele>1702.97</ele>
        <time>2012-12-20T12:54:17+01:00</time>
      </trkpt>
      <trkpt lat="42.96961942219" lon="-5.78276435241">
        <ele>1704.18</ele>
        <time>2012-12-20T12:54:19+01:00</time>
      </trkpt>
      <trkpt lat="42.96958021729" lon="-5.7828389152">
        <ele>1705.07</ele>
        <time>2012-12-20T12:54:21+01:00</time>
      </trkpt>
      <trkpt lat="42.96956322327" lon="-5.78287971108">
        <ele>1705.85</ele>
        <time>2012-12-20T12:54:22+01:00</time>
      </trkpt>
      <trkpt lat="42.96955609083" lon="-5.782910082">
        <ele>1706.31</ele>
        <time>2012-12-20T12:54:24+01:00</time>
      </trkpt>
      <trkpt lat="42.96954364583" lon="-5.7829576469">
        <ele>1706.97</ele>
        <time>2012-12-20T12:54:26+01:00</time>
      </trkpt>
      <trkpt lat="42.96953240612" lon="-5.78298841639">
        <ele>1707.91</ele>
        <time>2012-12-20T12:54:27+01:00</time>
      </trkpt>
      <trkpt lat="42.96952217921" lon="-5.78301874939">
        <ele>1708.77</ele>
        <time>2012-12-20T12:54:29+01:00</time>
      </trkpt>
      <trkpt lat="42.96951094696" lon="-5.78305181125">
        <ele>1709.25</ele>
        <time>2012-12-20T12:54:30+01:00</time>
      </trkpt>
      <trkpt lat="42.96950069983" lon="-5.78308330388">
        <ele>1709.92</ele>
        <time>2012-12-20T12:54:31+01:00</time>
      </trkpt>
      <trkpt lat="42.96949865672" lon="-5.78309058542">
        <ele>1710.44</ele>
        <time>2012-12-20T12:54:33+01:00</time>
      </trkpt>
      <trkpt lat="42.96947566498" lon="-5.78318834185">
        <ele>1711.17</ele>
        <time>2012-12-20T12:54:36+01:00</time>
      </trkpt>
      <trkpt lat="42.96946440911" lon="-5.78322113898">
        <ele>1711.78</ele>
        <time>2012-12-20T12:54:37+01:00</time>
      </trkpt>
      <trkpt lat="42.96945020763" lon="-5.78328821331">
        <ele>1712.44</ele>
        <time>2012-12-20T12:54:39+01:00</time>
      </trkpt>
      <trkpt lat="42.96944457677" lon="-5.78331252322">
        <ele>1713.07</ele>
        <time>2012-12-20T12:54:39+01:00</time>
      </trkpt>
      <trkpt lat="42.96943777994" lon="-5.78334215444">
        <ele>1713.66</ele>
        <time>2012-12-20T12:54:41+01:00</time>
      </trkpt>
      <trkpt lat="42.96943155263" lon="-5.78337256039">
        <ele>1714.2</ele>
        <time>2012-12-20T12:54:41+01:00</time>
      </trkpt>
      <trkpt lat="42.96937215547" lon="-5.78342746233">
        <ele>1715.44</ele>
        <time>2012-12-20T12:54:43+01:00</time>
      </trkpt>
      <trkpt lat="42.96934465217" lon="-5.78345681585">
        <ele>1716.38</ele>
        <time>2012-12-20T12:54:44+01:00</time>
      </trkpt>
      <trkpt lat="42.96932778565" lon="-5.7834978235">
        <ele>1717.26</ele>
        <time>2012-12-20T12:54:44+01:00</time>
      </trkpt>
      <trkpt lat="42.96931061086" lon="-5.78351032553">
        <ele>1717.83</ele>
        <time>2012-12-20T12:54:46+01:00</time>
      </trkpt>
      <trkpt lat="42.96930704517" lon="-5.78351453454">
        <ele>1718.67</ele>
        <time>2012-12-20T12:54:46+01:00</time>
      </trkpt>
      <trkpt lat="42.96928278531" lon="-5.78355841127">
        <ele>1719.61</ele>
        <time>2012-12-20T12:54:49+01:00</time>
      </trkpt>
      <trkpt lat="42.96927882774" lon="-5.78358604933">
        <ele>1720.52</ele>
        <time>2012-12-20T12:54:51+01:00</time>
      </trkpt>
      <trkpt lat="42.96926917951" lon="-5.7836233796">
        <ele>1721.48</ele>
        <time>2012-12-20T12:54:54+01:00</time>
      </trkpt>
      <trkpt lat="42.96926119122" lon="-5.78366685516">
        <ele>1722.41</ele>
        <time>2012-12-20T12:54:55+01:00</time>
      </trkpt>
      <trkpt lat="42.96925285945" lon="-5.78371818106">
        <ele>1723.31</ele>
        <time>2012-12-20T12:54:58+01:00</time>
      </trkpt>
      <trkpt lat="42.96923405703" lon="-5.78379907259">
        <ele>1724.37</ele>
        <time>2012-12-20T12:54:59+01:00</time>
      </trkpt>
      <trkpt lat="42.96922068453" lon="-5.78382917487">
        <ele>1725.38</ele>
        <time>2012-12-20T12:55:01+01:00</time>
      </trkpt>
      <trkpt lat="42.96920192833" lon="-5.78386635423">
        <ele>1726.39</ele>
        <time>2012-12-20T12:55:03+01:00</time>
      </trkpt>
      <trkpt lat="42.96918234527" lon="-5.78389734913">
        <ele>1728.28</ele>
        <time>2012-12-20T12:55:05+01:00</time>
      </trkpt>
      <trkpt lat="42.96917492661" lon="-5.78395111291">
        <ele>1729.67</ele>
        <time>2012-12-20T12:55:08+01:00</time>
      </trkpt>
      <trkpt lat="42.96917961196" lon="-5.78399324751">
        <ele>1733.18</ele>
        <time>2012-12-20T12:55:11+01:00</time>
      </trkpt>
      <trkpt lat="42.96918095136" lon="-5.78404552855">
        <ele>1734.47</ele>
        <time>2012-12-20T12:55:12+01:00</time>
      </trkpt>
      <trkpt lat="42.96916931694" lon="-5.78408709838">
        <ele>1736.29</ele>
        <time>2012-12-20T12:55:13+01:00</time>
      </trkpt>
      <trkpt lat="42.96916001631" lon="-5.78412759885">
        <ele>1738.03</ele>
        <time>2012-12-20T12:55:15+01:00</time>
      </trkpt>
      <trkpt lat="42.96914648858" lon="-5.78416265515">
        <ele>1739.75</ele>
        <time>2012-12-20T12:55:15+01:00</time>
      </trkpt>
      <trkpt lat="42.96913395944" lon="-5.78421875083">
        <ele>1741.41</ele>
        <time>2012-12-20T12:55:17+01:00</time>
      </trkpt>
      <trkpt lat="42.96912662563" lon="-5.78427127599">
        <ele>1742.96</ele>
        <time>2012-12-20T12:55:20+01:00</time>
      </trkpt>
      <trkpt lat="42.96912194022" lon="-5.78432784796">
        <ele>1744.54</ele>
        <time>2012-12-20T12:55:21+01:00</time>
      </trkpt>
      <trkpt lat="42.96912227719" lon="-5.78438194359">
        <ele>1744.49</ele>
        <time>2012-12-20T12:55:23+01:00</time>
      </trkpt>
      <trkpt lat="42.96911449912" lon="-5.78441911542">
        <ele>1746.94</ele>
        <time>2012-12-20T12:55:25+01:00</time>
      </trkpt>
      <trkpt lat="42.96910633857" lon="-5.7844555847">
        <ele>1746.79</ele>
        <time>2012-12-20T12:55:26+01:00</time>
      </trkpt>
      <trkpt lat="42.96909682747" lon="-5.78449057236">
        <ele>1747.54</ele>
        <time>2012-12-20T12:55:26+01:00</time>
      </trkpt>
      <trkpt lat="42.96908744859" lon="-5.78452224622">
        <ele>1748.29</ele>
        <time>2012-12-20T12:55:27+01:00</time>
      </trkpt>
      <trkpt lat="42.96908200146" lon="-5.78454108333">
        <ele>1749.09</ele>
        <time>2012-12-20T12:55:28+01:00</time>
      </trkpt>
      <trkpt lat="42.96907257237" lon="-5.78456726569">
        <ele>1749.7</ele>
        <time>2012-12-20T12:55:29+01:00</time>
      </trkpt>
      <trkpt lat="42.96904253208" lon="-5.7846308587">
        <ele>1750.71</ele>
        <time>2012-12-20T12:55:31+01:00</time>
      </trkpt>
      <trkpt lat="42.96902607845" lon="-5.78465716419">
        <ele>1751.65</ele>
        <time>2012-12-20T12:55:33+01:00</time>
      </trkpt>
      <trkpt lat="42.96899857327" lon="-5.78468381181">
        <ele>1752.71</ele>
        <time>2012-12-20T12:55:36+01:00</time>
      </trkpt>
      <trkpt lat="42.96897857616" lon="-5.78471125912">
        <ele>1753.46</ele>
        <time>2012-12-20T12:55:38+01:00</time>
      </trkpt>
      <trkpt lat="42.96894242837" lon="-5.784772109">
        <ele>1754.38</ele>
        <time>2012-12-20T12:55:39+01:00</time>
      </trkpt>
      <trkpt lat="42.96892215657" lon="-5.78482766371">
        <ele>1755.28</ele>
        <time>2012-12-20T12:55:41+01:00</time>
      </trkpt>
      <trkpt lat="42.96890733985" lon="-5.78487867251">
        <ele>1756.15</ele>
        <time>2012-12-20T12:55:43+01:00</time>
      </trkpt>
      <trkpt lat="42.96889475408" lon="-5.78492293832">
        <ele>1757.13</ele>
        <time>2012-12-20T12:55:45+01:00</time>
      </trkpt>
      <trkpt lat="42.96888492468" lon="-5.78495588037">
        <ele>1758.05</ele>
        <time>2012-12-20T12:55:47+01:00</time>
      </trkpt>
      <trkpt lat="42.96887269678" lon="-5.78500198142">
        <ele>1759.12</ele>
        <time>2012-12-20T12:55:49+01:00</time>
      </trkpt>
      <trkpt lat="42.96885466666" lon="-5.78507855896">
        <ele>1760.11</ele>
        <time>2012-12-20T12:55:51+01:00</time>
      </trkpt>
      <trkpt lat="42.96884643382" lon="-5.78512243999">
        <ele>1761.5</ele>
        <time>2012-12-20T12:55:53+01:00</time>
      </trkpt>
      <trkpt lat="42.96884498562" lon="-5.78514636531">
        <ele>1762.95</ele>
        <time>2012-12-20T12:55:55+01:00</time>
      </trkpt>
      <trkpt lat="42.9688388971" lon="-5.78517735489">
        <ele>1764.18</ele>
        <time>2012-12-20T12:55:57+01:00</time>
      </trkpt>
      <trkpt lat="42.96881246804" lon="-5.78523949631">
        <ele>1767.12</ele>
        <time>2012-12-20T12:55:58+01:00</time>
      </trkpt>
      <trkpt lat="42.96878502047" lon="-5.78528840264">
        <ele>1768.46</ele>
        <time>2012-12-20T12:55:59+01:00</time>
      </trkpt>
      <trkpt lat="42.96875656454" lon="-5.78533881937">
        <ele>1769.93</ele>
        <time>2012-12-20T12:56:00+01:00</time>
      </trkpt>
      <trkpt lat="42.96872897983" lon="-5.78538403965">
        <ele>1771.79</ele>
        <time>2012-12-20T12:56:01+01:00</time>
      </trkpt>
      <trkpt lat="42.96869888714" lon="-5.78544250341">
        <ele>1773.58</ele>
        <time>2012-12-20T12:56:03+01:00</time>
      </trkpt>
      <trkpt lat="42.96868187155" lon="-5.78547297163">
        <ele>1775.5</ele>
        <time>2012-12-20T12:56:05+01:00</time>
      </trkpt>
      <trkpt lat="42.96866837662" lon="-5.7855058203">
        <ele>1777.51</ele>
        <time>2012-12-20T12:56:06+01:00</time>
      </trkpt>
      <trkpt lat="42.96864824327" lon="-5.78554182728">
        <ele>1779.95</ele>
        <time>2012-12-20T12:56:08+01:00</time>
      </trkpt>
      <trkpt lat="42.96864394838" lon="-5.78558242218">
        <ele>1781.64</ele>
        <time>2012-12-20T12:56:10+01:00</time>
      </trkpt>
      <trkpt lat="42.96863695385" lon="-5.78561709503">
        <ele>1783.4</ele>
        <time>2012-12-20T12:56:12+01:00</time>
      </trkpt>
      <trkpt lat="42.96863810304" lon="-5.78566111114">
        <ele>1785.79</ele>
        <time>2012-12-20T12:56:15+01:00</time>
      </trkpt>
      <trkpt lat="42.96862951512" lon="-5.78569707173">
        <ele>1787.49</ele>
        <time>2012-12-20T12:56:17+01:00</time>
      </trkpt>
      <trkpt lat="42.96861700164" lon="-5.78573490808">
        <ele>1789.21</ele>
        <time>2012-12-20T12:56:19+01:00</time>
      </trkpt>
      <trkpt lat="42.96861054269" lon="-5.78577868518">
        <ele>1790.62</ele>
        <time>2012-12-20T12:56:21+01:00</time>
      </trkpt>
      <trkpt lat="42.96860774462" lon="-5.78581160805">
        <ele>1792.29</ele>
        <time>2012-12-20T12:56:23+01:00</time>
      </trkpt>
      <trkpt lat="42.96859363739" lon="-5.78586208622">
        <ele>1794.13</ele>
        <time>2012-12-20T12:56:25+01:00</time>
      </trkpt>
      <trkpt lat="42.96857700257" lon="-5.78592099806">
        <ele>1796.03</ele>
        <time>2012-12-20T12:56:26+01:00</time>
      </trkpt>
      <trkpt lat="42.96856076747" lon="-5.7859567862">
        <ele>1797.69</ele>
        <time>2012-12-20T12:56:28+01:00</time>
      </trkpt>
      <trkpt lat="42.96854709336" lon="-5.78598587089">
        <ele>1799.23</ele>
        <time>2012-12-20T12:56:29+01:00</time>
      </trkpt>
      <trkpt lat="42.96852870115" lon="-5.78603044574">
        <ele>1800.84</ele>
        <time>2012-12-20T12:56:30+01:00</time>
      </trkpt>
      <trkpt lat="42.96851536675" lon="-5.78606638397">
        <ele>1802.4</ele>
        <time>2012-12-20T12:56:31+01:00</time>
      </trkpt>
      <trkpt lat="42.96849533257" lon="-5.78610944616">
        <ele>1803.84</ele>
        <time>2012-12-20T12:56:33+01:00</time>
      </trkpt>
      <trkpt lat="42.9684835138" lon="-5.78614159499">
        <ele>1805.22</ele>
        <time>2012-12-20T12:56:34+01:00</time>
      </trkpt>
      <trkpt lat="42.96847378028" lon="-5.7861707593">
        <ele>1806.54</ele>
        <time>2012-12-20T12:56:36+01:00</time>
      </trkpt>
      <trkpt lat="42.96846359101" lon="-5.78620047079">
        <ele>1807.71</ele>
        <time>2012-12-20T12:56:37+01:00</time>
      </trkpt>
      <trkpt lat="42.96844605186" lon="-5.7862456306">
        <ele>1808.65</ele>
        <time>2012-12-20T12:56:39+01:00</time>
      </trkpt>
      <trkpt lat="42.96842608197" lon="-5.78629315226">
        <ele>1809.65</ele>
        <time>2012-12-20T12:56:40+01:00</time>
      </trkpt>
      <trkpt lat="42.96840183732" lon="-5.78634423083">
        <ele>1810.88</ele>
        <time>2012-12-20T12:56:42+01:00</time>
      </trkpt>
      <trkpt lat="42.96838454964" lon="-5.78638321324">
        <ele>1811.81</ele>
        <time>2012-12-20T12:56:44+01:00</time>
      </trkpt>
      <trkpt lat="42.96835614756" lon="-5.78643412623">
        <ele>1812.92</ele>
        <time>2012-12-20T12:56:46+01:00</time>
      </trkpt>
      <trkpt lat="42.9683370561" lon="-5.78646791227">
        <ele>1813.95</ele>
        <time>2012-12-20T12:56:47+01:00</time>
      </trkpt>
      <trkpt lat="42.96832555435" lon="-5.78648571421">
        <ele>1814.94</ele>
        <time>2012-12-20T12:56:48+01:00</time>
      </trkpt>
      <trkpt lat="42.96830746813" lon="-5.78652241926">
        <ele>1815.74</ele>
        <time>2012-12-20T12:56:49+01:00</time>
      </trkpt>
      <trkpt lat="42.96829060748" lon="-5.78655731996">
        <ele>1816.88</ele>
        <time>2012-12-20T12:56:50+01:00</time>
      </trkpt>
      <trkpt lat="42.96827526599" lon="-5.78658703183">
        <ele>1817.54</ele>
        <time>2012-12-20T12:56:51+01:00</time>
      </trkpt>
      <trkpt lat="42.9682575126" lon="-5.78663542016">
        <ele>1818.27</ele>
        <time>2012-12-20T12:56:53+01:00</time>
      </trkpt>
      <trkpt lat="42.96824806106" lon="-5.78666970709">
        <ele>1819.14</ele>
        <time>2012-12-20T12:56:54+01:00</time>
      </trkpt>
      <trkpt lat="42.9682371183" lon="-5.78671880927">
        <ele>1820.08</ele>
        <time>2012-12-20T12:56:56+01:00</time>
      </trkpt>
      <trkpt lat="42.96823053763" lon="-5.7867734226">
        <ele>1820.81</ele>
        <time>2012-12-20T12:56:58+01:00</time>
      </trkpt>
      <trkpt lat="42.96821795622" lon="-5.78683436846">
        <ele>1821.4</ele>
        <time>2012-12-20T12:57:00+01:00</time>
      </trkpt>
      <trkpt lat="42.96820675628" lon="-5.78687076457">
        <ele>1822.11</ele>
        <time>2012-12-20T12:57:01+01:00</time>
      </trkpt>
      <trkpt lat="42.96820015771" lon="-5.78690386005">
        <ele>1822.92</ele>
        <time>2012-12-20T12:57:02+01:00</time>
      </trkpt>
      <trkpt lat="42.96818921557" lon="-5.7869361613">
        <ele>1823.67</ele>
        <time>2012-12-20T12:57:03+01:00</time>
      </trkpt>
      <trkpt lat="42.96818082796" lon="-5.78695562166">
        <ele>1824.27</ele>
        <time>2012-12-20T12:57:04+01:00</time>
      </trkpt>
      <trkpt lat="42.96815966747" lon="-5.78701611694">
        <ele>1825.13</ele>
        <time>2012-12-20T12:57:06+01:00</time>
      </trkpt>
      <trkpt lat="42.96814618175" lon="-5.78706576693">
        <ele>1826.18</ele>
        <time>2012-12-20T12:57:08+01:00</time>
      </trkpt>
      <trkpt lat="42.96813858957" lon="-5.78710795049">
        <ele>1827.11</ele>
        <time>2012-12-20T12:57:10+01:00</time>
      </trkpt>
      <trkpt lat="42.96813422129" lon="-5.78714823843">
        <ele>1827.92</ele>
        <time>2012-12-20T12:57:12+01:00</time>
      </trkpt>
      <trkpt lat="42.96813281611" lon="-5.78717129552">
        <ele>1828.92</ele>
        <time>2012-12-20T12:57:14+01:00</time>
      </trkpt>
      <trkpt lat="42.9681375593" lon="-5.78721837377">
        <ele>1829.6</ele>
        <time>2012-12-20T12:57:16+01:00</time>
      </trkpt>
      <trkpt lat="42.96813821506" lon="-5.78724177673">
        <ele>1830.23</ele>
        <time>2012-12-20T12:57:18+01:00</time>
      </trkpt>
      <trkpt lat="42.9681393767" lon="-5.78730012873">
        <ele>1831.34</ele>
        <time>2012-12-20T12:57:21+01:00</time>
      </trkpt>
      <trkpt lat="42.96812552742" lon="-5.78735142877">
        <ele>1832.5</ele>
        <time>2012-12-20T12:57:23+01:00</time>
      </trkpt>
      <trkpt lat="42.96810592671" lon="-5.78739997731">
        <ele>1833.19</ele>
        <time>2012-12-20T12:57:25+01:00</time>
      </trkpt>
      <trkpt lat="42.96809392641" lon="-5.7874312788">
        <ele>1834.05</ele>
        <time>2012-12-20T12:57:26+01:00</time>
      </trkpt>
      <trkpt lat="42.96807117509" lon="-5.78748105794">
        <ele>1834.66</ele>
        <time>2012-12-20T12:57:28+01:00</time>
      </trkpt>
      <trkpt lat="42.96805596787" lon="-5.78751674272">
        <ele>1835.48</ele>
        <time>2012-12-20T12:57:30+01:00</time>
      </trkpt>
      <trkpt lat="42.968033375" lon="-5.78756601061">
        <ele>1836.3</ele>
        <time>2012-12-20T12:57:31+01:00</time>
      </trkpt>
      <trkpt lat="42.96801829523" lon="-5.78759752303">
        <ele>1836.91</ele>
        <time>2012-12-20T12:57:32+01:00</time>
      </trkpt>
      <trkpt lat="42.96800455044" lon="-5.78762695957">
        <ele>1837.56</ele>
        <time>2012-12-20T12:57:33+01:00</time>
      </trkpt>
      <trkpt lat="42.96798611056" lon="-5.78767368351">
        <ele>1838.46</ele>
        <time>2012-12-20T12:57:35+01:00</time>
      </trkpt>
      <trkpt lat="42.96797594754" lon="-5.78770663945">
        <ele>1839.22</ele>
        <time>2012-12-20T12:57:37+01:00</time>
      </trkpt>
      <trkpt lat="42.96795443961" lon="-5.78778463674">
        <ele>1840.59</ele>
        <time>2012-12-20T12:57:39+01:00</time>
      </trkpt>
      <trkpt lat="42.96794323133" lon="-5.7878285335">
        <ele>1841.43</ele>
        <time>2012-12-20T12:57:40+01:00</time>
      </trkpt>
      <trkpt lat="42.96793337891" lon="-5.78786185506">
        <ele>1842.18</ele>
        <time>2012-12-20T12:57:41+01:00</time>
      </trkpt>
      <trkpt lat="42.96792206812" lon="-5.78788944768">
        <ele>1843.01</ele>
        <time>2012-12-20T12:57:43+01:00</time>
      </trkpt>
      <trkpt lat="42.96790078191" lon="-5.7879414284">
        <ele>1843.43</ele>
        <time>2012-12-20T12:57:45+01:00</time>
      </trkpt>
      <trkpt lat="42.96788192349" lon="-5.78798518484">
        <ele>1843.41</ele>
        <time>2012-12-20T12:57:47+01:00</time>
      </trkpt>
      <trkpt lat="42.96786603147" lon="-5.78802119376">
        <ele>1843.83</ele>
        <time>2012-12-20T12:57:49+01:00</time>
      </trkpt>
      <trkpt lat="42.96784740606" lon="-5.78805275671">
        <ele>1842.19</ele>
        <time>2012-12-20T12:57:53+01:00</time>
      </trkpt>
      <trkpt lat="42.96785111489" lon="-5.78809143685">
        <ele>1843.33</ele>
        <time>2012-12-20T12:57:56+01:00</time>
      </trkpt>
      <trkpt lat="42.96785148785" lon="-5.78812498914">
        <ele>1843.31</ele>
        <time>2012-12-20T12:57:57+01:00</time>
      </trkpt>
      <trkpt lat="42.96785313824" lon="-5.78816334967">
        <ele>1843.33</ele>
        <time>2012-12-20T12:57:58+01:00</time>
      </trkpt>
      <trkpt lat="42.96786195081" lon="-5.78819482638">
        <ele>1843.15</ele>
        <time>2012-12-20T12:57:59+01:00</time>
      </trkpt>
      <trkpt lat="42.96787222933" lon="-5.7882246581">
        <ele>1843.61</ele>
        <time>2012-12-20T12:58:00+01:00</time>
      </trkpt>
      <trkpt lat="42.96790918728" lon="-5.78823974396">
        <ele>1843.94</ele>
        <time>2012-12-20T12:58:02+01:00</time>
      </trkpt>
      <trkpt lat="42.96795480648" lon="-5.78824540139">
        <ele>1843.17</ele>
        <time>2012-12-20T12:58:04+01:00</time>
      </trkpt>
      <trkpt lat="42.96798189499" lon="-5.78824503255">
        <ele>1843.32</ele>
        <time>2012-12-20T12:58:07+01:00</time>
      </trkpt>
      <trkpt lat="42.96799720431" lon="-5.78822692345">
        <ele>1842.69</ele>
        <time>2012-12-20T12:58:38+01:00</time>
      </trkpt>
      <trkpt lat="42.96805152892" lon="-5.78817951205">
        <ele>1842.81</ele>
        <time>2012-12-20T12:58:40+01:00</time>
      </trkpt>
      <trkpt lat="42.96808468971" lon="-5.7881440794">
        <ele>1842.9</ele>
        <time>2012-12-20T12:58:41+01:00</time>
      </trkpt>
      <trkpt lat="42.9681184457" lon="-5.78810514163">
        <ele>1842.64</ele>
        <time>2012-12-20T12:58:42+01:00</time>
      </trkpt>
      <trkpt lat="42.96816254666" lon="-5.78801742425">
        <ele>1842.67</ele>
        <time>2012-12-20T12:58:43+01:00</time>
      </trkpt>
      <trkpt lat="42.96816724296" lon="-5.78794409083">
        <ele>1842.89</ele>
        <time>2012-12-20T12:58:44+01:00</time>
      </trkpt>
      <trkpt lat="42.96815913401" lon="-5.78787704793">
        <ele>1842.49</ele>
        <time>2012-12-20T12:58:45+01:00</time>
      </trkpt>
      <trkpt lat="42.9681524453" lon="-5.7878285085">
        <ele>1842.06</ele>
        <time>2012-12-20T12:58:46+01:00</time>
      </trkpt>
      <trkpt lat="42.96814255802" lon="-5.7877866141">
        <ele>1842.26</ele>
        <time>2012-12-20T12:58:47+01:00</time>
      </trkpt>
      <trkpt lat="42.96813286921" lon="-5.78772901669">
        <ele>1842.22</ele>
        <time>2012-12-20T12:58:48+01:00</time>
      </trkpt>
      <trkpt lat="42.9681247959" lon="-5.7876782699">
        <ele>1842.12</ele>
        <time>2012-12-20T12:58:49+01:00</time>
      </trkpt>
      <trkpt lat="42.96813142903" lon="-5.7876290944">
        <ele>1842.01</ele>
        <time>2012-12-20T12:58:50+01:00</time>
      </trkpt>
      <trkpt lat="42.96813885768" lon="-5.78759310776">
        <ele>1841.93</ele>
        <time>2012-12-20T12:58:51+01:00</time>
      </trkpt>
      <trkpt lat="42.96815325154" lon="-5.78756545859">
        <ele>1841.69</ele>
        <time>2012-12-20T12:58:52+01:00</time>
      </trkpt>
      <trkpt lat="42.96817440286" lon="-5.7875637509">
        <ele>1841.12</ele>
        <time>2012-12-20T12:58:53+01:00</time>
      </trkpt>
      <trkpt lat="42.96819568264" lon="-5.78754171622">
        <ele>1840.63</ele>
        <time>2012-12-20T12:58:55+01:00</time>
      </trkpt>
      <trkpt lat="42.96823303976" lon="-5.78752253939">
        <ele>1839.92</ele>
        <time>2012-12-20T12:58:57+01:00</time>
      </trkpt>
      <trkpt lat="42.96825608737" lon="-5.78750553429">
        <ele>1839.37</ele>
        <time>2012-12-20T12:58:57+01:00</time>
      </trkpt>
      <trkpt lat="42.9682507935" lon="-5.78745909572">
        <ele>1838.94</ele>
        <time>2012-12-20T12:59:00+01:00</time>
      </trkpt>
      <trkpt lat="42.96824383387" lon="-5.78741835911">
        <ele>1838.56</ele>
        <time>2012-12-20T12:59:00+01:00</time>
      </trkpt>
      <trkpt lat="42.96827912115" lon="-5.78726061158">
        <ele>1838.5</ele>
        <time>2012-12-20T12:59:01+01:00</time>
      </trkpt>
      <trkpt lat="42.96832577472" lon="-5.78716388439">
        <ele>1838.42</ele>
        <time>2012-12-20T12:59:02+01:00</time>
      </trkpt>
      <trkpt lat="42.96837604265" lon="-5.78708646913">
        <ele>1837.88</ele>
        <time>2012-12-20T12:59:04+01:00</time>
      </trkpt>
      <trkpt lat="42.96842451888" lon="-5.78700574134">
        <ele>1836.72</ele>
        <time>2012-12-20T12:59:05+01:00</time>
      </trkpt>
      <trkpt lat="42.96849328978" lon="-5.78693507989">
        <ele>1836.22</ele>
        <time>2012-12-20T12:59:05+01:00</time>
      </trkpt>
      <trkpt lat="42.9685767698" lon="-5.78686848731">
        <ele>1835.76</ele>
        <time>2012-12-20T12:59:06+01:00</time>
      </trkpt>
      <trkpt lat="42.96864799329" lon="-5.78684412778">
        <ele>1835.07</ele>
        <time>2012-12-20T12:59:07+01:00</time>
      </trkpt>
      <trkpt lat="42.96873070138" lon="-5.78679566998">
        <ele>1834.55</ele>
        <time>2012-12-20T12:59:09+01:00</time>
      </trkpt>
      <trkpt lat="42.96879377932" lon="-5.78673857037">
        <ele>1833.82</ele>
        <time>2012-12-20T12:59:10+01:00</time>
      </trkpt>
      <trkpt lat="42.96886718047" lon="-5.78669389106">
        <ele>1833.03</ele>
        <time>2012-12-20T12:59:10+01:00</time>
      </trkpt>
      <trkpt lat="42.96891287976" lon="-5.78666500446">
        <ele>1832.35</ele>
        <time>2012-12-20T12:59:11+01:00</time>
      </trkpt>
      <trkpt lat="42.96899718251" lon="-5.7865383619">
        <ele>1830.85</ele>
        <time>2012-12-20T12:59:12+01:00</time>
      </trkpt>
      <trkpt lat="42.96903873339" lon="-5.78647500619">
        <ele>1829.76</ele>
        <time>2012-12-20T12:59:13+01:00</time>
      </trkpt>
      <trkpt lat="42.96911921451" lon="-5.78631730149">
        <ele>1828.87</ele>
        <time>2012-12-20T12:59:15+01:00</time>
      </trkpt>
      <trkpt lat="42.96921158605" lon="-5.78625169649">
        <ele>1827.72</ele>
        <time>2012-12-20T12:59:15+01:00</time>
      </trkpt>
      <trkpt lat="42.96930365347" lon="-5.78613638333">
        <ele>1826.51</ele>
        <time>2012-12-20T12:59:17+01:00</time>
      </trkpt>
      <trkpt lat="42.96936498229" lon="-5.78603821884">
        <ele>1826.29</ele>
        <time>2012-12-20T12:59:17+01:00</time>
      </trkpt>
      <trkpt lat="42.96942710362" lon="-5.78594247827">
        <ele>1825.51</ele>
        <time>2012-12-20T12:59:19+01:00</time>
      </trkpt>
      <trkpt lat="42.96949397673" lon="-5.78585520204">
        <ele>1824.52</ele>
        <time>2012-12-20T12:59:20+01:00</time>
      </trkpt>
      <trkpt lat="42.9695795363" lon="-5.78580784017">
        <ele>1823.68</ele>
        <time>2012-12-20T12:59:20+01:00</time>
      </trkpt>
      <trkpt lat="42.96964727491" lon="-5.78575786643">
        <ele>1822.89</ele>
        <time>2012-12-20T12:59:21+01:00</time>
      </trkpt>
      <trkpt lat="42.96971154991" lon="-5.78571964144">
        <ele>1820.33</ele>
        <time>2012-12-20T12:59:22+01:00</time>
      </trkpt>
      <trkpt lat="42.96976903016" lon="-5.78569234926">
        <ele>1819.37</ele>
        <time>2012-12-20T12:59:23+01:00</time>
      </trkpt>
      <trkpt lat="42.96979718944" lon="-5.78565195505">
        <ele>1819.5</ele>
        <time>2012-12-20T12:59:24+01:00</time>
      </trkpt>
      <trkpt lat="42.96983765648" lon="-5.78561182381">
        <ele>1817.39</ele>
        <time>2012-12-20T12:59:25+01:00</time>
      </trkpt>
      <trkpt lat="42.9698218447" lon="-5.78555048866">
        <ele>1817.16</ele>
        <time>2012-12-20T12:59:27+01:00</time>
      </trkpt>
      <trkpt lat="42.96980731649" lon="-5.78546881947">
        <ele>1815.23</ele>
        <time>2012-12-20T12:59:27+01:00</time>
      </trkpt>
      <trkpt lat="42.96978144443" lon="-5.7853802001">
        <ele>1814.25</ele>
        <time>2012-12-20T12:59:29+01:00</time>
      </trkpt>
      <trkpt lat="42.96976926274" lon="-5.78528261345">
        <ele>1814.1</ele>
        <time>2012-12-20T12:59:29+01:00</time>
      </trkpt>
      <trkpt lat="42.96976810046" lon="-5.78519805255">
        <ele>1813.33</ele>
        <time>2012-12-20T12:59:30+01:00</time>
      </trkpt>
      <trkpt lat="42.96976642631" lon="-5.78510114349">
        <ele>1812.45</ele>
        <time>2012-12-20T12:59:31+01:00</time>
      </trkpt>
      <trkpt lat="42.96975268044" lon="-5.78501953443">
        <ele>1810.17</ele>
        <time>2012-12-20T12:59:32+01:00</time>
      </trkpt>
      <trkpt lat="42.96969792994" lon="-5.78490189217">
        <ele>1808.47</ele>
        <time>2012-12-20T12:59:34+01:00</time>
      </trkpt>
      <trkpt lat="42.96965881664" lon="-5.78482036095">
        <ele>1807.13</ele>
        <time>2012-12-20T12:59:35+01:00</time>
      </trkpt>
      <trkpt lat="42.96961558882" lon="-5.78475550672">
        <ele>1804.78</ele>
        <time>2012-12-20T12:59:36+01:00</time>
      </trkpt>
      <trkpt lat="42.9695606081" lon="-5.78472429685">
        <ele>1803.09</ele>
        <time>2012-12-20T12:59:37+01:00</time>
      </trkpt>
      <trkpt lat="42.9694998905" lon="-5.78471047764">
        <ele>1801.37</ele>
        <time>2012-12-20T12:59:38+01:00</time>
      </trkpt>
      <trkpt lat="42.96944546867" lon="-5.7846871949">
        <ele>1799.81</ele>
        <time>2012-12-20T12:59:39+01:00</time>
      </trkpt>
      <trkpt lat="42.96940863393" lon="-5.78462192043">
        <ele>1797.45</ele>
        <time>2012-12-20T12:59:40+01:00</time>
      </trkpt>
      <trkpt lat="42.96937125976" lon="-5.78454308436">
        <ele>1795.06</ele>
        <time>2012-12-20T12:59:41+01:00</time>
      </trkpt>
      <trkpt lat="42.96929092943" lon="-5.78445999369">
        <ele>1793.06</ele>
        <time>2012-12-20T12:59:42+01:00</time>
      </trkpt>
      <trkpt lat="42.96921860403" lon="-5.78436907837">
        <ele>1791.46</ele>
        <time>2012-12-20T12:59:43+01:00</time>
      </trkpt>
      <trkpt lat="42.96914409099" lon="-5.7842751229">
        <ele>1789.49</ele>
        <time>2012-12-20T12:59:44+01:00</time>
      </trkpt>
      <trkpt lat="42.9690484539" lon="-5.78421388585">
        <ele>1787.37</ele>
        <time>2012-12-20T12:59:45+01:00</time>
      </trkpt>
      <trkpt lat="42.96896676395" lon="-5.78417005543">
        <ele>1786.3</ele>
        <time>2012-12-20T12:59:46+01:00</time>
      </trkpt>
      <trkpt lat="42.9689005704" lon="-5.78413064511">
        <ele>1785.09</ele>
        <time>2012-12-20T12:59:47+01:00</time>
      </trkpt>
      <trkpt lat="42.96884099653" lon="-5.78409178353">
        <ele>1783.85</ele>
        <time>2012-12-20T12:59:48+01:00</time>
      </trkpt>
      <trkpt lat="42.96877208482" lon="-5.78406315704">
        <ele>1782.58</ele>
        <time>2012-12-20T12:59:49+01:00</time>
      </trkpt>
      <trkpt lat="42.96871488421" lon="-5.78403905861">
        <ele>1781.34</ele>
        <time>2012-12-20T12:59:50+01:00</time>
      </trkpt>
      <trkpt lat="42.96866294274" lon="-5.78402867334">
        <ele>1780.6</ele>
        <time>2012-12-20T12:59:51+01:00</time>
      </trkpt>
      <trkpt lat="42.96861993208" lon="-5.7839985672">
        <ele>1779.49</ele>
        <time>2012-12-20T12:59:52+01:00</time>
      </trkpt>
      <trkpt lat="42.96857766822" lon="-5.78397175885">
        <ele>1778.32</ele>
        <time>2012-12-20T12:59:53+01:00</time>
      </trkpt>
      <trkpt lat="42.96854943416" lon="-5.78392676755">
        <ele>1777.67</ele>
        <time>2012-12-20T12:59:54+01:00</time>
      </trkpt>
      <trkpt lat="42.96852953811" lon="-5.78388712505">
        <ele>1776.48</ele>
        <time>2012-12-20T12:59:55+01:00</time>
      </trkpt>
      <trkpt lat="42.96851873206" lon="-5.78386352">
        <ele>1775.61</ele>
        <time>2012-12-20T12:59:56+01:00</time>
      </trkpt>
      <trkpt lat="42.96849828551" lon="-5.78381151068">
        <ele>1774.31</ele>
        <time>2012-12-20T12:59:59+01:00</time>
      </trkpt>
      <trkpt lat="42.96852604743" lon="-5.78373680286">
        <ele>1772.92</ele>
        <time>2012-12-20T13:00:01+01:00</time>
      </trkpt>
      <trkpt lat="42.96854782718" lon="-5.78368746196">
        <ele>1771.64</ele>
        <time>2012-12-20T13:00:02+01:00</time>
      </trkpt>
      <trkpt lat="42.96856569476" lon="-5.78364393206">
        <ele>1770.17</ele>
        <time>2012-12-20T13:00:04+01:00</time>
      </trkpt>
      <trkpt lat="42.96857268809" lon="-5.78360525239">
        <ele>1769.33</ele>
        <time>2012-12-20T13:00:05+01:00</time>
      </trkpt>
      <trkpt lat="42.96857804301" lon="-5.7835621113">
        <ele>1768.76</ele>
        <time>2012-12-20T13:00:06+01:00</time>
      </trkpt>
      <trkpt lat="42.96859430201" lon="-5.78349165816">
        <ele>1768.24</ele>
        <time>2012-12-20T13:00:08+01:00</time>
      </trkpt>
      <trkpt lat="42.96859363107" lon="-5.78340548317">
        <ele>1767.05</ele>
        <time>2012-12-20T13:00:09+01:00</time>
      </trkpt>
      <trkpt lat="42.96858283511" lon="-5.78331649908">
        <ele>1765.81</ele>
        <time>2012-12-20T13:00:10+01:00</time>
      </trkpt>
      <trkpt lat="42.9685645156" lon="-5.78322433802">
        <ele>1765.08</ele>
        <time>2012-12-20T13:00:11+01:00</time>
      </trkpt>
      <trkpt lat="42.96855176572" lon="-5.78308413351">
        <ele>1764.15</ele>
        <time>2012-12-20T13:00:13+01:00</time>
      </trkpt>
      <trkpt lat="42.96854419988" lon="-5.7829941464">
        <ele>1763.17</ele>
        <time>2012-12-20T13:00:13+01:00</time>
      </trkpt>
      <trkpt lat="42.96854837977" lon="-5.78287845149">
        <ele>1762.25</ele>
        <time>2012-12-20T13:00:14+01:00</time>
      </trkpt>
      <trkpt lat="42.96858475169" lon="-5.78272266149">
        <ele>1761.42</ele>
        <time>2012-12-20T13:00:16+01:00</time>
      </trkpt>
      <trkpt lat="42.96859009239" lon="-5.78258202795">
        <ele>1760.33</ele>
        <time>2012-12-20T13:00:16+01:00</time>
      </trkpt>
      <trkpt lat="42.96860986182" lon="-5.78242508421">
        <ele>1759.32</ele>
        <time>2012-12-20T13:00:18+01:00</time>
      </trkpt>
      <trkpt lat="42.96862410513" lon="-5.78226061401">
        <ele>1758.22</ele>
        <time>2012-12-20T13:00:19+01:00</time>
      </trkpt>
      <trkpt lat="42.96864193466" lon="-5.78209221295">
        <ele>1757.27</ele>
        <time>2012-12-20T13:00:19+01:00</time>
      </trkpt>
      <trkpt lat="42.96867174132" lon="-5.78194623779">
        <ele>1755.78</ele>
        <time>2012-12-20T13:00:21+01:00</time>
      </trkpt>
      <trkpt lat="42.96869984615" lon="-5.78180560826">
        <ele>1754.4</ele>
        <time>2012-12-20T13:00:21+01:00</time>
      </trkpt>
      <trkpt lat="42.96871402429" lon="-5.78166379585">
        <ele>1753.14</ele>
        <time>2012-12-20T13:00:23+01:00</time>
      </trkpt>
      <trkpt lat="42.96876942209" lon="-5.78143588266">
        <ele>1751.64</ele>
        <time>2012-12-20T13:00:24+01:00</time>
      </trkpt>
      <trkpt lat="42.96879497559" lon="-5.7813338004">
        <ele>1750.08</ele>
        <time>2012-12-20T13:00:24+01:00</time>
      </trkpt>
      <trkpt lat="42.96880171771" lon="-5.78130865562">
        <ele>1748.65</ele>
        <time>2012-12-20T13:00:25+01:00</time>
      </trkpt>
      <trkpt lat="42.96882438776" lon="-5.78109152662">
        <ele>1747.19</ele>
        <time>2012-12-20T13:00:26+01:00</time>
      </trkpt>
      <trkpt lat="42.96882841497" lon="-5.78105188483">
        <ele>1745.8</ele>
        <time>2012-12-20T13:00:27+01:00</time>
      </trkpt>
      <trkpt lat="42.96883962089" lon="-5.78099438074">
        <ele>1744.36</ele>
        <time>2012-12-20T13:00:28+01:00</time>
      </trkpt>
      <trkpt lat="42.96885838148" lon="-5.78092685232">
        <ele>1742.82</ele>
        <time>2012-12-20T13:00:29+01:00</time>
      </trkpt>
      <trkpt lat="42.96888342999" lon="-5.78083756989">
        <ele>1741.25</ele>
        <time>2012-12-20T13:00:30+01:00</time>
      </trkpt>
      <trkpt lat="42.96891242352" lon="-5.7807308127">
        <ele>1739.85</ele>
        <time>2012-12-20T13:00:31+01:00</time>
      </trkpt>
      <trkpt lat="42.96907801459" lon="-5.7801280715">
        <ele>1737.95</ele>
        <time>2012-12-20T13:00:32+01:00</time>
      </trkpt>
      <trkpt lat="42.96919280804" lon="-5.77970725878">
        <ele>1736.21</ele>
        <time>2012-12-20T13:00:33+01:00</time>
      </trkpt>
      <trkpt lat="42.96926349008" lon="-5.77937845803">
        <ele>1736.98</ele>
        <time>2012-12-20T13:00:34+01:00</time>
      </trkpt>
      <trkpt lat="42.96930664723" lon="-5.77911959361">
        <ele>1736.19</ele>
        <time>2012-12-20T13:00:35+01:00</time>
      </trkpt>
      <trkpt lat="42.96934308273" lon="-5.77890185805">
        <ele>1735.27</ele>
        <time>2012-12-20T13:00:36+01:00</time>
      </trkpt>
      <trkpt lat="42.96935199011" lon="-5.77886302732">
        <ele>1734.55</ele>
        <time>2012-12-20T13:00:37+01:00</time>
      </trkpt>
      <trkpt lat="42.96937477567" lon="-5.77882124004">
        <ele>1733.98</ele>
        <time>2012-12-20T13:00:38+01:00</time>
      </trkpt>
      <trkpt lat="42.96953200261" lon="-5.77859757415">
        <ele>1733.13</ele>
        <time>2012-12-20T13:00:39+01:00</time>
      </trkpt>
      <trkpt lat="42.96965097494" lon="-5.7784293729">
        <ele>1732.22</ele>
        <time>2012-12-20T13:00:40+01:00</time>
      </trkpt>
      <trkpt lat="42.96967189948" lon="-5.77840243582">
        <ele>1731.31</ele>
        <time>2012-12-20T13:00:41+01:00</time>
      </trkpt>
      <trkpt lat="42.96981865637" lon="-5.77824039909">
        <ele>1730.32</ele>
        <time>2012-12-20T13:00:42+01:00</time>
      </trkpt>
      <trkpt lat="42.96994314346" lon="-5.77811843512">
        <ele>1729.28</ele>
        <time>2012-12-20T13:00:43+01:00</time>
      </trkpt>
      <trkpt lat="42.97005766913" lon="-5.77800548534">
        <ele>1728.2</ele>
        <time>2012-12-20T13:00:44+01:00</time>
      </trkpt>
      <trkpt lat="42.97017278806" lon="-5.77790555028">
        <ele>1727.06</ele>
        <time>2012-12-20T13:00:45+01:00</time>
      </trkpt>
      <trkpt lat="42.97028587763" lon="-5.77783253252">
        <ele>1725.86</ele>
        <time>2012-12-20T13:00:46+01:00</time>
      </trkpt>
      <trkpt lat="42.97039449498" lon="-5.77776387904">
        <ele>1724.66</ele>
        <time>2012-12-20T13:00:47+01:00</time>
      </trkpt>
      <trkpt lat="42.97050508814" lon="-5.77770465804">
        <ele>1723.46</ele>
        <time>2012-12-20T13:00:48+01:00</time>
      </trkpt>
      <trkpt lat="42.97068666885" lon="-5.77763897517">
        <ele>1722.26</ele>
        <time>2012-12-20T13:00:49+01:00</time>
      </trkpt>
      <trkpt lat="42.97081511887" lon="-5.77762845375">
        <ele>1721.04</ele>
        <time>2012-12-20T13:00:50+01:00</time>
      </trkpt>
      <trkpt lat="42.97091943113" lon="-5.77761414542">
        <ele>1719.75</ele>
        <time>2012-12-20T13:00:51+01:00</time>
      </trkpt>
      <trkpt lat="42.97101938522" lon="-5.77758325467">
        <ele>1718.46</ele>
        <time>2012-12-20T13:00:52+01:00</time>
      </trkpt>
      <trkpt lat="42.97112168632" lon="-5.77755273547">
        <ele>1717.12</ele>
        <time>2012-12-20T13:00:53+01:00</time>
      </trkpt>
      <trkpt lat="42.97121513616" lon="-5.77755099022">
        <ele>1715.77</ele>
        <time>2012-12-20T13:00:54+01:00</time>
      </trkpt>
      <trkpt lat="42.97128046303" lon="-5.77758524167">
        <ele>1710.07</ele>
        <time>2012-12-20T13:00:55+01:00</time>
      </trkpt>
      <trkpt lat="42.97131614249" lon="-5.7776098073">
        <ele>1707.47</ele>
        <time>2012-12-20T13:00:56+01:00</time>
      </trkpt>
      <trkpt lat="42.97132383188" lon="-5.77770415933">
        <ele>1704.61</ele>
        <time>2012-12-20T13:00:58+01:00</time>
      </trkpt>
      <trkpt lat="42.97132376043" lon="-5.77777419288">
        <ele>1701.59</ele>
        <time>2012-12-20T13:00:58+01:00</time>
      </trkpt>
      <trkpt lat="42.97131439194" lon="-5.77783198665">
        <ele>1698.28</ele>
        <time>2012-12-20T13:01:00+01:00</time>
      </trkpt>
      <trkpt lat="42.97130752118" lon="-5.77786615869">
        <ele>1695.49</ele>
        <time>2012-12-20T13:01:00+01:00</time>
      </trkpt>
      <trkpt lat="42.97130380824" lon="-5.77787393448">
        <ele>1692.89</ele>
        <time>2012-12-20T13:01:01+01:00</time>
      </trkpt>
      <trkpt lat="42.97129821186" lon="-5.7778828773">
        <ele>1690.33</ele>
        <time>2012-12-20T13:01:02+01:00</time>
      </trkpt>
      <trkpt lat="42.9712920729" lon="-5.77789449652">
        <ele>1687.64</ele>
        <time>2012-12-20T13:01:03+01:00</time>
      </trkpt>
      <trkpt lat="42.97126226827" lon="-5.77792934868">
        <ele>1685.07</ele>
        <time>2012-12-20T13:01:08+01:00</time>
      </trkpt>
      <trkpt lat="42.97123514934" lon="-5.77796622077">
        <ele>1682.43</ele>
        <time>2012-12-20T13:01:11+01:00</time>
      </trkpt>
      <trkpt lat="42.97120843028" lon="-5.7779863332">
        <ele>1679.95</ele>
        <time>2012-12-20T13:01:13+01:00</time>
      </trkpt>
      <trkpt lat="42.97117803453" lon="-5.77799974217">
        <ele>1677.39</ele>
        <time>2012-12-20T13:01:14+01:00</time>
      </trkpt>
      <trkpt lat="42.97113373548" lon="-5.77801274923">
        <ele>1674.71</ele>
        <time>2012-12-20T13:01:17+01:00</time>
      </trkpt>
      <trkpt lat="42.97110968766" lon="-5.77802849346">
        <ele>1671.84</ele>
        <time>2012-12-20T13:01:19+01:00</time>
      </trkpt>
      <trkpt lat="42.97107993355" lon="-5.77805068599">
        <ele>1669.35</ele>
        <time>2012-12-20T13:01:23+01:00</time>
      </trkpt>
      <trkpt lat="42.97110097246" lon="-5.77805271051">
        <ele>1663.48</ele>
        <time>2012-12-20T13:01:29+01:00</time>
      </trkpt>
      <trkpt lat="42.971094026" lon="-5.77806507543">
        <ele>1663.75</ele>
        <time>2012-12-20T13:01:35+01:00</time>
      </trkpt>
      <trkpt lat="42.97109514186" lon="-5.77808961425">
        <ele>1661.53</ele>
        <time>2012-12-20T13:01:37+01:00</time>
      </trkpt>
      <trkpt lat="42.97107853313" lon="-5.77812292458">
        <ele>1658.84</ele>
        <time>2012-12-20T13:01:39+01:00</time>
      </trkpt>
      <trkpt lat="42.97105982221" lon="-5.7781527207">
        <ele>1656.41</ele>
        <time>2012-12-20T13:01:41+01:00</time>
      </trkpt>
      <trkpt lat="42.97104566487" lon="-5.77816817988">
        <ele>1654.88</ele>
        <time>2012-12-20T13:01:44+01:00</time>
      </trkpt>
      <trkpt lat="42.97102186429" lon="-5.7781932181">
        <ele>1653.09</ele>
        <time>2012-12-20T13:01:45+01:00</time>
      </trkpt>
      <trkpt lat="42.97098693175" lon="-5.77822605622">
        <ele>1651.12</ele>
        <time>2012-12-20T13:01:46+01:00</time>
      </trkpt>
      <trkpt lat="42.97096009689" lon="-5.77824898532">
        <ele>1649.36</ele>
        <time>2012-12-20T13:01:48+01:00</time>
      </trkpt>
      <trkpt lat="42.97094758531" lon="-5.77826224502">
        <ele>1647.77</ele>
        <time>2012-12-20T13:01:48+01:00</time>
      </trkpt>
      <trkpt lat="42.97092222039" lon="-5.77828586149">
        <ele>1646.51</ele>
        <time>2012-12-20T13:01:50+01:00</time>
      </trkpt>
      <trkpt lat="42.97090490532" lon="-5.77830432007">
        <ele>1645.26</ele>
        <time>2012-12-20T13:01:51+01:00</time>
      </trkpt>
      <trkpt lat="42.97088667145" lon="-5.77833165427">
        <ele>1644.16</ele>
        <time>2012-12-20T13:01:53+01:00</time>
      </trkpt>
      <trkpt lat="42.9708581704" lon="-5.77839409004">
        <ele>1643.24</ele>
        <time>2012-12-20T13:01:55+01:00</time>
      </trkpt>
      <trkpt lat="42.97084784338" lon="-5.77844888904">
        <ele>1642.63</ele>
        <time>2012-12-20T13:01:57+01:00</time>
      </trkpt>
      <trkpt lat="42.97083531736" lon="-5.77848405578">
        <ele>1641.9</ele>
        <time>2012-12-20T13:01:59+01:00</time>
      </trkpt>
      <trkpt lat="42.97082744774" lon="-5.77855003067">
        <ele>1641.28</ele>
        <time>2012-12-20T13:02:00+01:00</time>
      </trkpt>
      <trkpt lat="42.97082215225" lon="-5.77858729847">
        <ele>1640.73</ele>
        <time>2012-12-20T13:02:01+01:00</time>
      </trkpt>
      <trkpt lat="42.97081891386" lon="-5.77862532922">
        <ele>1640.18</ele>
        <time>2012-12-20T13:02:02+01:00</time>
      </trkpt>
      <trkpt lat="42.97081320351" lon="-5.77866780408">
        <ele>1639.66</ele>
        <time>2012-12-20T13:02:04+01:00</time>
      </trkpt>
      <trkpt lat="42.97080404834" lon="-5.77870137771">
        <ele>1638.58</ele>
        <time>2012-12-20T13:02:05+01:00</time>
      </trkpt>
      <trkpt lat="42.97079024795" lon="-5.77874805735">
        <ele>1639.16</ele>
        <time>2012-12-20T13:02:07+01:00</time>
      </trkpt>
      <trkpt lat="42.97077400977" lon="-5.77879239611">
        <ele>1639.28</ele>
        <time>2012-12-20T13:02:09+01:00</time>
      </trkpt>
      <trkpt lat="42.97075714993" lon="-5.77884431331">
        <ele>1639.38</ele>
        <time>2012-12-20T13:02:11+01:00</time>
      </trkpt>
      <trkpt lat="42.97074231151" lon="-5.7788976121">
        <ele>1639.52</ele>
        <time>2012-12-20T13:02:13+01:00</time>
      </trkpt>
      <trkpt lat="42.97072633715" lon="-5.77895471573">
        <ele>1640.23</ele>
        <time>2012-12-20T13:02:15+01:00</time>
      </trkpt>
      <trkpt lat="42.97071194202" lon="-5.77899841541">
        <ele>1640.79</ele>
        <time>2012-12-20T13:02:17+01:00</time>
      </trkpt>
      <trkpt lat="42.9706955849" lon="-5.77903317278">
        <ele>1641.48</ele>
        <time>2012-12-20T13:02:19+01:00</time>
      </trkpt>
      <trkpt lat="42.97067957298" lon="-5.77907472475">
        <ele>1642.07</ele>
        <time>2012-12-20T13:02:21+01:00</time>
      </trkpt>
      <trkpt lat="42.97066091437" lon="-5.77912078723">
        <ele>1643.02</ele>
        <time>2012-12-20T13:02:23+01:00</time>
      </trkpt>
      <trkpt lat="42.97064320163" lon="-5.77916882471">
        <ele>1643.71</ele>
        <time>2012-12-20T13:02:25+01:00</time>
      </trkpt>
      <trkpt lat="42.97063164598" lon="-5.77920512018">
        <ele>1644.36</ele>
        <time>2012-12-20T13:02:26+01:00</time>
      </trkpt>
      <trkpt lat="42.97061746608" lon="-5.7792620672">
        <ele>1644.81</ele>
        <time>2012-12-20T13:02:28+01:00</time>
      </trkpt>
      <trkpt lat="42.97061047267" lon="-5.77931724366">
        <ele>1645.38</ele>
        <time>2012-12-20T13:02:30+01:00</time>
      </trkpt>
      <trkpt lat="42.97060307255" lon="-5.77936951792">
        <ele>1646.15</ele>
        <time>2012-12-20T13:02:32+01:00</time>
      </trkpt>
      <trkpt lat="42.97058831559" lon="-5.77940035756">
        <ele>1647.25</ele>
        <time>2012-12-20T13:02:33+01:00</time>
      </trkpt>
      <trkpt lat="42.97057815576" lon="-5.77944722801">
        <ele>1647.28</ele>
        <time>2012-12-20T13:02:35+01:00</time>
      </trkpt>
      <trkpt lat="42.97056257864" lon="-5.7794931472">
        <ele>1647.94</ele>
        <time>2012-12-20T13:02:37+01:00</time>
      </trkpt>
      <trkpt lat="42.97055202009" lon="-5.77954444172">
        <ele>1648.71</ele>
        <time>2012-12-20T13:02:39+01:00</time>
      </trkpt>
      <trkpt lat="42.97053734816" lon="-5.77959898215">
        <ele>1650.64</ele>
        <time>2012-12-20T13:02:41+01:00</time>
      </trkpt>
      <trkpt lat="42.97052390699" lon="-5.77964500209">
        <ele>1651.61</ele>
        <time>2012-12-20T13:02:43+01:00</time>
      </trkpt>
      <trkpt lat="42.97050609705" lon="-5.77970031711">
        <ele>1652.69</ele>
        <time>2012-12-20T13:02:45+01:00</time>
      </trkpt>
      <trkpt lat="42.97049519327" lon="-5.77974600358">
        <ele>1654.04</ele>
        <time>2012-12-20T13:02:47+01:00</time>
      </trkpt>
      <trkpt lat="42.97048017144" lon="-5.77979624572">
        <ele>1655.15</ele>
        <time>2012-12-20T13:02:49+01:00</time>
      </trkpt>
      <trkpt lat="42.97046162866" lon="-5.77985258617">
        <ele>1656.24</ele>
        <time>2012-12-20T13:02:51+01:00</time>
      </trkpt>
      <trkpt lat="42.97044623342" lon="-5.77990914028">
        <ele>1657.3</ele>
        <time>2012-12-20T13:02:54+01:00</time>
      </trkpt>
      <trkpt lat="42.97042759823" lon="-5.77993938008">
        <ele>1657.82</ele>
        <time>2012-12-20T13:02:56+01:00</time>
      </trkpt>
      <trkpt lat="42.97040925316" lon="-5.77997620638">
        <ele>1658.36</ele>
        <time>2012-12-20T13:02:57+01:00</time>
      </trkpt>
      <trkpt lat="42.97038848506" lon="-5.78000328588">
        <ele>1659.06</ele>
        <time>2012-12-20T13:02:59+01:00</time>
      </trkpt>
      <trkpt lat="42.97037162448" lon="-5.78003599326">
        <ele>1659.75</ele>
        <time>2012-12-20T13:03:01+01:00</time>
      </trkpt>
      <trkpt lat="42.97035212558" lon="-5.78007633057">
        <ele>1660.24</ele>
        <time>2012-12-20T13:03:04+01:00</time>
      </trkpt>
      <trkpt lat="42.97032423966" lon="-5.78010901828">
        <ele>1660.33</ele>
        <time>2012-12-20T13:03:06+01:00</time>
      </trkpt>
      <trkpt lat="42.97030429302" lon="-5.78013572846">
        <ele>1660.46</ele>
        <time>2012-12-20T13:03:07+01:00</time>
      </trkpt>
      <trkpt lat="42.97027977647" lon="-5.78017432709">
        <ele>1660.87</ele>
        <time>2012-12-20T13:03:09+01:00</time>
      </trkpt>
      <trkpt lat="42.9702560725" lon="-5.78019727115">
        <ele>1660.36</ele>
        <time>2012-12-20T13:03:11+01:00</time>
      </trkpt>
      <trkpt lat="42.97023369618" lon="-5.78020937015">
        <ele>1660.09</ele>
        <time>2012-12-20T13:03:13+01:00</time>
      </trkpt>
      <trkpt lat="42.97021021076" lon="-5.78021970247">
        <ele>1659.94</ele>
        <time>2012-12-20T13:03:13+01:00</time>
      </trkpt>
      <trkpt lat="42.97019214575" lon="-5.78022748998">
        <ele>1659.67</ele>
        <time>2012-12-20T13:03:14+01:00</time>
      </trkpt>
      <trkpt lat="42.9701589518" lon="-5.78024310772">
        <ele>1659.36</ele>
        <time>2012-12-20T13:03:16+01:00</time>
      </trkpt>
      <trkpt lat="42.97014116101" lon="-5.78025490868">
        <ele>1659.13</ele>
        <time>2012-12-20T13:03:16+01:00</time>
      </trkpt>
      <trkpt lat="42.97013466292" lon="-5.78026046413">
        <ele>1658.87</ele>
        <time>2012-12-20T13:03:18+01:00</time>
      </trkpt>
      <trkpt lat="42.97008690437" lon="-5.78033137582">
        <ele>1658.82</ele>
        <time>2012-12-20T13:03:19+01:00</time>
      </trkpt>
      <trkpt lat="42.97006424336" lon="-5.78039276503">
        <ele>1658.82</ele>
        <time>2012-12-20T13:03:21+01:00</time>
      </trkpt>
      <trkpt lat="42.97005438027" lon="-5.78045841884">
        <ele>1658.96</ele>
        <time>2012-12-20T13:03:24+01:00</time>
      </trkpt>
      <trkpt lat="42.97005331289" lon="-5.78050366905">
        <ele>1659.29</ele>
        <time>2012-12-20T13:03:24+01:00</time>
      </trkpt>
      <trkpt lat="42.97004896757" lon="-5.78052801697">
        <ele>1659.58</ele>
        <time>2012-12-20T13:03:25+01:00</time>
      </trkpt>
      <trkpt lat="42.97005092299" lon="-5.78056248679">
        <ele>1659.74</ele>
        <time>2012-12-20T13:03:26+01:00</time>
      </trkpt>
      <trkpt lat="42.97005171619" lon="-5.78061567775">
        <ele>1659.97</ele>
        <time>2012-12-20T13:03:28+01:00</time>
      </trkpt>
      <trkpt lat="42.97005308183" lon="-5.78065555202">
        <ele>1660.49</ele>
        <time>2012-12-20T13:03:29+01:00</time>
      </trkpt>
      <trkpt lat="42.97005234913" lon="-5.78068873964">
        <ele>1660.82</ele>
        <time>2012-12-20T13:03:29+01:00</time>
      </trkpt>
      <trkpt lat="42.97005045915" lon="-5.78073654907">
        <ele>1661.23</ele>
        <time>2012-12-20T13:03:31+01:00</time>
      </trkpt>
      <trkpt lat="42.97004156514" lon="-5.78078748403">
        <ele>1661.71</ele>
        <time>2012-12-20T13:03:33+01:00</time>
      </trkpt>
      <trkpt lat="42.9700316056" lon="-5.7808358925">
        <ele>1662.2</ele>
        <time>2012-12-20T13:03:35+01:00</time>
      </trkpt>
      <trkpt lat="42.97001895191" lon="-5.78088513678">
        <ele>1662.74</ele>
        <time>2012-12-20T13:03:37+01:00</time>
      </trkpt>
      <trkpt lat="42.97000542412" lon="-5.78093582226">
        <ele>1663.23</ele>
        <time>2012-12-20T13:03:39+01:00</time>
      </trkpt>
      <trkpt lat="42.9699932973" lon="-5.78099115458">
        <ele>1664.05</ele>
        <time>2012-12-20T13:03:41+01:00</time>
      </trkpt>
      <trkpt lat="42.9699868151" lon="-5.78102696442">
        <ele>1664.75</ele>
        <time>2012-12-20T13:03:43+01:00</time>
      </trkpt>
      <trkpt lat="42.96998300408" lon="-5.78106027793">
        <ele>1665.57</ele>
        <time>2012-12-20T13:03:43+01:00</time>
      </trkpt>
      <trkpt lat="42.96997816912" lon="-5.78109118039">
        <ele>1666.5</ele>
        <time>2012-12-20T13:03:45+01:00</time>
      </trkpt>
      <trkpt lat="42.96996746151" lon="-5.78115962236">
        <ele>1667.21</ele>
        <time>2012-12-20T13:03:47+01:00</time>
      </trkpt>
      <trkpt lat="42.96995190895" lon="-5.7812129404">
        <ele>1668.14</ele>
        <time>2012-12-20T13:03:50+01:00</time>
      </trkpt>
      <trkpt lat="42.96993723141" lon="-5.78126263015">
        <ele>1668.92</ele>
        <time>2012-12-20T13:03:51+01:00</time>
      </trkpt>
      <trkpt lat="42.9699295685" lon="-5.78129650681">
        <ele>1670.03</ele>
        <time>2012-12-20T13:03:53+01:00</time>
      </trkpt>
      <trkpt lat="42.96992194703" lon="-5.78132865313">
        <ele>1671</ele>
        <time>2012-12-20T13:03:54+01:00</time>
      </trkpt>
      <trkpt lat="42.96991197559" lon="-5.78137200939">
        <ele>1671.91</ele>
        <time>2012-12-20T13:03:56+01:00</time>
      </trkpt>
      <trkpt lat="42.96989863402" lon="-5.78145450477">
        <ele>1673.26</ele>
        <time>2012-12-20T13:03:58+01:00</time>
      </trkpt>
      <trkpt lat="42.96989342497" lon="-5.78149117777">
        <ele>1674.28</ele>
        <time>2012-12-20T13:04:00+01:00</time>
      </trkpt>
      <trkpt lat="42.96988060761" lon="-5.78155692717">
        <ele>1675.32</ele>
        <time>2012-12-20T13:04:02+01:00</time>
      </trkpt>
      <trkpt lat="42.96986302377" lon="-5.78160903613">
        <ele>1676.54</ele>
        <time>2012-12-20T13:04:05+01:00</time>
      </trkpt>
      <trkpt lat="42.96984633065" lon="-5.78166445198">
        <ele>1677.65</ele>
        <time>2012-12-20T13:04:06+01:00</time>
      </trkpt>
      <trkpt lat="42.96983427484" lon="-5.78170222313">
        <ele>1680.46</ele>
        <time>2012-12-20T13:04:08+01:00</time>
      </trkpt>
      <trkpt lat="42.96982681672" lon="-5.78172173858">
        <ele>1681.75</ele>
        <time>2012-12-20T13:04:08+01:00</time>
      </trkpt>
      <trkpt lat="42.96981414469" lon="-5.78176658702">
        <ele>1683.26</ele>
        <time>2012-12-20T13:04:09+01:00</time>
      </trkpt>
      <trkpt lat="42.96980249078" lon="-5.78180190942">
        <ele>1685.14</ele>
        <time>2012-12-20T13:04:10+01:00</time>
      </trkpt>
      <trkpt lat="42.96979292843" lon="-5.78183573189">
        <ele>1686.96</ele>
        <time>2012-12-20T13:04:11+01:00</time>
      </trkpt>
      <trkpt lat="42.96977948735" lon="-5.78188897808">
        <ele>1688.3</ele>
        <time>2012-12-20T13:04:13+01:00</time>
      </trkpt>
      <trkpt lat="42.96976685967" lon="-5.78193434654">
        <ele>1689.81</ele>
        <time>2012-12-20T13:04:15+01:00</time>
      </trkpt>
      <trkpt lat="42.96975142044" lon="-5.78198189582">
        <ele>1691.1</ele>
        <time>2012-12-20T13:04:17+01:00</time>
      </trkpt>
      <trkpt lat="42.96974009037" lon="-5.78202085703">
        <ele>1692.1</ele>
        <time>2012-12-20T13:04:19+01:00</time>
      </trkpt>
      <trkpt lat="42.96972394392" lon="-5.78206915063">
        <ele>1693.58</ele>
        <time>2012-12-20T13:04:21+01:00</time>
      </trkpt>
      <trkpt lat="42.96971605429" lon="-5.78211032531">
        <ele>1694.65</ele>
        <time>2012-12-20T13:04:23+01:00</time>
      </trkpt>
      <trkpt lat="42.96970726793" lon="-5.78215383129">
        <ele>1695.73</ele>
        <time>2012-12-20T13:04:25+01:00</time>
      </trkpt>
      <trkpt lat="42.96969119437" lon="-5.78219927875">
        <ele>1696.78</ele>
        <time>2012-12-20T13:04:27+01:00</time>
      </trkpt>
      <trkpt lat="42.96967057882" lon="-5.7822476626">
        <ele>1697.54</ele>
        <time>2012-12-20T13:04:29+01:00</time>
      </trkpt>
      <trkpt lat="42.96965700093" lon="-5.78227926643">
        <ele>1697.48</ele>
        <time>2012-12-20T13:04:30+01:00</time>
      </trkpt>
      <trkpt lat="42.96964651535" lon="-5.78231579778">
        <ele>1699.63</ele>
        <time>2012-12-20T13:04:31+01:00</time>
      </trkpt>
      <trkpt lat="42.96964142587" lon="-5.78234727526">
        <ele>1700.85</ele>
        <time>2012-12-20T13:04:32+01:00</time>
      </trkpt>
      <trkpt lat="42.96962887448" lon="-5.78239581554">
        <ele>1702.02</ele>
        <time>2012-12-20T13:04:34+01:00</time>
      </trkpt>
      <trkpt lat="42.96962133559" lon="-5.78243442253">
        <ele>1703.28</ele>
        <time>2012-12-20T13:04:35+01:00</time>
      </trkpt>
      <trkpt lat="42.96961157949" lon="-5.78246018366">
        <ele>1704.57</ele>
        <time>2012-12-20T13:04:36+01:00</time>
      </trkpt>
      <trkpt lat="42.96959440673" lon="-5.78250919">
        <ele>1705.91</ele>
        <time>2012-12-20T13:04:38+01:00</time>
      </trkpt>
      <trkpt lat="42.96957930457" lon="-5.78256016318">
        <ele>1707.18</ele>
        <time>2012-12-20T13:04:40+01:00</time>
      </trkpt>
      <trkpt lat="42.96957017336" lon="-5.78261749791">
        <ele>1709.03</ele>
        <time>2012-12-20T13:04:42+01:00</time>
      </trkpt>
      <trkpt lat="42.96957506139" lon="-5.78267724434">
        <ele>1709.86</ele>
        <time>2012-12-20T13:04:44+01:00</time>
      </trkpt>
      <trkpt lat="42.96958000849" lon="-5.78271807097">
        <ele>1710.83</ele>
        <time>2012-12-20T13:04:46+01:00</time>
      </trkpt>
      <trkpt lat="42.96957209986" lon="-5.78274677866">
        <ele>1711.88</ele>
        <time>2012-12-20T13:04:47+01:00</time>
      </trkpt>
      <trkpt lat="42.96956839677" lon="-5.78279238976">
        <ele>1713.1</ele>
        <time>2012-12-20T13:04:49+01:00</time>
      </trkpt>
      <trkpt lat="42.96955833279" lon="-5.78282184512">
        <ele>1714.03</ele>
        <time>2012-12-20T13:04:50+01:00</time>
      </trkpt>
      <trkpt lat="42.96954342367" lon="-5.78286369068">
        <ele>1715.23</ele>
        <time>2012-12-20T13:04:52+01:00</time>
      </trkpt>
      <trkpt lat="42.96952958336" lon="-5.78291844364">
        <ele>1715.75</ele>
        <time>2012-12-20T13:04:54+01:00</time>
      </trkpt>
      <trkpt lat="42.96951933546" lon="-5.78296880403">
        <ele>1716.5</ele>
        <time>2012-12-20T13:04:56+01:00</time>
      </trkpt>
      <trkpt lat="42.96951017675" lon="-5.78301431831">
        <ele>1717.5</ele>
        <time>2012-12-20T13:04:58+01:00</time>
      </trkpt>
      <trkpt lat="42.96949661034" lon="-5.78305708289">
        <ele>1717.94</ele>
        <time>2012-12-20T13:05:00+01:00</time>
      </trkpt>
      <trkpt lat="42.96947917844" lon="-5.78310425961">
        <ele>1718.46</ele>
        <time>2012-12-20T13:05:02+01:00</time>
      </trkpt>
      <trkpt lat="42.96946482911" lon="-5.78315238582">
        <ele>1719</ele>
        <time>2012-12-20T13:05:04+01:00</time>
      </trkpt>
      <trkpt lat="42.96947148109" lon="-5.7832002996">
        <ele>1718.32</ele>
        <time>2012-12-20T13:05:06+01:00</time>
      </trkpt>
      <trkpt lat="42.9694791482" lon="-5.78325011549">
        <ele>1718.8</ele>
        <time>2012-12-20T13:05:08+01:00</time>
      </trkpt>
      <trkpt lat="42.96947977638" lon="-5.78330004358">
        <ele>1719.72</ele>
        <time>2012-12-20T13:05:10+01:00</time>
      </trkpt>
      <trkpt lat="42.96945810906" lon="-5.78334080755">
        <ele>1720.01</ele>
        <time>2012-12-20T13:05:12+01:00</time>
      </trkpt>
      <trkpt lat="42.96944650011" lon="-5.78338449961">
        <ele>1720.79</ele>
        <time>2012-12-20T13:05:14+01:00</time>
      </trkpt>
      <trkpt lat="42.96943019626" lon="-5.78342488236">
        <ele>1721.4</ele>
        <time>2012-12-20T13:05:16+01:00</time>
      </trkpt>
      <trkpt lat="42.96942083451" lon="-5.78345214244">
        <ele>1722.07</ele>
        <time>2012-12-20T13:05:18+01:00</time>
      </trkpt>
      <trkpt lat="42.96940062255" lon="-5.78348931157">
        <ele>1722.59</ele>
        <time>2012-12-20T13:05:20+01:00</time>
      </trkpt>
      <trkpt lat="42.96938182801" lon="-5.78351619141">
        <ele>1723.02</ele>
        <time>2012-12-20T13:05:21+01:00</time>
      </trkpt>
      <trkpt lat="42.96936817846" lon="-5.78354369561">
        <ele>1723.91</ele>
        <time>2012-12-20T13:05:22+01:00</time>
      </trkpt>
      <trkpt lat="42.96935435091" lon="-5.78356964829">
        <ele>1724.94</ele>
        <time>2012-12-20T13:05:23+01:00</time>
      </trkpt>
      <trkpt lat="42.96933934782" lon="-5.78359582711">
        <ele>1725.85</ele>
        <time>2012-12-20T13:05:24+01:00</time>
      </trkpt>
      <trkpt lat="42.96931666022" lon="-5.78364690419">
        <ele>1727.11</ele>
        <time>2012-12-20T13:05:26+01:00</time>
      </trkpt>
      <trkpt lat="42.96929662602" lon="-5.78367637809">
        <ele>1728.08</ele>
        <time>2012-12-20T13:05:27+01:00</time>
      </trkpt>
      <trkpt lat="42.96927719662" lon="-5.78370210749">
        <ele>1728.76</ele>
        <time>2012-12-20T13:05:28+01:00</time>
      </trkpt>
      <trkpt lat="42.96925465934" lon="-5.78372527477">
        <ele>1729.56</ele>
        <time>2012-12-20T13:05:29+01:00</time>
      </trkpt>
      <trkpt lat="42.96923724275" lon="-5.78376297151">
        <ele>1731.36</ele>
        <time>2012-12-20T13:05:31+01:00</time>
      </trkpt>
      <trkpt lat="42.9692338792" lon="-5.78379902827">
        <ele>1732.42</ele>
        <time>2012-12-20T13:05:33+01:00</time>
      </trkpt>
      <trkpt lat="42.96922034134" lon="-5.78384548224">
        <ele>1733.51</ele>
        <time>2012-12-20T13:05:35+01:00</time>
      </trkpt>
      <trkpt lat="42.9692046545" lon="-5.78387637975">
        <ele>1734.52</ele>
        <time>2012-12-20T13:05:36+01:00</time>
      </trkpt>
      <trkpt lat="42.96918384935" lon="-5.78389380256">
        <ele>1735.22</ele>
        <time>2012-12-20T13:05:37+01:00</time>
      </trkpt>
      <trkpt lat="42.96915762896" lon="-5.78393228272">
        <ele>1736.15</ele>
        <time>2012-12-20T13:05:39+01:00</time>
      </trkpt>
      <trkpt lat="42.9691312065" lon="-5.78397965796">
        <ele>1737.14</ele>
        <time>2012-12-20T13:05:41+01:00</time>
      </trkpt>
      <trkpt lat="42.96910023761" lon="-5.78402188774">
        <ele>1737.7</ele>
        <time>2012-12-20T13:05:43+01:00</time>
      </trkpt>
      <trkpt lat="42.9690698916" lon="-5.78405574929">
        <ele>1738.17</ele>
        <time>2012-12-20T13:05:45+01:00</time>
      </trkpt>
      <trkpt lat="42.96905298067" lon="-5.78408135584">
        <ele>1738.37</ele>
        <time>2012-12-20T13:05:47+01:00</time>
      </trkpt>
      <trkpt lat="42.96903828069" lon="-5.78410891126">
        <ele>1738.97</ele>
        <time>2012-12-20T13:05:48+01:00</time>
      </trkpt>
      <trkpt lat="42.96901740119" lon="-5.78415288266">
        <ele>1739.46</ele>
        <time>2012-12-20T13:05:49+01:00</time>
      </trkpt>
      <trkpt lat="42.96900997166" lon="-5.78417250259">
        <ele>1739.91</ele>
        <time>2012-12-20T13:05:50+01:00</time>
      </trkpt>
      <trkpt lat="42.96899537791" lon="-5.78421455124">
        <ele>1740.64</ele>
        <time>2012-12-20T13:05:51+01:00</time>
      </trkpt>
      <trkpt lat="42.96898327259" lon="-5.78424797257">
        <ele>1741.27</ele>
        <time>2012-12-20T13:05:52+01:00</time>
      </trkpt>
      <trkpt lat="42.96897226846" lon="-5.78427980255">
        <ele>1741.98</ele>
        <time>2012-12-20T13:05:53+01:00</time>
      </trkpt>
      <trkpt lat="42.96896064637" lon="-5.78431232008">
        <ele>1742.64</ele>
        <time>2012-12-20T13:05:54+01:00</time>
      </trkpt>
      <trkpt lat="42.96895118058" lon="-5.78434517629">
        <ele>1743.4</ele>
        <time>2012-12-20T13:05:55+01:00</time>
      </trkpt>
      <trkpt lat="42.96893473643" lon="-5.78438929846">
        <ele>1743.94</ele>
        <time>2012-12-20T13:05:57+01:00</time>
      </trkpt>
      <trkpt lat="42.96891763423" lon="-5.78442346977">
        <ele>1744.47</ele>
        <time>2012-12-20T13:05:59+01:00</time>
      </trkpt>
      <trkpt lat="42.96890284793" lon="-5.78445853428">
        <ele>1745.27</ele>
        <time>2012-12-20T13:06:01+01:00</time>
      </trkpt>
      <trkpt lat="42.96889003355" lon="-5.78449713019">
        <ele>1746.13</ele>
        <time>2012-12-20T13:06:03+01:00</time>
      </trkpt>
      <trkpt lat="42.96887892113" lon="-5.78454729533">
        <ele>1747.11</ele>
        <time>2012-12-20T13:06:06+01:00</time>
      </trkpt>
      <trkpt lat="42.96886888671" lon="-5.78460151775">
        <ele>1748.16</ele>
        <time>2012-12-20T13:06:08+01:00</time>
      </trkpt>
      <trkpt lat="42.96886091191" lon="-5.78465816096">
        <ele>1749.45</ele>
        <time>2012-12-20T13:06:09+01:00</time>
      </trkpt>
      <trkpt lat="42.96885740588" lon="-5.78469758574">
        <ele>1750.74</ele>
        <time>2012-12-20T13:06:11+01:00</time>
      </trkpt>
      <trkpt lat="42.96885553121" lon="-5.78474952598">
        <ele>1751.92</ele>
        <time>2012-12-20T13:06:13+01:00</time>
      </trkpt>
      <trkpt lat="42.9688561621" lon="-5.78479478274">
        <ele>1753.1</ele>
        <time>2012-12-20T13:06:15+01:00</time>
      </trkpt>
      <trkpt lat="42.9688430784" lon="-5.78482797397">
        <ele>1754.06</ele>
        <time>2012-12-20T13:06:16+01:00</time>
      </trkpt>
      <trkpt lat="42.96881903752" lon="-5.78486646345">
        <ele>1755.21</ele>
        <time>2012-12-20T13:06:18+01:00</time>
      </trkpt>
      <trkpt lat="42.9687837175" lon="-5.7849350961">
        <ele>1756.33</ele>
        <time>2012-12-20T13:06:21+01:00</time>
      </trkpt>
      <trkpt lat="42.96876274125" lon="-5.78497291391">
        <ele>1757.35</ele>
        <time>2012-12-20T13:06:23+01:00</time>
      </trkpt>
      <trkpt lat="42.9687505156" lon="-5.78502012216">
        <ele>1758.62</ele>
        <time>2012-12-20T13:06:25+01:00</time>
      </trkpt>
      <trkpt lat="42.96874020878" lon="-5.78506461864">
        <ele>1759.89</ele>
        <time>2012-12-20T13:06:27+01:00</time>
      </trkpt>
      <trkpt lat="42.96872973199" lon="-5.78509604849">
        <ele>1760.99</ele>
        <time>2012-12-20T13:06:28+01:00</time>
      </trkpt>
      <trkpt lat="42.96871620371" lon="-5.78512452974">
        <ele>1762.33</ele>
        <time>2012-12-20T13:06:30+01:00</time>
      </trkpt>
      <trkpt lat="42.96870203287" lon="-5.78517273019">
        <ele>1765.92</ele>
        <time>2012-12-20T13:06:31+01:00</time>
      </trkpt>
      <trkpt lat="42.96870167191" lon="-5.7852167021">
        <ele>1767.87</ele>
        <time>2012-12-20T13:06:33+01:00</time>
      </trkpt>
      <trkpt lat="42.96870250334" lon="-5.78526485283">
        <ele>1770.11</ele>
        <time>2012-12-20T13:06:36+01:00</time>
      </trkpt>
      <trkpt lat="42.96869930497" lon="-5.78529727789">
        <ele>1772.36</ele>
        <time>2012-12-20T13:06:36+01:00</time>
      </trkpt>
      <trkpt lat="42.96869393084" lon="-5.78533235487">
        <ele>1774.77</ele>
        <time>2012-12-20T13:06:37+01:00</time>
      </trkpt>
      <trkpt lat="42.96868373748" lon="-5.78539327022">
        <ele>1777.13</ele>
        <time>2012-12-20T13:06:40+01:00</time>
      </trkpt>
      <trkpt lat="42.96867087451" lon="-5.78544583102">
        <ele>1779.91</ele>
        <time>2012-12-20T13:06:41+01:00</time>
      </trkpt>
      <trkpt lat="42.96865450079" lon="-5.78548880567">
        <ele>1781.58</ele>
        <time>2012-12-20T13:06:43+01:00</time>
      </trkpt>
      <trkpt lat="42.96863815909" lon="-5.7855325235">
        <ele>1783.72</ele>
        <time>2012-12-20T13:06:46+01:00</time>
      </trkpt>
      <trkpt lat="42.96863120271" lon="-5.78558465179">
        <ele>1785.64</ele>
        <time>2012-12-20T13:06:48+01:00</time>
      </trkpt>
      <trkpt lat="42.96862059134" lon="-5.78563886451">
        <ele>1787.81</ele>
        <time>2012-12-20T13:06:50+01:00</time>
      </trkpt>
      <trkpt lat="42.96860804198" lon="-5.78567196939">
        <ele>1789.43</ele>
        <time>2012-12-20T13:06:50+01:00</time>
      </trkpt>
      <trkpt lat="42.96860298401" lon="-5.78571526958">
        <ele>1791.65</ele>
        <time>2012-12-20T13:06:52+01:00</time>
      </trkpt>
      <trkpt lat="42.96859013717" lon="-5.7857615476">
        <ele>1793.53</ele>
        <time>2012-12-20T13:06:54+01:00</time>
      </trkpt>
      <trkpt lat="42.96856768593" lon="-5.78579708885">
        <ele>1794.55</ele>
        <time>2012-12-20T13:06:57+01:00</time>
      </trkpt>
      <trkpt lat="42.96854411846" lon="-5.78583041569">
        <ele>1795.79</ele>
        <time>2012-12-20T13:06:58+01:00</time>
      </trkpt>
      <trkpt lat="42.96853084184" lon="-5.78585050716">
        <ele>1797.02</ele>
        <time>2012-12-20T13:07:00+01:00</time>
      </trkpt>
      <trkpt lat="42.96851200627" lon="-5.78589454237">
        <ele>1798.87</ele>
        <time>2012-12-20T13:07:01+01:00</time>
      </trkpt>
      <trkpt lat="42.96849105894" lon="-5.78594609159">
        <ele>1800.19</ele>
        <time>2012-12-20T13:07:03+01:00</time>
      </trkpt>
      <trkpt lat="42.96847693199" lon="-5.78599997889">
        <ele>1801.83</ele>
        <time>2012-12-20T13:07:05+01:00</time>
      </trkpt>
      <trkpt lat="42.96846863546" lon="-5.78603172508">
        <ele>1803.26</ele>
        <time>2012-12-20T13:07:06+01:00</time>
      </trkpt>
      <trkpt lat="42.96846157821" lon="-5.78606241536">
        <ele>1804.66</ele>
        <time>2012-12-20T13:07:07+01:00</time>
      </trkpt>
      <trkpt lat="42.96844672219" lon="-5.78608471373">
        <ele>1805.5</ele>
        <time>2012-12-20T13:07:08+01:00</time>
      </trkpt>
      <trkpt lat="42.96843421397" lon="-5.7861158321">
        <ele>1806.8</ele>
        <time>2012-12-20T13:07:09+01:00</time>
      </trkpt>
      <trkpt lat="42.96841261676" lon="-5.78615453978">
        <ele>1806.78</ele>
        <time>2012-12-20T13:07:11+01:00</time>
      </trkpt>
      <trkpt lat="42.96839770259" lon="-5.78619661359">
        <ele>1807.12</ele>
        <time>2012-12-20T13:07:13+01:00</time>
      </trkpt>
      <trkpt lat="42.96839290465" lon="-5.78622517451">
        <ele>1807.66</ele>
        <time>2012-12-20T13:07:15+01:00</time>
      </trkpt>
      <trkpt lat="42.96838635664" lon="-5.78626078691">
        <ele>1808.18</ele>
        <time>2012-12-20T13:07:17+01:00</time>
      </trkpt>
      <trkpt lat="42.96837537128" lon="-5.78631031862">
        <ele>1808.51</ele>
        <time>2012-12-20T13:07:20+01:00</time>
      </trkpt>
      <trkpt lat="42.96835632088" lon="-5.78635277029">
        <ele>1808.27</ele>
        <time>2012-12-20T13:07:21+01:00</time>
      </trkpt>
      <trkpt lat="42.96832274095" lon="-5.78642341083">
        <ele>1808.92</ele>
        <time>2012-12-20T13:07:23+01:00</time>
      </trkpt>
      <trkpt lat="42.96830408913" lon="-5.78647656508">
        <ele>1809.57</ele>
        <time>2012-12-20T13:07:25+01:00</time>
      </trkpt>
      <trkpt lat="42.96829187628" lon="-5.78653520747">
        <ele>1810.15</ele>
        <time>2012-12-20T13:07:27+01:00</time>
      </trkpt>
      <trkpt lat="42.96828980252" lon="-5.78657402626">
        <ele>1810.65</ele>
        <time>2012-12-20T13:07:28+01:00</time>
      </trkpt>
      <trkpt lat="42.96828308457" lon="-5.78660800861">
        <ele>1811.45</ele>
        <time>2012-12-20T13:07:29+01:00</time>
      </trkpt>
      <trkpt lat="42.96828109232" lon="-5.78662847539">
        <ele>1812.11</ele>
        <time>2012-12-20T13:07:30+01:00</time>
      </trkpt>
      <trkpt lat="42.96827570989" lon="-5.78667321317">
        <ele>1812.73</ele>
        <time>2012-12-20T13:07:31+01:00</time>
      </trkpt>
      <trkpt lat="42.96826527921" lon="-5.78673432969">
        <ele>1813.46</ele>
        <time>2012-12-20T13:07:33+01:00</time>
      </trkpt>
      <trkpt lat="42.96826077908" lon="-5.78678282987">
        <ele>1814.09</ele>
        <time>2012-12-20T13:07:35+01:00</time>
      </trkpt>
      <trkpt lat="42.96824096948" lon="-5.78681894967">
        <ele>1814.59</ele>
        <time>2012-12-20T13:07:37+01:00</time>
      </trkpt>
      <trkpt lat="42.96823040474" lon="-5.78684844271">
        <ele>1815.28</ele>
        <time>2012-12-20T13:07:38+01:00</time>
      </trkpt>
      <trkpt lat="42.96821212936" lon="-5.78690911869">
        <ele>1815.92</ele>
        <time>2012-12-20T13:07:40+01:00</time>
      </trkpt>
      <trkpt lat="42.96819425858" lon="-5.78696128585">
        <ele>1816.67</ele>
        <time>2012-12-20T13:07:42+01:00</time>
      </trkpt>
      <trkpt lat="42.96818005957" lon="-5.78699010261">
        <ele>1817.34</ele>
        <time>2012-12-20T13:07:44+01:00</time>
      </trkpt>
      <trkpt lat="42.96817647876" lon="-5.78704453786">
        <ele>1818.33</ele>
        <time>2012-12-20T13:07:46+01:00</time>
      </trkpt>
      <trkpt lat="42.96815997109" lon="-5.78707788841">
        <ele>1818.93</ele>
        <time>2012-12-20T13:07:47+01:00</time>
      </trkpt>
      <trkpt lat="42.96814956171" lon="-5.78710883252">
        <ele>1819.5</ele>
        <time>2012-12-20T13:07:47+01:00</time>
      </trkpt>
      <trkpt lat="42.96813956731" lon="-5.78713748484">
        <ele>1820.07</ele>
        <time>2012-12-20T13:07:49+01:00</time>
      </trkpt>
      <trkpt lat="42.96812680607" lon="-5.78716447181">
        <ele>1820.66</ele>
        <time>2012-12-20T13:07:49+01:00</time>
      </trkpt>
      <trkpt lat="42.96811459787" lon="-5.78719461258">
        <ele>1821.17</ele>
        <time>2012-12-20T13:07:51+01:00</time>
      </trkpt>
      <trkpt lat="42.96810678542" lon="-5.78721174931">
        <ele>1821.66</ele>
        <time>2012-12-20T13:07:51+01:00</time>
      </trkpt>
      <trkpt lat="42.96808802966" lon="-5.78725060441">
        <ele>1822.18</ele>
        <time>2012-12-20T13:07:52+01:00</time>
      </trkpt>
      <trkpt lat="42.96806050743" lon="-5.78729880973">
        <ele>1822.64</ele>
        <time>2012-12-20T13:07:55+01:00</time>
      </trkpt>
      <trkpt lat="42.96804011672" lon="-5.78733312711">
        <ele>1823.04</ele>
        <time>2012-12-20T13:07:55+01:00</time>
      </trkpt>
      <trkpt lat="42.96801674497" lon="-5.7873867143">
        <ele>1824.54</ele>
        <time>2012-12-20T13:07:57+01:00</time>
      </trkpt>
      <trkpt lat="42.96800173435" lon="-5.78743952297">
        <ele>1825.27</ele>
        <time>2012-12-20T13:07:59+01:00</time>
      </trkpt>
      <trkpt lat="42.96798937034" lon="-5.7874942906">
        <ele>1825.71</ele>
        <time>2012-12-20T13:08:01+01:00</time>
      </trkpt>
      <trkpt lat="42.96797492733" lon="-5.78752430454">
        <ele>1825.03</ele>
        <time>2012-12-20T13:08:03+01:00</time>
      </trkpt>
      <trkpt lat="42.96795553411" lon="-5.78757217091">
        <ele>1825.68</ele>
        <time>2012-12-20T13:08:06+01:00</time>
      </trkpt>
      <trkpt lat="42.96794251146" lon="-5.78760874632">
        <ele>1825.85</ele>
        <time>2012-12-20T13:08:07+01:00</time>
      </trkpt>
      <trkpt lat="42.96792652941" lon="-5.78763932956">
        <ele>1825.87</ele>
        <time>2012-12-20T13:08:09+01:00</time>
      </trkpt>
      <trkpt lat="42.96791287239" lon="-5.78767354235">
        <ele>1826.26</ele>
        <time>2012-12-20T13:08:11+01:00</time>
      </trkpt>
      <trkpt lat="42.96789827221" lon="-5.78770606706">
        <ele>1826.23</ele>
        <time>2012-12-20T13:08:14+01:00</time>
      </trkpt>
      <trkpt lat="42.96789166414" lon="-5.78774965354">
        <ele>1827.45</ele>
        <time>2012-12-20T13:08:16+01:00</time>
      </trkpt>
      <trkpt lat="42.9678941982" lon="-5.78778512587">
        <ele>1828.41</ele>
        <time>2012-12-20T13:08:17+01:00</time>
      </trkpt>
      <trkpt lat="42.96789567361" lon="-5.7878247153">
        <ele>1829.07</ele>
        <time>2012-12-20T13:08:17+01:00</time>
      </trkpt>
      <trkpt lat="42.96789489951" lon="-5.78786021971">
        <ele>1829.82</ele>
        <time>2012-12-20T13:08:18+01:00</time>
      </trkpt>
      <trkpt lat="42.96789374465" lon="-5.78789876023">
        <ele>1831.9</ele>
        <time>2012-12-20T13:08:19+01:00</time>
      </trkpt>
      <trkpt lat="42.96789049853" lon="-5.7879312804">
        <ele>1832.87</ele>
        <time>2012-12-20T13:08:21+01:00</time>
      </trkpt>
      <trkpt lat="42.96788484556" lon="-5.78797514182">
        <ele>1833.78</ele>
        <time>2012-12-20T13:08:22+01:00</time>
      </trkpt>
      <trkpt lat="42.96787467207" lon="-5.78802876417">
        <ele>1834.97</ele>
        <time>2012-12-20T13:08:24+01:00</time>
      </trkpt>
      <trkpt lat="42.9678656961" lon="-5.78807395721">
        <ele>1836.02</ele>
        <time>2012-12-20T13:08:26+01:00</time>
      </trkpt>
      <trkpt lat="42.96785879621" lon="-5.78811854278">
        <ele>1836.61</ele>
        <time>2012-12-20T13:08:28+01:00</time>
      </trkpt>
      <trkpt lat="42.96785258826" lon="-5.78817077757">
        <ele>1837.16</ele>
        <time>2012-12-20T13:08:30+01:00</time>
      </trkpt>
      <trkpt lat="42.96786147201" lon="-5.7882251457">
        <ele>1837.69</ele>
        <time>2012-12-20T13:08:32+01:00</time>
      </trkpt>
      <trkpt lat="42.96788289591" lon="-5.78826461134">
        <ele>1838.21</ele>
        <time>2012-12-20T13:08:33+01:00</time>
      </trkpt>
      <trkpt lat="42.9679052521" lon="-5.78829594731">
        <ele>1838.45</ele>
        <time>2012-12-20T13:08:34+01:00</time>
      </trkpt>
      <trkpt lat="42.96792722475" lon="-5.78832474506">
        <ele>1838.78</ele>
        <time>2012-12-20T13:08:35+01:00</time>
      </trkpt>
      <trkpt lat="42.96794761195" lon="-5.78835269989">
        <ele>1839.01</ele>
        <time>2012-12-20T13:08:36+01:00</time>
      </trkpt>
      <trkpt lat="42.96797670099" lon="-5.78837364651">
        <ele>1839.21</ele>
        <time>2012-12-20T13:08:38+01:00</time>
      </trkpt>
      <trkpt lat="42.96800897009" lon="-5.78833581295">
        <ele>1839.21</ele>
        <time>2012-12-20T13:09:06+01:00</time>
      </trkpt>
      <trkpt lat="42.96802343713" lon="-5.7883062301">
        <ele>1839</ele>
        <time>2012-12-20T13:09:07+01:00</time>
      </trkpt>
      <trkpt lat="42.96803695377" lon="-5.78827618989">
        <ele>1838.89</ele>
        <time>2012-12-20T13:09:08+01:00</time>
      </trkpt>
      <trkpt lat="42.968058334" lon="-5.78823863566">
        <ele>1838.38</ele>
        <time>2012-12-20T13:09:09+01:00</time>
      </trkpt>
      <trkpt lat="42.96810467818" lon="-5.78818471455">
        <ele>1838.28</ele>
        <time>2012-12-20T13:09:10+01:00</time>
      </trkpt>
      <trkpt lat="42.96813059061" lon="-5.78813526278">
        <ele>1837.89</ele>
        <time>2012-12-20T13:09:11+01:00</time>
      </trkpt>
      <trkpt lat="42.96815917537" lon="-5.78808728506">
        <ele>1837.67</ele>
        <time>2012-12-20T13:09:12+01:00</time>
      </trkpt>
      <trkpt lat="42.96818688643" lon="-5.78802994619">
        <ele>1837.48</ele>
        <time>2012-12-20T13:09:13+01:00</time>
      </trkpt>
      <trkpt lat="42.96820309043" lon="-5.7879380792">
        <ele>1837.19</ele>
        <time>2012-12-20T13:09:14+01:00</time>
      </trkpt>
      <trkpt lat="42.96822064752" lon="-5.78785258352">
        <ele>1836.96</ele>
        <time>2012-12-20T13:09:15+01:00</time>
      </trkpt>
      <trkpt lat="42.9682616428" lon="-5.78775092775">
        <ele>1836.42</ele>
        <time>2012-12-20T13:09:16+01:00</time>
      </trkpt>
      <trkpt lat="42.96832344642" lon="-5.78766408452">
        <ele>1835.95</ele>
        <time>2012-12-20T13:09:17+01:00</time>
      </trkpt>
      <trkpt lat="42.96837937757" lon="-5.78758562085">
        <ele>1835.34</ele>
        <time>2012-12-20T13:09:18+01:00</time>
      </trkpt>
      <trkpt lat="42.96842267129" lon="-5.78751078641">
        <ele>1834.87</ele>
        <time>2012-12-20T13:09:19+01:00</time>
      </trkpt>
      <trkpt lat="42.96848065442" lon="-5.78738426308">
        <ele>1834.08</ele>
        <time>2012-12-20T13:09:20+01:00</time>
      </trkpt>
      <trkpt lat="42.9685394096" lon="-5.78728161425">
        <ele>1833.07</ele>
        <time>2012-12-20T13:09:21+01:00</time>
      </trkpt>
      <trkpt lat="42.96862015647" lon="-5.78720654888">
        <ele>1832.27</ele>
        <time>2012-12-20T13:09:22+01:00</time>
      </trkpt>
      <trkpt lat="42.96870404547" lon="-5.78714027681">
        <ele>1831.2</ele>
        <time>2012-12-20T13:09:23+01:00</time>
      </trkpt>
      <trkpt lat="42.96876984202" lon="-5.78703693921">
        <ele>1830</ele>
        <time>2012-12-20T13:09:24+01:00</time>
      </trkpt>
      <trkpt lat="42.96883118903" lon="-5.78691284626">
        <ele>1828.69</ele>
        <time>2012-12-20T13:09:25+01:00</time>
      </trkpt>
      <trkpt lat="42.96890027602" lon="-5.78680900716">
        <ele>1827.29</ele>
        <time>2012-12-20T13:09:26+01:00</time>
      </trkpt>
      <trkpt lat="42.96899401285" lon="-5.78672967372">
        <ele>1825.76</ele>
        <time>2012-12-20T13:09:27+01:00</time>
      </trkpt>
      <trkpt lat="42.9690821072" lon="-5.78664336258">
        <ele>1824.25</ele>
        <time>2012-12-20T13:09:28+01:00</time>
      </trkpt>
      <trkpt lat="42.9691581647" lon="-5.78651022892">
        <ele>1823.06</ele>
        <time>2012-12-20T13:09:29+01:00</time>
      </trkpt>
      <trkpt lat="42.96921774874" lon="-5.78631604722">
        <ele>1821.21</ele>
        <time>2012-12-20T13:09:30+01:00</time>
      </trkpt>
      <trkpt lat="42.96928111493" lon="-5.78618727379">
        <ele>1819.41</ele>
        <time>2012-12-20T13:09:31+01:00</time>
      </trkpt>
      <trkpt lat="42.96940479388" lon="-5.78609666763">
        <ele>1817.43</ele>
        <time>2012-12-20T13:09:32+01:00</time>
      </trkpt>
      <trkpt lat="42.96950601037" lon="-5.78602658767">
        <ele>1815.8</ele>
        <time>2012-12-20T13:09:33+01:00</time>
      </trkpt>
      <trkpt lat="42.96959520647" lon="-5.78596336972">
        <ele>1813.87</ele>
        <time>2012-12-20T13:09:34+01:00</time>
      </trkpt>
      <trkpt lat="42.96965798819" lon="-5.78589526492">
        <ele>1812.08</ele>
        <time>2012-12-20T13:09:35+01:00</time>
      </trkpt>
      <trkpt lat="42.96973608251" lon="-5.78585903396">
        <ele>1810.3</ele>
        <time>2012-12-20T13:09:36+01:00</time>
      </trkpt>
      <trkpt lat="42.96980016804" lon="-5.78581029946">
        <ele>1808.65</ele>
        <time>2012-12-20T13:09:37+01:00</time>
      </trkpt>
      <trkpt lat="42.96983388483" lon="-5.78572719771">
        <ele>1806.9</ele>
        <time>2012-12-20T13:09:38+01:00</time>
      </trkpt>
      <trkpt lat="42.96984865007" lon="-5.78564222799">
        <ele>1805.73</ele>
        <time>2012-12-20T13:09:39+01:00</time>
      </trkpt>
      <trkpt lat="42.96979841189" lon="-5.78554782355">
        <ele>1804.01</ele>
        <time>2012-12-20T13:09:40+01:00</time>
      </trkpt>
      <trkpt lat="42.96976600439" lon="-5.78545004623">
        <ele>1802.5</ele>
        <time>2012-12-20T13:09:41+01:00</time>
      </trkpt>
      <trkpt lat="42.96975827513" lon="-5.78535879639">
        <ele>1801.09</ele>
        <time>2012-12-20T13:09:42+01:00</time>
      </trkpt>
      <trkpt lat="42.96973234392" lon="-5.78526895368">
        <ele>1799.55</ele>
        <time>2012-12-20T13:09:43+01:00</time>
      </trkpt>
      <trkpt lat="42.96969044806" lon="-5.78519328299">
        <ele>1798.05</ele>
        <time>2012-12-20T13:09:44+01:00</time>
      </trkpt>
      <trkpt lat="42.96965021241" lon="-5.78513351602">
        <ele>1796.7</ele>
        <time>2012-12-20T13:09:45+01:00</time>
      </trkpt>
      <trkpt lat="42.96960240153" lon="-5.78508146361">
        <ele>1795.5</ele>
        <time>2012-12-20T13:09:46+01:00</time>
      </trkpt>
      <trkpt lat="42.96956088754" lon="-5.78502693078">
        <ele>1794.3</ele>
        <time>2012-12-20T13:09:47+01:00</time>
      </trkpt>
      <trkpt lat="42.96952086762" lon="-5.78496801268">
        <ele>1792.59</ele>
        <time>2012-12-20T13:09:48+01:00</time>
      </trkpt>
      <trkpt lat="42.96946924422" lon="-5.78492283555">
        <ele>1791.12</ele>
        <time>2012-12-20T13:09:49+01:00</time>
      </trkpt>
      <trkpt lat="42.96942133508" lon="-5.78486914135">
        <ele>1789.68</ele>
        <time>2012-12-20T13:09:50+01:00</time>
      </trkpt>
      <trkpt lat="42.96936619849" lon="-5.78482816773">
        <ele>1788.28</ele>
        <time>2012-12-20T13:09:51+01:00</time>
      </trkpt>
      <trkpt lat="42.96931319716" lon="-5.78478182558">
        <ele>1786.77</ele>
        <time>2012-12-20T13:09:52+01:00</time>
      </trkpt>
      <trkpt lat="42.96925769362" lon="-5.78472845898">
        <ele>1785.11</ele>
        <time>2012-12-20T13:09:53+01:00</time>
      </trkpt>
      <trkpt lat="42.96919439614" lon="-5.78466390417">
        <ele>1783.47</ele>
        <time>2012-12-20T13:09:54+01:00</time>
      </trkpt>
      <trkpt lat="42.96912228522" lon="-5.78460373746">
        <ele>1781.98</ele>
        <time>2012-12-20T13:09:55+01:00</time>
      </trkpt>
      <trkpt lat="42.96905215956" lon="-5.78452447133">
        <ele>1780.45</ele>
        <time>2012-12-20T13:09:56+01:00</time>
      </trkpt>
      <trkpt lat="42.96897717814" lon="-5.78444450226">
        <ele>1778.9</ele>
        <time>2012-12-20T13:09:57+01:00</time>
      </trkpt>
      <trkpt lat="42.96890963205" lon="-5.78437374167">
        <ele>1777.68</ele>
        <time>2012-12-20T13:09:58+01:00</time>
      </trkpt>
      <trkpt lat="42.96885202895" lon="-5.78431139367">
        <ele>1776.52</ele>
        <time>2012-12-20T13:09:59+01:00</time>
      </trkpt>
      <trkpt lat="42.96879029815" lon="-5.78426394672">
        <ele>1775.47</ele>
        <time>2012-12-20T13:10:00+01:00</time>
      </trkpt>
      <trkpt lat="42.96873878736" lon="-5.78421658005">
        <ele>1774.45</ele>
        <time>2012-12-20T13:10:01+01:00</time>
      </trkpt>
      <trkpt lat="42.9686942581" lon="-5.7841718617">
        <ele>1773.45</ele>
        <time>2012-12-20T13:10:02+01:00</time>
      </trkpt>
      <trkpt lat="42.96864891825" lon="-5.78411345232">
        <ele>1772.38</ele>
        <time>2012-12-20T13:10:03+01:00</time>
      </trkpt>
      <trkpt lat="42.96860285613" lon="-5.7840562387">
        <ele>1771.37</ele>
        <time>2012-12-20T13:10:04+01:00</time>
      </trkpt>
      <trkpt lat="42.96855626915" lon="-5.78400442525">
        <ele>1770.55</ele>
        <time>2012-12-20T13:10:05+01:00</time>
      </trkpt>
      <trkpt lat="42.96853226083" lon="-5.78393595215">
        <ele>1769.69</ele>
        <time>2012-12-20T13:10:06+01:00</time>
      </trkpt>
      <trkpt lat="42.96853589497" lon="-5.78386845339">
        <ele>1768.72</ele>
        <time>2012-12-20T13:10:07+01:00</time>
      </trkpt>
      <trkpt lat="42.96855228877" lon="-5.78379026456">
        <ele>1767.37</ele>
        <time>2012-12-20T13:10:08+01:00</time>
      </trkpt>
      <trkpt lat="42.96853540834" lon="-5.78370353844">
        <ele>1766.22</ele>
        <time>2012-12-20T13:10:09+01:00</time>
      </trkpt>
      <trkpt lat="42.96852123545" lon="-5.78359853261">
        <ele>1764.62</ele>
        <time>2012-12-20T13:10:10+01:00</time>
      </trkpt>
      <trkpt lat="42.96853313281" lon="-5.78348264636">
        <ele>1762.77</ele>
        <time>2012-12-20T13:10:11+01:00</time>
      </trkpt>
      <trkpt lat="42.96851934828" lon="-5.78334734084">
        <ele>1760.65</ele>
        <time>2012-12-20T13:10:12+01:00</time>
      </trkpt>
      <trkpt lat="42.96852257149" lon="-5.78318527459">
        <ele>1758.03</ele>
        <time>2012-12-20T13:10:13+01:00</time>
      </trkpt>
      <trkpt lat="42.96852714953" lon="-5.78305211389">
        <ele>1755.91</ele>
        <time>2012-12-20T13:10:14+01:00</time>
      </trkpt>
      <trkpt lat="42.96855834058" lon="-5.78287500983">
        <ele>1753.85</ele>
        <time>2012-12-20T13:10:15+01:00</time>
      </trkpt>
      <trkpt lat="42.96860205872" lon="-5.78263925119">
        <ele>1751.09</ele>
        <time>2012-12-20T13:10:17+01:00</time>
      </trkpt>
      <trkpt lat="42.96862790537" lon="-5.78245642355">
        <ele>1748.44</ele>
        <time>2012-12-20T13:10:17+01:00</time>
      </trkpt>
      <trkpt lat="42.96870123633" lon="-5.78227501874">
        <ele>1746.5</ele>
        <time>2012-12-20T13:10:18+01:00</time>
      </trkpt>
      <trkpt lat="42.96876398112" lon="-5.78208370609">
        <ele>1744.48</ele>
        <time>2012-12-20T13:10:19+01:00</time>
      </trkpt>
      <trkpt lat="42.96879144987" lon="-5.78189222238">
        <ele>1742.38</ele>
        <time>2012-12-20T13:10:20+01:00</time>
      </trkpt>
      <trkpt lat="42.96875560407" lon="-5.7817720512">
        <ele>1739.32</ele>
        <time>2012-12-20T13:10:21+01:00</time>
      </trkpt>
      <trkpt lat="42.96879208786" lon="-5.78163268198">
        <ele>1736.36</ele>
        <time>2012-12-20T13:10:22+01:00</time>
      </trkpt>
      <trkpt lat="42.96882533499" lon="-5.78148021953">
        <ele>1733.19</ele>
        <time>2012-12-20T13:10:23+01:00</time>
      </trkpt>
      <trkpt lat="42.96884083571" lon="-5.78130891106">
        <ele>1729.43</ele>
        <time>2012-12-20T13:10:24+01:00</time>
      </trkpt>
      <trkpt lat="42.96884075073" lon="-5.78113638149">
        <ele>1726.3</ele>
        <time>2012-12-20T13:10:25+01:00</time>
      </trkpt>
      <trkpt lat="42.96884871331" lon="-5.78096494881">
        <ele>1724.12</ele>
        <time>2012-12-20T13:10:27+01:00</time>
      </trkpt>
      <trkpt lat="42.96887696027" lon="-5.78078079385">
        <ele>1721.52</ele>
        <time>2012-12-20T13:10:27+01:00</time>
      </trkpt>
      <trkpt lat="42.96889031893" lon="-5.78066641173">
        <ele>1719.05</ele>
        <time>2012-12-20T13:10:28+01:00</time>
      </trkpt>
      <trkpt lat="42.96892891235" lon="-5.78038395702">
        <ele>1716.46</ele>
        <time>2012-12-20T13:10:30+01:00</time>
      </trkpt>
      <trkpt lat="42.96904635538" lon="-5.77997486544">
        <ele>1712.72</ele>
        <time>2012-12-20T13:10:31+01:00</time>
      </trkpt>
      <trkpt lat="42.96911477099" lon="-5.77971628955">
        <ele>1710.06</ele>
        <time>2012-12-20T13:10:32+01:00</time>
      </trkpt>
      <trkpt lat="42.96915425216" lon="-5.77957751739">
        <ele>1707.41</ele>
        <time>2012-12-20T13:10:33+01:00</time>
      </trkpt>
      <trkpt lat="42.96921138514" lon="-5.77931133388">
        <ele>1707.42</ele>
        <time>2012-12-20T13:10:34+01:00</time>
      </trkpt>
      <trkpt lat="42.9692665988" lon="-5.77907671279">
        <ele>1705.27</ele>
        <time>2012-12-20T13:10:35+01:00</time>
      </trkpt>
      <trkpt lat="42.96931559479" lon="-5.77890855272">
        <ele>1703.53</ele>
        <time>2012-12-20T13:10:36+01:00</time>
      </trkpt>
      <trkpt lat="42.96934981962" lon="-5.77880488715">
        <ele>1702.16</ele>
        <time>2012-12-20T13:10:37+01:00</time>
      </trkpt>
      <trkpt lat="42.96939128146" lon="-5.77868708878">
        <ele>1700.8</ele>
        <time>2012-12-20T13:10:39+01:00</time>
      </trkpt>
      <trkpt lat="42.96954914013" lon="-5.77857541573">
        <ele>1698.51</ele>
        <time>2012-12-20T13:10:39+01:00</time>
      </trkpt>
      <trkpt lat="42.96962376132" lon="-5.77846530583">
        <ele>1696.58</ele>
        <time>2012-12-20T13:10:41+01:00</time>
      </trkpt>
      <trkpt lat="42.96969638658" lon="-5.77833586138">
        <ele>1694.29</ele>
        <time>2012-12-20T13:10:41+01:00</time>
      </trkpt>
      <trkpt lat="42.9697769275" lon="-5.7782427161">
        <ele>1692.23</ele>
        <time>2012-12-20T13:10:42+01:00</time>
      </trkpt>
      <trkpt lat="42.9698564364" lon="-5.77814402311">
        <ele>1690</ele>
        <time>2012-12-20T13:10:43+01:00</time>
      </trkpt>
      <trkpt lat="42.96990470126" lon="-5.77808231707">
        <ele>1687.99</ele>
        <time>2012-12-20T13:10:44+01:00</time>
      </trkpt>
      <trkpt lat="42.96998396566" lon="-5.77799849043">
        <ele>1685.78</ele>
        <time>2012-12-20T13:10:46+01:00</time>
      </trkpt>
      <trkpt lat="42.97000193781" lon="-5.77798063621">
        <ele>1683.82</ele>
        <time>2012-12-20T13:10:46+01:00</time>
      </trkpt>
      <trkpt lat="42.97014846375" lon="-5.7779023039">
        <ele>1681.7</ele>
        <time>2012-12-20T13:10:47+01:00</time>
      </trkpt>
      <trkpt lat="42.97027375738" lon="-5.77783962651">
        <ele>1679.68</ele>
        <time>2012-12-20T13:10:48+01:00</time>
      </trkpt>
      <trkpt lat="42.97046897601" lon="-5.77771391335">
        <ele>1677.33</ele>
        <time>2012-12-20T13:10:49+01:00</time>
      </trkpt>
      <trkpt lat="42.97059542623" lon="-5.77764578832">
        <ele>1675.22</ele>
        <time>2012-12-20T13:10:50+01:00</time>
      </trkpt>
      <trkpt lat="42.97066167061" lon="-5.77762545421">
        <ele>1673.23</ele>
        <time>2012-12-20T13:10:51+01:00</time>
      </trkpt>
      <trkpt lat="42.97078976796" lon="-5.77752919004">
        <ele>1671.33</ele>
        <time>2012-12-20T13:10:52+01:00</time>
      </trkpt>
      <trkpt lat="42.97085338934" lon="-5.77747688197">
        <ele>1669.53</ele>
        <time>2012-12-20T13:10:53+01:00</time>
      </trkpt>
      <trkpt lat="42.97099585035" lon="-5.77741398018">
        <ele>1664.27</ele>
        <time>2012-12-20T13:10:54+01:00</time>
      </trkpt>
      <trkpt lat="42.97106397035" lon="-5.77737732561">
        <ele>1661.98</ele>
        <time>2012-12-20T13:10:55+01:00</time>
      </trkpt>
      <trkpt lat="42.97116050998" lon="-5.77746253229">
        <ele>1658.82</ele>
        <time>2012-12-20T13:10:57+01:00</time>
      </trkpt>
      <trkpt lat="42.97121773764" lon="-5.77753650351">
        <ele>1655.95</ele>
        <time>2012-12-20T13:10:57+01:00</time>
      </trkpt>
      <trkpt lat="42.97124742219" lon="-5.77762941709">
        <ele>1653.05</ele>
        <time>2012-12-20T13:10:59+01:00</time>
      </trkpt>
      <trkpt lat="42.97126586395" lon="-5.77767803739">
        <ele>1650.77</ele>
        <time>2012-12-20T13:10:59+01:00</time>
      </trkpt>
      <trkpt lat="42.97126707221" lon="-5.77776802972">
        <ele>1650.65</ele>
        <time>2012-12-20T13:11:01+01:00</time>
      </trkpt>
      <trkpt lat="42.97126101067" lon="-5.7778536869">
        <ele>1646.44</ele>
        <time>2012-12-20T13:11:01+01:00</time>
      </trkpt>
      <trkpt lat="42.9712484325" lon="-5.77792305436">
        <ele>1646.65</ele>
        <time>2012-12-20T13:11:02+01:00</time>
      </trkpt>
      <trkpt lat="42.9712281137" lon="-5.77797769743">
        <ele>1645.46</ele>
        <time>2012-12-20T13:11:03+01:00</time>
      </trkpt>
      <trkpt lat="42.97121113603" lon="-5.77799697494">
        <ele>1644.21</ele>
        <time>2012-12-20T13:11:04+01:00</time>
      </trkpt>
      <trkpt lat="42.97118672446" lon="-5.77798691596">
        <ele>1643.14</ele>
        <time>2012-12-20T13:11:07+01:00</time>
      </trkpt>
      <trkpt lat="42.97115740052" lon="-5.77800046098">
        <ele>1642.19</ele>
        <time>2012-12-20T13:11:16+01:00</time>
      </trkpt>
      <trkpt lat="42.97113440312" lon="-5.77800860145">
        <ele>1641.18</ele>
        <time>2012-12-20T13:11:17+01:00</time>
      </trkpt>
      <trkpt lat="42.97113285466" lon="-5.77803443649">
        <ele>1639.92</ele>
        <time>2012-12-20T13:11:23+01:00</time>
      </trkpt>
      <trkpt lat="42.97110974619" lon="-5.77805113699">
        <ele>1638.72</ele>
        <time>2012-12-20T13:11:24+01:00</time>
      </trkpt>
      <trkpt lat="42.97107893943" lon="-5.77805414182">
        <ele>1637.9</ele>
        <time>2012-12-20T13:11:26+01:00</time>
      </trkpt>
      <trkpt lat="42.97107408275" lon="-5.77807593318">
        <ele>1636.9</ele>
        <time>2012-12-20T13:11:31+01:00</time>
      </trkpt>
      <trkpt lat="42.97105470766" lon="-5.77810825253">
        <ele>1635.56</ele>
        <time>2012-12-20T13:11:34+01:00</time>
      </trkpt>
      <trkpt lat="42.97103819273" lon="-5.77814462304">
        <ele>1634.72</ele>
        <time>2012-12-20T13:11:40+01:00</time>
      </trkpt>
      <trkpt lat="42.97102362447" lon="-5.77817268426">
        <ele>1632.12</ele>
        <time>2012-12-20T13:11:41+01:00</time>
      </trkpt>
      <trkpt lat="42.97100622688" lon="-5.77819827896">
        <ele>1632.44</ele>
        <time>2012-12-20T13:11:42+01:00</time>
      </trkpt>
      <trkpt lat="42.97099129861" lon="-5.77822968639">
        <ele>1630.46</ele>
        <time>2012-12-20T13:11:43+01:00</time>
      </trkpt>
      <trkpt lat="42.97097113509" lon="-5.7782831437">
        <ele>1630.14</ele>
        <time>2012-12-20T13:11:45+01:00</time>
      </trkpt>
      <trkpt lat="42.97095891569" lon="-5.77832718982">
        <ele>1630.33</ele>
        <time>2012-12-20T13:11:47+01:00</time>
      </trkpt>
      <trkpt lat="42.97094213502" lon="-5.7783649365">
        <ele>1629.42</ele>
        <time>2012-12-20T13:11:49+01:00</time>
      </trkpt>
      <trkpt lat="42.97092840583" lon="-5.77840523919">
        <ele>1629.39</ele>
        <time>2012-12-20T13:11:51+01:00</time>
      </trkpt>
      <trkpt lat="42.97091746958" lon="-5.77843600947">
        <ele>1629.32</ele>
        <time>2012-12-20T13:11:53+01:00</time>
      </trkpt>
      <trkpt lat="42.97089943344" lon="-5.77848597256">
        <ele>1629.41</ele>
        <time>2012-12-20T13:11:54+01:00</time>
      </trkpt>
      <trkpt lat="42.97088710903" lon="-5.7785186969">
        <ele>1629.37</ele>
        <time>2012-12-20T13:11:55+01:00</time>
      </trkpt>
      <trkpt lat="42.97087663105" lon="-5.77854958282">
        <ele>1629.49</ele>
        <time>2012-12-20T13:11:56+01:00</time>
      </trkpt>
      <trkpt lat="42.97086055444" lon="-5.77859579197">
        <ele>1629.53</ele>
        <time>2012-12-20T13:11:58+01:00</time>
      </trkpt>
      <trkpt lat="42.97084315694" lon="-5.77863728737">
        <ele>1629.76</ele>
        <time>2012-12-20T13:12:00+01:00</time>
      </trkpt>
      <trkpt lat="42.97083008854" lon="-5.77867609657">
        <ele>1630.2</ele>
        <time>2012-12-20T13:12:02+01:00</time>
      </trkpt>
      <trkpt lat="42.97082537538" lon="-5.7787223209">
        <ele>1631.71</ele>
        <time>2012-12-20T13:12:04+01:00</time>
      </trkpt>
      <trkpt lat="42.97082123487" lon="-5.77875660458">
        <ele>1632.49</ele>
        <time>2012-12-20T13:12:06+01:00</time>
      </trkpt>
      <trkpt lat="42.970817054" lon="-5.77880785187">
        <ele>1633.78</ele>
        <time>2012-12-20T13:12:08+01:00</time>
      </trkpt>
      <trkpt lat="42.9707997893" lon="-5.77884955023">
        <ele>1634.74</ele>
        <time>2012-12-20T13:12:10+01:00</time>
      </trkpt>
      <trkpt lat="42.97078352881" lon="-5.77889919592">
        <ele>1634.77</ele>
        <time>2012-12-20T13:12:12+01:00</time>
      </trkpt>
      <trkpt lat="42.97076394877" lon="-5.77895043108">
        <ele>1635.52</ele>
        <time>2012-12-20T13:12:14+01:00</time>
      </trkpt>
      <trkpt lat="42.97074631996" lon="-5.77900319112">
        <ele>1636.39</ele>
        <time>2012-12-20T13:12:16+01:00</time>
      </trkpt>
      <trkpt lat="42.97073263534" lon="-5.7790543786">
        <ele>1637.27</ele>
        <time>2012-12-20T13:12:18+01:00</time>
      </trkpt>
      <trkpt lat="42.9707153139" lon="-5.77910337401">
        <ele>1637.89</ele>
        <time>2012-12-20T13:12:20+01:00</time>
      </trkpt>
      <trkpt lat="42.97069843857" lon="-5.77915012053">
        <ele>1638.63</ele>
        <time>2012-12-20T13:12:22+01:00</time>
      </trkpt>
      <trkpt lat="42.97067608408" lon="-5.77919707463">
        <ele>1640.73</ele>
        <time>2012-12-20T13:12:24+01:00</time>
      </trkpt>
      <trkpt lat="42.97065746732" lon="-5.77923195962">
        <ele>1641.6</ele>
        <time>2012-12-20T13:12:26+01:00</time>
      </trkpt>
      <trkpt lat="42.9706418752" lon="-5.77927722515">
        <ele>1641.37</ele>
        <time>2012-12-20T13:12:28+01:00</time>
      </trkpt>
      <trkpt lat="42.97062782677" lon="-5.77932262219">
        <ele>1643</ele>
        <time>2012-12-20T13:12:30+01:00</time>
      </trkpt>
      <trkpt lat="42.97060929263" lon="-5.77936160822">
        <ele>1644.03</ele>
        <time>2012-12-20T13:12:32+01:00</time>
      </trkpt>
      <trkpt lat="42.97058218956" lon="-5.77939897076">
        <ele>1645.26</ele>
        <time>2012-12-20T13:12:34+01:00</time>
      </trkpt>
      <trkpt lat="42.97055892623" lon="-5.77943380782">
        <ele>1645.49</ele>
        <time>2012-12-20T13:12:36+01:00</time>
      </trkpt>
      <trkpt lat="42.97054113074" lon="-5.77948147776">
        <ele>1645.62</ele>
        <time>2012-12-20T13:12:38+01:00</time>
      </trkpt>
      <trkpt lat="42.9705325425" lon="-5.7795366093">
        <ele>1646.43</ele>
        <time>2012-12-20T13:12:40+01:00</time>
      </trkpt>
      <trkpt lat="42.97052532632" lon="-5.77959142267">
        <ele>1647</ele>
        <time>2012-12-20T13:12:42+01:00</time>
      </trkpt>
      <trkpt lat="42.97052278983" lon="-5.77962178558">
        <ele>1647.29</ele>
        <time>2012-12-20T13:12:44+01:00</time>
      </trkpt>
      <trkpt lat="42.97051358572" lon="-5.77967249567">
        <ele>1647.54</ele>
        <time>2012-12-20T13:12:45+01:00</time>
      </trkpt>
      <trkpt lat="42.97050460352" lon="-5.77972615653">
        <ele>1648.67</ele>
        <time>2012-12-20T13:12:47+01:00</time>
      </trkpt>
      <trkpt lat="42.97048342812" lon="-5.77977336674">
        <ele>1649.06</ele>
        <time>2012-12-20T13:12:49+01:00</time>
      </trkpt>
      <trkpt lat="42.97046871125" lon="-5.77979971986">
        <ele>1649.59</ele>
        <time>2012-12-20T13:12:51+01:00</time>
      </trkpt>
      <trkpt lat="42.97043001509" lon="-5.77983602389">
        <ele>1650.52</ele>
        <time>2012-12-20T13:12:52+01:00</time>
      </trkpt>
      <trkpt lat="42.97040480797" lon="-5.77986849746">
        <ele>1652.78</ele>
        <time>2012-12-20T13:12:53+01:00</time>
      </trkpt>
      <trkpt lat="42.97038092403" lon="-5.77990322243">
        <ele>1653.99</ele>
        <time>2012-12-20T13:12:54+01:00</time>
      </trkpt>
      <trkpt lat="42.97036132803" lon="-5.77994248804">
        <ele>1655.31</ele>
        <time>2012-12-20T13:12:55+01:00</time>
      </trkpt>
      <trkpt lat="42.97034195261" lon="-5.78000076669">
        <ele>1657.02</ele>
        <time>2012-12-20T13:12:56+01:00</time>
      </trkpt>
      <trkpt lat="42.97032138077" lon="-5.78003998212">
        <ele>1658.73</ele>
        <time>2012-12-20T13:12:57+01:00</time>
      </trkpt>
      <trkpt lat="42.970319211" lon="-5.78007276975">
        <ele>1658.56</ele>
        <time>2012-12-20T13:13:00+01:00</time>
      </trkpt>
      <trkpt lat="42.97031757006" lon="-5.78012016391">
        <ele>1659.39</ele>
        <time>2012-12-20T13:13:02+01:00</time>
      </trkpt>
      <trkpt lat="42.97031700717" lon="-5.78015492256">
        <ele>1660.22</ele>
        <time>2012-12-20T13:13:03+01:00</time>
      </trkpt>
      <trkpt lat="42.97031840334" lon="-5.78019996166">
        <ele>1660.77</ele>
        <time>2012-12-20T13:13:04+01:00</time>
      </trkpt>
      <trkpt lat="42.97032853969" lon="-5.78025081194">
        <ele>1661.51</ele>
        <time>2012-12-20T13:13:06+01:00</time>
      </trkpt>
      <trkpt lat="42.97033552905" lon="-5.78028666415">
        <ele>1663.56</ele>
        <time>2012-12-20T13:13:07+01:00</time>
      </trkpt>
      <trkpt lat="42.97034148667" lon="-5.78031844385">
        <ele>1664.65</ele>
        <time>2012-12-20T13:13:08+01:00</time>
      </trkpt>
      <trkpt lat="42.97034405283" lon="-5.78035168894">
        <ele>1664.43</ele>
        <time>2012-12-20T13:13:09+01:00</time>
      </trkpt>
      <trkpt lat="42.97034382846" lon="-5.7803864341">
        <ele>1665.13</ele>
        <time>2012-12-20T13:13:10+01:00</time>
      </trkpt>
      <trkpt lat="42.9703411349" lon="-5.78041866295">
        <ele>1665.92</ele>
        <time>2012-12-20T13:13:11+01:00</time>
      </trkpt>
      <trkpt lat="42.97032383238" lon="-5.78046279376">
        <ele>1667.74</ele>
        <time>2012-12-20T13:13:14+01:00</time>
      </trkpt>
      <trkpt lat="42.97030464743" lon="-5.78050575103">
        <ele>1667.44</ele>
        <time>2012-12-20T13:13:15+01:00</time>
      </trkpt>
      <trkpt lat="42.97028511951" lon="-5.78054901003">
        <ele>1668.17</ele>
        <time>2012-12-20T13:13:17+01:00</time>
      </trkpt>
      <trkpt lat="42.9702615647" lon="-5.78059766887">
        <ele>1670.3</ele>
        <time>2012-12-20T13:13:19+01:00</time>
      </trkpt>
      <trkpt lat="42.97024068941" lon="-5.78064960752">
        <ele>1671.55</ele>
        <time>2012-12-20T13:13:21+01:00</time>
      </trkpt>
      <trkpt lat="42.97022879505" lon="-5.78067924301">
        <ele>1672.65</ele>
        <time>2012-12-20T13:13:22+01:00</time>
      </trkpt>
      <trkpt lat="42.97021051911" lon="-5.78072852496">
        <ele>1673.99</ele>
        <time>2012-12-20T13:13:24+01:00</time>
      </trkpt>
      <trkpt lat="42.97019164272" lon="-5.78077811194">
        <ele>1675.32</ele>
        <time>2012-12-20T13:13:26+01:00</time>
      </trkpt>
      <trkpt lat="42.97016864126" lon="-5.78083884606">
        <ele>1676.37</ele>
        <time>2012-12-20T13:13:29+01:00</time>
      </trkpt>
      <trkpt lat="42.9701485671" lon="-5.78089445428">
        <ele>1677.85</ele>
        <time>2012-12-20T13:13:31+01:00</time>
      </trkpt>
      <trkpt lat="42.97013041613" lon="-5.78094090202">
        <ele>1678.59</ele>
        <time>2012-12-20T13:13:34+01:00</time>
      </trkpt>
      <trkpt lat="42.97011140137" lon="-5.78098982839">
        <ele>1679.38</ele>
        <time>2012-12-20T13:13:35+01:00</time>
      </trkpt>
      <trkpt lat="42.97009226251" lon="-5.78103734301">
        <ele>1680.4</ele>
        <time>2012-12-20T13:13:37+01:00</time>
      </trkpt>
      <trkpt lat="42.97007469542" lon="-5.78108660237">
        <ele>1681.46</ele>
        <time>2012-12-20T13:13:39+01:00</time>
      </trkpt>
      <trkpt lat="42.9700558522" lon="-5.78113603622">
        <ele>1682.45</ele>
        <time>2012-12-20T13:13:41+01:00</time>
      </trkpt>
      <trkpt lat="42.97003888046" lon="-5.7811887313">
        <ele>1683.42</ele>
        <time>2012-12-20T13:13:43+01:00</time>
      </trkpt>
      <trkpt lat="42.97002194498" lon="-5.78123971571">
        <ele>1684.49</ele>
        <time>2012-12-20T13:13:45+01:00</time>
      </trkpt>
      <trkpt lat="42.97000554119" lon="-5.78129105711">
        <ele>1685.52</ele>
        <time>2012-12-20T13:13:47+01:00</time>
      </trkpt>
      <trkpt lat="42.96998953004" lon="-5.78134190615">
        <ele>1686.62</ele>
        <time>2012-12-20T13:13:49+01:00</time>
      </trkpt>
      <trkpt lat="42.96997280378" lon="-5.78139270596">
        <ele>1687.71</ele>
        <time>2012-12-20T13:13:51+01:00</time>
      </trkpt>
      <trkpt lat="42.96995574198" lon="-5.78143927636">
        <ele>1688.35</ele>
        <time>2012-12-20T13:13:53+01:00</time>
      </trkpt>
      <trkpt lat="42.9699450965" lon="-5.7814831607">
        <ele>1688.94</ele>
        <time>2012-12-20T13:13:56+01:00</time>
      </trkpt>
      <trkpt lat="42.96993331988" lon="-5.7815238344">
        <ele>1689.42</ele>
        <time>2012-12-20T13:13:57+01:00</time>
      </trkpt>
      <trkpt lat="42.96992259942" lon="-5.78156184847">
        <ele>1690.06</ele>
        <time>2012-12-20T13:13:59+01:00</time>
      </trkpt>
      <trkpt lat="42.96991277667" lon="-5.78161838043">
        <ele>1689.93</ele>
        <time>2012-12-20T13:14:02+01:00</time>
      </trkpt>
      <trkpt lat="42.96991213386" lon="-5.78165918733">
        <ele>1689.76</ele>
        <time>2012-12-20T13:14:02+01:00</time>
      </trkpt>
      <trkpt lat="42.96991482304" lon="-5.78169630949">
        <ele>1689.65</ele>
        <time>2012-12-20T13:14:04+01:00</time>
      </trkpt>
      <trkpt lat="42.96991886381" lon="-5.78172861237">
        <ele>1689.78</ele>
        <time>2012-12-20T13:14:04+01:00</time>
      </trkpt>
      <trkpt lat="42.96991744603" lon="-5.78177366148">
        <ele>1689.91</ele>
        <time>2012-12-20T13:14:06+01:00</time>
      </trkpt>
      <trkpt lat="42.96990123685" lon="-5.7818096275">
        <ele>1690.34</ele>
        <time>2012-12-20T13:14:09+01:00</time>
      </trkpt>
      <trkpt lat="42.96988173413" lon="-5.78183532794">
        <ele>1690.65</ele>
        <time>2012-12-20T13:14:11+01:00</time>
      </trkpt>
      <trkpt lat="42.96986039922" lon="-5.78186152337">
        <ele>1690.67</ele>
        <time>2012-12-20T13:14:13+01:00</time>
      </trkpt>
      <trkpt lat="42.96984557104" lon="-5.78188828719">
        <ele>1690.94</ele>
        <time>2012-12-20T13:14:13+01:00</time>
      </trkpt>
      <trkpt lat="42.96983291593" lon="-5.78191436002">
        <ele>1691.11</ele>
        <time>2012-12-20T13:14:14+01:00</time>
      </trkpt>
      <trkpt lat="42.96982094064" lon="-5.7819454224">
        <ele>1691.33</ele>
        <time>2012-12-20T13:14:15+01:00</time>
      </trkpt>
      <trkpt lat="42.96980683392" lon="-5.7819923729">
        <ele>1691.65</ele>
        <time>2012-12-20T13:14:17+01:00</time>
      </trkpt>
      <trkpt lat="42.96979113798" lon="-5.78204407484">
        <ele>1692.14</ele>
        <time>2012-12-20T13:14:19+01:00</time>
      </trkpt>
      <trkpt lat="42.96977270756" lon="-5.7821010455">
        <ele>1692.66</ele>
        <time>2012-12-20T13:14:21+01:00</time>
      </trkpt>
      <trkpt lat="42.96975672005" lon="-5.78215147678">
        <ele>1693.21</ele>
        <time>2012-12-20T13:14:23+01:00</time>
      </trkpt>
      <trkpt lat="42.96974086369" lon="-5.78220434705">
        <ele>1693.92</ele>
        <time>2012-12-20T13:14:25+01:00</time>
      </trkpt>
      <trkpt lat="42.96972647904" lon="-5.7822529678">
        <ele>1694.66</ele>
        <time>2012-12-20T13:14:27+01:00</time>
      </trkpt>
      <trkpt lat="42.96971159923" lon="-5.78230909416">
        <ele>1694.75</ele>
        <time>2012-12-20T13:14:29+01:00</time>
      </trkpt>
      <trkpt lat="42.96970201833" lon="-5.78234412404">
        <ele>1695.26</ele>
        <time>2012-12-20T13:14:30+01:00</time>
      </trkpt>
      <trkpt lat="42.96969356426" lon="-5.78237486757">
        <ele>1695.78</ele>
        <time>2012-12-20T13:14:31+01:00</time>
      </trkpt>
      <trkpt lat="42.96967983704" lon="-5.7824269491">
        <ele>1697.14</ele>
        <time>2012-12-20T13:14:34+01:00</time>
      </trkpt>
      <trkpt lat="42.96966465285" lon="-5.78248256063">
        <ele>1697.79</ele>
        <time>2012-12-20T13:14:36+01:00</time>
      </trkpt>
      <trkpt lat="42.96965967141" lon="-5.78251983447">
        <ele>1697.91</ele>
        <time>2012-12-20T13:14:36+01:00</time>
      </trkpt>
      <trkpt lat="42.96965844043" lon="-5.78255786643">
        <ele>1698.17</ele>
        <time>2012-12-20T13:14:38+01:00</time>
      </trkpt>
      <trkpt lat="42.96966027294" lon="-5.78259678761">
        <ele>1698.49</ele>
        <time>2012-12-20T13:14:39+01:00</time>
      </trkpt>
      <trkpt lat="42.96966151116" lon="-5.78263400909">
        <ele>1698.35</ele>
        <time>2012-12-20T13:14:39+01:00</time>
      </trkpt>
      <trkpt lat="42.96966366988" lon="-5.78266592854">
        <ele>1698.45</ele>
        <time>2012-12-20T13:14:41+01:00</time>
      </trkpt>
      <trkpt lat="42.96966215702" lon="-5.782703359">
        <ele>1698.65</ele>
        <time>2012-12-20T13:14:42+01:00</time>
      </trkpt>
      <trkpt lat="42.96965501482" lon="-5.78273726485">
        <ele>1698.54</ele>
        <time>2012-12-20T13:14:45+01:00</time>
      </trkpt>
      <trkpt lat="42.96963752665" lon="-5.78278749781">
        <ele>1698.47</ele>
        <time>2012-12-20T13:14:46+01:00</time>
      </trkpt>
      <trkpt lat="42.96962078561" lon="-5.78281779508">
        <ele>1698.49</ele>
        <time>2012-12-20T13:14:47+01:00</time>
      </trkpt>
      <trkpt lat="42.96959530918" lon="-5.78286462411">
        <ele>1698.62</ele>
        <time>2012-12-20T13:14:50+01:00</time>
      </trkpt>
      <trkpt lat="42.96957760751" lon="-5.78291838047">
        <ele>1698.66</ele>
        <time>2012-12-20T13:14:51+01:00</time>
      </trkpt>
      <trkpt lat="42.96955763865" lon="-5.7829536069">
        <ele>1698.61</ele>
        <time>2012-12-20T13:14:52+01:00</time>
      </trkpt>
      <trkpt lat="42.96954345248" lon="-5.78298693784">
        <ele>1698.59</ele>
        <time>2012-12-20T13:14:54+01:00</time>
      </trkpt>
      <trkpt lat="42.96953507846" lon="-5.78300614972">
        <ele>1698.48</ele>
        <time>2012-12-20T13:14:54+01:00</time>
      </trkpt>
      <trkpt lat="42.96950494344" lon="-5.78303714309">
        <ele>1699.24</ele>
        <time>2012-12-20T13:14:56+01:00</time>
      </trkpt>
      <trkpt lat="42.96948191794" lon="-5.78307244374">
        <ele>1699.49</ele>
        <time>2012-12-20T13:14:58+01:00</time>
      </trkpt>
      <trkpt lat="42.96945488287" lon="-5.78308862338">
        <ele>1699.66</ele>
        <time>2012-12-20T13:15:01+01:00</time>
      </trkpt>
      <trkpt lat="42.96943076744" lon="-5.78312008955">
        <ele>1700.13</ele>
        <time>2012-12-20T13:15:02+01:00</time>
      </trkpt>
      <trkpt lat="42.96941048813" lon="-5.78314180549">
        <ele>1700.24</ele>
        <time>2012-12-20T13:15:03+01:00</time>
      </trkpt>
      <trkpt lat="42.96938785797" lon="-5.78316029733">
        <ele>1700.31</ele>
        <time>2012-12-20T13:15:05+01:00</time>
      </trkpt>
      <trkpt lat="42.96936184074" lon="-5.78317371871">
        <ele>1700.51</ele>
        <time>2012-12-20T13:15:06+01:00</time>
      </trkpt>
      <trkpt lat="42.96934744065" lon="-5.78318273054">
        <ele>1700.56</ele>
        <time>2012-12-20T13:15:06+01:00</time>
      </trkpt>
      <trkpt lat="42.96932177193" lon="-5.78322648511">
        <ele>1701.36</ele>
        <time>2012-12-20T13:15:08+01:00</time>
      </trkpt>
      <trkpt lat="42.96931647055" lon="-5.78327741376">
        <ele>1703.25</ele>
        <time>2012-12-20T13:15:11+01:00</time>
      </trkpt>
      <trkpt lat="42.96930867122" lon="-5.78332401048">
        <ele>1703.15</ele>
        <time>2012-12-20T13:15:13+01:00</time>
      </trkpt>
      <trkpt lat="42.969300607" lon="-5.78337255713">
        <ele>1705.7</ele>
        <time>2012-12-20T13:15:15+01:00</time>
      </trkpt>
      <trkpt lat="42.96928849538" lon="-5.78342625298">
        <ele>1706.98</ele>
        <time>2012-12-20T13:15:16+01:00</time>
      </trkpt>
      <trkpt lat="42.96927826948" lon="-5.78345704487">
        <ele>1708.12</ele>
        <time>2012-12-20T13:15:18+01:00</time>
      </trkpt>
      <trkpt lat="42.96925965794" lon="-5.78350397133">
        <ele>1709.53</ele>
        <time>2012-12-20T13:15:20+01:00</time>
      </trkpt>
      <trkpt lat="42.96924208025" lon="-5.78356001837">
        <ele>1711.53</ele>
        <time>2012-12-20T13:15:21+01:00</time>
      </trkpt>
      <trkpt lat="42.96922116145" lon="-5.78359662773">
        <ele>1712.39</ele>
        <time>2012-12-20T13:15:23+01:00</time>
      </trkpt>
      <trkpt lat="42.96920401341" lon="-5.78362254656">
        <ele>1714.02</ele>
        <time>2012-12-20T13:15:26+01:00</time>
      </trkpt>
      <trkpt lat="42.96919367711" lon="-5.78365475358">
        <ele>1715.77</ele>
        <time>2012-12-20T13:15:28+01:00</time>
      </trkpt>
      <trkpt lat="42.96918674835" lon="-5.78370337272">
        <ele>1717.54</ele>
        <time>2012-12-20T13:15:29+01:00</time>
      </trkpt>
      <trkpt lat="42.96918285083" lon="-5.78374162027">
        <ele>1719.15</ele>
        <time>2012-12-20T13:15:31+01:00</time>
      </trkpt>
      <trkpt lat="42.96917321723" lon="-5.78379101994">
        <ele>1719.1</ele>
        <time>2012-12-20T13:15:33+01:00</time>
      </trkpt>
      <trkpt lat="42.96915553253" lon="-5.78384153534">
        <ele>1720.26</ele>
        <time>2012-12-20T13:15:35+01:00</time>
      </trkpt>
      <trkpt lat="42.96913035564" lon="-5.78389582503">
        <ele>1723.12</ele>
        <time>2012-12-20T13:15:37+01:00</time>
      </trkpt>
      <trkpt lat="42.9691120716" lon="-5.78394825133">
        <ele>1724.62</ele>
        <time>2012-12-20T13:15:38+01:00</time>
      </trkpt>
      <trkpt lat="42.9690968531" lon="-5.78399988779">
        <ele>1726.07</ele>
        <time>2012-12-20T13:15:40+01:00</time>
      </trkpt>
      <trkpt lat="42.96908490562" lon="-5.78404531433">
        <ele>1726.33</ele>
        <time>2012-12-20T13:15:42+01:00</time>
      </trkpt>
      <trkpt lat="42.96906977031" lon="-5.78410087302">
        <ele>1729.27</ele>
        <time>2012-12-20T13:15:44+01:00</time>
      </trkpt>
      <trkpt lat="42.96905605326" lon="-5.78414349661">
        <ele>1730.52</ele>
        <time>2012-12-20T13:15:47+01:00</time>
      </trkpt>
      <trkpt lat="42.96904113933" lon="-5.78418494544">
        <ele>1730.56</ele>
        <time>2012-12-20T13:15:48+01:00</time>
      </trkpt>
      <trkpt lat="42.96903054577" lon="-5.78422595816">
        <ele>1731.71</ele>
        <time>2012-12-20T13:15:50+01:00</time>
      </trkpt>
      <trkpt lat="42.96901850289" lon="-5.78426520727">
        <ele>1732.65</ele>
        <time>2012-12-20T13:15:52+01:00</time>
      </trkpt>
      <trkpt lat="42.9689915521" lon="-5.78430081795">
        <ele>1733.31</ele>
        <time>2012-12-20T13:15:54+01:00</time>
      </trkpt>
      <trkpt lat="42.96896091565" lon="-5.78434019366">
        <ele>1734.06</ele>
        <time>2012-12-20T13:15:56+01:00</time>
      </trkpt>
      <trkpt lat="42.96893584526" lon="-5.7843834069">
        <ele>1734.8</ele>
        <time>2012-12-20T13:15:59+01:00</time>
      </trkpt>
      <trkpt lat="42.96891326271" lon="-5.78441920691">
        <ele>1735.45</ele>
        <time>2012-12-20T13:16:00+01:00</time>
      </trkpt>
      <trkpt lat="42.96889245178" lon="-5.78445466422">
        <ele>1736.24</ele>
        <time>2012-12-20T13:16:02+01:00</time>
      </trkpt>
      <trkpt lat="42.96887474444" lon="-5.78450178765">
        <ele>1737.18</ele>
        <time>2012-12-20T13:16:04+01:00</time>
      </trkpt>
      <trkpt lat="42.96886037355" lon="-5.7845543959">
        <ele>1738.06</ele>
        <time>2012-12-20T13:16:06+01:00</time>
      </trkpt>
      <trkpt lat="42.9688452618" lon="-5.78461044805">
        <ele>1739.04</ele>
        <time>2012-12-20T13:16:08+01:00</time>
      </trkpt>
      <trkpt lat="42.96883580214" lon="-5.78464834646">
        <ele>1739.97</ele>
        <time>2012-12-20T13:16:10+01:00</time>
      </trkpt>
      <trkpt lat="42.96882556184" lon="-5.78470085315">
        <ele>1740.96</ele>
        <time>2012-12-20T13:16:12+01:00</time>
      </trkpt>
      <trkpt lat="42.96881687531" lon="-5.78475701909">
        <ele>1742.16</ele>
        <time>2012-12-20T13:16:14+01:00</time>
      </trkpt>
      <trkpt lat="42.9688063873" lon="-5.78481331339">
        <ele>1743.24</ele>
        <time>2012-12-20T13:16:15+01:00</time>
      </trkpt>
      <trkpt lat="42.96879594132" lon="-5.78486896281">
        <ele>1744.48</ele>
        <time>2012-12-20T13:16:17+01:00</time>
      </trkpt>
      <trkpt lat="42.96878231862" lon="-5.78491784479">
        <ele>1745.39</ele>
        <time>2012-12-20T13:16:19+01:00</time>
      </trkpt>
      <trkpt lat="42.9687705081" lon="-5.78496208757">
        <ele>1746.72</ele>
        <time>2012-12-20T13:16:22+01:00</time>
      </trkpt>
      <trkpt lat="42.96876187633" lon="-5.78500734711">
        <ele>1748.13</ele>
        <time>2012-12-20T13:16:24+01:00</time>
      </trkpt>
      <trkpt lat="42.96874821415" lon="-5.78505502283">
        <ele>1749.25</ele>
        <time>2012-12-20T13:16:25+01:00</time>
      </trkpt>
      <trkpt lat="42.96873113189" lon="-5.78510110307">
        <ele>1750.54</ele>
        <time>2012-12-20T13:16:27+01:00</time>
      </trkpt>
      <trkpt lat="42.96871769069" lon="-5.78514766888">
        <ele>1751.95</ele>
        <time>2012-12-20T13:16:30+01:00</time>
      </trkpt>
      <trkpt lat="42.96870232901" lon="-5.78519399653">
        <ele>1753</ele>
        <time>2012-12-20T13:16:32+01:00</time>
      </trkpt>
      <trkpt lat="42.96868926544" lon="-5.78524155059">
        <ele>1754.57</ele>
        <time>2012-12-20T13:16:33+01:00</time>
      </trkpt>
      <trkpt lat="42.96868637521" lon="-5.78527217955">
        <ele>1756.27</ele>
        <time>2012-12-20T13:16:35+01:00</time>
      </trkpt>
      <trkpt lat="42.96867745809" lon="-5.78532055438">
        <ele>1757.64</ele>
        <time>2012-12-20T13:16:37+01:00</time>
      </trkpt>
      <trkpt lat="42.96867125144" lon="-5.78534906474">
        <ele>1759.02</ele>
        <time>2012-12-20T13:16:38+01:00</time>
      </trkpt>
      <trkpt lat="42.96865133281" lon="-5.78538863683">
        <ele>1760.17</ele>
        <time>2012-12-20T13:16:40+01:00</time>
      </trkpt>
      <trkpt lat="42.96862518733" lon="-5.78543437039">
        <ele>1761.31</ele>
        <time>2012-12-20T13:16:41+01:00</time>
      </trkpt>
      <trkpt lat="42.96861946744" lon="-5.7854656938">
        <ele>1762.82</ele>
        <time>2012-12-20T13:16:43+01:00</time>
      </trkpt>
      <trkpt lat="42.96862102895" lon="-5.7855072975">
        <ele>1764.37</ele>
        <time>2012-12-20T13:16:46+01:00</time>
      </trkpt>
      <trkpt lat="42.96861339334" lon="-5.7855629769">
        <ele>1765.5</ele>
        <time>2012-12-20T13:16:47+01:00</time>
      </trkpt>
      <trkpt lat="42.96860730646" lon="-5.78560938383">
        <ele>1766.8</ele>
        <time>2012-12-20T13:16:48+01:00</time>
      </trkpt>
      <trkpt lat="42.96859090107" lon="-5.78565420448">
        <ele>1768.3</ele>
        <time>2012-12-20T13:16:51+01:00</time>
      </trkpt>
      <trkpt lat="42.96857977454" lon="-5.78570058543">
        <ele>1769.71</ele>
        <time>2012-12-20T13:16:52+01:00</time>
      </trkpt>
      <trkpt lat="42.96857345886" lon="-5.7857474796">
        <ele>1771.11</ele>
        <time>2012-12-20T13:16:54+01:00</time>
      </trkpt>
      <trkpt lat="42.96857172634" lon="-5.78579025194">
        <ele>1772.7</ele>
        <time>2012-12-20T13:16:56+01:00</time>
      </trkpt>
      <trkpt lat="42.96856856351" lon="-5.7858340104">
        <ele>1774.05</ele>
        <time>2012-12-20T13:16:58+01:00</time>
      </trkpt>
      <trkpt lat="42.96855405052" lon="-5.78588949958">
        <ele>1775.55</ele>
        <time>2012-12-20T13:17:00+01:00</time>
      </trkpt>
      <trkpt lat="42.96854085494" lon="-5.78592393264">
        <ele>1776.93</ele>
        <time>2012-12-20T13:17:02+01:00</time>
      </trkpt>
      <trkpt lat="42.9685295657" lon="-5.78595536146">
        <ele>1778.3</ele>
        <time>2012-12-20T13:17:02+01:00</time>
      </trkpt>
      <trkpt lat="42.96850471024" lon="-5.78600013692">
        <ele>1779.5</ele>
        <time>2012-12-20T13:17:04+01:00</time>
      </trkpt>
      <trkpt lat="42.96847787915" lon="-5.78603839515">
        <ele>1780.65</ele>
        <time>2012-12-20T13:17:07+01:00</time>
      </trkpt>
      <trkpt lat="42.96846356106" lon="-5.7860782333">
        <ele>1784.51</ele>
        <time>2012-12-20T13:17:08+01:00</time>
      </trkpt>
      <trkpt lat="42.96844282722" lon="-5.78608921842">
        <ele>1785.49</ele>
        <time>2012-12-20T13:17:09+01:00</time>
      </trkpt>
      <trkpt lat="42.96842929711" lon="-5.78610597235">
        <ele>1785.13</ele>
        <time>2012-12-20T13:17:11+01:00</time>
      </trkpt>
      <trkpt lat="42.96840654357" lon="-5.78613262186">
        <ele>1786.37</ele>
        <time>2012-12-20T13:17:13+01:00</time>
      </trkpt>
      <trkpt lat="42.9684021937" lon="-5.78613729009">
        <ele>1787.71</ele>
        <time>2012-12-20T13:17:14+01:00</time>
      </trkpt>
      <trkpt lat="42.96839591092" lon="-5.78614618536">
        <ele>1788.49</ele>
        <time>2012-12-20T13:17:16+01:00</time>
      </trkpt>
      <trkpt lat="42.96838888179" lon="-5.78615716668">
        <ele>1789.23</ele>
        <time>2012-12-20T13:17:17+01:00</time>
      </trkpt>
      <trkpt lat="42.96835094333" lon="-5.78622213104">
        <ele>1790.23</ele>
        <time>2012-12-20T13:17:18+01:00</time>
      </trkpt>
      <trkpt lat="42.96832214631" lon="-5.78628449471">
        <ele>1791.23</ele>
        <time>2012-12-20T13:17:20+01:00</time>
      </trkpt>
      <trkpt lat="42.96830491891" lon="-5.78633260798">
        <ele>1792.15</ele>
        <time>2012-12-20T13:17:21+01:00</time>
      </trkpt>
      <trkpt lat="42.96829221904" lon="-5.78637259024">
        <ele>1793.13</ele>
        <time>2012-12-20T13:17:22+01:00</time>
      </trkpt>
      <trkpt lat="42.96827853493" lon="-5.7864213732">
        <ele>1794.11</ele>
        <time>2012-12-20T13:17:24+01:00</time>
      </trkpt>
      <trkpt lat="42.96826917831" lon="-5.78646215131">
        <ele>1794.95</ele>
        <time>2012-12-20T13:17:25+01:00</time>
      </trkpt>
      <trkpt lat="42.96825794116" lon="-5.7865117932">
        <ele>1795.91</ele>
        <time>2012-12-20T13:17:27+01:00</time>
      </trkpt>
      <trkpt lat="42.96825543443" lon="-5.78652308573">
        <ele>1796.8</ele>
        <time>2012-12-20T13:17:29+01:00</time>
      </trkpt>
      <trkpt lat="42.96825390826" lon="-5.78652969287">
        <ele>1797.64</ele>
        <time>2012-12-20T13:17:30+01:00</time>
      </trkpt>
      <trkpt lat="42.9682500991" lon="-5.78654579199">
        <ele>1798.44</ele>
        <time>2012-12-20T13:17:31+01:00</time>
      </trkpt>
      <trkpt lat="42.96824550997" lon="-5.78656425421">
        <ele>1799.36</ele>
        <time>2012-12-20T13:17:32+01:00</time>
      </trkpt>
      <trkpt lat="42.96824023981" lon="-5.78658471751">
        <ele>1800.07</ele>
        <time>2012-12-20T13:17:33+01:00</time>
      </trkpt>
      <trkpt lat="42.9682344615" lon="-5.78660666326">
        <ele>1800.85</ele>
        <time>2012-12-20T13:17:34+01:00</time>
      </trkpt>
      <trkpt lat="42.96820552544" lon="-5.78672176385">
        <ele>1801.72</ele>
        <time>2012-12-20T13:17:35+01:00</time>
      </trkpt>
      <trkpt lat="42.96818812375" lon="-5.78679507212">
        <ele>1802.54</ele>
        <time>2012-12-20T13:17:36+01:00</time>
      </trkpt>
      <trkpt lat="42.96817623778" lon="-5.78684664604">
        <ele>1803.34</ele>
        <time>2012-12-20T13:17:37+01:00</time>
      </trkpt>
      <trkpt lat="42.96816545495" lon="-5.7869305523">
        <ele>1804.33</ele>
        <time>2012-12-20T13:17:39+01:00</time>
      </trkpt>
      <trkpt lat="42.96814640047" lon="-5.78700520221">
        <ele>1805.05</ele>
        <time>2012-12-20T13:17:42+01:00</time>
      </trkpt>
      <trkpt lat="42.96812736804" lon="-5.7870605665">
        <ele>1805.91</ele>
        <time>2012-12-20T13:17:44+01:00</time>
      </trkpt>
      <trkpt lat="42.96811253097" lon="-5.78711240893">
        <ele>1806.76</ele>
        <time>2012-12-20T13:17:46+01:00</time>
      </trkpt>
      <trkpt lat="42.96810362917" lon="-5.78716093184">
        <ele>1807.71</ele>
        <time>2012-12-20T13:17:49+01:00</time>
      </trkpt>
      <trkpt lat="42.96809249837" lon="-5.78721454691">
        <ele>1808.56</ele>
        <time>2012-12-20T13:17:51+01:00</time>
      </trkpt>
      <trkpt lat="42.96808440111" lon="-5.78725967994">
        <ele>1809.45</ele>
        <time>2012-12-20T13:17:53+01:00</time>
      </trkpt>
      <trkpt lat="42.96807892598" lon="-5.78729311465">
        <ele>1810.27</ele>
        <time>2012-12-20T13:17:53+01:00</time>
      </trkpt>
      <trkpt lat="42.96807414292" lon="-5.78734365571">
        <ele>1811.24</ele>
        <time>2012-12-20T13:17:55+01:00</time>
      </trkpt>
      <trkpt lat="42.96806534085" lon="-5.7873978192">
        <ele>1812.09</ele>
        <time>2012-12-20T13:17:57+01:00</time>
      </trkpt>
      <trkpt lat="42.96805985887" lon="-5.78743614454">
        <ele>1813.15</ele>
        <time>2012-12-20T13:17:59+01:00</time>
      </trkpt>
      <trkpt lat="42.96804327271" lon="-5.78748524974">
        <ele>1813.75</ele>
        <time>2012-12-20T13:18:01+01:00</time>
      </trkpt>
      <trkpt lat="42.96803143947" lon="-5.78754107066">
        <ele>1814.46</ele>
        <time>2012-12-20T13:18:02+01:00</time>
      </trkpt>
      <trkpt lat="42.96801167199" lon="-5.78758562835">
        <ele>1815.32</ele>
        <time>2012-12-20T13:18:04+01:00</time>
      </trkpt>
      <trkpt lat="42.96799846487" lon="-5.78762598879">
        <ele>1816</ele>
        <time>2012-12-20T13:18:06+01:00</time>
      </trkpt>
      <trkpt lat="42.96798583222" lon="-5.78766792377">
        <ele>1816.68</ele>
        <time>2012-12-20T13:18:08+01:00</time>
      </trkpt>
      <trkpt lat="42.96796848649" lon="-5.78771795206">
        <ele>1818.35</ele>
        <time>2012-12-20T13:18:11+01:00</time>
      </trkpt>
      <trkpt lat="42.96795334356" lon="-5.78778329684">
        <ele>1819.59</ele>
        <time>2012-12-20T13:18:13+01:00</time>
      </trkpt>
      <trkpt lat="42.96794564343" lon="-5.78781608344">
        <ele>1820.47</ele>
        <time>2012-12-20T13:18:13+01:00</time>
      </trkpt>
      <trkpt lat="42.96793551921" lon="-5.78786356826">
        <ele>1821.55</ele>
        <time>2012-12-20T13:18:16+01:00</time>
      </trkpt>
      <trkpt lat="42.96792809463" lon="-5.78791101416">
        <ele>1822.83</ele>
        <time>2012-12-20T13:18:17+01:00</time>
      </trkpt>
      <trkpt lat="42.96791505592" lon="-5.78796924367">
        <ele>1823.79</ele>
        <time>2012-12-20T13:18:20+01:00</time>
      </trkpt>
      <trkpt lat="42.96790263165" lon="-5.78800647202">
        <ele>1824.39</ele>
        <time>2012-12-20T13:18:20+01:00</time>
      </trkpt>
      <trkpt lat="42.9678878794" lon="-5.78804766356">
        <ele>1825.17</ele>
        <time>2012-12-20T13:18:21+01:00</time>
      </trkpt>
      <trkpt lat="42.96787453168" lon="-5.78808377975">
        <ele>1825.97</ele>
        <time>2012-12-20T13:18:23+01:00</time>
      </trkpt>
      <trkpt lat="42.96786311142" lon="-5.78812057435">
        <ele>1825.91</ele>
        <time>2012-12-20T13:18:23+01:00</time>
      </trkpt>
      <trkpt lat="42.96785516121" lon="-5.7881546883">
        <ele>1826.36</ele>
        <time>2012-12-20T13:18:25+01:00</time>
      </trkpt>
      <trkpt lat="42.967847905" lon="-5.78818893668">
        <ele>1827.67</ele>
        <time>2012-12-20T13:18:26+01:00</time>
      </trkpt>
      <trkpt lat="42.96784450915" lon="-5.78822374838">
        <ele>1827.66</ele>
        <time>2012-12-20T13:18:27+01:00</time>
      </trkpt>
      <trkpt lat="42.96784034311" lon="-5.78826289723">
        <ele>1829.26</ele>
        <time>2012-12-20T13:18:28+01:00</time>
      </trkpt>
      <trkpt lat="42.96786414913" lon="-5.78829871222">
        <ele>1829.85</ele>
        <time>2012-12-20T13:18:32+01:00</time>
      </trkpt>
      <trkpt lat="42.96789402609" lon="-5.78832710853">
        <ele>1830.39</ele>
        <time>2012-12-20T13:18:34+01:00</time>
      </trkpt>
      <trkpt lat="42.96792515231" lon="-5.78832301195">
        <ele>1830.93</ele>
        <time>2012-12-20T13:18:36+01:00</time>
      </trkpt>
      <trkpt lat="42.9679521785" lon="-5.78832599696">
        <ele>1831.68</ele>
        <time>2012-12-20T13:18:36+01:00</time>
      </trkpt>
      <trkpt lat="42.96797503268" lon="-5.78832451886">
        <ele>1832.21</ele>
        <time>2012-12-20T13:18:37+01:00</time>
      </trkpt>
      <trkpt lat="42.96800790082" lon="-5.78832361974">
        <ele>1832.72</ele>
        <time>2012-12-20T13:18:40+01:00</time>
      </trkpt>
      <trkpt lat="42.96801283159" lon="-5.78827368494">
        <ele>1831.79</ele>
        <time>2012-12-20T13:18:41+01:00</time>
      </trkpt>
      <trkpt lat="42.96801173903" lon="-5.78822447067">
        <ele>1831.64</ele>
        <time>2012-12-20T13:18:43+01:00</time>
      </trkpt>
      <trkpt lat="42.96800162988" lon="-5.78818512352">
        <ele>1831.94</ele>
        <time>2012-12-20T13:18:45+01:00</time>
      </trkpt>
      <trkpt lat="42.9679801285" lon="-5.78818349022">
        <ele>1831.78</ele>
        <time>2012-12-20T13:18:50+01:00</time>
      </trkpt>
      <trkpt lat="42.96800402495" lon="-5.78816150473">
        <ele>1832.22</ele>
        <time>2012-12-20T13:19:05+01:00</time>
      </trkpt>
      <trkpt lat="42.96802371295" lon="-5.78813771796">
        <ele>1832.18</ele>
        <time>2012-12-20T13:19:07+01:00</time>
      </trkpt>
      <trkpt lat="42.96806618485" lon="-5.78808381983">
        <ele>1831.7</ele>
        <time>2012-12-20T13:19:08+01:00</time>
      </trkpt>
      <trkpt lat="42.96809814856" lon="-5.78804132309">
        <ele>1831.59</ele>
        <time>2012-12-20T13:19:09+01:00</time>
      </trkpt>
      <trkpt lat="42.96815268696" lon="-5.7879598006">
        <ele>1831.55</ele>
        <time>2012-12-20T13:19:10+01:00</time>
      </trkpt>
      <trkpt lat="42.96819266308" lon="-5.78788140296">
        <ele>1831.53</ele>
        <time>2012-12-20T13:19:11+01:00</time>
      </trkpt>
      <trkpt lat="42.96822332297" lon="-5.78781657195">
        <ele>1831.41</ele>
        <time>2012-12-20T13:19:12+01:00</time>
      </trkpt>
      <trkpt lat="42.96823126259" lon="-5.78777741313">
        <ele>1831.3</ele>
        <time>2012-12-20T13:19:13+01:00</time>
      </trkpt>
      <trkpt lat="42.96823133481" lon="-5.78772703022">
        <ele>1831.37</ele>
        <time>2012-12-20T13:19:14+01:00</time>
      </trkpt>
      <trkpt lat="42.96824564182" lon="-5.78763214094">
        <ele>1831.33</ele>
        <time>2012-12-20T13:19:15+01:00</time>
      </trkpt>
      <trkpt lat="42.96827106731" lon="-5.78754624197">
        <ele>1831.13</ele>
        <time>2012-12-20T13:19:16+01:00</time>
      </trkpt>
      <trkpt lat="42.96831239576" lon="-5.78748393401">
        <ele>1831.09</ele>
        <time>2012-12-20T13:19:17+01:00</time>
      </trkpt>
      <trkpt lat="42.96832233783" lon="-5.78740441719">
        <ele>1831.05</ele>
        <time>2012-12-20T13:19:18+01:00</time>
      </trkpt>
      <trkpt lat="42.96835567456" lon="-5.78732300087">
        <ele>1830.27</ele>
        <time>2012-12-20T13:19:19+01:00</time>
      </trkpt>
      <trkpt lat="42.96840257504" lon="-5.78724214343">
        <ele>1829.49</ele>
        <time>2012-12-20T13:19:20+01:00</time>
      </trkpt>
      <trkpt lat="42.9684544011" lon="-5.78717071843">
        <ele>1829.06</ele>
        <time>2012-12-20T13:19:21+01:00</time>
      </trkpt>
      <trkpt lat="42.96849242723" lon="-5.78711096971">
        <ele>1828.35</ele>
        <time>2012-12-20T13:19:22+01:00</time>
      </trkpt>
      <trkpt lat="42.96852595208" lon="-5.78704577669">
        <ele>1827.82</ele>
        <time>2012-12-20T13:19:23+01:00</time>
      </trkpt>
      <trkpt lat="42.96860828723" lon="-5.7869460171">
        <ele>1826.33</ele>
        <time>2012-12-20T13:19:24+01:00</time>
      </trkpt>
      <trkpt lat="42.96868862906" lon="-5.78687130135">
        <ele>1824.73</ele>
        <time>2012-12-20T13:19:25+01:00</time>
      </trkpt>
      <trkpt lat="42.96876833283" lon="-5.78680016592">
        <ele>1823.39</ele>
        <time>2012-12-20T13:19:26+01:00</time>
      </trkpt>
      <trkpt lat="42.96885518448" lon="-5.78674168238">
        <ele>1821.89</ele>
        <time>2012-12-20T13:19:27+01:00</time>
      </trkpt>
      <trkpt lat="42.96892009697" lon="-5.78667171469">
        <ele>1820.6</ele>
        <time>2012-12-20T13:19:28+01:00</time>
      </trkpt>
      <trkpt lat="42.96896868579" lon="-5.78657544439">
        <ele>1818.98</ele>
        <time>2012-12-20T13:19:29+01:00</time>
      </trkpt>
      <trkpt lat="42.96903125499" lon="-5.78647185885">
        <ele>1816.79</ele>
        <time>2012-12-20T13:19:30+01:00</time>
      </trkpt>
      <trkpt lat="42.96909921158" lon="-5.78640035694">
        <ele>1815.57</ele>
        <time>2012-12-20T13:19:31+01:00</time>
      </trkpt>
      <trkpt lat="42.96921121222" lon="-5.78633199108">
        <ele>1813.65</ele>
        <time>2012-12-20T13:19:32+01:00</time>
      </trkpt>
      <trkpt lat="42.9692695817" lon="-5.78623498723">
        <ele>1811.8</ele>
        <time>2012-12-20T13:19:33+01:00</time>
      </trkpt>
      <trkpt lat="42.96934578027" lon="-5.78611162299">
        <ele>1809.86</ele>
        <time>2012-12-20T13:19:34+01:00</time>
      </trkpt>
      <trkpt lat="42.96943457048" lon="-5.786023774">
        <ele>1808.12</ele>
        <time>2012-12-20T13:19:35+01:00</time>
      </trkpt>
      <trkpt lat="42.96953016448" lon="-5.78598194764">
        <ele>1806.33</ele>
        <time>2012-12-20T13:19:36+01:00</time>
      </trkpt>
      <trkpt lat="42.9696056499" lon="-5.78593638728">
        <ele>1804.76</ele>
        <time>2012-12-20T13:19:37+01:00</time>
      </trkpt>
      <trkpt lat="42.96965631679" lon="-5.78584338167">
        <ele>1803.23</ele>
        <time>2012-12-20T13:19:38+01:00</time>
      </trkpt>
      <trkpt lat="42.96970924834" lon="-5.78580669743">
        <ele>1801.71</ele>
        <time>2012-12-20T13:19:39+01:00</time>
      </trkpt>
      <trkpt lat="42.96975648454" lon="-5.7857863574">
        <ele>1800.29</ele>
        <time>2012-12-20T13:19:40+01:00</time>
      </trkpt>
      <trkpt lat="42.96977863414" lon="-5.78573664713">
        <ele>1798.94</ele>
        <time>2012-12-20T13:19:41+01:00</time>
      </trkpt>
      <trkpt lat="42.96977794477" lon="-5.78567577719">
        <ele>1797.67</ele>
        <time>2012-12-20T13:19:42+01:00</time>
      </trkpt>
      <trkpt lat="42.96977191557" lon="-5.78561705762">
        <ele>1796.46</ele>
        <time>2012-12-20T13:19:43+01:00</time>
      </trkpt>
      <trkpt lat="42.96975676225" lon="-5.78555019432">
        <ele>1795.47</ele>
        <time>2012-12-20T13:19:44+01:00</time>
      </trkpt>
      <trkpt lat="42.96974611079" lon="-5.78545216923">
        <ele>1794.35</ele>
        <time>2012-12-20T13:19:45+01:00</time>
      </trkpt>
      <trkpt lat="42.96974730875" lon="-5.78537341719">
        <ele>1793.41</ele>
        <time>2012-12-20T13:19:46+01:00</time>
      </trkpt>
      <trkpt lat="42.96975146444" lon="-5.78530481509">
        <ele>1791.98</ele>
        <time>2012-12-20T13:19:47+01:00</time>
      </trkpt>
      <trkpt lat="42.96975527468" lon="-5.78523270177">
        <ele>1790.76</ele>
        <time>2012-12-20T13:19:48+01:00</time>
      </trkpt>
      <trkpt lat="42.96974916811" lon="-5.7851658951">
        <ele>1789.7</ele>
        <time>2012-12-20T13:19:49+01:00</time>
      </trkpt>
      <trkpt lat="42.96973369634" lon="-5.78506537065">
        <ele>1788.39</ele>
        <time>2012-12-20T13:19:50+01:00</time>
      </trkpt>
      <trkpt lat="42.96968643426" lon="-5.78502536966">
        <ele>1787.05</ele>
        <time>2012-12-20T13:19:51+01:00</time>
      </trkpt>
      <trkpt lat="42.9696289775" lon="-5.78500726282">
        <ele>1785.42</ele>
        <time>2012-12-20T13:19:52+01:00</time>
      </trkpt>
      <trkpt lat="42.96957359419" lon="-5.7849868946">
        <ele>1783.61</ele>
        <time>2012-12-20T13:19:53+01:00</time>
      </trkpt>
      <trkpt lat="42.96955179916" lon="-5.78492729925">
        <ele>1782.55</ele>
        <time>2012-12-20T13:19:54+01:00</time>
      </trkpt>
      <trkpt lat="42.96951472488" lon="-5.78487801366">
        <ele>1781.13</ele>
        <time>2012-12-20T13:19:55+01:00</time>
      </trkpt>
      <trkpt lat="42.96948625469" lon="-5.78482276016">
        <ele>1779.78</ele>
        <time>2012-12-20T13:19:56+01:00</time>
      </trkpt>
      <trkpt lat="42.96944022693" lon="-5.78477697485">
        <ele>1778.6</ele>
        <time>2012-12-20T13:19:57+01:00</time>
      </trkpt>
      <trkpt lat="42.96939011769" lon="-5.7847442814">
        <ele>1777.36</ele>
        <time>2012-12-20T13:19:58+01:00</time>
      </trkpt>
      <trkpt lat="42.96926995764" lon="-5.78472178357">
        <ele>1774.95</ele>
        <time>2012-12-20T13:20:00+01:00</time>
      </trkpt>
      <trkpt lat="42.9691855424" lon="-5.7846762462">
        <ele>1773.66</ele>
        <time>2012-12-20T13:20:01+01:00</time>
      </trkpt>
      <trkpt lat="42.96908960124" lon="-5.78456890283">
        <ele>1772.47</ele>
        <time>2012-12-20T13:20:02+01:00</time>
      </trkpt>
      <trkpt lat="42.96897103716" lon="-5.78444893002">
        <ele>1770.98</ele>
        <time>2012-12-20T13:20:03+01:00</time>
      </trkpt>
      <trkpt lat="42.96888234783" lon="-5.78435848374">
        <ele>1769.39</ele>
        <time>2012-12-20T13:20:04+01:00</time>
      </trkpt>
      <trkpt lat="42.96880483023" lon="-5.78425315563">
        <ele>1768.3</ele>
        <time>2012-12-20T13:20:05+01:00</time>
      </trkpt>
      <trkpt lat="42.96873303385" lon="-5.78416992981">
        <ele>1766.95</ele>
        <time>2012-12-20T13:20:06+01:00</time>
      </trkpt>
      <trkpt lat="42.9686650304" lon="-5.78411593489">
        <ele>1765.66</ele>
        <time>2012-12-20T13:20:07+01:00</time>
      </trkpt>
      <trkpt lat="42.96855376377" lon="-5.78408180069">
        <ele>1764.81</ele>
        <time>2012-12-20T13:20:08+01:00</time>
      </trkpt>
      <trkpt lat="42.96850800759" lon="-5.78398558923">
        <ele>1763.87</ele>
        <time>2012-12-20T13:20:09+01:00</time>
      </trkpt>
      <trkpt lat="42.96852450497" lon="-5.78385597404">
        <ele>1762.54</ele>
        <time>2012-12-20T13:20:10+01:00</time>
      </trkpt>
      <trkpt lat="42.96851348816" lon="-5.78378358173">
        <ele>1761.55</ele>
        <time>2012-12-20T13:20:11+01:00</time>
      </trkpt>
      <trkpt lat="42.96849495685" lon="-5.78371250866">
        <ele>1760.68</ele>
        <time>2012-12-20T13:20:12+01:00</time>
      </trkpt>
      <trkpt lat="42.96848182778" lon="-5.78366774998">
        <ele>1759.87</ele>
        <time>2012-12-20T13:20:13+01:00</time>
      </trkpt>
      <trkpt lat="42.96839903899" lon="-5.78352344768">
        <ele>1759</ele>
        <time>2012-12-20T13:20:14+01:00</time>
      </trkpt>
      <trkpt lat="42.96837249237" lon="-5.78344757476">
        <ele>1758.2</ele>
        <time>2012-12-20T13:20:15+01:00</time>
      </trkpt>
      <trkpt lat="42.96836173363" lon="-5.78334920478">
        <ele>1758.11</ele>
        <time>2012-12-20T13:20:16+01:00</time>
      </trkpt>
      <trkpt lat="42.96835993631" lon="-5.78333875422">
        <ele>1757.56</ele>
        <time>2012-12-20T13:20:17+01:00</time>
      </trkpt>
      <trkpt lat="42.96840400777" lon="-5.78308428301">
        <ele>1756.23</ele>
        <time>2012-12-20T13:20:18+01:00</time>
      </trkpt>
      <trkpt lat="42.96840900165" lon="-5.78304058849">
        <ele>1755.13</ele>
        <time>2012-12-20T13:20:19+01:00</time>
      </trkpt>
      <trkpt lat="42.96842089317" lon="-5.78298384582">
        <ele>1754.36</ele>
        <time>2012-12-20T13:20:20+01:00</time>
      </trkpt>
      <trkpt lat="42.96843744611" lon="-5.78290921589">
        <ele>1753.42</ele>
        <time>2012-12-20T13:20:21+01:00</time>
      </trkpt>
      <trkpt lat="42.96845467392" lon="-5.78282715431">
        <ele>1752.33</ele>
        <time>2012-12-20T13:20:22+01:00</time>
      </trkpt>
      <trkpt lat="42.96846331282" lon="-5.78278196624">
        <ele>1751.4</ele>
        <time>2012-12-20T13:20:23+01:00</time>
      </trkpt>
      <trkpt lat="42.96847150092" lon="-5.78273437304">
        <ele>1750.23</ele>
        <time>2012-12-20T13:20:24+01:00</time>
      </trkpt>
      <trkpt lat="42.96848031268" lon="-5.78268395852">
        <ele>1750.57</ele>
        <time>2012-12-20T13:20:25+01:00</time>
      </trkpt>
      <trkpt lat="42.96848812436" lon="-5.78262171073">
        <ele>1748.3</ele>
        <time>2012-12-20T13:20:27+01:00</time>
      </trkpt>
      <trkpt lat="42.96850575354" lon="-5.78247945091">
        <ele>1746.94</ele>
        <time>2012-12-20T13:20:29+01:00</time>
      </trkpt>
      <trkpt lat="42.96852026613" lon="-5.78233828263">
        <ele>1745.8</ele>
        <time>2012-12-20T13:20:30+01:00</time>
      </trkpt>
      <trkpt lat="42.96858618044" lon="-5.78162373257">
        <ele>1744.73</ele>
        <time>2012-12-20T13:20:31+01:00</time>
      </trkpt>
      <trkpt lat="42.96867378761" lon="-5.78117417279">
        <ele>1742.9</ele>
        <time>2012-12-20T13:20:33+01:00</time>
      </trkpt>
      <trkpt lat="42.96872852957" lon="-5.78086549004">
        <ele>1741.37</ele>
        <time>2012-12-20T13:20:34+01:00</time>
      </trkpt>
      <trkpt lat="42.96873679494" lon="-5.78081740534">
        <ele>1740.01</ele>
        <time>2012-12-20T13:20:34+01:00</time>
      </trkpt>
      <trkpt lat="42.96875125781" lon="-5.78075405445">
        <ele>1738.43</ele>
        <time>2012-12-20T13:20:35+01:00</time>
      </trkpt>
      <trkpt lat="42.96877110983" lon="-5.78067963782">
        <ele>1736.75</ele>
        <time>2012-12-20T13:20:36+01:00</time>
      </trkpt>
      <trkpt lat="42.96888808327" lon="-5.78024028254">
        <ele>1735.1</ele>
        <time>2012-12-20T13:20:38+01:00</time>
      </trkpt>
      <trkpt lat="42.96897276343" lon="-5.77992245282">
        <ele>1733.55</ele>
        <time>2012-12-20T13:20:38+01:00</time>
      </trkpt>
      <trkpt lat="42.96897938209" lon="-5.77989698501">
        <ele>1732.09</ele>
        <time>2012-12-20T13:20:39+01:00</time>
      </trkpt>
      <trkpt lat="42.9690783644" lon="-5.77951032725">
        <ele>1730.21</ele>
        <time>2012-12-20T13:20:40+01:00</time>
      </trkpt>
      <trkpt lat="42.96914629575" lon="-5.77924415964">
        <ele>1730.74</ele>
        <time>2012-12-20T13:20:41+01:00</time>
      </trkpt>
      <trkpt lat="42.96920356311" lon="-5.77903584825">
        <ele>1729.83</ele>
        <time>2012-12-20T13:20:42+01:00</time>
      </trkpt>
      <trkpt lat="42.9692643833" lon="-5.77885906336">
        <ele>1726.27</ele>
        <time>2012-12-20T13:20:43+01:00</time>
      </trkpt>
      <trkpt lat="42.96935738526" lon="-5.77869355741">
        <ele>1724.2</ele>
        <time>2012-12-20T13:20:44+01:00</time>
      </trkpt>
      <trkpt lat="42.96949883224" lon="-5.77854605423">
        <ele>1721.72</ele>
        <time>2012-12-20T13:20:45+01:00</time>
      </trkpt>
      <trkpt lat="42.96962913011" lon="-5.77838940562">
        <ele>1719.02</ele>
        <time>2012-12-20T13:20:46+01:00</time>
      </trkpt>
      <trkpt lat="42.96982459704" lon="-5.7781378888">
        <ele>1715.88</ele>
        <time>2012-12-20T13:20:48+01:00</time>
      </trkpt>
      <trkpt lat="42.96990372233" lon="-5.77803486774">
        <ele>1713.39</ele>
        <time>2012-12-20T13:20:48+01:00</time>
      </trkpt>
      <trkpt lat="42.97000646356" lon="-5.77790703998">
        <ele>1710.64</ele>
        <time>2012-12-20T13:20:49+01:00</time>
      </trkpt>
      <trkpt lat="42.97011862394" lon="-5.77784693987">
        <ele>1707.8</ele>
        <time>2012-12-20T13:20:51+01:00</time>
      </trkpt>
      <trkpt lat="42.97023476046" lon="-5.77776383237">
        <ele>1704.95</ele>
        <time>2012-12-20T13:20:51+01:00</time>
      </trkpt>
      <trkpt lat="42.9703530946" lon="-5.77769118176">
        <ele>1702.34</ele>
        <time>2012-12-20T13:20:53+01:00</time>
      </trkpt>
      <trkpt lat="42.97046825279" lon="-5.77761688643">
        <ele>1699.7</ele>
        <time>2012-12-20T13:20:54+01:00</time>
      </trkpt>
      <trkpt lat="42.97058240973" lon="-5.77758300771">
        <ele>1696.98</ele>
        <time>2012-12-20T13:20:55+01:00</time>
      </trkpt>
      <trkpt lat="42.97069770051" lon="-5.77754071309">
        <ele>1694.31</ele>
        <time>2012-12-20T13:20:55+01:00</time>
      </trkpt>
      <trkpt lat="42.9708046315" lon="-5.77749408479">
        <ele>1691.64</ele>
        <time>2012-12-20T13:20:56+01:00</time>
      </trkpt>
      <trkpt lat="42.97090884941" lon="-5.77744675649">
        <ele>1689.05</ele>
        <time>2012-12-20T13:20:57+01:00</time>
      </trkpt>
      <trkpt lat="42.97101650944" lon="-5.77745431493">
        <ele>1686.06</ele>
        <time>2012-12-20T13:20:58+01:00</time>
      </trkpt>
      <trkpt lat="42.97115742157" lon="-5.77750904378">
        <ele>1683.36</ele>
        <time>2012-12-20T13:21:00+01:00</time>
      </trkpt>
      <trkpt lat="42.97124136042" lon="-5.7775655871">
        <ele>1675.87</ele>
        <time>2012-12-20T13:21:01+01:00</time>
      </trkpt>
      <trkpt lat="42.97129224577" lon="-5.7776370443">
        <ele>1672.4</ele>
        <time>2012-12-20T13:21:01+01:00</time>
      </trkpt>
      <trkpt lat="42.97132740091" lon="-5.77769592747">
        <ele>1669.05</ele>
        <time>2012-12-20T13:21:02+01:00</time>
      </trkpt>
      <trkpt lat="42.97133161562" lon="-5.77775685558">
        <ele>1665.42</ele>
        <time>2012-12-20T13:21:03+01:00</time>
      </trkpt>
      <trkpt lat="42.97127539457" lon="-5.77779110237">
        <ele>1661.29</ele>
        <time>2012-12-20T13:21:05+01:00</time>
      </trkpt>
      <trkpt lat="42.9712439756" lon="-5.77780393276">
        <ele>1661.35</ele>
        <time>2012-12-20T13:21:06+01:00</time>
      </trkpt>
      <trkpt lat="42.97120995165" lon="-5.77783415256">
        <ele>1659.19</ele>
        <time>2012-12-20T13:21:06+01:00</time>
      </trkpt>
      <trkpt lat="42.97119767546" lon="-5.77787268988">
        <ele>1656.92</ele>
        <time>2012-12-20T13:21:07+01:00</time>
      </trkpt>
      <trkpt lat="42.97119578567" lon="-5.7778794689">
        <ele>1654.99</ele>
        <time>2012-12-20T13:21:08+01:00</time>
      </trkpt>
      <trkpt lat="42.97119501944" lon="-5.7778888641">
        <ele>1653.52</ele>
        <time>2012-12-20T13:21:10+01:00</time>
      </trkpt>
      <trkpt lat="42.97121648661" lon="-5.77790968484">
        <ele>1651.47</ele>
        <time>2012-12-20T13:21:11+01:00</time>
      </trkpt>
      <trkpt lat="42.97121353675" lon="-5.77792742937">
        <ele>1649.57</ele>
        <time>2012-12-20T13:21:14+01:00</time>
      </trkpt>
      <trkpt lat="42.97119146262" lon="-5.77793491948">
        <ele>1647.61</ele>
        <time>2012-12-20T13:21:18+01:00</time>
      </trkpt>
      <trkpt lat="42.97113957269" lon="-5.77792830382">
        <ele>1642.3</ele>
        <time>2012-12-20T13:21:20+01:00</time>
      </trkpt>
      <trkpt lat="42.97113627098" lon="-5.77795306742">
        <ele>1639.95</ele>
        <time>2012-12-20T13:21:23+01:00</time>
      </trkpt>
      <trkpt lat="42.97111431865" lon="-5.77796385169">
        <ele>1637.53</ele>
        <time>2012-12-20T13:21:25+01:00</time>
      </trkpt>
      <trkpt lat="42.97109205797" lon="-5.77798304058">
        <ele>1637.57</ele>
        <time>2012-12-20T13:21:30+01:00</time>
      </trkpt>
      <trkpt lat="42.97106947314" lon="-5.77796930402">
        <ele>1635.29</ele>
        <time>2012-12-20T13:21:31+01:00</time>
      </trkpt>
      <trkpt lat="42.97103779175" lon="-5.77796930891">
        <ele>1633.83</ele>
        <time>2012-12-20T13:21:33+01:00</time>
      </trkpt>
      <trkpt lat="42.97100694744" lon="-5.77796059417">
        <ele>1632.63</ele>
        <time>2012-12-20T13:21:35+01:00</time>
      </trkpt>
      <trkpt lat="42.97099273261" lon="-5.77797856692">
        <ele>1631.6</ele>
        <time>2012-12-20T13:21:38+01:00</time>
      </trkpt>
      <trkpt lat="42.97100380361" lon="-5.77800502731">
        <ele>1630.18</ele>
        <time>2012-12-20T13:21:40+01:00</time>
      </trkpt>
      <trkpt lat="42.97101879183" lon="-5.77802862546">
        <ele>1629.76</ele>
        <time>2012-12-20T13:21:45+01:00</time>
      </trkpt>
      <trkpt lat="42.97102363349" lon="-5.77806244706">
        <ele>1629.07</ele>
        <time>2012-12-20T13:21:48+01:00</time>
      </trkpt>
      <trkpt lat="42.97101293421" lon="-5.77810971273">
        <ele>1626.16</ele>
        <time>2012-12-20T13:21:50+01:00</time>
      </trkpt>
      <trkpt lat="42.97100412236" lon="-5.77814270225">
        <ele>1624.96</ele>
        <time>2012-12-20T13:21:50+01:00</time>
      </trkpt>
      <trkpt lat="42.97099486001" lon="-5.77817637702">
        <ele>1623.8</ele>
        <time>2012-12-20T13:21:52+01:00</time>
      </trkpt>
      <trkpt lat="42.97098205243" lon="-5.77820735448">
        <ele>1622.21</ele>
        <time>2012-12-20T13:21:53+01:00</time>
      </trkpt>
      <trkpt lat="42.97096934295" lon="-5.77823693066">
        <ele>1620.7</ele>
        <time>2012-12-20T13:21:53+01:00</time>
      </trkpt>
      <trkpt lat="42.97095543628" lon="-5.77826764914">
        <ele>1619.43</ele>
        <time>2012-12-20T13:21:55+01:00</time>
      </trkpt>
      <trkpt lat="42.97094231514" lon="-5.77829742573">
        <ele>1618.54</ele>
        <time>2012-12-20T13:21:55+01:00</time>
      </trkpt>
      <trkpt lat="42.97093138479" lon="-5.77832590114">
        <ele>1617.56</ele>
        <time>2012-12-20T13:21:57+01:00</time>
      </trkpt>
      <trkpt lat="42.97092180508" lon="-5.77835417099">
        <ele>1616.86</ele>
        <time>2012-12-20T13:21:58+01:00</time>
      </trkpt>
      <trkpt lat="42.97090621231" lon="-5.77840671105">
        <ele>1616.64</ele>
        <time>2012-12-20T13:22:00+01:00</time>
      </trkpt>
      <trkpt lat="42.97089201873" lon="-5.7784520838">
        <ele>1616.5</ele>
        <time>2012-12-20T13:22:01+01:00</time>
      </trkpt>
      <trkpt lat="42.97088240744" lon="-5.7784842924">
        <ele>1616.18</ele>
        <time>2012-12-20T13:22:02+01:00</time>
      </trkpt>
      <trkpt lat="42.97087267325" lon="-5.77853747161">
        <ele>1616.5</ele>
        <time>2012-12-20T13:22:05+01:00</time>
      </trkpt>
      <trkpt lat="42.97086536199" lon="-5.77857767881">
        <ele>1616.54</ele>
        <time>2012-12-20T13:22:05+01:00</time>
      </trkpt>
      <trkpt lat="42.9708559537" lon="-5.77861790676">
        <ele>1616.81</ele>
        <time>2012-12-20T13:22:06+01:00</time>
      </trkpt>
      <trkpt lat="42.97084557646" lon="-5.77866143281">
        <ele>1617.03</ele>
        <time>2012-12-20T13:22:08+01:00</time>
      </trkpt>
      <trkpt lat="42.9708357126" lon="-5.77869958125">
        <ele>1617.46</ele>
        <time>2012-12-20T13:22:09+01:00</time>
      </trkpt>
      <trkpt lat="42.97082974736" lon="-5.77873191133">
        <ele>1617.68</ele>
        <time>2012-12-20T13:22:09+01:00</time>
      </trkpt>
      <trkpt lat="42.97082326674" lon="-5.77876343326">
        <ele>1617.77</ele>
        <time>2012-12-20T13:22:10+01:00</time>
      </trkpt>
      <trkpt lat="42.97080903999" lon="-5.77881147054">
        <ele>1618.18</ele>
        <time>2012-12-20T13:22:13+01:00</time>
      </trkpt>
      <trkpt lat="42.9707903045" lon="-5.77885897169">
        <ele>1618.74</ele>
        <time>2012-12-20T13:22:14+01:00</time>
      </trkpt>
      <trkpt lat="42.97077311721" lon="-5.77890807883">
        <ele>1619.31</ele>
        <time>2012-12-20T13:22:16+01:00</time>
      </trkpt>
      <trkpt lat="42.9707568014" lon="-5.77895621502">
        <ele>1620.1</ele>
        <time>2012-12-20T13:22:19+01:00</time>
      </trkpt>
      <trkpt lat="42.9707489138" lon="-5.77900059282">
        <ele>1620.9</ele>
        <time>2012-12-20T13:22:20+01:00</time>
      </trkpt>
      <trkpt lat="42.9707353709" lon="-5.77903290721">
        <ele>1620.91</ele>
        <time>2012-12-20T13:22:22+01:00</time>
      </trkpt>
      <trkpt lat="42.97072447761" lon="-5.77905931599">
        <ele>1622.08</ele>
        <time>2012-12-20T13:22:25+01:00</time>
      </trkpt>
      <trkpt lat="42.97070663744" lon="-5.77909218902">
        <ele>1623.04</ele>
        <time>2012-12-20T13:22:27+01:00</time>
      </trkpt>
      <trkpt lat="42.97068799323" lon="-5.7791460192">
        <ele>1623.75</ele>
        <time>2012-12-20T13:22:30+01:00</time>
      </trkpt>
      <trkpt lat="42.97067590708" lon="-5.77917916308">
        <ele>1624.35</ele>
        <time>2012-12-20T13:22:30+01:00</time>
      </trkpt>
      <trkpt lat="42.97066342061" lon="-5.77921189795">
        <ele>1625.06</ele>
        <time>2012-12-20T13:22:32+01:00</time>
      </trkpt>
      <trkpt lat="42.97065459935" lon="-5.77923760649">
        <ele>1625.61</ele>
        <time>2012-12-20T13:22:32+01:00</time>
      </trkpt>
      <trkpt lat="42.97064498964" lon="-5.77926695513">
        <ele>1626.35</ele>
        <time>2012-12-20T13:22:34+01:00</time>
      </trkpt>
      <trkpt lat="42.97063062895" lon="-5.77931379561">
        <ele>1627.12</ele>
        <time>2012-12-20T13:22:36+01:00</time>
      </trkpt>
      <trkpt lat="42.97061333994" lon="-5.77937050469">
        <ele>1628.09</ele>
        <time>2012-12-20T13:22:37+01:00</time>
      </trkpt>
      <trkpt lat="42.97058093468" lon="-5.77945628737">
        <ele>1629.63</ele>
        <time>2012-12-20T13:22:40+01:00</time>
      </trkpt>
      <trkpt lat="42.97056528474" lon="-5.77950711043">
        <ele>1630.82</ele>
        <time>2012-12-20T13:22:42+01:00</time>
      </trkpt>
      <trkpt lat="42.97055330943" lon="-5.77955149548">
        <ele>1631.83</ele>
        <time>2012-12-20T13:22:44+01:00</time>
      </trkpt>
      <trkpt lat="42.97054124895" lon="-5.77959078594">
        <ele>1633.26</ele>
        <time>2012-12-20T13:22:46+01:00</time>
      </trkpt>
      <trkpt lat="42.97052876505" lon="-5.77963205637">
        <ele>1634.47</ele>
        <time>2012-12-20T13:22:48+01:00</time>
      </trkpt>
      <trkpt lat="42.97051729493" lon="-5.7796769949">
        <ele>1635.89</ele>
        <time>2012-12-20T13:22:50+01:00</time>
      </trkpt>
      <trkpt lat="42.97050652968" lon="-5.77972245111">
        <ele>1637.15</ele>
        <time>2012-12-20T13:22:52+01:00</time>
      </trkpt>
      <trkpt lat="42.97049579721" lon="-5.7797667521">
        <ele>1638.79</ele>
        <time>2012-12-20T13:22:54+01:00</time>
      </trkpt>
      <trkpt lat="42.97048457767" lon="-5.77981176737">
        <ele>1640.01</ele>
        <time>2012-12-20T13:22:56+01:00</time>
      </trkpt>
      <trkpt lat="42.97047051824" lon="-5.77985881544">
        <ele>1641.41</ele>
        <time>2012-12-20T13:22:58+01:00</time>
      </trkpt>
      <trkpt lat="42.97045428891" lon="-5.77990538785">
        <ele>1642.76</ele>
        <time>2012-12-20T13:23:00+01:00</time>
      </trkpt>
      <trkpt lat="42.97043723908" lon="-5.77995236532">
        <ele>1644.55</ele>
        <time>2012-12-20T13:23:02+01:00</time>
      </trkpt>
      <trkpt lat="42.97042267207" lon="-5.77999696931">
        <ele>1645.93</ele>
        <time>2012-12-20T13:23:04+01:00</time>
      </trkpt>
      <trkpt lat="42.97040982436" lon="-5.78004593762">
        <ele>1647.35</ele>
        <time>2012-12-20T13:23:06+01:00</time>
      </trkpt>
      <trkpt lat="42.97039637771" lon="-5.78009273631">
        <ele>1648.46</ele>
        <time>2012-12-20T13:23:08+01:00</time>
      </trkpt>
      <trkpt lat="42.97038839101" lon="-5.78012844875">
        <ele>1649.78</ele>
        <time>2012-12-20T13:23:09+01:00</time>
      </trkpt>
      <trkpt lat="42.97038089281" lon="-5.7801594629">
        <ele>1650.86</ele>
        <time>2012-12-20T13:23:11+01:00</time>
      </trkpt>
      <trkpt lat="42.97037205063" lon="-5.78020321666">
        <ele>1652.01</ele>
        <time>2012-12-20T13:23:13+01:00</time>
      </trkpt>
      <trkpt lat="42.97035871516" lon="-5.78024589735">
        <ele>1653.1</ele>
        <time>2012-12-20T13:23:14+01:00</time>
      </trkpt>
      <trkpt lat="42.97034381049" lon="-5.78028474246">
        <ele>1654.7</ele>
        <time>2012-12-20T13:23:17+01:00</time>
      </trkpt>
      <trkpt lat="42.97032767035" lon="-5.78033482215">
        <ele>1655.32</ele>
        <time>2012-12-20T13:23:19+01:00</time>
      </trkpt>
      <trkpt lat="42.9703186249" lon="-5.780376087">
        <ele>1656.09</ele>
        <time>2012-12-20T13:23:20+01:00</time>
      </trkpt>
      <trkpt lat="42.97030008553" lon="-5.78041015623">
        <ele>1657.51</ele>
        <time>2012-12-20T13:23:22+01:00</time>
      </trkpt>
      <trkpt lat="42.97028517944" lon="-5.78044674259">
        <ele>1658.15</ele>
        <time>2012-12-20T13:23:23+01:00</time>
      </trkpt>
      <trkpt lat="42.97026843547" lon="-5.78048726162">
        <ele>1659.65</ele>
        <time>2012-12-20T13:23:24+01:00</time>
      </trkpt>
      <trkpt lat="42.97025353608" lon="-5.78052083699">
        <ele>1660.74</ele>
        <time>2012-12-20T13:23:27+01:00</time>
      </trkpt>
      <trkpt lat="42.97022547754" lon="-5.78056235373">
        <ele>1662.66</ele>
        <time>2012-12-20T13:23:28+01:00</time>
      </trkpt>
      <trkpt lat="42.97020196471" lon="-5.78061484503">
        <ele>1663.62</ele>
        <time>2012-12-20T13:23:31+01:00</time>
      </trkpt>
      <trkpt lat="42.97018428434" lon="-5.78065464787">
        <ele>1664.68</ele>
        <time>2012-12-20T13:23:33+01:00</time>
      </trkpt>
      <trkpt lat="42.97016710253" lon="-5.78069412439">
        <ele>1665.75</ele>
        <time>2012-12-20T13:23:34+01:00</time>
      </trkpt>
      <trkpt lat="42.97015045628" lon="-5.78073896712">
        <ele>1666.77</ele>
        <time>2012-12-20T13:23:36+01:00</time>
      </trkpt>
      <trkpt lat="42.97014791532" lon="-5.78074435458">
        <ele>1667.63</ele>
        <time>2012-12-20T13:23:38+01:00</time>
      </trkpt>
      <trkpt lat="42.97012927252" lon="-5.78078741551">
        <ele>1668.47</ele>
        <time>2012-12-20T13:23:39+01:00</time>
      </trkpt>
      <trkpt lat="42.97010846792" lon="-5.78082969118">
        <ele>1669.47</ele>
        <time>2012-12-20T13:23:41+01:00</time>
      </trkpt>
      <trkpt lat="42.97007449046" lon="-5.7809074329">
        <ele>1669.51</ele>
        <time>2012-12-20T13:23:44+01:00</time>
      </trkpt>
      <trkpt lat="42.97006437594" lon="-5.78094326024">
        <ele>1670.06</ele>
        <time>2012-12-20T13:23:46+01:00</time>
      </trkpt>
      <trkpt lat="42.97005646884" lon="-5.78097797963">
        <ele>1671.75</ele>
        <time>2012-12-20T13:23:46+01:00</time>
      </trkpt>
      <trkpt lat="42.97004430935" lon="-5.78102895624">
        <ele>1672.44</ele>
        <time>2012-12-20T13:23:47+01:00</time>
      </trkpt>
      <trkpt lat="42.97003537309" lon="-5.781063962">
        <ele>1673.18</ele>
        <time>2012-12-20T13:23:49+01:00</time>
      </trkpt>
      <trkpt lat="42.9700256398" lon="-5.78111260445">
        <ele>1674.23</ele>
        <time>2012-12-20T13:23:50+01:00</time>
      </trkpt>
      <trkpt lat="42.97001749053" lon="-5.78116739405">
        <ele>1675.34</ele>
        <time>2012-12-20T13:23:52+01:00</time>
      </trkpt>
      <trkpt lat="42.97000576887" lon="-5.78121657345">
        <ele>1675.48</ele>
        <time>2012-12-20T13:23:55+01:00</time>
      </trkpt>
      <trkpt lat="42.96999715809" lon="-5.78124732176">
        <ele>1676.16</ele>
        <time>2012-12-20T13:23:56+01:00</time>
      </trkpt>
      <trkpt lat="42.96998499466" lon="-5.78128851217">
        <ele>1678.15</ele>
        <time>2012-12-20T13:23:59+01:00</time>
      </trkpt>
      <trkpt lat="42.96996775374" lon="-5.78135700378">
        <ele>1679.24</ele>
        <time>2012-12-20T13:24:01+01:00</time>
      </trkpt>
      <trkpt lat="42.96995686049" lon="-5.78138400541">
        <ele>1680.15</ele>
        <time>2012-12-20T13:24:03+01:00</time>
      </trkpt>
      <trkpt lat="42.96994469254" lon="-5.78144315765">
        <ele>1681.19</ele>
        <time>2012-12-20T13:24:05+01:00</time>
      </trkpt>
      <trkpt lat="42.96994845215" lon="-5.78147205126">
        <ele>1682.41</ele>
        <time>2012-12-20T13:24:06+01:00</time>
      </trkpt>
      <trkpt lat="42.96994855989" lon="-5.78147992786">
        <ele>1683.47</ele>
        <time>2012-12-20T13:24:08+01:00</time>
      </trkpt>
      <trkpt lat="42.96994973795" lon="-5.78156507074">
        <ele>1684.66</ele>
        <time>2012-12-20T13:24:10+01:00</time>
      </trkpt>
      <trkpt lat="42.96994219515" lon="-5.78162608755">
        <ele>1686.04</ele>
        <time>2012-12-20T13:24:11+01:00</time>
      </trkpt>
      <trkpt lat="42.96994196064" lon="-5.78166390601">
        <ele>1687.22</ele>
        <time>2012-12-20T13:24:13+01:00</time>
      </trkpt>
      <trkpt lat="42.9699362811" lon="-5.78170358915">
        <ele>1688.28</ele>
        <time>2012-12-20T13:24:13+01:00</time>
      </trkpt>
      <trkpt lat="42.96993071955" lon="-5.78173861609">
        <ele>1689.31</ele>
        <time>2012-12-20T13:24:15+01:00</time>
      </trkpt>
      <trkpt lat="42.96992417576" lon="-5.7817747905">
        <ele>1690.32</ele>
        <time>2012-12-20T13:24:15+01:00</time>
      </trkpt>
      <trkpt lat="42.96990734372" lon="-5.78182145386">
        <ele>1691.07</ele>
        <time>2012-12-20T13:24:17+01:00</time>
      </trkpt>
      <trkpt lat="42.96988473246" lon="-5.7818688739">
        <ele>1691.16</ele>
        <time>2012-12-20T13:24:19+01:00</time>
      </trkpt>
      <trkpt lat="42.96986445224" lon="-5.78191611">
        <ele>1692.86</ele>
        <time>2012-12-20T13:24:22+01:00</time>
      </trkpt>
      <trkpt lat="42.96984155367" lon="-5.78195975538">
        <ele>1693.96</ele>
        <time>2012-12-20T13:24:23+01:00</time>
      </trkpt>
      <trkpt lat="42.9698324142" lon="-5.78200777882">
        <ele>1694.03</ele>
        <time>2012-12-20T13:24:25+01:00</time>
      </trkpt>
      <trkpt lat="42.96983464315" lon="-5.78205976241">
        <ele>1694.85</ele>
        <time>2012-12-20T13:24:28+01:00</time>
      </trkpt>
      <trkpt lat="42.96983435599" lon="-5.78208985542">
        <ele>1695.8</ele>
        <time>2012-12-20T13:24:29+01:00</time>
      </trkpt>
      <trkpt lat="42.96983299703" lon="-5.78213055054">
        <ele>1696.68</ele>
        <time>2012-12-20T13:24:31+01:00</time>
      </trkpt>
      <trkpt lat="42.96982548631" lon="-5.78217625336">
        <ele>1697.3</ele>
        <time>2012-12-20T13:24:33+01:00</time>
      </trkpt>
      <trkpt lat="42.96982371264" lon="-5.78218388304">
        <ele>1698.03</ele>
        <time>2012-12-20T13:24:34+01:00</time>
      </trkpt>
      <trkpt lat="42.96982006278" lon="-5.78219534303">
        <ele>1698.75</ele>
        <time>2012-12-20T13:24:36+01:00</time>
      </trkpt>
      <trkpt lat="42.96981421303" lon="-5.78220935344">
        <ele>1699.6</ele>
        <time>2012-12-20T13:24:38+01:00</time>
      </trkpt>
      <trkpt lat="42.96980588049" lon="-5.78222506412">
        <ele>1700.32</ele>
        <time>2012-12-20T13:24:40+01:00</time>
      </trkpt>
      <trkpt lat="42.96975537114" lon="-5.78232065641">
        <ele>1701.3</ele>
        <time>2012-12-20T13:24:42+01:00</time>
      </trkpt>
      <trkpt lat="42.9697249616" lon="-5.78238224079">
        <ele>1702.1</ele>
        <time>2012-12-20T13:24:43+01:00</time>
      </trkpt>
      <trkpt lat="42.96970506296" lon="-5.78242765939">
        <ele>1702.92</ele>
        <time>2012-12-20T13:24:44+01:00</time>
      </trkpt>
      <trkpt lat="42.96966761932" lon="-5.78248384263">
        <ele>1703.36</ele>
        <time>2012-12-20T13:24:45+01:00</time>
      </trkpt>
      <trkpt lat="42.96964960292" lon="-5.78251881682">
        <ele>1704.18</ele>
        <time>2012-12-20T13:24:47+01:00</time>
      </trkpt>
      <trkpt lat="42.96963423319" lon="-5.7825482924">
        <ele>1704.94</ele>
        <time>2012-12-20T13:24:48+01:00</time>
      </trkpt>
      <trkpt lat="42.96960624649" lon="-5.78259105065">
        <ele>1705.61</ele>
        <time>2012-12-20T13:24:50+01:00</time>
      </trkpt>
      <trkpt lat="42.96959271082" lon="-5.78262422335">
        <ele>1706.23</ele>
        <time>2012-12-20T13:24:51+01:00</time>
      </trkpt>
      <trkpt lat="42.9695795937" lon="-5.7826579507">
        <ele>1706.81</ele>
        <time>2012-12-20T13:24:53+01:00</time>
      </trkpt>
      <trkpt lat="42.96955692947" lon="-5.78270665846">
        <ele>1707.43</ele>
        <time>2012-12-20T13:24:53+01:00</time>
      </trkpt>
      <trkpt lat="42.96954250598" lon="-5.78274389266">
        <ele>1708.16</ele>
        <time>2012-12-20T13:24:55+01:00</time>
      </trkpt>
      <trkpt lat="42.96953573677" lon="-5.78276287999">
        <ele>1708.76</ele>
        <time>2012-12-20T13:24:55+01:00</time>
      </trkpt>
      <trkpt lat="42.96952858031" lon="-5.78279001756">
        <ele>1710.4</ele>
        <time>2012-12-20T13:24:57+01:00</time>
      </trkpt>
      <trkpt lat="42.96951921856" lon="-5.78282001487">
        <ele>1710.23</ele>
        <time>2012-12-20T13:24:58+01:00</time>
      </trkpt>
      <trkpt lat="42.9695029114" lon="-5.7828654704">
        <ele>1711.8</ele>
        <time>2012-12-20T13:24:58+01:00</time>
      </trkpt>
      <trkpt lat="42.9694906981" lon="-5.78291003372">
        <ele>1712.74</ele>
        <time>2012-12-20T13:25:00+01:00</time>
      </trkpt>
      <trkpt lat="42.96947437501" lon="-5.78294449442">
        <ele>1713.68</ele>
        <time>2012-12-20T13:25:02+01:00</time>
      </trkpt>
      <trkpt lat="42.96945411189" lon="-5.78297391712">
        <ele>1714.41</ele>
        <time>2012-12-20T13:25:04+01:00</time>
      </trkpt>
      <trkpt lat="42.96943047914" lon="-5.78301131761">
        <ele>1715.6</ele>
        <time>2012-12-20T13:25:07+01:00</time>
      </trkpt>
      <trkpt lat="42.96941167099" lon="-5.78306238361">
        <ele>1716.42</ele>
        <time>2012-12-20T13:25:09+01:00</time>
      </trkpt>
      <trkpt lat="42.96939537003" lon="-5.78311323227">
        <ele>1716.85</ele>
        <time>2012-12-20T13:25:10+01:00</time>
      </trkpt>
      <trkpt lat="42.96938292328" lon="-5.78315686257">
        <ele>1717.64</ele>
        <time>2012-12-20T13:25:13+01:00</time>
      </trkpt>
      <trkpt lat="42.96937158264" lon="-5.78319509292">
        <ele>1718.34</ele>
        <time>2012-12-20T13:25:14+01:00</time>
      </trkpt>
      <trkpt lat="42.96935928975" lon="-5.7832335844">
        <ele>1719.06</ele>
        <time>2012-12-20T13:25:17+01:00</time>
      </trkpt>
      <trkpt lat="42.96935639108" lon="-5.78325863813">
        <ele>1720.03</ele>
        <time>2012-12-20T13:25:18+01:00</time>
      </trkpt>
      <trkpt lat="42.96934290745" lon="-5.783324681">
        <ele>1721.17</ele>
        <time>2012-12-20T13:25:20+01:00</time>
      </trkpt>
      <trkpt lat="42.96932874428" lon="-5.78336129184">
        <ele>1721.96</ele>
        <time>2012-12-20T13:25:21+01:00</time>
      </trkpt>
      <trkpt lat="42.96931618864" lon="-5.78341937482">
        <ele>1723.54</ele>
        <time>2012-12-20T13:25:23+01:00</time>
      </trkpt>
      <trkpt lat="42.96931129705" lon="-5.78345593596">
        <ele>1724.42</ele>
        <time>2012-12-20T13:25:25+01:00</time>
      </trkpt>
      <trkpt lat="42.96930508843" lon="-5.78351716059">
        <ele>1725.73</ele>
        <time>2012-12-20T13:25:27+01:00</time>
      </trkpt>
      <trkpt lat="42.96929576655" lon="-5.78355555705">
        <ele>1726.84</ele>
        <time>2012-12-20T13:25:27+01:00</time>
      </trkpt>
      <trkpt lat="42.96928655962" lon="-5.78360273187">
        <ele>1727.93</ele>
        <time>2012-12-20T13:25:30+01:00</time>
      </trkpt>
      <trkpt lat="42.96927740922" lon="-5.7836348315">
        <ele>1729.14</ele>
        <time>2012-12-20T13:25:30+01:00</time>
      </trkpt>
      <trkpt lat="42.96926639257" lon="-5.78367162745">
        <ele>1730.47</ele>
        <time>2012-12-20T13:25:32+01:00</time>
      </trkpt>
      <trkpt lat="42.96925267369" lon="-5.7837216987">
        <ele>1732.52</ele>
        <time>2012-12-20T13:25:35+01:00</time>
      </trkpt>
      <trkpt lat="42.96924009939" lon="-5.78376962955">
        <ele>1733.91</ele>
        <time>2012-12-20T13:25:36+01:00</time>
      </trkpt>
      <trkpt lat="42.96922628168" lon="-5.78381779899">
        <ele>1735.47</ele>
        <time>2012-12-20T13:25:38+01:00</time>
      </trkpt>
      <trkpt lat="42.96921720532" lon="-5.78385565739">
        <ele>1736.71</ele>
        <time>2012-12-20T13:25:40+01:00</time>
      </trkpt>
      <trkpt lat="42.96920773557" lon="-5.78389723724">
        <ele>1738.4</ele>
        <time>2012-12-20T13:25:42+01:00</time>
      </trkpt>
      <trkpt lat="42.96919437919" lon="-5.78394492244">
        <ele>1739.44</ele>
        <time>2012-12-20T13:25:44+01:00</time>
      </trkpt>
      <trkpt lat="42.96918456376" lon="-5.78397187914">
        <ele>1740.62</ele>
        <time>2012-12-20T13:25:46+01:00</time>
      </trkpt>
      <trkpt lat="42.96915522021" lon="-5.78402576512">
        <ele>1742.16</ele>
        <time>2012-12-20T13:25:48+01:00</time>
      </trkpt>
      <trkpt lat="42.96912732386" lon="-5.78406483962">
        <ele>1743.59</ele>
        <time>2012-12-20T13:25:50+01:00</time>
      </trkpt>
      <trkpt lat="42.96910387438" lon="-5.78410524336">
        <ele>1744.69</ele>
        <time>2012-12-20T13:25:52+01:00</time>
      </trkpt>
      <trkpt lat="42.96908285653" lon="-5.78414430362">
        <ele>1745.76</ele>
        <time>2012-12-20T13:25:54+01:00</time>
      </trkpt>
      <trkpt lat="42.96906966756" lon="-5.78418959954">
        <ele>1747.1</ele>
        <time>2012-12-20T13:25:56+01:00</time>
      </trkpt>
      <trkpt lat="42.96905257937" lon="-5.78423587438">
        <ele>1748.53</ele>
        <time>2012-12-20T13:25:58+01:00</time>
      </trkpt>
      <trkpt lat="42.96904309323" lon="-5.78428086978">
        <ele>1750.24</ele>
        <time>2012-12-20T13:26:00+01:00</time>
      </trkpt>
      <trkpt lat="42.9690349616" lon="-5.78433429466">
        <ele>1751.51</ele>
        <time>2012-12-20T13:26:02+01:00</time>
      </trkpt>
      <trkpt lat="42.96902941081" lon="-5.78437250409">
        <ele>1752.81</ele>
        <time>2012-12-20T13:26:04+01:00</time>
      </trkpt>
      <trkpt lat="42.96902454556" lon="-5.78440569402">
        <ele>1754.29</ele>
        <time>2012-12-20T13:26:05+01:00</time>
      </trkpt>
      <trkpt lat="42.96901492238" lon="-5.78443419201">
        <ele>1755.62</ele>
        <time>2012-12-20T13:26:06+01:00</time>
      </trkpt>
      <trkpt lat="42.96900894091" lon="-5.78448381278">
        <ele>1757.22</ele>
        <time>2012-12-20T13:26:08+01:00</time>
      </trkpt>
      <trkpt lat="42.96900040207" lon="-5.78451928497">
        <ele>1758.26</ele>
        <time>2012-12-20T13:26:09+01:00</time>
      </trkpt>
      <trkpt lat="42.96899235758" lon="-5.78455266506">
        <ele>1759.15</ele>
        <time>2012-12-20T13:26:10+01:00</time>
      </trkpt>
      <trkpt lat="42.96898040128" lon="-5.78458529614">
        <ele>1760.25</ele>
        <time>2012-12-20T13:26:11+01:00</time>
      </trkpt>
      <trkpt lat="42.96896558924" lon="-5.78462326033">
        <ele>1761.67</ele>
        <time>2012-12-20T13:26:13+01:00</time>
      </trkpt>
      <trkpt lat="42.96895267932" lon="-5.78465428955">
        <ele>1762.92</ele>
        <time>2012-12-20T13:26:15+01:00</time>
      </trkpt>
      <trkpt lat="42.96893584084" lon="-5.78469842078">
        <ele>1764.58</ele>
        <time>2012-12-20T13:26:17+01:00</time>
      </trkpt>
      <trkpt lat="42.96891715335" lon="-5.7847552722">
        <ele>1765.92</ele>
        <time>2012-12-20T13:26:19+01:00</time>
      </trkpt>
      <trkpt lat="42.96890637273" lon="-5.78478553843">
        <ele>1767.08</ele>
        <time>2012-12-20T13:26:20+01:00</time>
      </trkpt>
      <trkpt lat="42.96889305191" lon="-5.78483189186">
        <ele>1768.36</ele>
        <time>2012-12-20T13:26:22+01:00</time>
      </trkpt>
      <trkpt lat="42.96888458747" lon="-5.78486711292">
        <ele>1769.41</ele>
        <time>2012-12-20T13:26:23+01:00</time>
      </trkpt>
      <trkpt lat="42.96887176342" lon="-5.78489843112">
        <ele>1770.82</ele>
        <time>2012-12-20T13:26:24+01:00</time>
      </trkpt>
      <trkpt lat="42.96885981088" lon="-5.78493232152">
        <ele>1771.71</ele>
        <time>2012-12-20T13:26:25+01:00</time>
      </trkpt>
      <trkpt lat="42.96885016541" lon="-5.78495126806">
        <ele>1772.79</ele>
        <time>2012-12-20T13:26:26+01:00</time>
      </trkpt>
      <trkpt lat="42.9688334301" lon="-5.78499626486">
        <ele>1773.77</ele>
        <time>2012-12-20T13:26:27+01:00</time>
      </trkpt>
      <trkpt lat="42.96881982359" lon="-5.78502900177">
        <ele>1774.9</ele>
        <time>2012-12-20T13:26:28+01:00</time>
      </trkpt>
      <trkpt lat="42.96881026266" lon="-5.78505875026">
        <ele>1775.83</ele>
        <time>2012-12-20T13:26:29+01:00</time>
      </trkpt>
      <trkpt lat="42.96879795691" lon="-5.78509494187">
        <ele>1776.96</ele>
        <time>2012-12-20T13:26:31+01:00</time>
      </trkpt>
      <trkpt lat="42.9687943223" lon="-5.78512699062">
        <ele>1778.34</ele>
        <time>2012-12-20T13:26:33+01:00</time>
      </trkpt>
      <trkpt lat="42.96878078782" lon="-5.78516149651">
        <ele>1779.3</ele>
        <time>2012-12-20T13:26:35+01:00</time>
      </trkpt>
      <trkpt lat="42.96876765384" lon="-5.78518985536">
        <ele>1780.01</ele>
        <time>2012-12-20T13:26:36+01:00</time>
      </trkpt>
      <trkpt lat="42.96875600812" lon="-5.78522228217">
        <ele>1780.99</ele>
        <time>2012-12-20T13:26:37+01:00</time>
      </trkpt>
      <trkpt lat="42.96874529707" lon="-5.78525170042">
        <ele>1782.12</ele>
        <time>2012-12-20T13:26:38+01:00</time>
      </trkpt>
      <trkpt lat="42.96873370007" lon="-5.78529795131">
        <ele>1783.17</ele>
        <time>2012-12-20T13:26:40+01:00</time>
      </trkpt>
      <trkpt lat="42.96872155708" lon="-5.78534126555">
        <ele>1784.17</ele>
        <time>2012-12-20T13:26:42+01:00</time>
      </trkpt>
      <trkpt lat="42.96870886904" lon="-5.78538768048">
        <ele>1785.25</ele>
        <time>2012-12-20T13:26:44+01:00</time>
      </trkpt>
      <trkpt lat="42.96869402679" lon="-5.78543411207">
        <ele>1786.81</ele>
        <time>2012-12-20T13:26:46+01:00</time>
      </trkpt>
      <trkpt lat="42.96867781494" lon="-5.78547625544">
        <ele>1787.9</ele>
        <time>2012-12-20T13:26:48+01:00</time>
      </trkpt>
      <trkpt lat="42.96865780876" lon="-5.78552759946">
        <ele>1789.4</ele>
        <time>2012-12-20T13:26:50+01:00</time>
      </trkpt>
      <trkpt lat="42.9686332551" lon="-5.78558406932">
        <ele>1790.88</ele>
        <time>2012-12-20T13:26:52+01:00</time>
      </trkpt>
      <trkpt lat="42.96861131234" lon="-5.78563137194">
        <ele>1792.22</ele>
        <time>2012-12-20T13:26:53+01:00</time>
      </trkpt>
      <trkpt lat="42.96859879379" lon="-5.78568410895">
        <ele>1793.44</ele>
        <time>2012-12-20T13:26:55+01:00</time>
      </trkpt>
      <trkpt lat="42.96859047259" lon="-5.78572708522">
        <ele>1794.59</ele>
        <time>2012-12-20T13:26:57+01:00</time>
      </trkpt>
      <trkpt lat="42.96858314218" lon="-5.78577564539">
        <ele>1795.59</ele>
        <time>2012-12-20T13:26:59+01:00</time>
      </trkpt>
      <trkpt lat="42.96857751868" lon="-5.78583289958">
        <ele>1796.84</ele>
        <time>2012-12-20T13:27:01+01:00</time>
      </trkpt>
      <trkpt lat="42.96857260536" lon="-5.785883913">
        <ele>1798.4</ele>
        <time>2012-12-20T13:27:03+01:00</time>
      </trkpt>
      <trkpt lat="42.96856612416" lon="-5.7859219436">
        <ele>1798.65</ele>
        <time>2012-12-20T13:27:05+01:00</time>
      </trkpt>
      <trkpt lat="42.96856502909" lon="-5.78595570126">
        <ele>1799.55</ele>
        <time>2012-12-20T13:27:07+01:00</time>
      </trkpt>
      <trkpt lat="42.9685516002" lon="-5.78600979378">
        <ele>1800.68</ele>
        <time>2012-12-20T13:27:09+01:00</time>
      </trkpt>
      <trkpt lat="42.96853815206" lon="-5.78606151597">
        <ele>1802.98</ele>
        <time>2012-12-20T13:27:11+01:00</time>
      </trkpt>
      <trkpt lat="42.96852563884" lon="-5.78611330054">
        <ele>1804.16</ele>
        <time>2012-12-20T13:27:13+01:00</time>
      </trkpt>
      <trkpt lat="42.9685129411" lon="-5.78617036522">
        <ele>1805.52</ele>
        <time>2012-12-20T13:27:15+01:00</time>
      </trkpt>
      <trkpt lat="42.96849858298" lon="-5.78622118309">
        <ele>1807.51</ele>
        <time>2012-12-20T13:27:17+01:00</time>
      </trkpt>
      <trkpt lat="42.9684846668" lon="-5.78626667098">
        <ele>1808.68</ele>
        <time>2012-12-20T13:27:19+01:00</time>
      </trkpt>
      <trkpt lat="42.96846388337" lon="-5.78632601532">
        <ele>1809.91</ele>
        <time>2012-12-20T13:27:21+01:00</time>
      </trkpt>
      <trkpt lat="42.96844422817" lon="-5.78637864534">
        <ele>1811.42</ele>
        <time>2012-12-20T13:27:23+01:00</time>
      </trkpt>
      <trkpt lat="42.96842389371" lon="-5.78643166004">
        <ele>1812.63</ele>
        <time>2012-12-20T13:27:25+01:00</time>
      </trkpt>
      <trkpt lat="42.96841303412" lon="-5.78646223295">
        <ele>1813.52</ele>
        <time>2012-12-20T13:27:26+01:00</time>
      </trkpt>
      <trkpt lat="42.96839497481" lon="-5.78651304194">
        <ele>1814.78</ele>
        <time>2012-12-20T13:27:28+01:00</time>
      </trkpt>
      <trkpt lat="42.96837649727" lon="-5.78656180094">
        <ele>1815.93</ele>
        <time>2012-12-20T13:27:30+01:00</time>
      </trkpt>
      <trkpt lat="42.96835827966" lon="-5.78661110931">
        <ele>1816.75</ele>
        <time>2012-12-20T13:27:32+01:00</time>
      </trkpt>
      <trkpt lat="42.96835079299" lon="-5.78663909571">
        <ele>1817.59</ele>
        <time>2012-12-20T13:27:33+01:00</time>
      </trkpt>
      <trkpt lat="42.96833043779" lon="-5.78669020231">
        <ele>1818.47</ele>
        <time>2012-12-20T13:27:35+01:00</time>
      </trkpt>
      <trkpt lat="42.96831180611" lon="-5.78674072612">
        <ele>1819.3</ele>
        <time>2012-12-20T13:27:37+01:00</time>
      </trkpt>
      <trkpt lat="42.96829898526" lon="-5.78678752897">
        <ele>1820.07</ele>
        <time>2012-12-20T13:27:39+01:00</time>
      </trkpt>
      <trkpt lat="42.9682864069" lon="-5.78682242581">
        <ele>1821.01</ele>
        <time>2012-12-20T13:27:40+01:00</time>
      </trkpt>
      <trkpt lat="42.96827036339" lon="-5.78687487419">
        <ele>1821.81</ele>
        <time>2012-12-20T13:27:42+01:00</time>
      </trkpt>
      <trkpt lat="42.96825512392" lon="-5.78692345744">
        <ele>1822.68</ele>
        <time>2012-12-20T13:27:44+01:00</time>
      </trkpt>
      <trkpt lat="42.96824228596" lon="-5.78697494949">
        <ele>1823.53</ele>
        <time>2012-12-20T13:27:46+01:00</time>
      </trkpt>
      <trkpt lat="42.96822423456" lon="-5.78703209923">
        <ele>1824.28</ele>
        <time>2012-12-20T13:27:48+01:00</time>
      </trkpt>
      <trkpt lat="42.96821176705" lon="-5.78707587007">
        <ele>1824.83</ele>
        <time>2012-12-20T13:27:50+01:00</time>
      </trkpt>
      <trkpt lat="42.96819632614" lon="-5.78713030186">
        <ele>1825.74</ele>
        <time>2012-12-20T13:27:52+01:00</time>
      </trkpt>
      <trkpt lat="42.96818482827" lon="-5.7871718865">
        <ele>1826.4</ele>
        <time>2012-12-20T13:27:54+01:00</time>
      </trkpt>
      <trkpt lat="42.96816995584" lon="-5.78721346282">
        <ele>1826.83</ele>
        <time>2012-12-20T13:27:56+01:00</time>
      </trkpt>
      <trkpt lat="42.96816168463" lon="-5.78723596849">
        <ele>1827.4</ele>
        <time>2012-12-20T13:27:58+01:00</time>
      </trkpt>
      <trkpt lat="42.96813974555" lon="-5.7872895123">
        <ele>1828.3</ele>
        <time>2012-12-20T13:28:00+01:00</time>
      </trkpt>
      <trkpt lat="42.96812073969" lon="-5.78733998481">
        <ele>1828.92</ele>
        <time>2012-12-20T13:28:02+01:00</time>
      </trkpt>
      <trkpt lat="42.9681031922" lon="-5.78738608796">
        <ele>1829.47</ele>
        <time>2012-12-20T13:28:05+01:00</time>
      </trkpt>
      <trkpt lat="42.96808513172" lon="-5.78743104903">
        <ele>1829.59</ele>
        <time>2012-12-20T13:28:07+01:00</time>
      </trkpt>
      <trkpt lat="42.96806058693" lon="-5.78748514512">
        <ele>1831.25</ele>
        <time>2012-12-20T13:28:09+01:00</time>
      </trkpt>
      <trkpt lat="42.96804737458" lon="-5.78753072324">
        <ele>1832.23</ele>
        <time>2012-12-20T13:28:10+01:00</time>
      </trkpt>
      <trkpt lat="42.96803551202" lon="-5.78757765801">
        <ele>1832.08</ele>
        <time>2012-12-20T13:28:12+01:00</time>
      </trkpt>
      <trkpt lat="42.96802480889" lon="-5.78764208044">
        <ele>1832.98</ele>
        <time>2012-12-20T13:28:15+01:00</time>
      </trkpt>
      <trkpt lat="42.96801808079" lon="-5.78767575549">
        <ele>1833.79</ele>
        <time>2012-12-20T13:28:15+01:00</time>
      </trkpt>
      <trkpt lat="42.96801333438" lon="-5.78772574314">
        <ele>1834.61</ele>
        <time>2012-12-20T13:28:17+01:00</time>
      </trkpt>
      <trkpt lat="42.96801448164" lon="-5.78776227462">
        <ele>1834.95</ele>
        <time>2012-12-20T13:28:20+01:00</time>
      </trkpt>
      <trkpt lat="42.96801478478" lon="-5.78779053346">
        <ele>1835.38</ele>
        <time>2012-12-20T13:28:21+01:00</time>
      </trkpt>
      <trkpt lat="42.96801196203" lon="-5.78783159039">
        <ele>1835.82</ele>
        <time>2012-12-20T13:28:24+01:00</time>
      </trkpt>
      <trkpt lat="42.96799926049" lon="-5.78787916319">
        <ele>1836.19</ele>
        <time>2012-12-20T13:28:26+01:00</time>
      </trkpt>
      <trkpt lat="42.9679859546" lon="-5.78792290854">
        <ele>1837.26</ele>
        <time>2012-12-20T13:28:26+01:00</time>
      </trkpt>
      <trkpt lat="42.96797753292" lon="-5.78795534568">
        <ele>1837.67</ele>
        <time>2012-12-20T13:28:27+01:00</time>
      </trkpt>
      <trkpt lat="42.96796760058" lon="-5.78798733094">
        <ele>1838.2</ele>
        <time>2012-12-20T13:28:29+01:00</time>
      </trkpt>
      <trkpt lat="42.96795927457" lon="-5.78802477457">
        <ele>1838.8</ele>
        <time>2012-12-20T13:28:30+01:00</time>
      </trkpt>
      <trkpt lat="42.96794406422" lon="-5.78805392214">
        <ele>1838.77</ele>
        <time>2012-12-20T13:28:31+01:00</time>
      </trkpt>
      <trkpt lat="42.96792570534" lon="-5.78808122555">
        <ele>1839.29</ele>
        <time>2012-12-20T13:28:32+01:00</time>
      </trkpt>
      <trkpt lat="42.96791153548" lon="-5.78811254656">
        <ele>1839.57</ele>
        <time>2012-12-20T13:28:33+01:00</time>
      </trkpt>
      <trkpt lat="42.96789687927" lon="-5.78815332179">
        <ele>1839.63</ele>
        <time>2012-12-20T13:28:34+01:00</time>
      </trkpt>
      <trkpt lat="42.96788919009" lon="-5.78819609856">
        <ele>1839.75</ele>
        <time>2012-12-20T13:28:35+01:00</time>
      </trkpt>
      <trkpt lat="42.96788498878" lon="-5.78822979672">
        <ele>1839.79</ele>
        <time>2012-12-20T13:28:36+01:00</time>
      </trkpt>
      <trkpt lat="42.96788992469" lon="-5.78828416203">
        <ele>1840.01</ele>
        <time>2012-12-20T13:28:38+01:00</time>
      </trkpt>
      <trkpt lat="42.96791188014" lon="-5.78831517175">
        <ele>1840.1</ele>
        <time>2012-12-20T13:28:40+01:00</time>
      </trkpt>
      <trkpt lat="42.9679421961" lon="-5.78833214388">
        <ele>1840.07</ele>
        <time>2012-12-20T13:28:42+01:00</time>
      </trkpt>
      <trkpt lat="42.96796797353" lon="-5.7883367453">
        <ele>1840.03</ele>
        <time>2012-12-20T13:28:44+01:00</time>
      </trkpt>
      <trkpt lat="42.96799549934" lon="-5.78833838411">
        <ele>1840.32</ele>
        <time>2012-12-20T13:28:44+01:00</time>
      </trkpt>
      <trkpt lat="42.96801903485" lon="-5.78833847256">
        <ele>1840.48</ele>
        <time>2012-12-20T13:28:46+01:00</time>
      </trkpt>
      <trkpt lat="42.96804788193" lon="-5.78834243668">
        <ele>1840.58</ele>
        <time>2012-12-20T13:28:47+01:00</time>
      </trkpt>
      <trkpt lat="42.96805834521" lon="-5.78837005159">
        <ele>1839.84</ele>
        <time>2012-12-20T13:28:53+01:00</time>
      </trkpt>
      <trkpt lat="42.96805835916" lon="-5.78840306722">
        <ele>1839.49</ele>
        <time>2012-12-20T13:28:53+01:00</time>
      </trkpt>
      <trkpt lat="42.96805620256" lon="-5.78843296852">
        <ele>1838.78</ele>
        <time>2012-12-20T13:28:55+01:00</time>
      </trkpt>
      <trkpt lat="42.96805524842" lon="-5.78848431515">
        <ele>1838.6</ele>
        <time>2012-12-20T13:28:56+01:00</time>
      </trkpt>
      <trkpt lat="42.96806164608" lon="-5.78850774875">
        <ele>1837.87</ele>
        <time>2012-12-20T13:28:58+01:00</time>
      </trkpt>
      <trkpt lat="42.96806800473" lon="-5.78846487187">
        <ele>1838.01</ele>
        <time>2012-12-20T13:29:02+01:00</time>
      </trkpt>
      <trkpt lat="42.9680700778" lon="-5.78844333519">
        <ele>1837.16</ele>
        <time>2012-12-20T13:29:09+01:00</time>
      </trkpt>
      <trkpt lat="42.96807982675" lon="-5.78839453169">
        <ele>1836.71</ele>
        <time>2012-12-20T13:29:21+01:00</time>
      </trkpt>
      <trkpt lat="42.96808790176" lon="-5.78836712661">
        <ele>1836.33</ele>
        <time>2012-12-20T13:29:22+01:00</time>
      </trkpt>
      <trkpt lat="42.96809978949" lon="-5.78831222808">
        <ele>1836.1</ele>
        <time>2012-12-20T13:29:24+01:00</time>
      </trkpt>
      <trkpt lat="42.96811142631" lon="-5.78826011808">
        <ele>1835.96</ele>
        <time>2012-12-20T13:29:24+01:00</time>
      </trkpt>
      <trkpt lat="42.96812763969" lon="-5.78819712224">
        <ele>1835.54</ele>
        <time>2012-12-20T13:29:25+01:00</time>
      </trkpt>
      <trkpt lat="42.96815245795" lon="-5.78803662916">
        <ele>1835.45</ele>
        <time>2012-12-20T13:29:26+01:00</time>
      </trkpt>
      <trkpt lat="42.96816871209" lon="-5.78796959065">
        <ele>1835.24</ele>
        <time>2012-12-20T13:29:27+01:00</time>
      </trkpt>
      <trkpt lat="42.96817372714" lon="-5.78786051232">
        <ele>1834.85</ele>
        <time>2012-12-20T13:29:29+01:00</time>
      </trkpt>
      <trkpt lat="42.96818651108" lon="-5.78777698867">
        <ele>1834.28</ele>
        <time>2012-12-20T13:29:29+01:00</time>
      </trkpt>
      <trkpt lat="42.96816368747" lon="-5.78769034534">
        <ele>1835.02</ele>
        <time>2012-12-20T13:29:30+01:00</time>
      </trkpt>
      <trkpt lat="42.96816103382" lon="-5.78758081573">
        <ele>1834.63</ele>
        <time>2012-12-20T13:29:31+01:00</time>
      </trkpt>
      <trkpt lat="42.96817300889" lon="-5.78746704416">
        <ele>1834.66</ele>
        <time>2012-12-20T13:29:33+01:00</time>
      </trkpt>
      <trkpt lat="42.96817746039" lon="-5.78739645441">
        <ele>1834.62</ele>
        <time>2012-12-20T13:29:33+01:00</time>
      </trkpt>
      <trkpt lat="42.96818460905" lon="-5.78721559517">
        <ele>1834.31</ele>
        <time>2012-12-20T13:29:35+01:00</time>
      </trkpt>
      <trkpt lat="42.96818696946" lon="-5.78712995585">
        <ele>1834</ele>
        <time>2012-12-20T13:29:35+01:00</time>
      </trkpt>
      <trkpt lat="42.96817309982" lon="-5.78695797819">
        <ele>1834.23</ele>
        <time>2012-12-20T13:29:36+01:00</time>
      </trkpt>
      <trkpt lat="42.96815543963" lon="-5.78681455086">
        <ele>1834.2</ele>
        <time>2012-12-20T13:29:37+01:00</time>
      </trkpt>
      <trkpt lat="42.96813779247" lon="-5.78669326212">
        <ele>1833.77</ele>
        <time>2012-12-20T13:29:38+01:00</time>
      </trkpt>
      <trkpt lat="42.96813436362" lon="-5.78655755859">
        <ele>1833.04</ele>
        <time>2012-12-20T13:29:39+01:00</time>
      </trkpt>
      <trkpt lat="42.96814913217" lon="-5.78644562864">
        <ele>1832.71</ele>
        <time>2012-12-20T13:29:41+01:00</time>
      </trkpt>
      <trkpt lat="42.96814110395" lon="-5.78634828644">
        <ele>1832.24</ele>
        <time>2012-12-20T13:29:41+01:00</time>
      </trkpt>
      <trkpt lat="42.96812717507" lon="-5.78625255389">
        <ele>1831.71</ele>
        <time>2012-12-20T13:29:43+01:00</time>
      </trkpt>
      <trkpt lat="42.96811232474" lon="-5.78617806199">
        <ele>1831.4</ele>
        <time>2012-12-20T13:29:43+01:00</time>
      </trkpt>
      <trkpt lat="42.9681634113" lon="-5.78606127168">
        <ele>1829.98</ele>
        <time>2012-12-20T13:29:45+01:00</time>
      </trkpt>
      <trkpt lat="42.96819032129" lon="-5.78598826227">
        <ele>1829.07</ele>
        <time>2012-12-20T13:29:46+01:00</time>
      </trkpt>
      <trkpt lat="42.96821134351" lon="-5.78592777815">
        <ele>1828.19</ele>
        <time>2012-12-20T13:29:46+01:00</time>
      </trkpt>
      <trkpt lat="42.96824018819" lon="-5.78589328994">
        <ele>1827.33</ele>
        <time>2012-12-20T13:29:48+01:00</time>
      </trkpt>
      <trkpt lat="42.96826313894" lon="-5.78586517318">
        <ele>1826.13</ele>
        <time>2012-12-20T13:29:48+01:00</time>
      </trkpt>
      <trkpt lat="42.96828059687" lon="-5.78582652887">
        <ele>1824.9</ele>
        <time>2012-12-20T13:29:51+01:00</time>
      </trkpt>
      <trkpt lat="42.96829573276" lon="-5.78576435153">
        <ele>1823.49</ele>
        <time>2012-12-20T13:29:53+01:00</time>
      </trkpt>
      <trkpt lat="42.96830468894" lon="-5.78573247196">
        <ele>1822.13</ele>
        <time>2012-12-20T13:29:53+01:00</time>
      </trkpt>
      <trkpt lat="42.96831663904" lon="-5.78568043143">
        <ele>1820.51</ele>
        <time>2012-12-20T13:29:55+01:00</time>
      </trkpt>
      <trkpt lat="42.96832992673" lon="-5.78561712332">
        <ele>1819.35</ele>
        <time>2012-12-20T13:29:57+01:00</time>
      </trkpt>
      <trkpt lat="42.9683400262" lon="-5.7855802482">
        <ele>1817.96</ele>
        <time>2012-12-20T13:29:57+01:00</time>
      </trkpt>
      <trkpt lat="42.96835798951" lon="-5.78554336062">
        <ele>1816.69</ele>
        <time>2012-12-20T13:29:58+01:00</time>
      </trkpt>
      <trkpt lat="42.96837779174" lon="-5.7855115162">
        <ele>1815.2</ele>
        <time>2012-12-20T13:29:59+01:00</time>
      </trkpt>
      <trkpt lat="42.9683935539" lon="-5.78546860222">
        <ele>1814.4</ele>
        <time>2012-12-20T13:30:00+01:00</time>
      </trkpt>
      <trkpt lat="42.96841267816" lon="-5.78542575424">
        <ele>1812.91</ele>
        <time>2012-12-20T13:30:01+01:00</time>
      </trkpt>
      <trkpt lat="42.96842413338" lon="-5.7853836">
        <ele>1811.78</ele>
        <time>2012-12-20T13:30:02+01:00</time>
      </trkpt>
      <trkpt lat="42.96842727799" lon="-5.78533887484">
        <ele>1810.8</ele>
        <time>2012-12-20T13:30:03+01:00</time>
      </trkpt>
      <trkpt lat="42.96842443944" lon="-5.78529694601">
        <ele>1809.76</ele>
        <time>2012-12-20T13:30:04+01:00</time>
      </trkpt>
      <trkpt lat="42.96844563115" lon="-5.78513440028">
        <ele>1808.19</ele>
        <time>2012-12-20T13:30:06+01:00</time>
      </trkpt>
      <trkpt lat="42.96845238406" lon="-5.78504261432">
        <ele>1806.88</ele>
        <time>2012-12-20T13:30:07+01:00</time>
      </trkpt>
      <trkpt lat="42.96844816906" lon="-5.78495217276">
        <ele>1805.84</ele>
        <time>2012-12-20T13:30:08+01:00</time>
      </trkpt>
      <trkpt lat="42.96845037708" lon="-5.78485663566">
        <ele>1804.47</ele>
        <time>2012-12-20T13:30:08+01:00</time>
      </trkpt>
      <trkpt lat="42.96840646165" lon="-5.78479461289">
        <ele>1802.45</ele>
        <time>2012-12-20T13:30:10+01:00</time>
      </trkpt>
      <trkpt lat="42.96836160285" lon="-5.78472601606">
        <ele>1800.83</ele>
        <time>2012-12-20T13:30:11+01:00</time>
      </trkpt>
      <trkpt lat="42.96831508016" lon="-5.7846655592">
        <ele>1799.49</ele>
        <time>2012-12-20T13:30:11+01:00</time>
      </trkpt>
      <trkpt lat="42.96831301759" lon="-5.78457266629">
        <ele>1798.14</ele>
        <time>2012-12-20T13:30:13+01:00</time>
      </trkpt>
      <trkpt lat="42.96830534178" lon="-5.78451667249">
        <ele>1796.82</ele>
        <time>2012-12-20T13:30:13+01:00</time>
      </trkpt>
      <trkpt lat="42.96832537135" lon="-5.78442970891">
        <ele>1796.78</ele>
        <time>2012-12-20T13:30:15+01:00</time>
      </trkpt>
      <trkpt lat="42.96840629704" lon="-5.78433208002">
        <ele>1795.68</ele>
        <time>2012-12-20T13:30:16+01:00</time>
      </trkpt>
      <trkpt lat="42.96846660403" lon="-5.78421239659">
        <ele>1794.71</ele>
        <time>2012-12-20T13:30:17+01:00</time>
      </trkpt>
      <trkpt lat="42.96848816608" lon="-5.7840562468">
        <ele>1793.82</ele>
        <time>2012-12-20T13:30:18+01:00</time>
      </trkpt>
      <trkpt lat="42.96849073284" lon="-5.78390420161">
        <ele>1793.06</ele>
        <time>2012-12-20T13:30:18+01:00</time>
      </trkpt>
      <trkpt lat="42.96849125355" lon="-5.78387520887">
        <ele>1792.21</ele>
        <time>2012-12-20T13:30:19+01:00</time>
      </trkpt>
      <trkpt lat="42.96847494699" lon="-5.78368862465">
        <ele>1790.68</ele>
        <time>2012-12-20T13:30:20+01:00</time>
      </trkpt>
      <trkpt lat="42.96845560387" lon="-5.78353749741">
        <ele>1789.56</ele>
        <time>2012-12-20T13:30:22+01:00</time>
      </trkpt>
      <trkpt lat="42.96845255895" lon="-5.78351106912">
        <ele>1788.49</ele>
        <time>2012-12-20T13:30:22+01:00</time>
      </trkpt>
      <trkpt lat="42.96845083693" lon="-5.78347476947">
        <ele>1787.49</ele>
        <time>2012-12-20T13:30:23+01:00</time>
      </trkpt>
      <trkpt lat="42.96846764681" lon="-5.78317098228">
        <ele>1785.67</ele>
        <time>2012-12-20T13:30:24+01:00</time>
      </trkpt>
      <trkpt lat="42.96848644531" lon="-5.78292382836">
        <ele>1784.28</ele>
        <time>2012-12-20T13:30:25+01:00</time>
      </trkpt>
      <trkpt lat="42.9684908062" lon="-5.78287948255">
        <ele>1782.88</ele>
        <time>2012-12-20T13:30:26+01:00</time>
      </trkpt>
      <trkpt lat="42.96849931591" lon="-5.78282153346">
        <ele>1781.67</ele>
        <time>2012-12-20T13:30:28+01:00</time>
      </trkpt>
      <trkpt lat="42.96850616998" lon="-5.78275437568">
        <ele>1780.28</ele>
        <time>2012-12-20T13:30:29+01:00</time>
      </trkpt>
      <trkpt lat="42.9685112029" lon="-5.78267719501">
        <ele>1778.99</ele>
        <time>2012-12-20T13:30:29+01:00</time>
      </trkpt>
      <trkpt lat="42.96851096741" lon="-5.78259572953">
        <ele>1777.67</ele>
        <time>2012-12-20T13:30:30+01:00</time>
      </trkpt>
      <trkpt lat="42.96851057227" lon="-5.78255109049">
        <ele>1776.4</ele>
        <time>2012-12-20T13:30:32+01:00</time>
      </trkpt>
      <trkpt lat="42.96859262812" lon="-5.78200238072">
        <ele>1776.67</ele>
        <time>2012-12-20T13:30:33+01:00</time>
      </trkpt>
      <trkpt lat="42.96866938392" lon="-5.78163947102">
        <ele>1775.91</ele>
        <time>2012-12-20T13:30:34+01:00</time>
      </trkpt>
      <trkpt lat="42.96868225208" lon="-5.78158524278">
        <ele>1775.15</ele>
        <time>2012-12-20T13:30:34+01:00</time>
      </trkpt>
      <trkpt lat="42.96868822507" lon="-5.78155335503">
        <ele>1774.48</ele>
        <time>2012-12-20T13:30:35+01:00</time>
      </trkpt>
      <trkpt lat="42.96869636158" lon="-5.78150268107">
        <ele>1773.89</ele>
        <time>2012-12-20T13:30:37+01:00</time>
      </trkpt>
      <trkpt lat="42.9687130573" lon="-5.78138401249">
        <ele>1773.79</ele>
        <time>2012-12-20T13:30:38+01:00</time>
      </trkpt>
      <trkpt lat="42.96872137503" lon="-5.78132016358">
        <ele>1773.27</ele>
        <time>2012-12-20T13:30:39+01:00</time>
      </trkpt>
      <trkpt lat="42.96873055512" lon="-5.7812492351">
        <ele>1772.75</ele>
        <time>2012-12-20T13:30:40+01:00</time>
      </trkpt>
      <trkpt lat="42.96874398473" lon="-5.78117179895">
        <ele>1772.16</ele>
        <time>2012-12-20T13:30:41+01:00</time>
      </trkpt>
      <trkpt lat="42.96877827267" lon="-5.78100060581">
        <ele>1771.67</ele>
        <time>2012-12-20T13:30:42+01:00</time>
      </trkpt>
      <trkpt lat="42.96881517516" lon="-5.78082457979">
        <ele>1771.14</ele>
        <time>2012-12-20T13:30:43+01:00</time>
      </trkpt>
      <trkpt lat="42.96901625178" lon="-5.77992865282">
        <ele>1770.53</ele>
        <time>2012-12-20T13:30:44+01:00</time>
      </trkpt>
      <trkpt lat="42.96904255786" lon="-5.77982229632">
        <ele>1769.92</ele>
        <time>2012-12-20T13:30:45+01:00</time>
      </trkpt>
      <trkpt lat="42.96907256166" lon="-5.7797107169">
        <ele>1769.98</ele>
        <time>2012-12-20T13:30:46+01:00</time>
      </trkpt>
      <trkpt lat="42.96910917075" lon="-5.77959836798">
        <ele>1769.63</ele>
        <time>2012-12-20T13:30:47+01:00</time>
      </trkpt>
      <trkpt lat="42.96915641846" lon="-5.77948190669">
        <ele>1769.22</ele>
        <time>2012-12-20T13:30:48+01:00</time>
      </trkpt>
      <trkpt lat="42.96921136757" lon="-5.77936166044">
        <ele>1768.85</ele>
        <time>2012-12-20T13:30:49+01:00</time>
      </trkpt>
      <trkpt lat="42.96927092196" lon="-5.77923902194">
        <ele>1768.51</ele>
        <time>2012-12-20T13:30:50+01:00</time>
      </trkpt>
      <trkpt lat="42.96933517431" lon="-5.7791162337">
        <ele>1768.08</ele>
        <time>2012-12-20T13:30:51+01:00</time>
      </trkpt>
      <trkpt lat="42.96940441338" lon="-5.77899688975">
        <ele>1767.63</ele>
        <time>2012-12-20T13:30:52+01:00</time>
      </trkpt>
      <trkpt lat="42.96947955286" lon="-5.77888134137">
        <ele>1767.19</ele>
        <time>2012-12-20T13:30:53+01:00</time>
      </trkpt>
      <trkpt lat="42.96955929863" lon="-5.77876927606">
        <ele>1766.74</ele>
        <time>2012-12-20T13:30:54+01:00</time>
      </trkpt>
      <trkpt lat="42.96964261169" lon="-5.77865999346">
        <ele>1766.25</ele>
        <time>2012-12-20T13:30:55+01:00</time>
      </trkpt>
      <trkpt lat="42.96972953348" lon="-5.77855815225">
        <ele>1765.75</ele>
        <time>2012-12-20T13:30:56+01:00</time>
      </trkpt>
      <trkpt lat="42.96981935944" lon="-5.77846459247">
        <ele>1765.23</ele>
        <time>2012-12-20T13:30:57+01:00</time>
      </trkpt>
      <trkpt lat="42.96991203387" lon="-5.77837703591">
        <ele>1764.7</ele>
        <time>2012-12-20T13:30:58+01:00</time>
      </trkpt>
      <trkpt lat="42.97000675223" lon="-5.77829587969">
        <ele>1764.14</ele>
        <time>2012-12-20T13:30:59+01:00</time>
      </trkpt>
      <trkpt lat="42.97010300001" lon="-5.77822147284">
        <ele>1763.58</ele>
        <time>2012-12-20T13:31:00+01:00</time>
      </trkpt>
      <trkpt lat="42.9705938244" lon="-5.7778905396">
        <ele>1761.75</ele>
        <time>2012-12-20T13:31:01+01:00</time>
      </trkpt>
      <trkpt lat="42.97089248263" lon="-5.77772926393">
        <ele>1760.64</ele>
        <time>2012-12-20T13:31:02+01:00</time>
      </trkpt>
      <trkpt lat="42.97093050404" lon="-5.77771807331">
        <ele>1756.96</ele>
        <time>2012-12-20T13:31:03+01:00</time>
      </trkpt>
      <trkpt lat="42.97108605198" lon="-5.77770304521">
        <ele>1754.76</ele>
        <time>2012-12-20T13:31:04+01:00</time>
      </trkpt>
      <trkpt lat="42.97115925781" lon="-5.77772897496">
        <ele>1752.5</ele>
        <time>2012-12-20T13:31:05+01:00</time>
      </trkpt>
      <trkpt lat="42.97118534144" lon="-5.77777886212">
        <ele>1742.32</ele>
        <time>2012-12-20T13:31:06+01:00</time>
      </trkpt>
      <trkpt lat="42.97118897457" lon="-5.77784286537">
        <ele>1737.44</ele>
        <time>2012-12-20T13:31:07+01:00</time>
      </trkpt>
      <trkpt lat="42.97118056521" lon="-5.77791220837">
        <ele>1732.99</ele>
        <time>2012-12-20T13:31:08+01:00</time>
      </trkpt>
      <trkpt lat="42.97116525466" lon="-5.77799557774">
        <ele>1728.24</ele>
        <time>2012-12-20T13:31:09+01:00</time>
      </trkpt>
      <trkpt lat="42.97115750986" lon="-5.77806291736">
        <ele>1713.62</ele>
        <time>2012-12-20T13:31:24+01:00</time>
      </trkpt>
      <trkpt lat="42.97113764979" lon="-5.77807930728">
        <ele>1706.44</ele>
        <time>2012-12-20T13:31:31+01:00</time>
      </trkpt>
      <trkpt lat="42.97111040347" lon="-5.77806956594">
        <ele>1707.79</ele>
        <time>2012-12-20T13:31:36+01:00</time>
      </trkpt>
      <trkpt lat="42.9710735053" lon="-5.77806252147">
        <ele>1702.91</ele>
        <time>2012-12-20T13:31:37+01:00</time>
      </trkpt>
      <trkpt lat="42.97105430852" lon="-5.77806537086">
        <ele>1697.41</ele>
        <time>2012-12-20T13:31:41+01:00</time>
      </trkpt>
      <trkpt lat="42.9710563184" lon="-5.7781161313">
        <ele>1693.21</ele>
        <time>2012-12-20T13:31:51+01:00</time>
      </trkpt>
      <trkpt lat="42.97106396234" lon="-5.7781527702">
        <ele>1690.43</ele>
        <time>2012-12-20T13:31:56+01:00</time>
      </trkpt>
      <trkpt lat="42.97104564278" lon="-5.77820582964">
        <ele>1686.5</ele>
        <time>2012-12-20T13:31:58+01:00</time>
      </trkpt>
      <trkpt lat="42.97103195411" lon="-5.77824728694">
        <ele>1682.75</ele>
        <time>2012-12-20T13:31:58+01:00</time>
      </trkpt>
      <trkpt lat="42.97101741466" lon="-5.77827884656">
        <ele>1679.1</ele>
        <time>2012-12-20T13:31:59+01:00</time>
      </trkpt>
      <trkpt lat="42.97099727357" lon="-5.77832793972">
        <ele>1675.77</ele>
        <time>2012-12-20T13:32:01+01:00</time>
      </trkpt>
      <trkpt lat="42.9709797002" lon="-5.77836639093">
        <ele>1672.58</ele>
        <time>2012-12-20T13:32:04+01:00</time>
      </trkpt>
      <trkpt lat="42.9709767882" lon="-5.77837176109">
        <ele>1669.67</ele>
        <time>2012-12-20T13:32:05+01:00</time>
      </trkpt>
      <trkpt lat="42.97095379358" lon="-5.77841717494">
        <ele>1667</ele>
        <time>2012-12-20T13:32:07+01:00</time>
      </trkpt>
      <trkpt lat="42.97091705827" lon="-5.77848542431">
        <ele>1664.78</ele>
        <time>2012-12-20T13:32:09+01:00</time>
      </trkpt>
      <trkpt lat="42.97089596489" lon="-5.77852951726">
        <ele>1658.28</ele>
        <time>2012-12-20T13:32:11+01:00</time>
      </trkpt>
      <trkpt lat="42.97087692701" lon="-5.77857508211">
        <ele>1655.49</ele>
        <time>2012-12-20T13:32:13+01:00</time>
      </trkpt>
      <trkpt lat="42.97086450284" lon="-5.77861363232">
        <ele>1652.8</ele>
        <time>2012-12-20T13:32:15+01:00</time>
      </trkpt>
      <trkpt lat="42.97085279791" lon="-5.77865225482">
        <ele>1650.26</ele>
        <time>2012-12-20T13:32:17+01:00</time>
      </trkpt>
      <trkpt lat="42.97084056628" lon="-5.77869343988">
        <ele>1647.57</ele>
        <time>2012-12-20T13:32:19+01:00</time>
      </trkpt>
      <trkpt lat="42.97083215203" lon="-5.77873694794">
        <ele>1645.7</ele>
        <time>2012-12-20T13:32:21+01:00</time>
      </trkpt>
      <trkpt lat="42.97082510477" lon="-5.77878105471">
        <ele>1644.21</ele>
        <time>2012-12-20T13:32:23+01:00</time>
      </trkpt>
      <trkpt lat="42.97081444169" lon="-5.77883064564">
        <ele>1642.7</ele>
        <time>2012-12-20T13:32:25+01:00</time>
      </trkpt>
      <trkpt lat="42.97080010503" lon="-5.77887784654">
        <ele>1641.48</ele>
        <time>2012-12-20T13:32:27+01:00</time>
      </trkpt>
      <trkpt lat="42.97078228219" lon="-5.77893976398">
        <ele>1640.6</ele>
        <time>2012-12-20T13:32:29+01:00</time>
      </trkpt>
      <trkpt lat="42.97076511074" lon="-5.77899416005">
        <ele>1640.15</ele>
        <time>2012-12-20T13:32:31+01:00</time>
      </trkpt>
      <trkpt lat="42.97074830616" lon="-5.77904576718">
        <ele>1639.6</ele>
        <time>2012-12-20T13:32:33+01:00</time>
      </trkpt>
      <trkpt lat="42.97073221722" lon="-5.77909445512">
        <ele>1639.17</ele>
        <time>2012-12-20T13:32:35+01:00</time>
      </trkpt>
      <trkpt lat="42.97071601124" lon="-5.77914224764">
        <ele>1638.99</ele>
        <time>2012-12-20T13:32:37+01:00</time>
      </trkpt>
      <trkpt lat="42.97070488556" lon="-5.77917614562">
        <ele>1638.88</ele>
        <time>2012-12-20T13:32:38+01:00</time>
      </trkpt>
      <trkpt lat="42.97069330189" lon="-5.77920671847">
        <ele>1638.93</ele>
        <time>2012-12-20T13:32:40+01:00</time>
      </trkpt>
      <trkpt lat="42.97067951871" lon="-5.7792449525">
        <ele>1638.9</ele>
        <time>2012-12-20T13:32:40+01:00</time>
      </trkpt>
      <trkpt lat="42.97068138888" lon="-5.77927908612">
        <ele>1638.61</ele>
        <time>2012-12-20T13:32:41+01:00</time>
      </trkpt>
      <trkpt lat="42.97067354865" lon="-5.77931394192">
        <ele>1638.54</ele>
        <time>2012-12-20T13:32:42+01:00</time>
      </trkpt>
      <trkpt lat="42.97065652438" lon="-5.77934237076">
        <ele>1638.48</ele>
        <time>2012-12-20T13:32:43+01:00</time>
      </trkpt>
      <trkpt lat="42.97065938919" lon="-5.77937367162">
        <ele>1638.36</ele>
        <time>2012-12-20T13:32:45+01:00</time>
      </trkpt>
      <trkpt lat="42.97064755693" lon="-5.77941842149">
        <ele>1638.29</ele>
        <time>2012-12-20T13:32:46+01:00</time>
      </trkpt>
      <trkpt lat="42.97063536689" lon="-5.77947001859">
        <ele>1637.5</ele>
        <time>2012-12-20T13:32:55+01:00</time>
      </trkpt>
      <trkpt lat="42.97062692744" lon="-5.77950454495">
        <ele>1637.44</ele>
        <time>2012-12-20T13:32:56+01:00</time>
      </trkpt>
      <trkpt lat="42.97061538243" lon="-5.77953961341">
        <ele>1637.42</ele>
        <time>2012-12-20T13:32:57+01:00</time>
      </trkpt>
      <trkpt lat="42.97060039999" lon="-5.77958008766">
        <ele>1637.3</ele>
        <time>2012-12-20T13:32:58+01:00</time>
      </trkpt>
      <trkpt lat="42.97057990209" lon="-5.7796181562">
        <ele>1636.82</ele>
        <time>2012-12-20T13:33:00+01:00</time>
      </trkpt>
      <trkpt lat="42.97056118447" lon="-5.77965936457">
        <ele>1637.2</ele>
        <time>2012-12-20T13:33:02+01:00</time>
      </trkpt>
      <trkpt lat="42.97054449929" lon="-5.77970160325">
        <ele>1637.35</ele>
        <time>2012-12-20T13:33:04+01:00</time>
      </trkpt>
      <trkpt lat="42.97053660917" lon="-5.7797329508">
        <ele>1637.54</ele>
        <time>2012-12-20T13:33:06+01:00</time>
      </trkpt>
      <trkpt lat="42.9705219487" lon="-5.77978263811">
        <ele>1637.74</ele>
        <time>2012-12-20T13:33:07+01:00</time>
      </trkpt>
      <trkpt lat="42.97051157348" lon="-5.77981752012">
        <ele>1638.04</ele>
        <time>2012-12-20T13:33:08+01:00</time>
      </trkpt>
      <trkpt lat="42.97050192119" lon="-5.77984910579">
        <ele>1638.44</ele>
        <time>2012-12-20T13:33:09+01:00</time>
      </trkpt>
      <trkpt lat="42.97049251408" lon="-5.77987848992">
        <ele>1638.91</ele>
        <time>2012-12-20T13:33:10+01:00</time>
      </trkpt>
      <trkpt lat="42.970477691" lon="-5.77992406344">
        <ele>1639.48</ele>
        <time>2012-12-20T13:33:12+01:00</time>
      </trkpt>
      <trkpt lat="42.97046883922" lon="-5.77995130162">
        <ele>1640.21</ele>
        <time>2012-12-20T13:33:14+01:00</time>
      </trkpt>
      <trkpt lat="42.97045216891" lon="-5.78000252941">
        <ele>1641.01</ele>
        <time>2012-12-20T13:33:15+01:00</time>
      </trkpt>
      <trkpt lat="42.97043760309" lon="-5.78004201104">
        <ele>1641.69</ele>
        <time>2012-12-20T13:33:16+01:00</time>
      </trkpt>
      <trkpt lat="42.97042161416" lon="-5.78008263032">
        <ele>1642.53</ele>
        <time>2012-12-20T13:33:17+01:00</time>
      </trkpt>
      <trkpt lat="42.9704055753" lon="-5.78012153252">
        <ele>1643.24</ele>
        <time>2012-12-20T13:33:18+01:00</time>
      </trkpt>
      <trkpt lat="42.97039594291" lon="-5.78014563177">
        <ele>1643.93</ele>
        <time>2012-12-20T13:33:19+01:00</time>
      </trkpt>
      <trkpt lat="42.97037388718" lon="-5.78019957871">
        <ele>1644.36</ele>
        <time>2012-12-20T13:33:21+01:00</time>
      </trkpt>
      <trkpt lat="42.97036905569" lon="-5.78022522327">
        <ele>1644.91</ele>
        <time>2012-12-20T13:33:25+01:00</time>
      </trkpt>
      <trkpt lat="42.970362449" lon="-5.78025589901">
        <ele>1644.86</ele>
        <time>2012-12-20T13:33:28+01:00</time>
      </trkpt>
      <trkpt lat="42.97035591862" lon="-5.7802885455">
        <ele>1646.15</ele>
        <time>2012-12-20T13:33:30+01:00</time>
      </trkpt>
      <trkpt lat="42.97034892348" lon="-5.78033034974">
        <ele>1645.95</ele>
        <time>2012-12-20T13:33:32+01:00</time>
      </trkpt>
      <trkpt lat="42.97033957953" lon="-5.78037237425">
        <ele>1647.57</ele>
        <time>2012-12-20T13:33:33+01:00</time>
      </trkpt>
      <trkpt lat="42.97032016855" lon="-5.78044213663">
        <ele>1648.66</ele>
        <time>2012-12-20T13:33:34+01:00</time>
      </trkpt>
      <trkpt lat="42.97030431699" lon="-5.7804906896">
        <ele>1649.62</ele>
        <time>2012-12-20T13:33:35+01:00</time>
      </trkpt>
      <trkpt lat="42.97029078665" lon="-5.78053674413">
        <ele>1650.58</ele>
        <time>2012-12-20T13:33:36+01:00</time>
      </trkpt>
      <trkpt lat="42.97027701647" lon="-5.78058055553">
        <ele>1651.6</ele>
        <time>2012-12-20T13:33:37+01:00</time>
      </trkpt>
      <trkpt lat="42.97026279599" lon="-5.78062076671">
        <ele>1652.43</ele>
        <time>2012-12-20T13:33:38+01:00</time>
      </trkpt>
      <trkpt lat="42.97025053063" lon="-5.78065536282">
        <ele>1653.25</ele>
        <time>2012-12-20T13:33:39+01:00</time>
      </trkpt>
      <trkpt lat="42.97023895805" lon="-5.78068762891">
        <ele>1654</ele>
        <time>2012-12-20T13:33:40+01:00</time>
      </trkpt>
      <trkpt lat="42.97022708817" lon="-5.78071895962">
        <ele>1654.71</ele>
        <time>2012-12-20T13:33:41+01:00</time>
      </trkpt>
      <trkpt lat="42.97021670109" lon="-5.78075157846">
        <ele>1655.37</ele>
        <time>2012-12-20T13:33:42+01:00</time>
      </trkpt>
      <trkpt lat="42.97020942689" lon="-5.78078438788">
        <ele>1656.2</ele>
        <time>2012-12-20T13:33:43+01:00</time>
      </trkpt>
      <trkpt lat="42.97018748668" lon="-5.78085478634">
        <ele>1657.28</ele>
        <time>2012-12-20T13:33:44+01:00</time>
      </trkpt>
      <trkpt lat="42.97017293977" lon="-5.78088945199">
        <ele>1658.15</ele>
        <time>2012-12-20T13:33:45+01:00</time>
      </trkpt>
      <trkpt lat="42.97015792692" lon="-5.78092146377">
        <ele>1659.04</ele>
        <time>2012-12-20T13:33:46+01:00</time>
      </trkpt>
      <trkpt lat="42.97013661828" lon="-5.78096139374">
        <ele>1659.96</ele>
        <time>2012-12-20T13:33:48+01:00</time>
      </trkpt>
      <trkpt lat="42.9701182079" lon="-5.78099318434">
        <ele>1660.82</ele>
        <time>2012-12-20T13:33:49+01:00</time>
      </trkpt>
      <trkpt lat="42.97011089841" lon="-5.78101849011">
        <ele>1661.76</ele>
        <time>2012-12-20T13:33:52+01:00</time>
      </trkpt>
      <trkpt lat="42.97010377677" lon="-5.78106522153">
        <ele>1662.72</ele>
        <time>2012-12-20T13:33:54+01:00</time>
      </trkpt>
      <trkpt lat="42.97008803616" lon="-5.78111399629">
        <ele>1663.64</ele>
        <time>2012-12-20T13:33:56+01:00</time>
      </trkpt>
      <trkpt lat="42.97006795659" lon="-5.78115868702">
        <ele>1664.51</ele>
        <time>2012-12-20T13:33:58+01:00</time>
      </trkpt>
      <trkpt lat="42.97005320906" lon="-5.7811838451">
        <ele>1665.38</ele>
        <time>2012-12-20T13:34:00+01:00</time>
      </trkpt>
      <trkpt lat="42.97003625898" lon="-5.78121670835">
        <ele>1666.39</ele>
        <time>2012-12-20T13:34:02+01:00</time>
      </trkpt>
      <trkpt lat="42.97001311001" lon="-5.78126546245">
        <ele>1667.42</ele>
        <time>2012-12-20T13:34:04+01:00</time>
      </trkpt>
      <trkpt lat="42.97000254583" lon="-5.78130397996">
        <ele>1668.36</ele>
        <time>2012-12-20T13:34:06+01:00</time>
      </trkpt>
      <trkpt lat="42.96999835428" lon="-5.78135500114">
        <ele>1669.33</ele>
        <time>2012-12-20T13:34:08+01:00</time>
      </trkpt>
      <trkpt lat="42.96998883232" lon="-5.7814053044">
        <ele>1670.3</ele>
        <time>2012-12-20T13:34:10+01:00</time>
      </trkpt>
      <trkpt lat="42.96998099354" lon="-5.7814570734">
        <ele>1671.32</ele>
        <time>2012-12-20T13:34:12+01:00</time>
      </trkpt>
      <trkpt lat="42.96997416195" lon="-5.78149532217">
        <ele>1672.23</ele>
        <time>2012-12-20T13:34:13+01:00</time>
      </trkpt>
      <trkpt lat="42.96996759885" lon="-5.78153079985">
        <ele>1673.22</ele>
        <time>2012-12-20T13:34:14+01:00</time>
      </trkpt>
      <trkpt lat="42.96995984893" lon="-5.78156867373">
        <ele>1674.11</ele>
        <time>2012-12-20T13:34:15+01:00</time>
      </trkpt>
      <trkpt lat="42.96995179459" lon="-5.78160494814">
        <ele>1675.02</ele>
        <time>2012-12-20T13:34:16+01:00</time>
      </trkpt>
      <trkpt lat="42.9699432435" lon="-5.78163748285">
        <ele>1675.94</ele>
        <time>2012-12-20T13:34:17+01:00</time>
      </trkpt>
      <trkpt lat="42.96992946335" lon="-5.78168670397">
        <ele>1676.79</ele>
        <time>2012-12-20T13:34:19+01:00</time>
      </trkpt>
      <trkpt lat="42.96991634728" lon="-5.78173416617">
        <ele>1677.9</ele>
        <time>2012-12-20T13:34:21+01:00</time>
      </trkpt>
      <trkpt lat="42.96989685968" lon="-5.78178798212">
        <ele>1678.79</ele>
        <time>2012-12-20T13:34:23+01:00</time>
      </trkpt>
      <trkpt lat="42.96988454673" lon="-5.7818230193">
        <ele>1679.72</ele>
        <time>2012-12-20T13:34:24+01:00</time>
      </trkpt>
      <trkpt lat="42.96987145589" lon="-5.78185503833">
        <ele>1680.61</ele>
        <time>2012-12-20T13:34:25+01:00</time>
      </trkpt>
      <trkpt lat="42.96986172986" lon="-5.78188672196">
        <ele>1681.31</ele>
        <time>2012-12-20T13:34:26+01:00</time>
      </trkpt>
      <trkpt lat="42.96985076573" lon="-5.78192115482">
        <ele>1682.35</ele>
        <time>2012-12-20T13:34:27+01:00</time>
      </trkpt>
      <trkpt lat="42.96983938634" lon="-5.78195533287">
        <ele>1683.09</ele>
        <time>2012-12-20T13:34:28+01:00</time>
      </trkpt>
      <trkpt lat="42.96982953322" lon="-5.78198570487">
        <ele>1683.83</ele>
        <time>2012-12-20T13:34:29+01:00</time>
      </trkpt>
      <trkpt lat="42.96982044355" lon="-5.7820143118">
        <ele>1684.68</ele>
        <time>2012-12-20T13:34:32+01:00</time>
      </trkpt>
      <trkpt lat="42.9698065948" lon="-5.7820503663">
        <ele>1685.55</ele>
        <time>2012-12-20T13:34:34+01:00</time>
      </trkpt>
      <trkpt lat="42.9697756004" lon="-5.78211146347">
        <ele>1686.83</ele>
        <time>2012-12-20T13:34:34+01:00</time>
      </trkpt>
      <trkpt lat="42.96975159835" lon="-5.78215352248">
        <ele>1687.75</ele>
        <time>2012-12-20T13:34:36+01:00</time>
      </trkpt>
      <trkpt lat="42.96971256625" lon="-5.78223489037">
        <ele>1688.74</ele>
        <time>2012-12-20T13:34:38+01:00</time>
      </trkpt>
      <trkpt lat="42.96969181817" lon="-5.78228569739">
        <ele>1689.65</ele>
        <time>2012-12-20T13:34:39+01:00</time>
      </trkpt>
      <trkpt lat="42.96967697325" lon="-5.78232087039">
        <ele>1690.43</ele>
        <time>2012-12-20T13:34:39+01:00</time>
      </trkpt>
      <trkpt lat="42.96966280604" lon="-5.78235875039">
        <ele>1691.11</ele>
        <time>2012-12-20T13:34:41+01:00</time>
      </trkpt>
      <trkpt lat="42.96966225052" lon="-5.7823833505">
        <ele>1691.95</ele>
        <time>2012-12-20T13:34:46+01:00</time>
      </trkpt>
      <trkpt lat="42.9696493999" lon="-5.78242037717">
        <ele>1693.06</ele>
        <time>2012-12-20T13:34:48+01:00</time>
      </trkpt>
      <trkpt lat="42.96963612238" lon="-5.78245724688">
        <ele>1694.05</ele>
        <time>2012-12-20T13:34:49+01:00</time>
      </trkpt>
      <trkpt lat="42.96962164655" lon="-5.78249676221">
        <ele>1694.94</ele>
        <time>2012-12-20T13:34:50+01:00</time>
      </trkpt>
      <trkpt lat="42.9696078917" lon="-5.78253370279">
        <ele>1695.91</ele>
        <time>2012-12-20T13:34:52+01:00</time>
      </trkpt>
      <trkpt lat="42.96959764056" lon="-5.78256897879">
        <ele>1696.76</ele>
        <time>2012-12-20T13:34:52+01:00</time>
      </trkpt>
      <trkpt lat="42.96958669038" lon="-5.78263810327">
        <ele>1697.67</ele>
        <time>2012-12-20T13:34:54+01:00</time>
      </trkpt>
      <trkpt lat="42.96958745078" lon="-5.78268833916">
        <ele>1698.46</ele>
        <time>2012-12-20T13:34:57+01:00</time>
      </trkpt>
      <trkpt lat="42.96958317721" lon="-5.7827376807">
        <ele>1699.11</ele>
        <time>2012-12-20T13:34:58+01:00</time>
      </trkpt>
      <trkpt lat="42.96957145955" lon="-5.78278060723">
        <ele>1699.76</ele>
        <time>2012-12-20T13:35:01+01:00</time>
      </trkpt>
      <trkpt lat="42.96956422099" lon="-5.78281541113">
        <ele>1699.95</ele>
        <time>2012-12-20T13:35:03+01:00</time>
      </trkpt>
      <trkpt lat="42.96957541319" lon="-5.78284315903">
        <ele>1700.7</ele>
        <time>2012-12-20T13:35:06+01:00</time>
      </trkpt>
      <trkpt lat="42.96957498915" lon="-5.78286464861">
        <ele>1701.55</ele>
        <time>2012-12-20T13:35:08+01:00</time>
      </trkpt>
      <trkpt lat="42.96957496572" lon="-5.78289894655">
        <ele>1702.2</ele>
        <time>2012-12-20T13:35:11+01:00</time>
      </trkpt>
      <trkpt lat="42.96956777207" lon="-5.78295951018">
        <ele>1702.86</ele>
        <time>2012-12-20T13:35:13+01:00</time>
      </trkpt>
      <trkpt lat="42.9695556045" lon="-5.78299106892">
        <ele>1703.53</ele>
        <time>2012-12-20T13:35:13+01:00</time>
      </trkpt>
      <trkpt lat="42.96954190571" lon="-5.78301736313">
        <ele>1704.14</ele>
        <time>2012-12-20T13:35:14+01:00</time>
      </trkpt>
      <trkpt lat="42.96951733948" lon="-5.78306305627">
        <ele>1704.79</ele>
        <time>2012-12-20T13:35:16+01:00</time>
      </trkpt>
      <trkpt lat="42.96949941752" lon="-5.78309707239">
        <ele>1705.47</ele>
        <time>2012-12-20T13:35:18+01:00</time>
      </trkpt>
      <trkpt lat="42.96948242208" lon="-5.78312922249">
        <ele>1706.09</ele>
        <time>2012-12-20T13:35:18+01:00</time>
      </trkpt>
      <trkpt lat="42.96946839474" lon="-5.78316234049">
        <ele>1706.66</ele>
        <time>2012-12-20T13:35:20+01:00</time>
      </trkpt>
      <trkpt lat="42.96945402225" lon="-5.78318955004">
        <ele>1707.3</ele>
        <time>2012-12-20T13:35:20+01:00</time>
      </trkpt>
      <trkpt lat="42.96943891017" lon="-5.78323328048">
        <ele>1708.05</ele>
        <time>2012-12-20T13:35:22+01:00</time>
      </trkpt>
      <trkpt lat="42.96944172156" lon="-5.78328051627">
        <ele>1708.43</ele>
        <time>2012-12-20T13:35:26+01:00</time>
      </trkpt>
      <trkpt lat="42.96943789172" lon="-5.78332188172">
        <ele>1709.16</ele>
        <time>2012-12-20T13:35:28+01:00</time>
      </trkpt>
      <trkpt lat="42.96942961556" lon="-5.78335456291">
        <ele>1709.87</ele>
        <time>2012-12-20T13:35:29+01:00</time>
      </trkpt>
      <trkpt lat="42.96941485104" lon="-5.78339107283">
        <ele>1710.59</ele>
        <time>2012-12-20T13:35:30+01:00</time>
      </trkpt>
      <trkpt lat="42.96939771595" lon="-5.78343223771">
        <ele>1711.32</ele>
        <time>2012-12-20T13:35:31+01:00</time>
      </trkpt>
      <trkpt lat="42.96938962291" lon="-5.78345511104">
        <ele>1712.03</ele>
        <time>2012-12-20T13:35:31+01:00</time>
      </trkpt>
      <trkpt lat="42.96936340072" lon="-5.78350546211">
        <ele>1712.88</ele>
        <time>2012-12-20T13:35:33+01:00</time>
      </trkpt>
      <trkpt lat="42.96934471171" lon="-5.78354597539">
        <ele>1713.71</ele>
        <time>2012-12-20T13:35:34+01:00</time>
      </trkpt>
      <trkpt lat="42.96933165323" lon="-5.78357868732">
        <ele>1714.46</ele>
        <time>2012-12-20T13:35:35+01:00</time>
      </trkpt>
      <trkpt lat="42.96931780979" lon="-5.78362935204">
        <ele>1715.18</ele>
        <time>2012-12-20T13:35:36+01:00</time>
      </trkpt>
      <trkpt lat="42.96931903088" lon="-5.78368260149">
        <ele>1715.85</ele>
        <time>2012-12-20T13:35:38+01:00</time>
      </trkpt>
      <trkpt lat="42.96931468182" lon="-5.78374206759">
        <ele>1716.65</ele>
        <time>2012-12-20T13:35:40+01:00</time>
      </trkpt>
      <trkpt lat="42.96930180912" lon="-5.78378319689">
        <ele>1717.79</ele>
        <time>2012-12-20T13:35:41+01:00</time>
      </trkpt>
      <trkpt lat="42.96928974361" lon="-5.78381071773">
        <ele>1718.65</ele>
        <time>2012-12-20T13:35:42+01:00</time>
      </trkpt>
      <trkpt lat="42.96925746006" lon="-5.78387605208">
        <ele>1719.79</ele>
        <time>2012-12-20T13:35:44+01:00</time>
      </trkpt>
      <trkpt lat="42.96924361779" lon="-5.78390613755">
        <ele>1720.87</ele>
        <time>2012-12-20T13:35:46+01:00</time>
      </trkpt>
      <trkpt lat="42.96922433335" lon="-5.78393387887">
        <ele>1721.88</ele>
        <time>2012-12-20T13:35:48+01:00</time>
      </trkpt>
      <trkpt lat="42.96922038487" lon="-5.78394038295">
        <ele>1723.08</ele>
        <time>2012-12-20T13:35:50+01:00</time>
      </trkpt>
      <trkpt lat="42.96918756367" lon="-5.78402322097">
        <ele>1723.97</ele>
        <time>2012-12-20T13:35:53+01:00</time>
      </trkpt>
      <trkpt lat="42.96917338867" lon="-5.78407338324">
        <ele>1725.06</ele>
        <time>2012-12-20T13:35:54+01:00</time>
      </trkpt>
      <trkpt lat="42.96916626213" lon="-5.78411023779">
        <ele>1726.17</ele>
        <time>2012-12-20T13:35:57+01:00</time>
      </trkpt>
      <trkpt lat="42.96915440973" lon="-5.78414563778">
        <ele>1727.38</ele>
        <time>2012-12-20T13:36:00+01:00</time>
      </trkpt>
      <trkpt lat="42.96914134395" lon="-5.78418363024">
        <ele>1728.45</ele>
        <time>2012-12-20T13:36:01+01:00</time>
      </trkpt>
      <trkpt lat="42.96912330809" lon="-5.78422844438">
        <ele>1730.13</ele>
        <time>2012-12-20T13:36:03+01:00</time>
      </trkpt>
      <trkpt lat="42.96910548521" lon="-5.78427871323">
        <ele>1731.47</ele>
        <time>2012-12-20T13:36:05+01:00</time>
      </trkpt>
      <trkpt lat="42.96908846216" lon="-5.7843194442">
        <ele>1732.7</ele>
        <time>2012-12-20T13:36:07+01:00</time>
      </trkpt>
      <trkpt lat="42.96907025224" lon="-5.78436551069">
        <ele>1733.9</ele>
        <time>2012-12-20T13:36:08+01:00</time>
      </trkpt>
      <trkpt lat="42.96905631728" lon="-5.78440737988">
        <ele>1735.72</ele>
        <time>2012-12-20T13:36:10+01:00</time>
      </trkpt>
      <trkpt lat="42.96903881167" lon="-5.78445732796">
        <ele>1737.26</ele>
        <time>2012-12-20T13:36:11+01:00</time>
      </trkpt>
      <trkpt lat="42.96902800153" lon="-5.78449038457">
        <ele>1738.34</ele>
        <time>2012-12-20T13:36:12+01:00</time>
      </trkpt>
      <trkpt lat="42.96902359315" lon="-5.78453119406">
        <ele>1739.39</ele>
        <time>2012-12-20T13:36:14+01:00</time>
      </trkpt>
      <trkpt lat="42.96902083393" lon="-5.78456584277">
        <ele>1740.87</ele>
        <time>2012-12-20T13:36:15+01:00</time>
      </trkpt>
      <trkpt lat="42.96901716402" lon="-5.78460925055">
        <ele>1741.85</ele>
        <time>2012-12-20T13:36:17+01:00</time>
      </trkpt>
      <trkpt lat="42.96900650586" lon="-5.7846523985">
        <ele>1742.99</ele>
        <time>2012-12-20T13:36:20+01:00</time>
      </trkpt>
      <trkpt lat="42.9689963276" lon="-5.78469013005">
        <ele>1744.35</ele>
        <time>2012-12-20T13:36:21+01:00</time>
      </trkpt>
      <trkpt lat="42.9689750471" lon="-5.78474260337">
        <ele>1746.02</ele>
        <time>2012-12-20T13:36:23+01:00</time>
      </trkpt>
      <trkpt lat="42.96895412778" lon="-5.7847905819">
        <ele>1747.43</ele>
        <time>2012-12-20T13:36:25+01:00</time>
      </trkpt>
      <trkpt lat="42.96893492354" lon="-5.78482243994">
        <ele>1749.17</ele>
        <time>2012-12-20T13:36:26+01:00</time>
      </trkpt>
      <trkpt lat="42.96891606232" lon="-5.78485020217">
        <ele>1750.91</ele>
        <time>2012-12-20T13:36:27+01:00</time>
      </trkpt>
      <trkpt lat="42.96889646709" lon="-5.78490661436">
        <ele>1754.86</ele>
        <time>2012-12-20T13:36:30+01:00</time>
      </trkpt>
      <trkpt lat="42.96887993962" lon="-5.78494924676">
        <ele>1756.39</ele>
        <time>2012-12-20T13:36:31+01:00</time>
      </trkpt>
      <trkpt lat="42.96888022158" lon="-5.78498922214">
        <ele>1756.37</ele>
        <time>2012-12-20T13:36:34+01:00</time>
      </trkpt>
      <trkpt lat="42.96886867742" lon="-5.78503637746">
        <ele>1757.95</ele>
        <time>2012-12-20T13:36:35+01:00</time>
      </trkpt>
      <trkpt lat="42.96884250588" lon="-5.78507361672">
        <ele>1762.38</ele>
        <time>2012-12-20T13:36:38+01:00</time>
      </trkpt>
      <trkpt lat="42.96882341571" lon="-5.78511286848">
        <ele>1764.27</ele>
        <time>2012-12-20T13:36:40+01:00</time>
      </trkpt>
      <trkpt lat="42.96880146814" lon="-5.78515670295">
        <ele>1765.9</ele>
        <time>2012-12-20T13:36:42+01:00</time>
      </trkpt>
      <trkpt lat="42.96881131896" lon="-5.78518869549">
        <ele>1765.06</ele>
        <time>2012-12-20T13:36:44+01:00</time>
      </trkpt>
      <trkpt lat="42.96880976873" lon="-5.78523412013">
        <ele>1766.61</ele>
        <time>2012-12-20T13:36:48+01:00</time>
      </trkpt>
      <trkpt lat="42.96879423714" lon="-5.78529000961">
        <ele>1769.86</ele>
        <time>2012-12-20T13:36:49+01:00</time>
      </trkpt>
      <trkpt lat="42.96878201132" lon="-5.78532827782">
        <ele>1771.35</ele>
        <time>2012-12-20T13:36:50+01:00</time>
      </trkpt>
      <trkpt lat="42.96877021195" lon="-5.78536215005">
        <ele>1772.94</ele>
        <time>2012-12-20T13:36:52+01:00</time>
      </trkpt>
      <trkpt lat="42.96876007367" lon="-5.78539239383">
        <ele>1774.71</ele>
        <time>2012-12-20T13:36:52+01:00</time>
      </trkpt>
      <trkpt lat="42.96874731717" lon="-5.78542224719">
        <ele>1776.84</ele>
        <time>2012-12-20T13:36:54+01:00</time>
      </trkpt>
      <trkpt lat="42.96873618281" lon="-5.78545101664">
        <ele>1778.33</ele>
        <time>2012-12-20T13:36:55+01:00</time>
      </trkpt>
      <trkpt lat="42.96871749388" lon="-5.78549666839">
        <ele>1779.81</ele>
        <time>2012-12-20T13:36:57+01:00</time>
      </trkpt>
      <trkpt lat="42.96869964096" lon="-5.78554241089">
        <ele>1779.88</ele>
        <time>2012-12-20T13:36:58+01:00</time>
      </trkpt>
      <trkpt lat="42.96868379928" lon="-5.7855870316">
        <ele>1781.2</ele>
        <time>2012-12-20T13:37:01+01:00</time>
      </trkpt>
      <trkpt lat="42.9686782358" lon="-5.78561524033">
        <ele>1782.34</ele>
        <time>2012-12-20T13:37:02+01:00</time>
      </trkpt>
      <trkpt lat="42.96866597309" lon="-5.78567804045">
        <ele>1783.15</ele>
        <time>2012-12-20T13:37:04+01:00</time>
      </trkpt>
      <trkpt lat="42.96865822318" lon="-5.78572218348">
        <ele>1786.18</ele>
        <time>2012-12-20T13:37:07+01:00</time>
      </trkpt>
      <trkpt lat="42.96864852599" lon="-5.7857561578">
        <ele>1787.59</ele>
        <time>2012-12-20T13:37:07+01:00</time>
      </trkpt>
      <trkpt lat="42.9686385064" lon="-5.78579936365">
        <ele>1789.33</ele>
        <time>2012-12-20T13:37:10+01:00</time>
      </trkpt>
      <trkpt lat="42.96863015029" lon="-5.78583154456">
        <ele>1789.26</ele>
        <time>2012-12-20T13:37:11+01:00</time>
      </trkpt>
      <trkpt lat="42.96860794211" lon="-5.78586862162">
        <ele>1792.64</ele>
        <time>2012-12-20T13:37:12+01:00</time>
      </trkpt>
      <trkpt lat="42.96858302987" lon="-5.785907516">
        <ele>1794.16</ele>
        <time>2012-12-20T13:37:15+01:00</time>
      </trkpt>
      <trkpt lat="42.96856961723" lon="-5.78594416562">
        <ele>1795.77</ele>
        <time>2012-12-20T13:37:17+01:00</time>
      </trkpt>
      <trkpt lat="42.96855835163" lon="-5.78598321266">
        <ele>1797.47</ele>
        <time>2012-12-20T13:37:19+01:00</time>
      </trkpt>
      <trkpt lat="42.96855019765" lon="-5.78603112109">
        <ele>1799.25</ele>
        <time>2012-12-20T13:37:21+01:00</time>
      </trkpt>
      <trkpt lat="42.96854997501" lon="-5.78607744904">
        <ele>1799.26</ele>
        <time>2012-12-20T13:37:24+01:00</time>
      </trkpt>
      <trkpt lat="42.96854882408" lon="-5.78612500317">
        <ele>1800.71</ele>
        <time>2012-12-20T13:37:26+01:00</time>
      </trkpt>
      <trkpt lat="42.96853752978" lon="-5.78617300369">
        <ele>1803.67</ele>
        <time>2012-12-20T13:37:27+01:00</time>
      </trkpt>
      <trkpt lat="42.96850948818" lon="-5.78622035589">
        <ele>1803.22</ele>
        <time>2012-12-20T13:37:29+01:00</time>
      </trkpt>
      <trkpt lat="42.96848949652" lon="-5.78624920529">
        <ele>1804.11</ele>
        <time>2012-12-20T13:37:30+01:00</time>
      </trkpt>
      <trkpt lat="42.96847416585" lon="-5.78627535996">
        <ele>1805.2</ele>
        <time>2012-12-20T13:37:32+01:00</time>
      </trkpt>
      <trkpt lat="42.96846050499" lon="-5.78630131095">
        <ele>1806.3</ele>
        <time>2012-12-20T13:37:33+01:00</time>
      </trkpt>
      <trkpt lat="42.9684491227" lon="-5.78633117748">
        <ele>1807.15</ele>
        <time>2012-12-20T13:37:34+01:00</time>
      </trkpt>
      <trkpt lat="42.96844087832" lon="-5.78636149183">
        <ele>1807.96</ele>
        <time>2012-12-20T13:37:34+01:00</time>
      </trkpt>
      <trkpt lat="42.96843228923" lon="-5.78639498029">
        <ele>1808.8</ele>
        <time>2012-12-20T13:37:35+01:00</time>
      </trkpt>
      <trkpt lat="42.96842245773" lon="-5.78643185283">
        <ele>1809.64</ele>
        <time>2012-12-20T13:37:37+01:00</time>
      </trkpt>
      <trkpt lat="42.96840905851" lon="-5.78648837882">
        <ele>1810.63</ele>
        <time>2012-12-20T13:37:39+01:00</time>
      </trkpt>
      <trkpt lat="42.96840064545" lon="-5.78652389095">
        <ele>1811.45</ele>
        <time>2012-12-20T13:37:39+01:00</time>
      </trkpt>
      <trkpt lat="42.96838632293" lon="-5.78657954136">
        <ele>1812.67</ele>
        <time>2012-12-20T13:37:42+01:00</time>
      </trkpt>
      <trkpt lat="42.96837467419" lon="-5.78661796292">
        <ele>1813.27</ele>
        <time>2012-12-20T13:37:43+01:00</time>
      </trkpt>
      <trkpt lat="42.9683596061" lon="-5.78665474582">
        <ele>1814.02</ele>
        <time>2012-12-20T13:37:44+01:00</time>
      </trkpt>
      <trkpt lat="42.96834768896" lon="-5.7866827903">
        <ele>1814.86</ele>
        <time>2012-12-20T13:37:44+01:00</time>
      </trkpt>
      <trkpt lat="42.96833246594" lon="-5.78672059758">
        <ele>1815.24</ele>
        <time>2012-12-20T13:37:47+01:00</time>
      </trkpt>
      <trkpt lat="42.96831864739" lon="-5.7867534216">
        <ele>1815.8</ele>
        <time>2012-12-20T13:37:48+01:00</time>
      </trkpt>
      <trkpt lat="42.96830400803" lon="-5.78679456077">
        <ele>1816.45</ele>
        <time>2012-12-20T13:37:50+01:00</time>
      </trkpt>
      <trkpt lat="42.96828992666" lon="-5.78682780609">
        <ele>1816.94</ele>
        <time>2012-12-20T13:37:52+01:00</time>
      </trkpt>
      <trkpt lat="42.96827613566" lon="-5.78686790982">
        <ele>1817.27</ele>
        <time>2012-12-20T13:37:53+01:00</time>
      </trkpt>
      <trkpt lat="42.96826273551" lon="-5.78690476946">
        <ele>1817.59</ele>
        <time>2012-12-20T13:37:54+01:00</time>
      </trkpt>
      <trkpt lat="42.96825031264" lon="-5.786950693">
        <ele>1817.84</ele>
        <time>2012-12-20T13:37:56+01:00</time>
      </trkpt>
      <trkpt lat="42.9682377861" lon="-5.78701043712">
        <ele>1818.27</ele>
        <time>2012-12-20T13:37:59+01:00</time>
      </trkpt>
      <trkpt lat="42.96822205459" lon="-5.78705376802">
        <ele>1818.48</ele>
        <time>2012-12-20T13:38:00+01:00</time>
      </trkpt>
      <trkpt lat="42.9682116328" lon="-5.78708677524">
        <ele>1818.76</ele>
        <time>2012-12-20T13:38:01+01:00</time>
      </trkpt>
      <trkpt lat="42.96818477083" lon="-5.78714685698">
        <ele>1819.39</ele>
        <time>2012-12-20T13:38:04+01:00</time>
      </trkpt>
      <trkpt lat="42.96817148663" lon="-5.78717821501">
        <ele>1819.89</ele>
        <time>2012-12-20T13:38:04+01:00</time>
      </trkpt>
      <trkpt lat="42.96815528463" lon="-5.78720614545">
        <ele>1820.41</ele>
        <time>2012-12-20T13:38:06+01:00</time>
      </trkpt>
      <trkpt lat="42.9681359845" lon="-5.78723969357">
        <ele>1821.24</ele>
        <time>2012-12-20T13:38:06+01:00</time>
      </trkpt>
      <trkpt lat="42.96811527212" lon="-5.7872697976">
        <ele>1821.8</ele>
        <time>2012-12-20T13:38:08+01:00</time>
      </trkpt>
      <trkpt lat="42.9680990812" lon="-5.78731445008">
        <ele>1822.23</ele>
        <time>2012-12-20T13:38:09+01:00</time>
      </trkpt>
      <trkpt lat="42.9680664393" lon="-5.78735891985">
        <ele>1823.23</ele>
        <time>2012-12-20T13:38:11+01:00</time>
      </trkpt>
      <trkpt lat="42.96804703632" lon="-5.78739155135">
        <ele>1824.08</ele>
        <time>2012-12-20T13:38:11+01:00</time>
      </trkpt>
      <trkpt lat="42.96803202455" lon="-5.78742288809">
        <ele>1824.49</ele>
        <time>2012-12-20T13:38:13+01:00</time>
      </trkpt>
      <trkpt lat="42.96801708637" lon="-5.78745845857">
        <ele>1824.99</ele>
        <time>2012-12-20T13:38:14+01:00</time>
      </trkpt>
      <trkpt lat="42.96800702441" lon="-5.78748984666">
        <ele>1825.59</ele>
        <time>2012-12-20T13:38:14+01:00</time>
      </trkpt>
      <trkpt lat="42.96799944643" lon="-5.78752381808">
        <ele>1826.4</ele>
        <time>2012-12-20T13:38:16+01:00</time>
      </trkpt>
      <trkpt lat="42.96799273405" lon="-5.78755683096">
        <ele>1827.12</ele>
        <time>2012-12-20T13:38:16+01:00</time>
      </trkpt>
      <trkpt lat="42.96798223854" lon="-5.78760963459">
        <ele>1827.68</ele>
        <time>2012-12-20T13:38:18+01:00</time>
      </trkpt>
      <trkpt lat="42.9679723275" lon="-5.78765814857">
        <ele>1828</ele>
        <time>2012-12-20T13:38:20+01:00</time>
      </trkpt>
      <trkpt lat="42.96796511499" lon="-5.78770439646">
        <ele>1828.28</ele>
        <time>2012-12-20T13:38:22+01:00</time>
      </trkpt>
      <trkpt lat="42.96795443972" lon="-5.78774776826">
        <ele>1829.06</ele>
        <time>2012-12-20T13:38:24+01:00</time>
      </trkpt>
      <trkpt lat="42.96793914099" lon="-5.78779561176">
        <ele>1829.78</ele>
        <time>2012-12-20T13:38:25+01:00</time>
      </trkpt>
      <trkpt lat="42.96792709584" lon="-5.78785037569">
        <ele>1830.33</ele>
        <time>2012-12-20T13:38:28+01:00</time>
      </trkpt>
      <trkpt lat="42.9679177466" lon="-5.78789043044">
        <ele>1830.85</ele>
        <time>2012-12-20T13:38:30+01:00</time>
      </trkpt>
      <trkpt lat="42.96790856773" lon="-5.78793827219">
        <ele>1830.6</ele>
        <time>2012-12-20T13:38:34+01:00</time>
      </trkpt>
      <trkpt lat="42.96787313729" lon="-5.78797218159">
        <ele>1830.49</ele>
        <time>2012-12-20T13:38:34+01:00</time>
      </trkpt>
      <trkpt lat="42.96784981398" lon="-5.78802311212">
        <ele>1830.62</ele>
        <time>2012-12-20T13:38:36+01:00</time>
      </trkpt>
      <trkpt lat="42.96783477049" lon="-5.78809172323">
        <ele>1830.65</ele>
        <time>2012-12-20T13:38:39+01:00</time>
      </trkpt>
      <trkpt lat="42.96782944351" lon="-5.78813919507">
        <ele>1830.6</ele>
        <time>2012-12-20T13:38:42+01:00</time>
      </trkpt>
      <trkpt lat="42.96782477483" lon="-5.78818706674">
        <ele>1830.77</ele>
        <time>2012-12-20T13:38:43+01:00</time>
      </trkpt>
      <trkpt lat="42.96782442112" lon="-5.78823379695">
        <ele>1831.01</ele>
        <time>2012-12-20T13:38:43+01:00</time>
      </trkpt>
      <trkpt lat="42.96782717692" lon="-5.78828584449">
        <ele>1831.28</ele>
        <time>2012-12-20T13:38:45+01:00</time>
      </trkpt>
      <trkpt lat="42.96783752336" lon="-5.78834355348">
        <ele>1831.5</ele>
        <time>2012-12-20T13:38:46+01:00</time>
      </trkpt>
      <trkpt lat="42.96785326824" lon="-5.7883966989">
        <ele>1831.79</ele>
        <time>2012-12-20T13:38:47+01:00</time>
      </trkpt>
      <trkpt lat="42.9678738906" lon="-5.7884376952">
        <ele>1832.19</ele>
        <time>2012-12-20T13:38:48+01:00</time>
      </trkpt>
      <trkpt lat="42.96789556649" lon="-5.78846993288">
        <ele>1832.44</ele>
        <time>2012-12-20T13:38:48+01:00</time>
      </trkpt>
      <trkpt lat="42.96791632934" lon="-5.78849148787">
        <ele>1832.89</ele>
        <time>2012-12-20T13:38:50+01:00</time>
      </trkpt>
      <trkpt lat="42.96792843876" lon="-5.78845962123">
        <ele>1833.66</ele>
        <time>2012-12-20T13:38:56+01:00</time>
      </trkpt>
      <trkpt lat="42.96795985764" lon="-5.78846329299">
        <ele>1833.54</ele>
        <time>2012-12-20T13:39:03+01:00</time>
      </trkpt>
      <trkpt lat="42.96798216762" lon="-5.78847911477">
        <ele>1833.41</ele>
        <time>2012-12-20T13:39:05+01:00</time>
      </trkpt>
      <trkpt lat="42.96800352753" lon="-5.78849455023">
        <ele>1832.98</ele>
        <time>2012-12-20T13:39:08+01:00</time>
      </trkpt>
      <trkpt lat="42.96799975288" lon="-5.78846820008">
        <ele>1833.66</ele>
        <time>2012-12-20T13:39:12+01:00</time>
      </trkpt>
      <trkpt lat="42.96797935077" lon="-5.78844730618">
        <ele>1834.2</ele>
        <time>2012-12-20T13:39:15+01:00</time>
      </trkpt>
      <trkpt lat="42.96795877476" lon="-5.78842978341">
        <ele>1834.73</ele>
        <time>2012-12-20T13:39:18+01:00</time>
      </trkpt>
      <trkpt lat="42.96793927039" lon="-5.78840777162">
        <ele>1835.91</ele>
        <time>2012-12-20T13:39:20+01:00</time>
      </trkpt>
      <trkpt lat="42.96792371466" lon="-5.78840158356">
        <ele>1836.66</ele>
        <time>2012-12-20T13:39:23+01:00</time>
      </trkpt>
      <trkpt lat="42.96791884732" lon="-5.78842861846">
        <ele>1837.38</ele>
        <time>2012-12-20T13:39:29+01:00</time>
      </trkpt>
      <trkpt lat="42.96793031245" lon="-5.78847739873">
        <ele>1837.24</ele>
        <time>2012-12-20T13:39:30+01:00</time>
      </trkpt>
      <trkpt lat="42.96795068879" lon="-5.7884275123">
        <ele>1836.5</ele>
        <time>2012-12-20T13:39:49+01:00</time>
      </trkpt>
      <trkpt lat="42.96798861517" lon="-5.78837633788">
        <ele>1836.62</ele>
        <time>2012-12-20T13:39:51+01:00</time>
      </trkpt>
      <trkpt lat="42.968013266" lon="-5.78835430128">
        <ele>1836.75</ele>
        <time>2012-12-20T13:39:53+01:00</time>
      </trkpt>
      <trkpt lat="42.96803630107" lon="-5.78832971033">
        <ele>1836.87</ele>
        <time>2012-12-20T13:39:55+01:00</time>
      </trkpt>
      <trkpt lat="42.96806518208" lon="-5.7882914657">
        <ele>1836.71</ele>
        <time>2012-12-20T13:39:57+01:00</time>
      </trkpt>
      <trkpt lat="42.96808500635" lon="-5.78826343198">
        <ele>1836.57</ele>
        <time>2012-12-20T13:39:58+01:00</time>
      </trkpt>
      <trkpt lat="42.96810258342" lon="-5.78822865622">
        <ele>1836.48</ele>
        <time>2012-12-20T13:39:59+01:00</time>
      </trkpt>
      <trkpt lat="42.9681189399" lon="-5.78815015314">
        <ele>1836.27</ele>
        <time>2012-12-20T13:40:00+01:00</time>
      </trkpt>
      <trkpt lat="42.96812918495" lon="-5.78807852846">
        <ele>1836.12</ele>
        <time>2012-12-20T13:40:01+01:00</time>
      </trkpt>
      <trkpt lat="42.96815295985" lon="-5.78800881591">
        <ele>1836.17</ele>
        <time>2012-12-20T13:40:02+01:00</time>
      </trkpt>
      <trkpt lat="42.96818198882" lon="-5.7879454537">
        <ele>1835.99</ele>
        <time>2012-12-20T13:40:03+01:00</time>
      </trkpt>
      <trkpt lat="42.96821320854" lon="-5.78788101463">
        <ele>1835.77</ele>
        <time>2012-12-20T13:40:04+01:00</time>
      </trkpt>
      <trkpt lat="42.96824991749" lon="-5.78778459111">
        <ele>1835.51</ele>
        <time>2012-12-20T13:40:05+01:00</time>
      </trkpt>
      <trkpt lat="42.96828847806" lon="-5.78770954477">
        <ele>1835.11</ele>
        <time>2012-12-20T13:40:06+01:00</time>
      </trkpt>
      <trkpt lat="42.9683254133" lon="-5.78761966279">
        <ele>1834.83</ele>
        <time>2012-12-20T13:40:07+01:00</time>
      </trkpt>
      <trkpt lat="42.96835592472" lon="-5.78752558151">
        <ele>1834.52</ele>
        <time>2012-12-20T13:40:08+01:00</time>
      </trkpt>
      <trkpt lat="42.96839141383" lon="-5.78743281536">
        <ele>1834.14</ele>
        <time>2012-12-20T13:40:09+01:00</time>
      </trkpt>
      <trkpt lat="42.96843743384" lon="-5.7873312037">
        <ele>1833.54</ele>
        <time>2012-12-20T13:40:10+01:00</time>
      </trkpt>
      <trkpt lat="42.96848397047" lon="-5.78723406098">
        <ele>1832.93</ele>
        <time>2012-12-20T13:40:11+01:00</time>
      </trkpt>
      <trkpt lat="42.96856158025" lon="-5.78711247599">
        <ele>1832.07</ele>
        <time>2012-12-20T13:40:12+01:00</time>
      </trkpt>
      <trkpt lat="42.96865711233" lon="-5.78699266871">
        <ele>1831.15</ele>
        <time>2012-12-20T13:40:13+01:00</time>
      </trkpt>
      <trkpt lat="42.96873123972" lon="-5.78688028116">
        <ele>1829.8</ele>
        <time>2012-12-20T13:40:14+01:00</time>
      </trkpt>
      <trkpt lat="42.9688210298" lon="-5.78678983342">
        <ele>1828.51</ele>
        <time>2012-12-20T13:40:15+01:00</time>
      </trkpt>
      <trkpt lat="42.96890377772" lon="-5.78671245852">
        <ele>1827.2</ele>
        <time>2012-12-20T13:40:16+01:00</time>
      </trkpt>
      <trkpt lat="42.96900594262" lon="-5.78655669747">
        <ele>1825.37</ele>
        <time>2012-12-20T13:40:17+01:00</time>
      </trkpt>
      <trkpt lat="42.96910630648" lon="-5.7864032223">
        <ele>1823.68</ele>
        <time>2012-12-20T13:40:18+01:00</time>
      </trkpt>
      <trkpt lat="42.96918815027" lon="-5.7862688136">
        <ele>1822.35</ele>
        <time>2012-12-20T13:40:19+01:00</time>
      </trkpt>
      <trkpt lat="42.96926785269" lon="-5.78614181841">
        <ele>1820.96</ele>
        <time>2012-12-20T13:40:20+01:00</time>
      </trkpt>
      <trkpt lat="42.96939295908" lon="-5.78604996764">
        <ele>1819.74</ele>
        <time>2012-12-20T13:40:21+01:00</time>
      </trkpt>
      <trkpt lat="42.96951906611" lon="-5.78593946361">
        <ele>1817.85</ele>
        <time>2012-12-20T13:40:22+01:00</time>
      </trkpt>
      <trkpt lat="42.96963343744" lon="-5.78584085279">
        <ele>1816.36</ele>
        <time>2012-12-20T13:40:23+01:00</time>
      </trkpt>
      <trkpt lat="42.96973614095" lon="-5.78575850104">
        <ele>1814.48</ele>
        <time>2012-12-20T13:40:24+01:00</time>
      </trkpt>
      <trkpt lat="42.96982873249" lon="-5.78565190847">
        <ele>1812.26</ele>
        <time>2012-12-20T13:40:25+01:00</time>
      </trkpt>
      <trkpt lat="42.96982143454" lon="-5.78554361933">
        <ele>1810.47</ele>
        <time>2012-12-20T13:40:26+01:00</time>
      </trkpt>
      <trkpt lat="42.96981715863" lon="-5.78544840192">
        <ele>1808.82</ele>
        <time>2012-12-20T13:40:27+01:00</time>
      </trkpt>
      <trkpt lat="42.96981783951" lon="-5.78538436431">
        <ele>1807.19</ele>
        <time>2012-12-20T13:40:28+01:00</time>
      </trkpt>
      <trkpt lat="42.96979209857" lon="-5.78526393322">
        <ele>1805.41</ele>
        <time>2012-12-20T13:40:29+01:00</time>
      </trkpt>
      <trkpt lat="42.96975221578" lon="-5.78519505411">
        <ele>1803.3</ele>
        <time>2012-12-20T13:40:30+01:00</time>
      </trkpt>
      <trkpt lat="42.96969766937" lon="-5.78513192565">
        <ele>1801.5</ele>
        <time>2012-12-20T13:40:31+01:00</time>
      </trkpt>
      <trkpt lat="42.96964498468" lon="-5.78506874031">
        <ele>1799.91</ele>
        <time>2012-12-20T13:40:32+01:00</time>
      </trkpt>
      <trkpt lat="42.96959173356" lon="-5.78500889637">
        <ele>1798.37</ele>
        <time>2012-12-20T13:40:33+01:00</time>
      </trkpt>
      <trkpt lat="42.96955752167" lon="-5.78496969037">
        <ele>1796.89</ele>
        <time>2012-12-20T13:40:34+01:00</time>
      </trkpt>
      <trkpt lat="42.96943982876" lon="-5.78492370753">
        <ele>1795.46</ele>
        <time>2012-12-20T13:40:35+01:00</time>
      </trkpt>
      <trkpt lat="42.96937092732" lon="-5.78486784053">
        <ele>1793.68</ele>
        <time>2012-12-20T13:40:36+01:00</time>
      </trkpt>
      <trkpt lat="42.96930675503" lon="-5.7848107343">
        <ele>1793.77</ele>
        <time>2012-12-20T13:40:37+01:00</time>
      </trkpt>
      <trkpt lat="42.96922421666" lon="-5.78475666593">
        <ele>1792.95</ele>
        <time>2012-12-20T13:40:38+01:00</time>
      </trkpt>
      <trkpt lat="42.96913807214" lon="-5.78466337433">
        <ele>1791.75</ele>
        <time>2012-12-20T13:40:39+01:00</time>
      </trkpt>
      <trkpt lat="42.96906753433" lon="-5.78456170164">
        <ele>1790.65</ele>
        <time>2012-12-20T13:40:40+01:00</time>
      </trkpt>
      <trkpt lat="42.96898908728" lon="-5.78443870555">
        <ele>1789.97</ele>
        <time>2012-12-20T13:40:41+01:00</time>
      </trkpt>
      <trkpt lat="42.96891321581" lon="-5.7843283427">
        <ele>1787.81</ele>
        <time>2012-12-20T13:40:42+01:00</time>
      </trkpt>
      <trkpt lat="42.9688514046" lon="-5.78425832565">
        <ele>1786.52</ele>
        <time>2012-12-20T13:40:43+01:00</time>
      </trkpt>
      <trkpt lat="42.96879036027" lon="-5.78419201916">
        <ele>1786.67</ele>
        <time>2012-12-20T13:40:44+01:00</time>
      </trkpt>
      <trkpt lat="42.96873506842" lon="-5.78416534682">
        <ele>1785.88</ele>
        <time>2012-12-20T13:40:45+01:00</time>
      </trkpt>
      <trkpt lat="42.96869961656" lon="-5.78414290203">
        <ele>1784.98</ele>
        <time>2012-12-20T13:40:46+01:00</time>
      </trkpt>
      <trkpt lat="42.96865381125" lon="-5.78413117673">
        <ele>1784.16</ele>
        <time>2012-12-20T13:40:47+01:00</time>
      </trkpt>
      <trkpt lat="42.96855913071" lon="-5.78412025421">
        <ele>1783.32</ele>
        <time>2012-12-20T13:40:48+01:00</time>
      </trkpt>
      <trkpt lat="42.96851548475" lon="-5.78406784535">
        <ele>1781.27</ele>
        <time>2012-12-20T13:40:49+01:00</time>
      </trkpt>
      <trkpt lat="42.96849693197" lon="-5.78400928498">
        <ele>1779.64</ele>
        <time>2012-12-20T13:40:50+01:00</time>
      </trkpt>
      <trkpt lat="42.96849342258" lon="-5.78395888204">
        <ele>1778.27</ele>
        <time>2012-12-20T13:40:51+01:00</time>
      </trkpt>
      <trkpt lat="42.96851380957" lon="-5.78391715138">
        <ele>1776.97</ele>
        <time>2012-12-20T13:40:52+01:00</time>
      </trkpt>
      <trkpt lat="42.9684840576" lon="-5.78385831267">
        <ele>1777.07</ele>
        <time>2012-12-20T13:40:53+01:00</time>
      </trkpt>
      <trkpt lat="42.96845021224" lon="-5.78381489486">
        <ele>1776.35</ele>
        <time>2012-12-20T13:40:54+01:00</time>
      </trkpt>
      <trkpt lat="42.96842962979" lon="-5.78375022018">
        <ele>1774.42</ele>
        <time>2012-12-20T13:40:55+01:00</time>
      </trkpt>
      <trkpt lat="42.96840828941" lon="-5.78365532784">
        <ele>1773.45</ele>
        <time>2012-12-20T13:40:56+01:00</time>
      </trkpt>
      <trkpt lat="42.9683901316" lon="-5.78357078529">
        <ele>1772.53</ele>
        <time>2012-12-20T13:40:57+01:00</time>
      </trkpt>
      <trkpt lat="42.96837915749" lon="-5.78348534633">
        <ele>1771.56</ele>
        <time>2012-12-20T13:40:58+01:00</time>
      </trkpt>
      <trkpt lat="42.96837810004" lon="-5.78341356239">
        <ele>1770.55</ele>
        <time>2012-12-20T13:40:59+01:00</time>
      </trkpt>
      <trkpt lat="42.96837729022" lon="-5.783395915">
        <ele>1769.74</ele>
        <time>2012-12-20T13:41:00+01:00</time>
      </trkpt>
      <trkpt lat="42.96842925994" lon="-5.78316374155">
        <ele>1769.65</ele>
        <time>2012-12-20T13:41:01+01:00</time>
      </trkpt>
      <trkpt lat="42.9684944302" lon="-5.78290155826">
        <ele>1768.82</ele>
        <time>2012-12-20T13:41:02+01:00</time>
      </trkpt>
      <trkpt lat="42.96855441186" lon="-5.78249902785">
        <ele>1767.36</ele>
        <time>2012-12-20T13:41:03+01:00</time>
      </trkpt>
      <trkpt lat="42.96856154669" lon="-5.78225711984">
        <ele>1766.38</ele>
        <time>2012-12-20T13:41:04+01:00</time>
      </trkpt>
      <trkpt lat="42.96855686458" lon="-5.7821302799">
        <ele>1765.48</ele>
        <time>2012-12-20T13:41:05+01:00</time>
      </trkpt>
      <trkpt lat="42.96855370629" lon="-5.78196866594">
        <ele>1764.48</ele>
        <time>2012-12-20T13:41:06+01:00</time>
      </trkpt>
      <trkpt lat="42.96859106108" lon="-5.78181196083">
        <ele>1763.09</ele>
        <time>2012-12-20T13:41:07+01:00</time>
      </trkpt>
      <trkpt lat="42.96866443023" lon="-5.78154162334">
        <ele>1761.66</ele>
        <time>2012-12-20T13:41:08+01:00</time>
      </trkpt>
      <trkpt lat="42.96869010112" lon="-5.78130831722">
        <ele>1760.45</ele>
        <time>2012-12-20T13:41:09+01:00</time>
      </trkpt>
      <trkpt lat="42.96869291184" lon="-5.78117639182">
        <ele>1759.27</ele>
        <time>2012-12-20T13:41:10+01:00</time>
      </trkpt>
      <trkpt lat="42.96869574212" lon="-5.78101018156">
        <ele>1757.89</ele>
        <time>2012-12-20T13:41:11+01:00</time>
      </trkpt>
      <trkpt lat="42.96870344369" lon="-5.78082267983">
        <ele>1756.64</ele>
        <time>2012-12-20T13:41:12+01:00</time>
      </trkpt>
      <trkpt lat="42.96872676145" lon="-5.78061891648">
        <ele>1755.33</ele>
        <time>2012-12-20T13:41:13+01:00</time>
      </trkpt>
      <trkpt lat="42.96873309139" lon="-5.78057164262">
        <ele>1753.91</ele>
        <time>2012-12-20T13:41:14+01:00</time>
      </trkpt>
      <trkpt lat="42.96874851973" lon="-5.78049882909">
        <ele>1752.14</ele>
        <time>2012-12-20T13:41:15+01:00</time>
      </trkpt>
      <trkpt lat="42.96877230007" lon="-5.7804081093">
        <ele>1752.61</ele>
        <time>2012-12-20T13:41:16+01:00</time>
      </trkpt>
      <trkpt lat="42.96893647619" lon="-5.77980532625">
        <ele>1751.69</ele>
        <time>2012-12-20T13:41:18+01:00</time>
      </trkpt>
      <trkpt lat="42.96896258328" lon="-5.77971453782">
        <ele>1750.72</ele>
        <time>2012-12-20T13:41:18+01:00</time>
      </trkpt>
      <trkpt lat="42.96898904266" lon="-5.77963601335">
        <ele>1749.32</ele>
        <time>2012-12-20T13:41:20+01:00</time>
      </trkpt>
      <trkpt lat="42.96900341367" lon="-5.77959071545">
        <ele>1748.52</ele>
        <time>2012-12-20T13:41:20+01:00</time>
      </trkpt>
      <trkpt lat="42.96902076044" lon="-5.77953680693">
        <ele>1746.95</ele>
        <time>2012-12-20T13:41:21+01:00</time>
      </trkpt>
      <trkpt lat="42.96904623785" lon="-5.77947966782">
        <ele>1745.14</ele>
        <time>2012-12-20T13:41:23+01:00</time>
      </trkpt>
      <trkpt lat="42.96910345431" lon="-5.77936749092">
        <ele>1743.6</ele>
        <time>2012-12-20T13:41:24+01:00</time>
      </trkpt>
      <trkpt lat="42.96916133614" lon="-5.77925724456">
        <ele>1736.86</ele>
        <time>2012-12-20T13:41:25+01:00</time>
      </trkpt>
      <trkpt lat="42.96946122025" lon="-5.77873544542">
        <ele>1733.36</ele>
        <time>2012-12-20T13:41:26+01:00</time>
      </trkpt>
      <trkpt lat="42.96964888087" lon="-5.77845287862">
        <ele>1729.94</ele>
        <time>2012-12-20T13:41:27+01:00</time>
      </trkpt>
      <trkpt lat="42.9697731794" lon="-5.77827815143">
        <ele>1726.23</ele>
        <time>2012-12-20T13:41:28+01:00</time>
      </trkpt>
      <trkpt lat="42.96984526122" lon="-5.77815281782">
        <ele>1722.14</ele>
        <time>2012-12-20T13:41:29+01:00</time>
      </trkpt>
      <trkpt lat="42.96993028521" lon="-5.77802888043">
        <ele>1718.16</ele>
        <time>2012-12-20T13:41:32+01:00</time>
      </trkpt>
      <trkpt lat="42.96998202461" lon="-5.77799846031">
        <ele>1714.45</ele>
        <time>2012-12-20T13:41:33+01:00</time>
      </trkpt>
      <trkpt lat="42.97002294967" lon="-5.77794020732">
        <ele>1710.9</ele>
        <time>2012-12-20T13:41:35+01:00</time>
      </trkpt>
      <trkpt lat="42.97004991015" lon="-5.7778781312">
        <ele>1707.48</ele>
        <time>2012-12-20T13:41:35+01:00</time>
      </trkpt>
      <trkpt lat="42.97007833571" lon="-5.77785632824">
        <ele>1704.18</ele>
        <time>2012-12-20T13:41:36+01:00</time>
      </trkpt>
      <trkpt lat="42.97012033123" lon="-5.77786785974">
        <ele>1700.94</ele>
        <time>2012-12-20T13:41:37+01:00</time>
      </trkpt>
      <trkpt lat="42.97015097784" lon="-5.77786041636">
        <ele>1697.8</ele>
        <time>2012-12-20T13:41:40+01:00</time>
      </trkpt>
      <trkpt lat="42.97020516706" lon="-5.77779773293">
        <ele>1689.24</ele>
        <time>2012-12-20T13:41:41+01:00</time>
      </trkpt>
      <trkpt lat="42.97023920601" lon="-5.77776434207">
        <ele>1685.24</ele>
        <time>2012-12-20T13:41:42+01:00</time>
      </trkpt>
      <trkpt lat="42.97026154484" lon="-5.77773925536">
        <ele>1681.35</ele>
        <time>2012-12-20T13:41:42+01:00</time>
      </trkpt>
      <trkpt lat="42.97031455284" lon="-5.77775392061">
        <ele>1677.14</ele>
        <time>2012-12-20T13:41:43+01:00</time>
      </trkpt>
      <trkpt lat="42.97036977969" lon="-5.77773264672">
        <ele>1672.53</ele>
        <time>2012-12-20T13:41:45+01:00</time>
      </trkpt>
      <trkpt lat="42.97042246635" lon="-5.77770941531">
        <ele>1668.81</ele>
        <time>2012-12-20T13:41:45+01:00</time>
      </trkpt>
      <trkpt lat="42.97046659836" lon="-5.77767117436">
        <ele>1665.43</ele>
        <time>2012-12-20T13:41:46+01:00</time>
      </trkpt>
      <trkpt lat="42.97051361271" lon="-5.77764991396">
        <ele>1662.54</ele>
        <time>2012-12-20T13:41:48+01:00</time>
      </trkpt>
      <trkpt lat="42.97056428807" lon="-5.77763017212">
        <ele>1659.67</ele>
        <time>2012-12-20T13:41:48+01:00</time>
      </trkpt>
      <trkpt lat="42.970626458" lon="-5.77762246866">
        <ele>1656.82</ele>
        <time>2012-12-20T13:41:50+01:00</time>
      </trkpt>
      <trkpt lat="42.97070041515" lon="-5.77760972975">
        <ele>1654.27</ele>
        <time>2012-12-20T13:41:50+01:00</time>
      </trkpt>
      <trkpt lat="42.97076067002" lon="-5.77761301577">
        <ele>1651.96</ele>
        <time>2012-12-20T13:41:51+01:00</time>
      </trkpt>
      <trkpt lat="42.97082361591" lon="-5.77761823273">
        <ele>1649.81</ele>
        <time>2012-12-20T13:41:52+01:00</time>
      </trkpt>
      <trkpt lat="42.97088274142" lon="-5.77764931686">
        <ele>1647.85</ele>
        <time>2012-12-20T13:41:53+01:00</time>
      </trkpt>
      <trkpt lat="42.97094536085" lon="-5.77764721884">
        <ele>1645.5</ele>
        <time>2012-12-20T13:41:54+01:00</time>
      </trkpt>
      <trkpt lat="42.97098883073" lon="-5.77763814911">
        <ele>1643.59</ele>
        <time>2012-12-20T13:41:55+01:00</time>
      </trkpt>
      <trkpt lat="42.97103316455" lon="-5.77760569093">
        <ele>1641.97</ele>
        <time>2012-12-20T13:41:56+01:00</time>
      </trkpt>
      <trkpt lat="42.97109228921" lon="-5.77760235089">
        <ele>1640.13</ele>
        <time>2012-12-20T13:41:57+01:00</time>
      </trkpt>
      <trkpt lat="42.97114428022" lon="-5.77759812895">
        <ele>1638.66</ele>
        <time>2012-12-20T13:41:58+01:00</time>
      </trkpt>
      <trkpt lat="42.9711870661" lon="-5.77761679764">
        <ele>1637.03</ele>
        <time>2012-12-20T13:41:59+01:00</time>
      </trkpt>
      <trkpt lat="42.97122938558" lon="-5.77764145261">
        <ele>1635.46</ele>
        <time>2012-12-20T13:42:00+01:00</time>
      </trkpt>
      <trkpt lat="42.97125655788" lon="-5.77768044765">
        <ele>1634.11</ele>
        <time>2012-12-20T13:42:01+01:00</time>
      </trkpt>
      <trkpt lat="42.97127248649" lon="-5.77772693753">
        <ele>1632.85</ele>
        <time>2012-12-20T13:42:02+01:00</time>
      </trkpt>
      <trkpt lat="42.97125632677" lon="-5.77777003134">
        <ele>1631.48</ele>
        <time>2012-12-20T13:42:03+01:00</time>
      </trkpt>
      <trkpt lat="42.9712433383" lon="-5.77780232059">
        <ele>1630.33</ele>
        <time>2012-12-20T13:42:04+01:00</time>
      </trkpt>
      <trkpt lat="42.9712338567" lon="-5.7778233301">
        <ele>1629.24</ele>
        <time>2012-12-20T13:42:05+01:00</time>
      </trkpt>
      <trkpt lat="42.97119747121" lon="-5.77782679372">
        <ele>1628.12</ele>
        <time>2012-12-20T13:42:06+01:00</time>
      </trkpt>
      <trkpt lat="42.97117921362" lon="-5.77785586196">
        <ele>1626.73</ele>
        <time>2012-12-20T13:42:09+01:00</time>
      </trkpt>
      <trkpt lat="42.97116999502" lon="-5.77789211199">
        <ele>1625.74</ele>
        <time>2012-12-20T13:42:11+01:00</time>
      </trkpt>
      <trkpt lat="42.97116352853" lon="-5.77794967454">
        <ele>1624.75</ele>
        <time>2012-12-20T13:42:13+01:00</time>
      </trkpt>
      <trkpt lat="42.97116201496" lon="-5.77798114392">
        <ele>1623.87</ele>
        <time>2012-12-20T13:42:14+01:00</time>
      </trkpt>
      <trkpt lat="42.97116906724" lon="-5.77803031845">
        <ele>1622.78</ele>
        <time>2012-12-20T13:42:16+01:00</time>
      </trkpt>
      <trkpt lat="42.97115121494" lon="-5.77805153032">
        <ele>1621.19</ele>
        <time>2012-12-20T13:42:25+01:00</time>
      </trkpt>
      <trkpt lat="42.97112713803" lon="-5.77806700388">
        <ele>1619.96</ele>
        <time>2012-12-20T13:42:27+01:00</time>
      </trkpt>
      <trkpt lat="42.97110839821" lon="-5.77804569378">
        <ele>1618.53</ele>
        <time>2012-12-20T13:42:32+01:00</time>
      </trkpt>
      <trkpt lat="42.97108899634" lon="-5.77801355765">
        <ele>1617.55</ele>
        <time>2012-12-20T13:42:34+01:00</time>
      </trkpt>
      <trkpt lat="42.97106198191" lon="-5.77799479226">
        <ele>1616.7</ele>
        <time>2012-12-20T13:42:36+01:00</time>
      </trkpt>
      <trkpt lat="42.97102375549" lon="-5.77801544728">
        <ele>1615.77</ele>
        <time>2012-12-20T13:42:37+01:00</time>
      </trkpt>
      <trkpt lat="42.97100072103" lon="-5.77803915841">
        <ele>1614.76</ele>
        <time>2012-12-20T13:42:39+01:00</time>
      </trkpt>
      <trkpt lat="42.97098391009" lon="-5.77806502303">
        <ele>1613.96</ele>
        <time>2012-12-20T13:42:40+01:00</time>
      </trkpt>
      <trkpt lat="42.97097229526" lon="-5.77808342736">
        <ele>1613.2</ele>
        <time>2012-12-20T13:42:41+01:00</time>
      </trkpt>
      <trkpt lat="42.97098734445" lon="-5.77809774848">
        <ele>1611.6</ele>
        <time>2012-12-20T13:42:46+01:00</time>
      </trkpt>
      <trkpt lat="42.97097650738" lon="-5.77813031817">
        <ele>1612.27</ele>
        <time>2012-12-20T13:42:47+01:00</time>
      </trkpt>
      <trkpt lat="42.97096775572" lon="-5.77814847098">
        <ele>1611.86</ele>
        <time>2012-12-20T13:42:49+01:00</time>
      </trkpt>
      <trkpt lat="42.97096098908" lon="-5.77820041005">
        <ele>1611.23</ele>
        <time>2012-12-20T13:42:58+01:00</time>
      </trkpt>
      <trkpt lat="42.97096171486" lon="-5.77823183859">
        <ele>1611.06</ele>
        <time>2012-12-20T13:43:01+01:00</time>
      </trkpt>
      <trkpt lat="42.97096180228" lon="-5.77829120438">
        <ele>1610.69</ele>
        <time>2012-12-20T13:43:04+01:00</time>
      </trkpt>
      <trkpt lat="42.97094268771" lon="-5.77833878225">
        <ele>1610.35</ele>
        <time>2012-12-20T13:43:06+01:00</time>
      </trkpt>
      <trkpt lat="42.97091684875" lon="-5.77837043698">
        <ele>1610.88</ele>
        <time>2012-12-20T13:43:07+01:00</time>
      </trkpt>
      <trkpt lat="42.97089997983" lon="-5.77839956671">
        <ele>1610.96</ele>
        <time>2012-12-20T13:43:08+01:00</time>
      </trkpt>
      <trkpt lat="42.97088894448" lon="-5.77842277966">
        <ele>1611.17</ele>
        <time>2012-12-20T13:43:10+01:00</time>
      </trkpt>
      <trkpt lat="42.97087284072" lon="-5.77848285722">
        <ele>1611.2</ele>
        <time>2012-12-20T13:43:12+01:00</time>
      </trkpt>
      <trkpt lat="42.97086512726" lon="-5.77854435948">
        <ele>1611.54</ele>
        <time>2012-12-20T13:43:14+01:00</time>
      </trkpt>
      <trkpt lat="42.97086596503" lon="-5.77860473853">
        <ele>1612</ele>
        <time>2012-12-20T13:43:17+01:00</time>
      </trkpt>
      <trkpt lat="42.97084960348" lon="-5.77865195128">
        <ele>1612.23</ele>
        <time>2012-12-20T13:43:18+01:00</time>
      </trkpt>
      <trkpt lat="42.97085441132" lon="-5.77868633838">
        <ele>1612.54</ele>
        <time>2012-12-20T13:43:19+01:00</time>
      </trkpt>
      <trkpt lat="42.97085155074" lon="-5.77873002911">
        <ele>1612.75</ele>
        <time>2012-12-20T13:43:22+01:00</time>
      </trkpt>
      <trkpt lat="42.97085349319" lon="-5.77877658641">
        <ele>1612.98</ele>
        <time>2012-12-20T13:43:24+01:00</time>
      </trkpt>
      <trkpt lat="42.9708453541" lon="-5.77880093007">
        <ele>1613.33</ele>
        <time>2012-12-20T13:43:26+01:00</time>
      </trkpt>
      <trkpt lat="42.97081748573" lon="-5.7788485682">
        <ele>1613.65</ele>
        <time>2012-12-20T13:43:28+01:00</time>
      </trkpt>
      <trkpt lat="42.97080492878" lon="-5.77887145441">
        <ele>1614.01</ele>
        <time>2012-12-20T13:43:29+01:00</time>
      </trkpt>
      <trkpt lat="42.97077319085" lon="-5.77893448922">
        <ele>1615.15</ele>
        <time>2012-12-20T13:43:31+01:00</time>
      </trkpt>
      <trkpt lat="42.97074672669" lon="-5.77899162085">
        <ele>1615.8</ele>
        <time>2012-12-20T13:43:34+01:00</time>
      </trkpt>
      <trkpt lat="42.97073248199" lon="-5.77902926577">
        <ele>1616.45</ele>
        <time>2012-12-20T13:43:34+01:00</time>
      </trkpt>
      <trkpt lat="42.97072115056" lon="-5.77905845359">
        <ele>1617.15</ele>
        <time>2012-12-20T13:43:35+01:00</time>
      </trkpt>
      <trkpt lat="42.9707109047" lon="-5.77909104619">
        <ele>1617.92</ele>
        <time>2012-12-20T13:43:36+01:00</time>
      </trkpt>
      <trkpt lat="42.97069551154" lon="-5.77914275993">
        <ele>1618.72</ele>
        <time>2012-12-20T13:43:38+01:00</time>
      </trkpt>
      <trkpt lat="42.97068669969" lon="-5.77919628624">
        <ele>1619.63</ele>
        <time>2012-12-20T13:43:40+01:00</time>
      </trkpt>
      <trkpt lat="42.9706756837" lon="-5.77925238789">
        <ele>1620.58</ele>
        <time>2012-12-20T13:43:42+01:00</time>
      </trkpt>
      <trkpt lat="42.97066338869" lon="-5.77930545068">
        <ele>1621.49</ele>
        <time>2012-12-20T13:43:44+01:00</time>
      </trkpt>
      <trkpt lat="42.97064882622" lon="-5.77935730221">
        <ele>1622.51</ele>
        <time>2012-12-20T13:43:46+01:00</time>
      </trkpt>
      <trkpt lat="42.97063773299" lon="-5.77941219718">
        <ele>1625.25</ele>
        <time>2012-12-20T13:43:48+01:00</time>
      </trkpt>
      <trkpt lat="42.97062280737" lon="-5.77946287287">
        <ele>1625.09</ele>
        <time>2012-12-20T13:43:50+01:00</time>
      </trkpt>
      <trkpt lat="42.97060875814" lon="-5.77950988838">
        <ele>1627.67</ele>
        <time>2012-12-20T13:43:52+01:00</time>
      </trkpt>
      <trkpt lat="42.97059739875" lon="-5.77955462959">
        <ele>1627.58</ele>
        <time>2012-12-20T13:43:54+01:00</time>
      </trkpt>
      <trkpt lat="42.97058466626" lon="-5.77959965354">
        <ele>1630.4</ele>
        <time>2012-12-20T13:43:56+01:00</time>
      </trkpt>
      <trkpt lat="42.9705691781" lon="-5.77964667864">
        <ele>1630.33</ele>
        <time>2012-12-20T13:43:58+01:00</time>
      </trkpt>
      <trkpt lat="42.97055504989" lon="-5.77969135471">
        <ele>1631.62</ele>
        <time>2012-12-20T13:44:00+01:00</time>
      </trkpt>
      <trkpt lat="42.97054109308" lon="-5.77973831024">
        <ele>1634.59</ele>
        <time>2012-12-20T13:44:02+01:00</time>
      </trkpt>
      <trkpt lat="42.97052824343" lon="-5.77978384411">
        <ele>1636.16</ele>
        <time>2012-12-20T13:44:04+01:00</time>
      </trkpt>
      <trkpt lat="42.97051393884" lon="-5.77983298285">
        <ele>1635.89</ele>
        <time>2012-12-20T13:44:06+01:00</time>
      </trkpt>
      <trkpt lat="42.97049920914" lon="-5.77987955687">
        <ele>1637.04</ele>
        <time>2012-12-20T13:44:08+01:00</time>
      </trkpt>
      <trkpt lat="42.97048218161" lon="-5.77992789781">
        <ele>1638.4</ele>
        <time>2012-12-20T13:44:10+01:00</time>
      </trkpt>
      <trkpt lat="42.97046194284" lon="-5.77998365961">
        <ele>1641.59</ele>
        <time>2012-12-20T13:44:12+01:00</time>
      </trkpt>
      <trkpt lat="42.97044619635" lon="-5.78002918463">
        <ele>1641.29</ele>
        <time>2012-12-20T13:44:14+01:00</time>
      </trkpt>
      <trkpt lat="42.97043007186" lon="-5.78007993093">
        <ele>1642.58</ele>
        <time>2012-12-20T13:44:16+01:00</time>
      </trkpt>
      <trkpt lat="42.97041212834" lon="-5.78013366608">
        <ele>1644.08</ele>
        <time>2012-12-20T13:44:18+01:00</time>
      </trkpt>
      <trkpt lat="42.9703945251" lon="-5.78018524975">
        <ele>1645.6</ele>
        <time>2012-12-20T13:44:20+01:00</time>
      </trkpt>
      <trkpt lat="42.97037631935" lon="-5.78023553139">
        <ele>1646.74</ele>
        <time>2012-12-20T13:44:22+01:00</time>
      </trkpt>
      <trkpt lat="42.97035930069" lon="-5.78028494914">
        <ele>1648.03</ele>
        <time>2012-12-20T13:44:24+01:00</time>
      </trkpt>
      <trkpt lat="42.97034446404" lon="-5.78033131073">
        <ele>1649.28</ele>
        <time>2012-12-20T13:44:26+01:00</time>
      </trkpt>
      <trkpt lat="42.97032949382" lon="-5.7803739095">
        <ele>1650.6</ele>
        <time>2012-12-20T13:44:28+01:00</time>
      </trkpt>
      <trkpt lat="42.97031188174" lon="-5.78041716386">
        <ele>1651.83</ele>
        <time>2012-12-20T13:44:30+01:00</time>
      </trkpt>
      <trkpt lat="42.97029471359" lon="-5.78046242688">
        <ele>1653.05</ele>
        <time>2012-12-20T13:44:32+01:00</time>
      </trkpt>
      <trkpt lat="42.97028374561" lon="-5.78049486494">
        <ele>1654.28</ele>
        <time>2012-12-20T13:44:34+01:00</time>
      </trkpt>
      <trkpt lat="42.97026692461" lon="-5.78054314478">
        <ele>1655.45</ele>
        <time>2012-12-20T13:44:35+01:00</time>
      </trkpt>
      <trkpt lat="42.97025256335" lon="-5.78059363738">
        <ele>1656.5</ele>
        <time>2012-12-20T13:44:37+01:00</time>
      </trkpt>
      <trkpt lat="42.97023939812" lon="-5.78064343259">
        <ele>1657.63</ele>
        <time>2012-12-20T13:44:39+01:00</time>
      </trkpt>
      <trkpt lat="42.97022119765" lon="-5.78070284084">
        <ele>1658.71</ele>
        <time>2012-12-20T13:44:41+01:00</time>
      </trkpt>
      <trkpt lat="42.97020932038" lon="-5.78072864047">
        <ele>1659.75</ele>
        <time>2012-12-20T13:44:42+01:00</time>
      </trkpt>
      <trkpt lat="42.9701895992" lon="-5.78078166903">
        <ele>1662.82</ele>
        <time>2012-12-20T13:44:44+01:00</time>
      </trkpt>
      <trkpt lat="42.97017170985" lon="-5.78083585515">
        <ele>1664.39</ele>
        <time>2012-12-20T13:44:46+01:00</time>
      </trkpt>
      <trkpt lat="42.97015808327" lon="-5.78088010016">
        <ele>1665.83</ele>
        <time>2012-12-20T13:44:48+01:00</time>
      </trkpt>
      <trkpt lat="42.97014580259" lon="-5.78093401028">
        <ele>1667.68</ele>
        <time>2012-12-20T13:44:50+01:00</time>
      </trkpt>
      <trkpt lat="42.97013643976" lon="-5.78098918286">
        <ele>1669.22</ele>
        <time>2012-12-20T13:44:52+01:00</time>
      </trkpt>
      <trkpt lat="42.9701275264" lon="-5.78103481787">
        <ele>1670.59</ele>
        <time>2012-12-20T13:44:54+01:00</time>
      </trkpt>
      <trkpt lat="42.97010733706" lon="-5.78106372617">
        <ele>1671.66</ele>
        <time>2012-12-20T13:44:56+01:00</time>
      </trkpt>
      <trkpt lat="42.97009293917" lon="-5.78109820746">
        <ele>1672.89</ele>
        <time>2012-12-20T13:44:58+01:00</time>
      </trkpt>
      <trkpt lat="42.97008006836" lon="-5.78114171587">
        <ele>1674.19</ele>
        <time>2012-12-20T13:45:00+01:00</time>
      </trkpt>
      <trkpt lat="42.97006478723" lon="-5.7811888402">
        <ele>1675.49</ele>
        <time>2012-12-20T13:45:02+01:00</time>
      </trkpt>
      <trkpt lat="42.97004949343" lon="-5.78123836409">
        <ele>1676.57</ele>
        <time>2012-12-20T13:45:04+01:00</time>
      </trkpt>
      <trkpt lat="42.97003195074" lon="-5.7812871609">
        <ele>1677.72</ele>
        <time>2012-12-20T13:45:06+01:00</time>
      </trkpt>
      <trkpt lat="42.97001523232" lon="-5.78133178898">
        <ele>1678.66</ele>
        <time>2012-12-20T13:45:08+01:00</time>
      </trkpt>
      <trkpt lat="42.96999512483" lon="-5.78137531509">
        <ele>1679.59</ele>
        <time>2012-12-20T13:45:10+01:00</time>
      </trkpt>
      <trkpt lat="42.96997635118" lon="-5.78141761498">
        <ele>1680.52</ele>
        <time>2012-12-20T13:45:12+01:00</time>
      </trkpt>
      <trkpt lat="42.96995958774" lon="-5.7814651011">
        <ele>1681.38</ele>
        <time>2012-12-20T13:45:14+01:00</time>
      </trkpt>
      <trkpt lat="42.96994450039" lon="-5.78151516674">
        <ele>1682.16</ele>
        <time>2012-12-20T13:45:16+01:00</time>
      </trkpt>
      <trkpt lat="42.96993997417" lon="-5.78155066085">
        <ele>1683.18</ele>
        <time>2012-12-20T13:45:17+01:00</time>
      </trkpt>
      <trkpt lat="42.96993323513" lon="-5.78158297244">
        <ele>1683.21</ele>
        <time>2012-12-20T13:45:18+01:00</time>
      </trkpt>
      <trkpt lat="42.96992997624" lon="-5.78161531807">
        <ele>1683.74</ele>
        <time>2012-12-20T13:45:19+01:00</time>
      </trkpt>
      <trkpt lat="42.96992449649" lon="-5.78164626235">
        <ele>1684.32</ele>
        <time>2012-12-20T13:45:20+01:00</time>
      </trkpt>
      <trkpt lat="42.96991900842" lon="-5.78168155318">
        <ele>1684.75</ele>
        <time>2012-12-20T13:45:21+01:00</time>
      </trkpt>
      <trkpt lat="42.96990312513" lon="-5.78173434301">
        <ele>1685.68</ele>
        <time>2012-12-20T13:45:23+01:00</time>
      </trkpt>
      <trkpt lat="42.96988583335" lon="-5.78178272012">
        <ele>1686.27</ele>
        <time>2012-12-20T13:45:25+01:00</time>
      </trkpt>
      <trkpt lat="42.96986946686" lon="-5.78183242751">
        <ele>1687.14</ele>
        <time>2012-12-20T13:45:27+01:00</time>
      </trkpt>
      <trkpt lat="42.96985844868" lon="-5.78186872169">
        <ele>1688.06</ele>
        <time>2012-12-20T13:45:28+01:00</time>
      </trkpt>
      <trkpt lat="42.96985054535" lon="-5.78189958397">
        <ele>1688.9</ele>
        <time>2012-12-20T13:45:29+01:00</time>
      </trkpt>
      <trkpt lat="42.96984095159" lon="-5.78192815287">
        <ele>1689.48</ele>
        <time>2012-12-20T13:45:30+01:00</time>
      </trkpt>
      <trkpt lat="42.96985861296" lon="-5.78197034469">
        <ele>1689.57</ele>
        <time>2012-12-20T13:45:33+01:00</time>
      </trkpt>
      <trkpt lat="42.96987904315" lon="-5.78199306582">
        <ele>1690.03</ele>
        <time>2012-12-20T13:45:34+01:00</time>
      </trkpt>
      <trkpt lat="42.96990304459" lon="-5.78200833888">
        <ele>1690.43</ele>
        <time>2012-12-20T13:45:34+01:00</time>
      </trkpt>
      <trkpt lat="42.96991626031" lon="-5.78204384822">
        <ele>1691.29</ele>
        <time>2012-12-20T13:45:37+01:00</time>
      </trkpt>
      <trkpt lat="42.96990566005" lon="-5.78207656519">
        <ele>1693.13</ele>
        <time>2012-12-20T13:45:37+01:00</time>
      </trkpt>
      <trkpt lat="42.96988469748" lon="-5.7821109365">
        <ele>1693</ele>
        <time>2012-12-20T13:45:39+01:00</time>
      </trkpt>
      <trkpt lat="42.96985800794" lon="-5.78214986316">
        <ele>1693.78</ele>
        <time>2012-12-20T13:45:39+01:00</time>
      </trkpt>
      <trkpt lat="42.96983188291" lon="-5.78218896328">
        <ele>1694.59</ele>
        <time>2012-12-20T13:45:40+01:00</time>
      </trkpt>
      <trkpt lat="42.96978806762" lon="-5.78225746829">
        <ele>1695.58</ele>
        <time>2012-12-20T13:45:42+01:00</time>
      </trkpt>
      <trkpt lat="42.96976314425" lon="-5.78229772315">
        <ele>1696.08</ele>
        <time>2012-12-20T13:45:44+01:00</time>
      </trkpt>
      <trkpt lat="42.96974464795" lon="-5.78233252916">
        <ele>1696.83</ele>
        <time>2012-12-20T13:45:45+01:00</time>
      </trkpt>
      <trkpt lat="42.96972747059" lon="-5.7823630938">
        <ele>1697.69</ele>
        <time>2012-12-20T13:45:46+01:00</time>
      </trkpt>
      <trkpt lat="42.96970978588" lon="-5.78239173729">
        <ele>1698.43</ele>
        <time>2012-12-20T13:45:47+01:00</time>
      </trkpt>
      <trkpt lat="42.96969652593" lon="-5.78241912482">
        <ele>1699.43</ele>
        <time>2012-12-20T13:45:47+01:00</time>
      </trkpt>
      <trkpt lat="42.96968183753" lon="-5.78244652939">
        <ele>1700.38</ele>
        <time>2012-12-20T13:45:48+01:00</time>
      </trkpt>
      <trkpt lat="42.96966458356" lon="-5.7824750773">
        <ele>1701.3</ele>
        <time>2012-12-20T13:45:50+01:00</time>
      </trkpt>
      <trkpt lat="42.96964507304" lon="-5.78250734075">
        <ele>1701.5</ele>
        <time>2012-12-20T13:45:52+01:00</time>
      </trkpt>
      <trkpt lat="42.96963094501" lon="-5.78253940854">
        <ele>1702.27</ele>
        <time>2012-12-20T13:45:55+01:00</time>
      </trkpt>
      <trkpt lat="42.96961309904" lon="-5.78257297946">
        <ele>1703.17</ele>
        <time>2012-12-20T13:45:57+01:00</time>
      </trkpt>
      <trkpt lat="42.96958830686" lon="-5.78262012795">
        <ele>1704.05</ele>
        <time>2012-12-20T13:45:58+01:00</time>
      </trkpt>
      <trkpt lat="42.96957513416" lon="-5.78265168587">
        <ele>1704.59</ele>
        <time>2012-12-20T13:46:00+01:00</time>
      </trkpt>
      <trkpt lat="42.96956438594" lon="-5.78268139973">
        <ele>1705.25</ele>
        <time>2012-12-20T13:46:00+01:00</time>
      </trkpt>
      <trkpt lat="42.96955670424" lon="-5.78271255526">
        <ele>1705.96</ele>
        <time>2012-12-20T13:46:02+01:00</time>
      </trkpt>
      <trkpt lat="42.96954390262" lon="-5.78276129938">
        <ele>1706.63</ele>
        <time>2012-12-20T13:46:04+01:00</time>
      </trkpt>
      <trkpt lat="42.96952766303" lon="-5.78281040962">
        <ele>1707.26</ele>
        <time>2012-12-20T13:46:06+01:00</time>
      </trkpt>
      <trkpt lat="42.96951107113" lon="-5.78285919076">
        <ele>1707.94</ele>
        <time>2012-12-20T13:46:07+01:00</time>
      </trkpt>
      <trkpt lat="42.96950528815" lon="-5.78288393813">
        <ele>1708.69</ele>
        <time>2012-12-20T13:46:09+01:00</time>
      </trkpt>
      <trkpt lat="42.96949429151" lon="-5.78295999537">
        <ele>1710.05</ele>
        <time>2012-12-20T13:46:11+01:00</time>
      </trkpt>
      <trkpt lat="42.96948464906" lon="-5.7830198656">
        <ele>1710.8</ele>
        <time>2012-12-20T13:46:12+01:00</time>
      </trkpt>
      <trkpt lat="42.96946941011" lon="-5.7830621486">
        <ele>1711.51</ele>
        <time>2012-12-20T13:46:14+01:00</time>
      </trkpt>
      <trkpt lat="42.96945680694" lon="-5.7831032611">
        <ele>1712.35</ele>
        <time>2012-12-20T13:46:14+01:00</time>
      </trkpt>
      <trkpt lat="42.96943889714" lon="-5.78313287422">
        <ele>1713.27</ele>
        <time>2012-12-20T13:46:16+01:00</time>
      </trkpt>
      <trkpt lat="42.9694279391" lon="-5.78316903875">
        <ele>1714.13</ele>
        <time>2012-12-20T13:46:17+01:00</time>
      </trkpt>
      <trkpt lat="42.9694286644" lon="-5.78320584301">
        <ele>1714.77</ele>
        <time>2012-12-20T13:46:19+01:00</time>
      </trkpt>
      <trkpt lat="42.96942683133" lon="-5.78324284227">
        <ele>1715.43</ele>
        <time>2012-12-20T13:46:22+01:00</time>
      </trkpt>
      <trkpt lat="42.96942713527" lon="-5.78328115458">
        <ele>1717.14</ele>
        <time>2012-12-20T13:46:23+01:00</time>
      </trkpt>
      <trkpt lat="42.9694214293" lon="-5.78331979656">
        <ele>1717</ele>
        <time>2012-12-20T13:46:26+01:00</time>
      </trkpt>
      <trkpt lat="42.96941130271" lon="-5.7833621925">
        <ele>1718.75</ele>
        <time>2012-12-20T13:46:27+01:00</time>
      </trkpt>
      <trkpt lat="42.96939211126" lon="-5.78339789611">
        <ele>1719.84</ele>
        <time>2012-12-20T13:46:29+01:00</time>
      </trkpt>
      <trkpt lat="42.96939182689" lon="-5.78344560525">
        <ele>1721.03</ele>
        <time>2012-12-20T13:46:32+01:00</time>
      </trkpt>
      <trkpt lat="42.96937534149" lon="-5.7834837126">
        <ele>1720.75</ele>
        <time>2012-12-20T13:46:33+01:00</time>
      </trkpt>
      <trkpt lat="42.96938086217" lon="-5.7835148034">
        <ele>1722.7</ele>
        <time>2012-12-20T13:46:34+01:00</time>
      </trkpt>
      <trkpt lat="42.96937378557" lon="-5.78354589905">
        <ele>1723.97</ele>
        <time>2012-12-20T13:46:36+01:00</time>
      </trkpt>
      <trkpt lat="42.96936253738" lon="-5.78358510722">
        <ele>1724.77</ele>
        <time>2012-12-20T13:46:38+01:00</time>
      </trkpt>
      <trkpt lat="42.96935677662" lon="-5.78361715792">
        <ele>1725.43</ele>
        <time>2012-12-20T13:46:39+01:00</time>
      </trkpt>
      <trkpt lat="42.96934942186" lon="-5.78365937555">
        <ele>1726.65</ele>
        <time>2012-12-20T13:46:42+01:00</time>
      </trkpt>
      <trkpt lat="42.96933796021" lon="-5.7837056124">
        <ele>1727.72</ele>
        <time>2012-12-20T13:46:43+01:00</time>
      </trkpt>
      <trkpt lat="42.96932466867" lon="-5.7837555738">
        <ele>1728.94</ele>
        <time>2012-12-20T13:46:45+01:00</time>
      </trkpt>
      <trkpt lat="42.96931879333" lon="-5.78379119549">
        <ele>1729.83</ele>
        <time>2012-12-20T13:46:47+01:00</time>
      </trkpt>
      <trkpt lat="42.96930531363" lon="-5.78382494075">
        <ele>1731.31</ele>
        <time>2012-12-20T13:46:49+01:00</time>
      </trkpt>
      <trkpt lat="42.96929524162" lon="-5.78387145355">
        <ele>1731.18</ele>
        <time>2012-12-20T13:46:50+01:00</time>
      </trkpt>
      <trkpt lat="42.9692779051" lon="-5.78392528078">
        <ele>1733.1</ele>
        <time>2012-12-20T13:46:52+01:00</time>
      </trkpt>
      <trkpt lat="42.96926199905" lon="-5.7839626001">
        <ele>1732.58</ele>
        <time>2012-12-20T13:46:54+01:00</time>
      </trkpt>
      <trkpt lat="42.96925087179" lon="-5.78399601433">
        <ele>1733.15</ele>
        <time>2012-12-20T13:46:56+01:00</time>
      </trkpt>
      <trkpt lat="42.96923905744" lon="-5.78403770001">
        <ele>1733.84</ele>
        <time>2012-12-20T13:46:58+01:00</time>
      </trkpt>
      <trkpt lat="42.96922368586" lon="-5.78408580089">
        <ele>1734.72</ele>
        <time>2012-12-20T13:47:00+01:00</time>
      </trkpt>
      <trkpt lat="42.96920951391" lon="-5.78412016445">
        <ele>1735.3</ele>
        <time>2012-12-20T13:47:01+01:00</time>
      </trkpt>
      <trkpt lat="42.96919538071" lon="-5.78415224992">
        <ele>1736.01</ele>
        <time>2012-12-20T13:47:02+01:00</time>
      </trkpt>
      <trkpt lat="42.96918226109" lon="-5.78418153285">
        <ele>1736.75</ele>
        <time>2012-12-20T13:47:03+01:00</time>
      </trkpt>
      <trkpt lat="42.96916823778" lon="-5.78421052349">
        <ele>1737.54</ele>
        <time>2012-12-20T13:47:04+01:00</time>
      </trkpt>
      <trkpt lat="42.96915584422" lon="-5.78423751107">
        <ele>1738.06</ele>
        <time>2012-12-20T13:47:05+01:00</time>
      </trkpt>
      <trkpt lat="42.96914149673" lon="-5.78426778607">
        <ele>1738.88</ele>
        <time>2012-12-20T13:47:06+01:00</time>
      </trkpt>
      <trkpt lat="42.96912389778" lon="-5.78430250969">
        <ele>1741.1</ele>
        <time>2012-12-20T13:47:07+01:00</time>
      </trkpt>
      <trkpt lat="42.96910818477" lon="-5.78433583814">
        <ele>1742.27</ele>
        <time>2012-12-20T13:47:08+01:00</time>
      </trkpt>
      <trkpt lat="42.96909364278" lon="-5.78436268745">
        <ele>1742.3</ele>
        <time>2012-12-20T13:47:09+01:00</time>
      </trkpt>
      <trkpt lat="42.96906532571" lon="-5.78442093104">
        <ele>1745.04</ele>
        <time>2012-12-20T13:47:11+01:00</time>
      </trkpt>
      <trkpt lat="42.96904706711" lon="-5.78446998087">
        <ele>1746.49</ele>
        <time>2012-12-20T13:47:13+01:00</time>
      </trkpt>
      <trkpt lat="42.96903309587" lon="-5.78451366054">
        <ele>1747.96</ele>
        <time>2012-12-20T13:47:15+01:00</time>
      </trkpt>
      <trkpt lat="42.96902170333" lon="-5.78455778387">
        <ele>1749.47</ele>
        <time>2012-12-20T13:47:17+01:00</time>
      </trkpt>
      <trkpt lat="42.96900996516" lon="-5.78460142351">
        <ele>1751.22</ele>
        <time>2012-12-20T13:47:19+01:00</time>
      </trkpt>
      <trkpt lat="42.96899541014" lon="-5.78464325585">
        <ele>1752.96</ele>
        <time>2012-12-20T13:47:21+01:00</time>
      </trkpt>
      <trkpt lat="42.96897953726" lon="-5.78469664797">
        <ele>1754.52</ele>
        <time>2012-12-20T13:47:23+01:00</time>
      </trkpt>
      <trkpt lat="42.96896444672" lon="-5.78474362848">
        <ele>1756.19</ele>
        <time>2012-12-20T13:47:25+01:00</time>
      </trkpt>
      <trkpt lat="42.96895396065" lon="-5.78478453635">
        <ele>1756.18</ele>
        <time>2012-12-20T13:47:27+01:00</time>
      </trkpt>
      <trkpt lat="42.96894022101" lon="-5.78482833868">
        <ele>1757.76</ele>
        <time>2012-12-20T13:47:29+01:00</time>
      </trkpt>
      <trkpt lat="42.96892647602" lon="-5.78487109615">
        <ele>1758.99</ele>
        <time>2012-12-20T13:47:31+01:00</time>
      </trkpt>
      <trkpt lat="42.96890946525" lon="-5.7849242438">
        <ele>1760.09</ele>
        <time>2012-12-20T13:47:33+01:00</time>
      </trkpt>
      <trkpt lat="42.96889316709" lon="-5.78497225598">
        <ele>1761.19</ele>
        <time>2012-12-20T13:47:35+01:00</time>
      </trkpt>
      <trkpt lat="42.96887633669" lon="-5.78502111249">
        <ele>1764.53</ele>
        <time>2012-12-20T13:47:37+01:00</time>
      </trkpt>
      <trkpt lat="42.96886273458" lon="-5.78506703593">
        <ele>1764.24</ele>
        <time>2012-12-20T13:47:39+01:00</time>
      </trkpt>
      <trkpt lat="42.96885247305" lon="-5.78510632201">
        <ele>1765.41</ele>
        <time>2012-12-20T13:47:41+01:00</time>
      </trkpt>
      <trkpt lat="42.96884425167" lon="-5.78515266893">
        <ele>1766.79</ele>
        <time>2012-12-20T13:47:43+01:00</time>
      </trkpt>
      <trkpt lat="42.96883030275" lon="-5.78519539887">
        <ele>1768.3</ele>
        <time>2012-12-20T13:47:45+01:00</time>
      </trkpt>
      <trkpt lat="42.96881581183" lon="-5.78523130339">
        <ele>1769.51</ele>
        <time>2012-12-20T13:47:46+01:00</time>
      </trkpt>
      <trkpt lat="42.96880148074" lon="-5.78526389822">
        <ele>1770.77</ele>
        <time>2012-12-20T13:47:47+01:00</time>
      </trkpt>
      <trkpt lat="42.96879233423" lon="-5.78528850824">
        <ele>1772.05</ele>
        <time>2012-12-20T13:47:48+01:00</time>
      </trkpt>
      <trkpt lat="42.9687652022" lon="-5.78533870638">
        <ele>1773.21</ele>
        <time>2012-12-20T13:47:50+01:00</time>
      </trkpt>
      <trkpt lat="42.96874814172" lon="-5.78538643104">
        <ele>1774.77</ele>
        <time>2012-12-20T13:47:53+01:00</time>
      </trkpt>
      <trkpt lat="42.96873182149" lon="-5.78543681261">
        <ele>1776.43</ele>
        <time>2012-12-20T13:47:55+01:00</time>
      </trkpt>
      <trkpt lat="42.96872014201" lon="-5.7854696877">
        <ele>1777.91</ele>
        <time>2012-12-20T13:47:56+01:00</time>
      </trkpt>
      <trkpt lat="42.96870416038" lon="-5.78551441714">
        <ele>1779.22</ele>
        <time>2012-12-20T13:47:58+01:00</time>
      </trkpt>
      <trkpt lat="42.96869030227" lon="-5.78555394021">
        <ele>1780.62</ele>
        <time>2012-12-20T13:48:00+01:00</time>
      </trkpt>
      <trkpt lat="42.96868454669" lon="-5.78560978931">
        <ele>1782.4</ele>
        <time>2012-12-20T13:48:02+01:00</time>
      </trkpt>
      <trkpt lat="42.96868041162" lon="-5.78564603779">
        <ele>1783.87</ele>
        <time>2012-12-20T13:48:03+01:00</time>
      </trkpt>
      <trkpt lat="42.96867572893" lon="-5.78567950607">
        <ele>1785.32</ele>
        <time>2012-12-20T13:48:04+01:00</time>
      </trkpt>
      <trkpt lat="42.96865879972" lon="-5.78572924919">
        <ele>1786.87</ele>
        <time>2012-12-20T13:48:06+01:00</time>
      </trkpt>
      <trkpt lat="42.96863633666" lon="-5.78577808984">
        <ele>1788.21</ele>
        <time>2012-12-20T13:48:08+01:00</time>
      </trkpt>
      <trkpt lat="42.96861679016" lon="-5.78583191325">
        <ele>1789.59</ele>
        <time>2012-12-20T13:48:10+01:00</time>
      </trkpt>
      <trkpt lat="42.96859685466" lon="-5.78588371573">
        <ele>1790.85</ele>
        <time>2012-12-20T13:48:12+01:00</time>
      </trkpt>
      <trkpt lat="42.96858354688" lon="-5.78591734439">
        <ele>1792.21</ele>
        <time>2012-12-20T13:48:14+01:00</time>
      </trkpt>
      <trkpt lat="42.96857082704" lon="-5.78594479019">
        <ele>1793.6</ele>
        <time>2012-12-20T13:48:14+01:00</time>
      </trkpt>
      <trkpt lat="42.96855845948" lon="-5.78597053003">
        <ele>1794.8</ele>
        <time>2012-12-20T13:48:15+01:00</time>
      </trkpt>
      <trkpt lat="42.96855873523" lon="-5.78600585285">
        <ele>1795.48</ele>
        <time>2012-12-20T13:48:17+01:00</time>
      </trkpt>
      <trkpt lat="42.96855486765" lon="-5.78604490275">
        <ele>1796.24</ele>
        <time>2012-12-20T13:48:20+01:00</time>
      </trkpt>
      <trkpt lat="42.9685408172" lon="-5.7860837593">
        <ele>1797.32</ele>
        <time>2012-12-20T13:48:23+01:00</time>
      </trkpt>
      <trkpt lat="42.9685249984" lon="-5.78613484829">
        <ele>1798.66</ele>
        <time>2012-12-20T13:48:25+01:00</time>
      </trkpt>
      <trkpt lat="42.9685148007" lon="-5.78617583923">
        <ele>1799.82</ele>
        <time>2012-12-20T13:48:25+01:00</time>
      </trkpt>
      <trkpt lat="42.96850574688" lon="-5.78620966055">
        <ele>1800.88</ele>
        <time>2012-12-20T13:48:26+01:00</time>
      </trkpt>
      <trkpt lat="42.96849726006" lon="-5.78624231229">
        <ele>1803.98</ele>
        <time>2012-12-20T13:48:28+01:00</time>
      </trkpt>
      <trkpt lat="42.9684756515" lon="-5.78629262271">
        <ele>1804.05</ele>
        <time>2012-12-20T13:48:30+01:00</time>
      </trkpt>
      <trkpt lat="42.96845845519" lon="-5.78632555062">
        <ele>1805.11</ele>
        <time>2012-12-20T13:48:30+01:00</time>
      </trkpt>
      <trkpt lat="42.96844827688" lon="-5.78637203407">
        <ele>1805.74</ele>
        <time>2012-12-20T13:48:32+01:00</time>
      </trkpt>
      <trkpt lat="42.96845254441" lon="-5.78642706242">
        <ele>1806.61</ele>
        <time>2012-12-20T13:48:34+01:00</time>
      </trkpt>
      <trkpt lat="42.96844642417" lon="-5.7864843362">
        <ele>1808.9</ele>
        <time>2012-12-20T13:48:37+01:00</time>
      </trkpt>
      <trkpt lat="42.96843758935" lon="-5.78652133899">
        <ele>1810.06</ele>
        <time>2012-12-20T13:48:37+01:00</time>
      </trkpt>
      <trkpt lat="42.96842371892" lon="-5.78655495814">
        <ele>1811.25</ele>
        <time>2012-12-20T13:48:39+01:00</time>
      </trkpt>
      <trkpt lat="42.96840682971" lon="-5.78658609008">
        <ele>1812.38</ele>
        <time>2012-12-20T13:48:39+01:00</time>
      </trkpt>
      <trkpt lat="42.96838953791" lon="-5.78661719395">
        <ele>1812.46</ele>
        <time>2012-12-20T13:48:41+01:00</time>
      </trkpt>
      <trkpt lat="42.96838014704" lon="-5.78663642082">
        <ele>1813.21</ele>
        <time>2012-12-20T13:48:41+01:00</time>
      </trkpt>
      <trkpt lat="42.96835295364" lon="-5.78668224538">
        <ele>1815.24</ele>
        <time>2012-12-20T13:48:44+01:00</time>
      </trkpt>
      <trkpt lat="42.96832887361" lon="-5.7867318446">
        <ele>1815.15</ele>
        <time>2012-12-20T13:48:46+01:00</time>
      </trkpt>
      <trkpt lat="42.96831460281" lon="-5.78676650782">
        <ele>1815.85</ele>
        <time>2012-12-20T13:48:46+01:00</time>
      </trkpt>
      <trkpt lat="42.96830165684" lon="-5.78680254243">
        <ele>1816.65</ele>
        <time>2012-12-20T13:48:47+01:00</time>
      </trkpt>
      <trkpt lat="42.96828971344" lon="-5.78683630322">
        <ele>1818.83</ele>
        <time>2012-12-20T13:48:49+01:00</time>
      </trkpt>
      <trkpt lat="42.96827290789" lon="-5.78687470545">
        <ele>1818.86</ele>
        <time>2012-12-20T13:48:50+01:00</time>
      </trkpt>
      <trkpt lat="42.96825228006" lon="-5.78692724584">
        <ele>1820.05</ele>
        <time>2012-12-20T13:48:52+01:00</time>
      </trkpt>
      <trkpt lat="42.96823621866" lon="-5.78696075386">
        <ele>1820.97</ele>
        <time>2012-12-20T13:48:53+01:00</time>
      </trkpt>
      <trkpt lat="42.96822348454" lon="-5.78699816676">
        <ele>1821.46</ele>
        <time>2012-12-20T13:48:56+01:00</time>
      </trkpt>
      <trkpt lat="42.96821034299" lon="-5.78703227026">
        <ele>1822.18</ele>
        <time>2012-12-20T13:48:56+01:00</time>
      </trkpt>
      <trkpt lat="42.96820060683" lon="-5.78706430373">
        <ele>1822.84</ele>
        <time>2012-12-20T13:48:57+01:00</time>
      </trkpt>
      <trkpt lat="42.96818816545" lon="-5.78710980362">
        <ele>1823.02</ele>
        <time>2012-12-20T13:49:00+01:00</time>
      </trkpt>
      <trkpt lat="42.96817457954" lon="-5.78713747789">
        <ele>1823.18</ele>
        <time>2012-12-20T13:49:00+01:00</time>
      </trkpt>
      <trkpt lat="42.96817055478" lon="-5.78718089895">
        <ele>1824.08</ele>
        <time>2012-12-20T13:49:02+01:00</time>
      </trkpt>
      <trkpt lat="42.96815999329" lon="-5.78722230611">
        <ele>1824.64</ele>
        <time>2012-12-20T13:49:05+01:00</time>
      </trkpt>
      <trkpt lat="42.96815395829" lon="-5.78725183143">
        <ele>1825.08</ele>
        <time>2012-12-20T13:49:07+01:00</time>
      </trkpt>
      <trkpt lat="42.96813374111" lon="-5.78730656532">
        <ele>1826.18</ele>
        <time>2012-12-20T13:49:07+01:00</time>
      </trkpt>
      <trkpt lat="42.96812178515" lon="-5.78734225547">
        <ele>1827</ele>
        <time>2012-12-20T13:49:09+01:00</time>
      </trkpt>
      <trkpt lat="42.96810995996" lon="-5.78736633039">
        <ele>1827.86</ele>
        <time>2012-12-20T13:49:09+01:00</time>
      </trkpt>
      <trkpt lat="42.96809285552" lon="-5.7874127477">
        <ele>1828.03</ele>
        <time>2012-12-20T13:49:12+01:00</time>
      </trkpt>
      <trkpt lat="42.96808360082" lon="-5.78744643926">
        <ele>1828.49</ele>
        <time>2012-12-20T13:49:14+01:00</time>
      </trkpt>
      <trkpt lat="42.96808356037" lon="-5.78747986555">
        <ele>1829.45</ele>
        <time>2012-12-20T13:49:17+01:00</time>
      </trkpt>
      <trkpt lat="42.96807242112" lon="-5.7875229618">
        <ele>1830.06</ele>
        <time>2012-12-20T13:49:18+01:00</time>
      </trkpt>
      <trkpt lat="42.96805654753" lon="-5.78758328063">
        <ele>1831.07</ele>
        <time>2012-12-20T13:49:21+01:00</time>
      </trkpt>
      <trkpt lat="42.96804596321" lon="-5.7876216971">
        <ele>1832</ele>
        <time>2012-12-20T13:49:21+01:00</time>
      </trkpt>
      <trkpt lat="42.96802902714" lon="-5.78766029285">
        <ele>1833.08</ele>
        <time>2012-12-20T13:49:23+01:00</time>
      </trkpt>
      <trkpt lat="42.96801591692" lon="-5.7876936271">
        <ele>1833.76</ele>
        <time>2012-12-20T13:49:23+01:00</time>
      </trkpt>
      <trkpt lat="42.96800273367" lon="-5.78773214518">
        <ele>1834.56</ele>
        <time>2012-12-20T13:49:24+01:00</time>
      </trkpt>
      <trkpt lat="42.96798899939" lon="-5.78776774377">
        <ele>1835.41</ele>
        <time>2012-12-20T13:49:26+01:00</time>
      </trkpt>
      <trkpt lat="42.96797381378" lon="-5.78780349607">
        <ele>1836.58</ele>
        <time>2012-12-20T13:49:27+01:00</time>
      </trkpt>
      <trkpt lat="42.96796695452" lon="-5.78784571641">
        <ele>1837.7</ele>
        <time>2012-12-20T13:49:28+01:00</time>
      </trkpt>
      <trkpt lat="42.96794868475" lon="-5.78789895337">
        <ele>1837.67</ele>
        <time>2012-12-20T13:49:34+01:00</time>
      </trkpt>
      <trkpt lat="42.96795518966" lon="-5.78794339659">
        <ele>1837.64</ele>
        <time>2012-12-20T13:49:37+01:00</time>
      </trkpt>
      <trkpt lat="42.9679662807" lon="-5.78797669334">
        <ele>1837.68</ele>
        <time>2012-12-20T13:49:39+01:00</time>
      </trkpt>
      <trkpt lat="42.96796662137" lon="-5.78801909313">
        <ele>1837.88</ele>
        <time>2012-12-20T13:49:41+01:00</time>
      </trkpt>
      <trkpt lat="42.96796303499" lon="-5.78805338935">
        <ele>1837.85</ele>
        <time>2012-12-20T13:49:41+01:00</time>
      </trkpt>
      <trkpt lat="42.96795966903" lon="-5.78809330681">
        <ele>1837.95</ele>
        <time>2012-12-20T13:49:43+01:00</time>
      </trkpt>
      <trkpt lat="42.96795514017" lon="-5.78814071878">
        <ele>1838.12</ele>
        <time>2012-12-20T13:49:44+01:00</time>
      </trkpt>
      <trkpt lat="42.96795527375" lon="-5.78818741682">
        <ele>1838.29</ele>
        <time>2012-12-20T13:49:45+01:00</time>
      </trkpt>
      <trkpt lat="42.96795583186" lon="-5.78823926343">
        <ele>1838.52</ele>
        <time>2012-12-20T13:49:46+01:00</time>
      </trkpt>
      <trkpt lat="42.96795990479" lon="-5.78827371159">
        <ele>1838.69</ele>
        <time>2012-12-20T13:49:46+01:00</time>
      </trkpt>
      <trkpt lat="42.96796881753" lon="-5.78831759681">
        <ele>1838.07</ele>
        <time>2012-12-20T13:49:48+01:00</time>
      </trkpt>
      <trkpt lat="42.96798902226" lon="-5.78832947729">
        <ele>1837.83</ele>
        <time>2012-12-20T13:49:50+01:00</time>
      </trkpt>
      <trkpt lat="42.96799888665" lon="-5.78830152293">
        <ele>1838.49</ele>
        <time>2012-12-20T13:49:53+01:00</time>
      </trkpt>
      <trkpt lat="42.96799998624" lon="-5.78823784973">
        <ele>1838.91</ele>
        <time>2012-12-20T13:49:55+01:00</time>
      </trkpt>
      <trkpt lat="42.96799505484" lon="-5.78827034431">
        <ele>1838.88</ele>
        <time>2012-12-20T13:50:00+01:00</time>
      </trkpt>
      <trkpt lat="42.9679901123" lon="-5.7883373941">
        <ele>1838.98</ele>
        <time>2012-12-20T13:50:01+01:00</time>
      </trkpt>
      <trkpt lat="42.96799056318" lon="-5.78836371259">
        <ele>1839.03</ele>
        <time>2012-12-20T13:50:02+01:00</time>
      </trkpt>
      <trkpt lat="42.96800621247" lon="-5.78836867414">
        <ele>1839.5</ele>
        <time>2012-12-20T13:50:32+01:00</time>
      </trkpt>
      <trkpt lat="42.96801602666" lon="-5.78838668678">
        <ele>1838.98</ele>
        <time>2012-12-20T13:50:35+01:00</time>
      </trkpt>
      <trkpt lat="42.96803493154" lon="-5.78840658957">
        <ele>1838.9</ele>
        <time>2012-12-20T13:50:37+01:00</time>
      </trkpt>
      <trkpt lat="42.96805745975" lon="-5.7883977236">
        <ele>1839.3</ele>
        <time>2012-12-20T13:50:41+01:00</time>
      </trkpt>
      <trkpt lat="42.96807343713" lon="-5.78834335688">
        <ele>1839.9</ele>
        <time>2012-12-20T13:50:43+01:00</time>
      </trkpt>
      <trkpt lat="42.9680747847" lon="-5.78831719885">
        <ele>1839.99</ele>
        <time>2012-12-20T13:50:48+01:00</time>
      </trkpt>
      <trkpt lat="42.96806761497" lon="-5.78826341536">
        <ele>1840.03</ele>
        <time>2012-12-20T13:51:01+01:00</time>
      </trkpt>
      <trkpt lat="42.9680829113" lon="-5.78827083063">
        <ele>1839.13</ele>
        <time>2012-12-20T13:51:08+01:00</time>
      </trkpt>
      <trkpt lat="42.96810705944" lon="-5.78829853228">
        <ele>1838.97</ele>
        <time>2012-12-20T13:51:10+01:00</time>
      </trkpt>
      <trkpt lat="42.9681258988" lon="-5.78830019287">
        <ele>1838.62</ele>
        <time>2012-12-20T13:51:14+01:00</time>
      </trkpt>
      <trkpt lat="42.96811723273" lon="-5.7882463349">
        <ele>1839.14</ele>
        <time>2012-12-20T13:51:24+01:00</time>
      </trkpt>
      <trkpt lat="42.96811275481" lon="-5.78821898317">
        <ele>1838.9</ele>
        <time>2012-12-20T13:51:25+01:00</time>
      </trkpt>
      <trkpt lat="42.96811111706" lon="-5.78824994131">
        <ele>1838.93</ele>
        <time>2012-12-20T13:51:30+01:00</time>
      </trkpt>
      <trkpt lat="42.96811189593" lon="-5.78828496668">
        <ele>1838.67</ele>
        <time>2012-12-20T13:51:32+01:00</time>
      </trkpt>
      <trkpt lat="42.96809035933" lon="-5.78828003592">
        <ele>1839.32</ele>
        <time>2012-12-20T13:51:46+01:00</time>
      </trkpt>
      <trkpt lat="42.96807160161" lon="-5.78825035014">
        <ele>1839.93</ele>
        <time>2012-12-20T13:51:47+01:00</time>
      </trkpt>
      <trkpt lat="42.9680801547" lon="-5.78827150329">
        <ele>1840.06</ele>
        <time>2012-12-20T13:51:49+01:00</time>
      </trkpt>
      <trkpt lat="42.96807640032" lon="-5.78831234607">
        <ele>1840.66</ele>
        <time>2012-12-20T13:51:52+01:00</time>
      </trkpt>
      <trkpt lat="42.96806274131" lon="-5.78829174794">
        <ele>1841.08</ele>
        <time>2012-12-20T13:51:56+01:00</time>
      </trkpt>
      <trkpt lat="42.96805744264" lon="-5.78831427072">
        <ele>1841.81</ele>
        <time>2012-12-20T13:52:10+01:00</time>
      </trkpt>
      <trkpt lat="42.96805767573" lon="-5.78828978594">
        <ele>1841.61</ele>
        <time>2012-12-20T13:52:17+01:00</time>
      </trkpt>
      <trkpt lat="42.96806741183" lon="-5.78824820977">
        <ele>1842.4</ele>
        <time>2012-12-20T13:52:21+01:00</time>
      </trkpt>
      <trkpt lat="42.96805806024" lon="-5.78826993528">
        <ele>1842.24</ele>
        <time>2012-12-20T13:52:29+01:00</time>
      </trkpt>
      <trkpt lat="42.96806554413" lon="-5.78825141455">
        <ele>1842.75</ele>
        <time>2012-12-20T13:52:41+01:00</time>
      </trkpt>
      <trkpt lat="42.96806821886" lon="-5.78822906671">
        <ele>1843.49</ele>
        <time>2012-12-20T13:52:46+01:00</time>
      </trkpt>
      <trkpt lat="42.96807290674" lon="-5.78818389696">
        <ele>1843.54</ele>
        <time>2012-12-20T13:52:50+01:00</time>
      </trkpt>
      <trkpt lat="42.9680851096" lon="-5.78814515754">
        <ele>1843.21</ele>
        <time>2012-12-20T13:52:53+01:00</time>
      </trkpt>
      <trkpt lat="42.96809185269" lon="-5.78812384468">
        <ele>1843.3</ele>
        <time>2012-12-20T13:52:57+01:00</time>
      </trkpt>
      <trkpt lat="42.96810851244" lon="-5.78808379444">
        <ele>1843.31</ele>
        <time>2012-12-20T13:53:01+01:00</time>
      </trkpt>
      <trkpt lat="42.96812666359" lon="-5.78805935586">
        <ele>1843.17</ele>
        <time>2012-12-20T13:53:03+01:00</time>
      </trkpt>
      <trkpt lat="42.96814930398" lon="-5.78803227287">
        <ele>1842.96</ele>
        <time>2012-12-20T13:53:05+01:00</time>
      </trkpt>
      <trkpt lat="42.96815500552" lon="-5.78797602841">
        <ele>1843.22</ele>
        <time>2012-12-20T13:53:07+01:00</time>
      </trkpt>
      <trkpt lat="42.9681529941" lon="-5.78795001284">
        <ele>1843.49</ele>
        <time>2012-12-20T13:53:10+01:00</time>
      </trkpt>
      <trkpt lat="42.96815084852" lon="-5.78787589148">
        <ele>1843.23</ele>
        <time>2012-12-20T13:53:11+01:00</time>
      </trkpt>
      <trkpt lat="42.96815635379" lon="-5.78783618972">
        <ele>1843.18</ele>
        <time>2012-12-20T13:53:13+01:00</time>
      </trkpt>
      <trkpt lat="42.96817254227" lon="-5.78780317072">
        <ele>1843.32</ele>
        <time>2012-12-20T13:53:14+01:00</time>
      </trkpt>
      <trkpt lat="42.96819582948" lon="-5.78776961071">
        <ele>1843.5</ele>
        <time>2012-12-20T13:53:15+01:00</time>
      </trkpt>
      <trkpt lat="42.96822405683" lon="-5.78773426613">
        <ele>1843.17</ele>
        <time>2012-12-20T13:53:16+01:00</time>
      </trkpt>
      <trkpt lat="42.96824941654" lon="-5.7876923285">
        <ele>1843.09</ele>
        <time>2012-12-20T13:53:16+01:00</time>
      </trkpt>
      <trkpt lat="42.96827336452" lon="-5.78764370784">
        <ele>1843.14</ele>
        <time>2012-12-20T13:53:18+01:00</time>
      </trkpt>
      <trkpt lat="42.96832163943" lon="-5.78751415602">
        <ele>1842.46</ele>
        <time>2012-12-20T13:53:18+01:00</time>
      </trkpt>
      <trkpt lat="42.96838527387" lon="-5.7874600154">
        <ele>1841.94</ele>
        <time>2012-12-20T13:53:20+01:00</time>
      </trkpt>
      <trkpt lat="42.96844037966" lon="-5.7874289366">
        <ele>1841.39</ele>
        <time>2012-12-20T13:53:20+01:00</time>
      </trkpt>
      <trkpt lat="42.96848825539" lon="-5.78738368706">
        <ele>1840.72</ele>
        <time>2012-12-20T13:53:23+01:00</time>
      </trkpt>
      <trkpt lat="42.96851227708" lon="-5.78731835649">
        <ele>1839.88</ele>
        <time>2012-12-20T13:53:24+01:00</time>
      </trkpt>
      <trkpt lat="42.96858346222" lon="-5.78720118258">
        <ele>1838.86</ele>
        <time>2012-12-20T13:53:25+01:00</time>
      </trkpt>
      <trkpt lat="42.96863753006" lon="-5.7871232319">
        <ele>1838.2</ele>
        <time>2012-12-20T13:53:26+01:00</time>
      </trkpt>
      <trkpt lat="42.96867613977" lon="-5.78708339703">
        <ele>1837.75</ele>
        <time>2012-12-20T13:53:26+01:00</time>
      </trkpt>
      <trkpt lat="42.96872605953" lon="-5.78700803331">
        <ele>1837.06</ele>
        <time>2012-12-20T13:53:28+01:00</time>
      </trkpt>
      <trkpt lat="42.96881782902" lon="-5.78686378919">
        <ele>1836.17</ele>
        <time>2012-12-20T13:53:28+01:00</time>
      </trkpt>
      <trkpt lat="42.96889455449" lon="-5.7867706344">
        <ele>1835.31</ele>
        <time>2012-12-20T13:53:29+01:00</time>
      </trkpt>
      <trkpt lat="42.96895164147" lon="-5.78664907367">
        <ele>1834.23</ele>
        <time>2012-12-20T13:53:30+01:00</time>
      </trkpt>
      <trkpt lat="42.96900007334" lon="-5.78654469759">
        <ele>1832.65</ele>
        <time>2012-12-20T13:53:31+01:00</time>
      </trkpt>
      <trkpt lat="42.96906903654" lon="-5.78644281966">
        <ele>1831.55</ele>
        <time>2012-12-20T13:53:32+01:00</time>
      </trkpt>
      <trkpt lat="42.96917858404" lon="-5.7863560594">
        <ele>1829.75</ele>
        <time>2012-12-20T13:53:33+01:00</time>
      </trkpt>
      <trkpt lat="42.96928562015" lon="-5.78628700777">
        <ele>1827.68</ele>
        <time>2012-12-20T13:53:34+01:00</time>
      </trkpt>
      <trkpt lat="42.96937324441" lon="-5.78615786246">
        <ele>1825.67</ele>
        <time>2012-12-20T13:53:35+01:00</time>
      </trkpt>
      <trkpt lat="42.9694803915" lon="-5.78602492784">
        <ele>1823.73</ele>
        <time>2012-12-20T13:53:36+01:00</time>
      </trkpt>
      <trkpt lat="42.96957895274" lon="-5.78595935644">
        <ele>1821.7</ele>
        <time>2012-12-20T13:53:37+01:00</time>
      </trkpt>
      <trkpt lat="42.96968042726" lon="-5.78586348174">
        <ele>1819.44</ele>
        <time>2012-12-20T13:53:38+01:00</time>
      </trkpt>
      <trkpt lat="42.96976461625" lon="-5.78576744332">
        <ele>1817.45</ele>
        <time>2012-12-20T13:53:39+01:00</time>
      </trkpt>
      <trkpt lat="42.96982655779" lon="-5.78567176572">
        <ele>1815.64</ele>
        <time>2012-12-20T13:53:41+01:00</time>
      </trkpt>
      <trkpt lat="42.96978258626" lon="-5.78560856216">
        <ele>1813.89</ele>
        <time>2012-12-20T13:53:41+01:00</time>
      </trkpt>
      <trkpt lat="42.96978196096" lon="-5.78554702183">
        <ele>1812.08</ele>
        <time>2012-12-20T13:53:43+01:00</time>
      </trkpt>
      <trkpt lat="42.96977529768" lon="-5.78548119702">
        <ele>1810.47</ele>
        <time>2012-12-20T13:53:43+01:00</time>
      </trkpt>
      <trkpt lat="42.96975827686" lon="-5.78543216237">
        <ele>1808.94</ele>
        <time>2012-12-20T13:53:45+01:00</time>
      </trkpt>
      <trkpt lat="42.96974649079" lon="-5.7853840669">
        <ele>1807.89</ele>
        <time>2012-12-20T13:53:46+01:00</time>
      </trkpt>
      <trkpt lat="42.96975915395" lon="-5.78533723216">
        <ele>1806.26</ele>
        <time>2012-12-20T13:53:47+01:00</time>
      </trkpt>
      <trkpt lat="42.96976626536" lon="-5.78527931982">
        <ele>1804.75</ele>
        <time>2012-12-20T13:53:48+01:00</time>
      </trkpt>
      <trkpt lat="42.96975769773" lon="-5.78521242452">
        <ele>1803.45</ele>
        <time>2012-12-20T13:53:48+01:00</time>
      </trkpt>
      <trkpt lat="42.96973846245" lon="-5.78517409059">
        <ele>1802.48</ele>
        <time>2012-12-20T13:53:50+01:00</time>
      </trkpt>
      <trkpt lat="42.9697029318" lon="-5.78510962803">
        <ele>1801.28</ele>
        <time>2012-12-20T13:53:51+01:00</time>
      </trkpt>
      <trkpt lat="42.96962856928" lon="-5.78506488429">
        <ele>1801.03</ele>
        <time>2012-12-20T13:53:52+01:00</time>
      </trkpt>
      <trkpt lat="42.96956112548" lon="-5.78501033799">
        <ele>1800.95</ele>
        <time>2012-12-20T13:53:52+01:00</time>
      </trkpt>
      <trkpt lat="42.96950643128" lon="-5.78496569995">
        <ele>1800.16</ele>
        <time>2012-12-20T13:53:53+01:00</time>
      </trkpt>
      <trkpt lat="42.96943759026" lon="-5.78495610179">
        <ele>1799.97</ele>
        <time>2012-12-20T13:53:55+01:00</time>
      </trkpt>
      <trkpt lat="42.96935311232" lon="-5.78492782945">
        <ele>1799.36</ele>
        <time>2012-12-20T13:53:55+01:00</time>
      </trkpt>
      <trkpt lat="42.96929102151" lon="-5.78486772614">
        <ele>1798.6</ele>
        <time>2012-12-20T13:53:57+01:00</time>
      </trkpt>
      <trkpt lat="42.96923434689" lon="-5.78478261528">
        <ele>1797.64</ele>
        <time>2012-12-20T13:53:57+01:00</time>
      </trkpt>
      <trkpt lat="42.9692036256" lon="-5.78472466058">
        <ele>1797.03</ele>
        <time>2012-12-20T13:53:58+01:00</time>
      </trkpt>
      <trkpt lat="42.96915218086" lon="-5.78464815784">
        <ele>1796.34</ele>
        <time>2012-12-20T13:54:00+01:00</time>
      </trkpt>
      <trkpt lat="42.96901285622" lon="-5.784493883">
        <ele>1795.73</ele>
        <time>2012-12-20T13:54:01+01:00</time>
      </trkpt>
      <trkpt lat="42.96891971303" lon="-5.78438061715">
        <ele>1795.39</ele>
        <time>2012-12-20T13:54:02+01:00</time>
      </trkpt>
      <trkpt lat="42.96883731487" lon="-5.78427334029">
        <ele>1794.81</ele>
        <time>2012-12-20T13:54:02+01:00</time>
      </trkpt>
      <trkpt lat="42.96878558755" lon="-5.78421190238">
        <ele>1794.22</ele>
        <time>2012-12-20T13:54:03+01:00</time>
      </trkpt>
      <trkpt lat="42.96868932098" lon="-5.78418595316">
        <ele>1793.55</ele>
        <time>2012-12-20T13:54:05+01:00</time>
      </trkpt>
      <trkpt lat="42.96861880395" lon="-5.78413301999">
        <ele>1792.8</ele>
        <time>2012-12-20T13:54:06+01:00</time>
      </trkpt>
      <trkpt lat="42.9685389529" lon="-5.7840716055">
        <ele>1792.05</ele>
        <time>2012-12-20T13:54:06+01:00</time>
      </trkpt>
      <trkpt lat="42.96853884125" lon="-5.78398777467">
        <ele>1790.94</ele>
        <time>2012-12-20T13:54:07+01:00</time>
      </trkpt>
      <trkpt lat="42.96853885244" lon="-5.78393017188">
        <ele>1789.74</ele>
        <time>2012-12-20T13:54:08+01:00</time>
      </trkpt>
      <trkpt lat="42.96853067395" lon="-5.78389303622">
        <ele>1786.91</ele>
        <time>2012-12-20T13:54:09+01:00</time>
      </trkpt>
      <trkpt lat="42.96853182104" lon="-5.7838593905">
        <ele>1785.11</ele>
        <time>2012-12-20T13:54:10+01:00</time>
      </trkpt>
      <trkpt lat="42.9685438857" lon="-5.78382040779">
        <ele>1783.29</ele>
        <time>2012-12-20T13:54:11+01:00</time>
      </trkpt>
      <trkpt lat="42.96854500456" lon="-5.78381474774">
        <ele>1783.26</ele>
        <time>2012-12-20T13:54:14+01:00</time>
      </trkpt>
      <trkpt lat="42.96853285649" lon="-5.78379921006">
        <ele>1781.76</ele>
        <time>2012-12-20T13:54:20+01:00</time>
      </trkpt>
      <trkpt lat="42.96851494302" lon="-5.78368172211">
        <ele>1780.38</ele>
        <time>2012-12-20T13:54:21+01:00</time>
      </trkpt>
      <trkpt lat="42.96851132442" lon="-5.78366167523">
        <ele>1779.26</ele>
        <time>2012-12-20T13:54:22+01:00</time>
      </trkpt>
      <trkpt lat="42.96852956046" lon="-5.78341346915">
        <ele>1777.18</ele>
        <time>2012-12-20T13:54:23+01:00</time>
      </trkpt>
      <trkpt lat="42.9685381027" lon="-5.78325318682">
        <ele>1775.06</ele>
        <time>2012-12-20T13:54:24+01:00</time>
      </trkpt>
      <trkpt lat="42.9685447654" lon="-5.78315431973">
        <ele>1772.84</ele>
        <time>2012-12-20T13:54:25+01:00</time>
      </trkpt>
      <trkpt lat="42.96860343799" lon="-5.78286433737">
        <ele>1770.99</ele>
        <time>2012-12-20T13:54:26+01:00</time>
      </trkpt>
      <trkpt lat="42.96863197828" lon="-5.78271417951">
        <ele>1768.76</ele>
        <time>2012-12-20T13:54:27+01:00</time>
      </trkpt>
      <trkpt lat="42.96866307509" lon="-5.78252711836">
        <ele>1767</ele>
        <time>2012-12-20T13:54:28+01:00</time>
      </trkpt>
      <trkpt lat="42.96867283999" lon="-5.78235240905">
        <ele>1765.09</ele>
        <time>2012-12-20T13:54:29+01:00</time>
      </trkpt>
      <trkpt lat="42.96867317525" lon="-5.78216225035">
        <ele>1763.35</ele>
        <time>2012-12-20T13:54:30+01:00</time>
      </trkpt>
      <trkpt lat="42.96867654896" lon="-5.78197890956">
        <ele>1761.5</ele>
        <time>2012-12-20T13:54:31+01:00</time>
      </trkpt>
      <trkpt lat="42.96868699491" lon="-5.7818089941">
        <ele>1759.77</ele>
        <time>2012-12-20T13:54:32+01:00</time>
      </trkpt>
      <trkpt lat="42.96870262715" lon="-5.78148832458">
        <ele>1757.84</ele>
        <time>2012-12-20T13:54:33+01:00</time>
      </trkpt>
      <trkpt lat="42.968704204" lon="-5.78134292228">
        <ele>1755.82</ele>
        <time>2012-12-20T13:54:34+01:00</time>
      </trkpt>
      <trkpt lat="42.96869200047" lon="-5.78117370351">
        <ele>1754.05</ele>
        <time>2012-12-20T13:54:35+01:00</time>
      </trkpt>
      <trkpt lat="42.9687067906" lon="-5.78100707721">
        <ele>1752.1</ele>
        <time>2012-12-20T13:54:36+01:00</time>
      </trkpt>
      <trkpt lat="42.96870967777" lon="-5.78097165588">
        <ele>1750.33</ele>
        <time>2012-12-20T13:54:37+01:00</time>
      </trkpt>
      <trkpt lat="42.96871448486" lon="-5.78091694438">
        <ele>1748.36</ele>
        <time>2012-12-20T13:54:38+01:00</time>
      </trkpt>
      <trkpt lat="42.96871716773" lon="-5.78088236231">
        <ele>1746.64</ele>
        <time>2012-12-20T13:54:39+01:00</time>
      </trkpt>
      <trkpt lat="42.96872914609" lon="-5.78083695745">
        <ele>1744.15</ele>
        <time>2012-12-20T13:54:40+01:00</time>
      </trkpt>
      <trkpt lat="42.96874621476" lon="-5.7807837394">
        <ele>1742.14</ele>
        <time>2012-12-20T13:54:41+01:00</time>
      </trkpt>
      <trkpt lat="42.96902558797" lon="-5.78005608939">
        <ele>1738.19</ele>
        <time>2012-12-20T13:54:43+01:00</time>
      </trkpt>
      <trkpt lat="42.96918358904" lon="-5.77959599823">
        <ele>1735.44</ele>
        <time>2012-12-20T13:54:44+01:00</time>
      </trkpt>
      <trkpt lat="42.96927533007" lon="-5.77928003815">
        <ele>1732.71</ele>
        <time>2012-12-20T13:54:45+01:00</time>
      </trkpt>
      <trkpt lat="42.96933144746" lon="-5.77903995736">
        <ele>1729.75</ele>
        <time>2012-12-20T13:54:46+01:00</time>
      </trkpt>
      <trkpt lat="42.9694771589" lon="-5.77876353726">
        <ele>1726.37</ele>
        <time>2012-12-20T13:54:47+01:00</time>
      </trkpt>
      <trkpt lat="42.96955883896" lon="-5.77861296776">
        <ele>1723.35</ele>
        <time>2012-12-20T13:54:48+01:00</time>
      </trkpt>
      <trkpt lat="42.96960006201" lon="-5.77853601808">
        <ele>1720.58</ele>
        <time>2012-12-20T13:54:49+01:00</time>
      </trkpt>
      <trkpt lat="42.96965350964" lon="-5.77844037866">
        <ele>1717.43</ele>
        <time>2012-12-20T13:54:50+01:00</time>
      </trkpt>
      <trkpt lat="42.96976794978" lon="-5.77829848827">
        <ele>1714.18</ele>
        <time>2012-12-20T13:54:51+01:00</time>
      </trkpt>
      <trkpt lat="42.96982282321" lon="-5.7782398902">
        <ele>1711.13</ele>
        <time>2012-12-20T13:54:52+01:00</time>
      </trkpt>
      <trkpt lat="42.96993438067" lon="-5.77809651927">
        <ele>1707.96</ele>
        <time>2012-12-20T13:54:53+01:00</time>
      </trkpt>
      <trkpt lat="42.97003162638" lon="-5.7780083671">
        <ele>1704.7</ele>
        <time>2012-12-20T13:54:54+01:00</time>
      </trkpt>
      <trkpt lat="42.97012188584" lon="-5.77792569309">
        <ele>1701.73</ele>
        <time>2012-12-20T13:54:55+01:00</time>
      </trkpt>
      <trkpt lat="42.970193079" lon="-5.77782815558">
        <ele>1698.61</ele>
        <time>2012-12-20T13:54:56+01:00</time>
      </trkpt>
      <trkpt lat="42.97027943552" lon="-5.77776794556">
        <ele>1695.58</ele>
        <time>2012-12-20T13:54:57+01:00</time>
      </trkpt>
      <trkpt lat="42.97038116289" lon="-5.77773478116">
        <ele>1687.31</ele>
        <time>2012-12-20T13:54:58+01:00</time>
      </trkpt>
      <trkpt lat="42.97048076763" lon="-5.77771896171">
        <ele>1688.34</ele>
        <time>2012-12-20T13:54:59+01:00</time>
      </trkpt>
      <trkpt lat="42.97056264761" lon="-5.77770761708">
        <ele>1680.74</ele>
        <time>2012-12-20T13:55:00+01:00</time>
      </trkpt>
      <trkpt lat="42.97070381338" lon="-5.77770434233">
        <ele>1676.99</ele>
        <time>2012-12-20T13:55:02+01:00</time>
      </trkpt>
      <trkpt lat="42.97080017465" lon="-5.77770509554">
        <ele>1673.54</ele>
        <time>2012-12-20T13:55:03+01:00</time>
      </trkpt>
      <trkpt lat="42.97086548031" lon="-5.77768486139">
        <ele>1670.56</ele>
        <time>2012-12-20T13:55:04+01:00</time>
      </trkpt>
      <trkpt lat="42.97091639412" lon="-5.77765198082">
        <ele>1666.62</ele>
        <time>2012-12-20T13:55:05+01:00</time>
      </trkpt>
      <trkpt lat="42.97099725309" lon="-5.7776209966">
        <ele>1666.85</ele>
        <time>2012-12-20T13:55:06+01:00</time>
      </trkpt>
      <trkpt lat="42.97107759673" lon="-5.77761070939">
        <ele>1664.71</ele>
        <time>2012-12-20T13:55:07+01:00</time>
      </trkpt>
      <trkpt lat="42.97110132314" lon="-5.77761885313">
        <ele>1662.62</ele>
        <time>2012-12-20T13:55:08+01:00</time>
      </trkpt>
      <trkpt lat="42.97116171088" lon="-5.77759673554">
        <ele>1661.09</ele>
        <time>2012-12-20T13:55:09+01:00</time>
      </trkpt>
      <trkpt lat="42.97121888306" lon="-5.77757340244">
        <ele>1659.69</ele>
        <time>2012-12-20T13:55:10+01:00</time>
      </trkpt>
      <trkpt lat="42.97126931011" lon="-5.77755156969">
        <ele>1655.19</ele>
        <time>2012-12-20T13:55:11+01:00</time>
      </trkpt>
      <trkpt lat="42.97132388666" lon="-5.77754814191">
        <ele>1653.05</ele>
        <time>2012-12-20T13:55:12+01:00</time>
      </trkpt>
      <trkpt lat="42.97137037609" lon="-5.7775422652">
        <ele>1653.39</ele>
        <time>2012-12-20T13:55:13+01:00</time>
      </trkpt>
      <trkpt lat="42.97142126013" lon="-5.77753396243">
        <ele>1651.73</ele>
        <time>2012-12-20T13:55:14+01:00</time>
      </trkpt>
      <trkpt lat="42.97150759844" lon="-5.77751464677">
        <ele>1647.36</ele>
        <time>2012-12-20T13:55:15+01:00</time>
      </trkpt>
      <trkpt lat="42.97156711089" lon="-5.77753150371">
        <ele>1647.8</ele>
        <time>2012-12-20T13:55:16+01:00</time>
      </trkpt>
      <trkpt lat="42.97163473628" lon="-5.77752575558">
        <ele>1646.62</ele>
        <time>2012-12-20T13:55:17+01:00</time>
      </trkpt>
      <trkpt lat="42.97168832685" lon="-5.77751588878">
        <ele>1642.5</ele>
        <time>2012-12-20T13:55:18+01:00</time>
      </trkpt>
      <trkpt lat="42.97174709004" lon="-5.7775104956">
        <ele>1639.99</ele>
        <time>2012-12-20T13:55:19+01:00</time>
      </trkpt>
      <trkpt lat="42.97180142274" lon="-5.77748567942">
        <ele>1640.52</ele>
        <time>2012-12-20T13:55:20+01:00</time>
      </trkpt>
      <trkpt lat="42.97186261423" lon="-5.77746120311">
        <ele>1639</ele>
        <time>2012-12-20T13:55:21+01:00</time>
      </trkpt>
      <trkpt lat="42.97193248649" lon="-5.77745644196">
        <ele>1637.25</ele>
        <time>2012-12-20T13:55:22+01:00</time>
      </trkpt>
      <trkpt lat="42.97197877145" lon="-5.77742525287">
        <ele>1635.69</ele>
        <time>2012-12-20T13:55:24+01:00</time>
      </trkpt>
      <trkpt lat="42.97204897832" lon="-5.77739838466">
        <ele>1634.6</ele>
        <time>2012-12-20T13:55:24+01:00</time>
      </trkpt>
      <trkpt lat="42.97212628463" lon="-5.77733960446">
        <ele>1633.05</ele>
        <time>2012-12-20T13:55:26+01:00</time>
      </trkpt>
      <trkpt lat="42.97221026293" lon="-5.7772636948">
        <ele>1631.51</ele>
        <time>2012-12-20T13:55:26+01:00</time>
      </trkpt>
      <trkpt lat="42.9722992536" lon="-5.77718014242">
        <ele>1630.23</ele>
        <time>2012-12-20T13:55:28+01:00</time>
      </trkpt>
      <trkpt lat="42.97239102287" lon="-5.77712076423">
        <ele>1626.59</ele>
        <time>2012-12-20T13:55:28+01:00</time>
      </trkpt>
      <trkpt lat="42.97248007431" lon="-5.7770737665">
        <ele>1626.85</ele>
        <time>2012-12-20T13:55:29+01:00</time>
      </trkpt>
      <trkpt lat="42.97249860607" lon="-5.77706473329">
        <ele>1625.61</ele>
        <time>2012-12-20T13:55:30+01:00</time>
      </trkpt>
      <trkpt lat="42.97263059307" lon="-5.77698934082">
        <ele>1621.81</ele>
        <time>2012-12-20T13:55:32+01:00</time>
      </trkpt>
      <trkpt lat="42.97272437258" lon="-5.77693383305">
        <ele>1621.68</ele>
        <time>2012-12-20T13:55:33+01:00</time>
      </trkpt>
      <trkpt lat="42.97285887417" lon="-5.77682223749">
        <ele>1618.17</ele>
        <time>2012-12-20T13:55:34+01:00</time>
      </trkpt>
      <trkpt lat="42.97295024809" lon="-5.77677879599">
        <ele>1616.09</ele>
        <time>2012-12-20T13:55:34+01:00</time>
      </trkpt>
      <trkpt lat="42.97300678542" lon="-5.77675006411">
        <ele>1614.18</ele>
        <time>2012-12-20T13:55:36+01:00</time>
      </trkpt>
      <trkpt lat="42.97311595245" lon="-5.77664493595">
        <ele>1612.54</ele>
        <time>2012-12-20T13:55:37+01:00</time>
      </trkpt>
      <trkpt lat="42.97318532801" lon="-5.77655853148">
        <ele>1610.43</ele>
        <time>2012-12-20T13:55:38+01:00</time>
      </trkpt>
      <trkpt lat="42.97325961988" lon="-5.77648613119">
        <ele>1608.89</ele>
        <time>2012-12-20T13:55:38+01:00</time>
      </trkpt>
      <trkpt lat="42.97334434979" lon="-5.77648807966">
        <ele>1607.28</ele>
        <time>2012-12-20T13:55:39+01:00</time>
      </trkpt>
      <trkpt lat="42.97340699391" lon="-5.77648303788">
        <ele>1605.73</ele>
        <time>2012-12-20T13:55:40+01:00</time>
      </trkpt>
      <trkpt lat="42.97344456787" lon="-5.77648075547">
        <ele>1605.74</ele>
        <time>2012-12-20T13:55:42+01:00</time>
      </trkpt>
      <trkpt lat="42.97349540033" lon="-5.77646494335">
        <ele>1604.73</ele>
        <time>2012-12-20T13:55:44+01:00</time>
      </trkpt>
      <trkpt lat="42.97351631795" lon="-5.77645902734">
        <ele>1603.78</ele>
        <time>2012-12-20T13:55:44+01:00</time>
      </trkpt>
      <trkpt lat="42.97354676759" lon="-5.77644588532">
        <ele>1602.87</ele>
        <time>2012-12-20T13:55:47+01:00</time>
      </trkpt>
      <trkpt lat="42.9735689913" lon="-5.77642586136">
        <ele>1601.95</ele>
        <time>2012-12-20T13:55:49+01:00</time>
      </trkpt>
      <trkpt lat="42.97360340485" lon="-5.77639309251">
        <ele>1600.96</ele>
        <time>2012-12-20T13:55:52+01:00</time>
      </trkpt>
      <trkpt lat="42.97363272348" lon="-5.77637167894">
        <ele>1600.05</ele>
        <time>2012-12-20T13:55:52+01:00</time>
      </trkpt>
      <trkpt lat="42.97363778853" lon="-5.7763683725">
        <ele>1599.2</ele>
        <time>2012-12-20T13:55:53+01:00</time>
      </trkpt>
      <trkpt lat="42.97366653244" lon="-5.77633304167">
        <ele>1598.6</ele>
        <time>2012-12-20T13:55:54+01:00</time>
      </trkpt>
      <trkpt lat="42.97367093234" lon="-5.77632675094">
        <ele>1597.93</ele>
        <time>2012-12-20T13:55:55+01:00</time>
      </trkpt>
      <trkpt lat="42.97367671531" lon="-5.77631929556">
        <ele>1597.11</ele>
        <time>2012-12-20T13:55:57+01:00</time>
      </trkpt>
      <trkpt lat="42.97370655244" lon="-5.77630380933">
        <ele>1596.37</ele>
        <time>2012-12-20T13:56:00+01:00</time>
      </trkpt>
      <trkpt lat="42.9737253686" lon="-5.77631249475">
        <ele>1595.65</ele>
        <time>2012-12-20T13:56:02+01:00</time>
      </trkpt>
      <trkpt lat="42.97374640656" lon="-5.77632840449">
        <ele>1594.9</ele>
        <time>2012-12-20T13:56:04+01:00</time>
      </trkpt>
      <trkpt lat="42.97378429228" lon="-5.77635668909">
        <ele>1593.94</ele>
        <time>2012-12-20T13:56:05+01:00</time>
      </trkpt>
      <trkpt lat="42.9738046812" lon="-5.77637204315">
        <ele>1593.21</ele>
        <time>2012-12-20T13:56:06+01:00</time>
      </trkpt>
      <trkpt lat="42.97384989313" lon="-5.7763979386">
        <ele>1592.46</ele>
        <time>2012-12-20T13:56:08+01:00</time>
      </trkpt>
      <trkpt lat="42.97388170077" lon="-5.77640787862">
        <ele>1591.54</ele>
        <time>2012-12-20T13:56:09+01:00</time>
      </trkpt>
      <trkpt lat="42.97392232752" lon="-5.77640463631">
        <ele>1590.83</ele>
        <time>2012-12-20T13:56:09+01:00</time>
      </trkpt>
      <trkpt lat="42.97401296432" lon="-5.77638038441">
        <ele>1590.29</ele>
        <time>2012-12-20T13:56:10+01:00</time>
      </trkpt>
      <trkpt lat="42.97407132482" lon="-5.77640141735">
        <ele>1589.67</ele>
        <time>2012-12-20T13:56:11+01:00</time>
      </trkpt>
      <trkpt lat="42.97410271785" lon="-5.77640798596">
        <ele>1589.11</ele>
        <time>2012-12-20T13:56:12+01:00</time>
      </trkpt>
      <trkpt lat="42.9741330827" lon="-5.77641244373">
        <ele>1588.6</ele>
        <time>2012-12-20T13:56:14+01:00</time>
      </trkpt>
      <trkpt lat="42.9742190503" lon="-5.77644447028">
        <ele>1587.96</ele>
        <time>2012-12-20T13:56:16+01:00</time>
      </trkpt>
      <trkpt lat="42.97425658586" lon="-5.77643483494">
        <ele>1587.23</ele>
        <time>2012-12-20T13:56:18+01:00</time>
      </trkpt>
      <trkpt lat="42.97426010053" lon="-5.77643005764">
        <ele>1586.69</ele>
        <time>2012-12-20T13:56:19+01:00</time>
      </trkpt>
      <trkpt lat="42.97431476667" lon="-5.7764319872">
        <ele>1586.08</ele>
        <time>2012-12-20T13:56:21+01:00</time>
      </trkpt>
      <trkpt lat="42.97436805496" lon="-5.77645760368">
        <ele>1585.8</ele>
        <time>2012-12-20T13:56:21+01:00</time>
      </trkpt>
      <trkpt lat="42.97437218047" lon="-5.77643381601">
        <ele>1585.06</ele>
        <time>2012-12-20T13:56:24+01:00</time>
      </trkpt>
      <trkpt lat="42.97437045041" lon="-5.77640578701">
        <ele>1585.2</ele>
        <time>2012-12-20T13:56:25+01:00</time>
      </trkpt>
      <trkpt lat="42.97440682199" lon="-5.77635589797">
        <ele>1584.19</ele>
        <time>2012-12-20T13:56:26+01:00</time>
      </trkpt>
      <trkpt lat="42.97444686359" lon="-5.77632424793">
        <ele>1583.73</ele>
        <time>2012-12-20T13:56:28+01:00</time>
      </trkpt>
      <trkpt lat="42.97450803953" lon="-5.77628072071">
        <ele>1583.21</ele>
        <time>2012-12-20T13:56:28+01:00</time>
      </trkpt>
      <trkpt lat="42.97458317732" lon="-5.77623045864">
        <ele>1582.51</ele>
        <time>2012-12-20T13:56:30+01:00</time>
      </trkpt>
      <trkpt lat="42.97466676286" lon="-5.77618529485">
        <ele>1581.37</ele>
        <time>2012-12-20T13:56:31+01:00</time>
      </trkpt>
      <trkpt lat="42.97476002052" lon="-5.77614058473">
        <ele>1580.22</ele>
        <time>2012-12-20T13:56:31+01:00</time>
      </trkpt>
      <trkpt lat="42.97486758579" lon="-5.77608122357">
        <ele>1579.12</ele>
        <time>2012-12-20T13:56:33+01:00</time>
      </trkpt>
      <trkpt lat="42.97489046673" lon="-5.7760697554">
        <ele>1578.09</ele>
        <time>2012-12-20T13:56:33+01:00</time>
      </trkpt>
      <trkpt lat="42.97492734982" lon="-5.77605206635">
        <ele>1577.08</ele>
        <time>2012-12-20T13:56:34+01:00</time>
      </trkpt>
      <trkpt lat="42.97497418614" lon="-5.77603361487">
        <ele>1575.97</ele>
        <time>2012-12-20T13:56:36+01:00</time>
      </trkpt>
      <trkpt lat="42.97525068467" lon="-5.77602635563">
        <ele>1574.88</ele>
        <time>2012-12-20T13:56:36+01:00</time>
      </trkpt>
      <trkpt lat="42.97544926268" lon="-5.77604803935">
        <ele>1573.81</ele>
        <time>2012-12-20T13:56:37+01:00</time>
      </trkpt>
      <trkpt lat="42.97548158018" lon="-5.77605543803">
        <ele>1572.83</ele>
        <time>2012-12-20T13:56:38+01:00</time>
      </trkpt>
      <trkpt lat="42.97570464631" lon="-5.77609501852">
        <ele>1571.46</ele>
        <time>2012-12-20T13:56:40+01:00</time>
      </trkpt>
      <trkpt lat="42.97586821004" lon="-5.77613987065">
        <ele>1570.19</ele>
        <time>2012-12-20T13:56:41+01:00</time>
      </trkpt>
      <trkpt lat="42.97598052298" lon="-5.77619209439">
        <ele>1568.93</ele>
        <time>2012-12-20T13:56:41+01:00</time>
      </trkpt>
      <trkpt lat="42.97609453554" lon="-5.77623107247">
        <ele>1567.58</ele>
        <time>2012-12-20T13:56:42+01:00</time>
      </trkpt>
      <trkpt lat="42.97619854334" lon="-5.77623078023">
        <ele>1565.67</ele>
        <time>2012-12-20T13:56:43+01:00</time>
      </trkpt>
      <trkpt lat="42.97630349992" lon="-5.77621420557">
        <ele>1563.91</ele>
        <time>2012-12-20T13:56:45+01:00</time>
      </trkpt>
      <trkpt lat="42.97647088188" lon="-5.77615823167">
        <ele>1562.16</ele>
        <time>2012-12-20T13:56:46+01:00</time>
      </trkpt>
      <trkpt lat="42.97654083876" lon="-5.7761374467">
        <ele>1560.46</ele>
        <time>2012-12-20T13:56:47+01:00</time>
      </trkpt>
      <trkpt lat="42.97663050911" lon="-5.77612596457">
        <ele>1558.71</ele>
        <time>2012-12-20T13:56:48+01:00</time>
      </trkpt>
      <trkpt lat="42.97674258811" lon="-5.77612692903">
        <ele>1556.95</ele>
        <time>2012-12-20T13:56:48+01:00</time>
      </trkpt>
      <trkpt lat="42.97686077942" lon="-5.77613273376">
        <ele>1554.81</ele>
        <time>2012-12-20T13:56:50+01:00</time>
      </trkpt>
      <trkpt lat="42.97698531679" lon="-5.77610541937">
        <ele>1552.92</ele>
        <time>2012-12-20T13:56:51+01:00</time>
      </trkpt>
      <trkpt lat="42.97700975245" lon="-5.77609787672">
        <ele>1551.2</ele>
        <time>2012-12-20T13:56:51+01:00</time>
      </trkpt>
      <trkpt lat="42.97702431291" lon="-5.77609164106">
        <ele>1549.35</ele>
        <time>2012-12-20T13:56:53+01:00</time>
      </trkpt>
      <trkpt lat="42.9770444632" lon="-5.77607912063">
        <ele>1547.47</ele>
        <time>2012-12-20T13:56:53+01:00</time>
      </trkpt>
      <trkpt lat="42.97724592829" lon="-5.77586244352">
        <ele>1545.23</ele>
        <time>2012-12-20T13:56:54+01:00</time>
      </trkpt>
      <trkpt lat="42.97727108299" lon="-5.77582916687">
        <ele>1543.25</ele>
        <time>2012-12-20T13:56:55+01:00</time>
      </trkpt>
      <trkpt lat="42.97742400935" lon="-5.77563001064">
        <ele>1541.2</ele>
        <time>2012-12-20T13:56:56+01:00</time>
      </trkpt>
      <trkpt lat="42.97753529933" lon="-5.77549879085">
        <ele>1539.07</ele>
        <time>2012-12-20T13:56:57+01:00</time>
      </trkpt>
      <trkpt lat="42.97763777821" lon="-5.7754602964">
        <ele>1537.2</ele>
        <time>2012-12-20T13:56:58+01:00</time>
      </trkpt>
      <trkpt lat="42.97777873638" lon="-5.77545343956">
        <ele>1535.25</ele>
        <time>2012-12-20T13:56:59+01:00</time>
      </trkpt>
      <trkpt lat="42.97783696876" lon="-5.77548901563">
        <ele>1533.55</ele>
        <time>2012-12-20T13:57:00+01:00</time>
      </trkpt>
      <trkpt lat="42.97786762539" lon="-5.77554219778">
        <ele>1531.82</ele>
        <time>2012-12-20T13:57:01+01:00</time>
      </trkpt>
      <trkpt lat="42.9778775553" lon="-5.77556946503">
        <ele>1530.2</ele>
        <time>2012-12-20T13:57:02+01:00</time>
      </trkpt>
      <trkpt lat="42.97788738176" lon="-5.77559944336">
        <ele>1528.59</ele>
        <time>2012-12-20T13:57:03+01:00</time>
      </trkpt>
      <trkpt lat="42.97788772319" lon="-5.77560465402">
        <ele>1529.02</ele>
        <time>2012-12-20T13:57:39+01:00</time>
      </trkpt>
      <trkpt lat="42.97788587633" lon="-5.77561182465">
        <ele>1528.15</ele>
        <time>2012-12-20T13:57:43+01:00</time>
      </trkpt>
      <trkpt lat="42.97788483779" lon="-5.7756169667">
        <ele>1527.29</ele>
        <time>2012-12-20T13:57:48+01:00</time>
      </trkpt>
      <trkpt lat="42.97788170751" lon="-5.77562318018">
        <ele>1526.7</ele>
        <time>2012-12-20T13:58:08+01:00</time>
      </trkpt>
      <trkpt lat="42.97785913633" lon="-5.77566984493">
        <ele>1526.19</ele>
        <time>2012-12-20T13:58:13+01:00</time>
      </trkpt>
      <trkpt lat="42.97785710253" lon="-5.77567315885">
        <ele>1526.36</ele>
        <time>2012-12-20T13:58:30+01:00</time>
      </trkpt>
      <trkpt lat="42.97785485819" lon="-5.77567475223">
        <ele>1525.98</ele>
        <time>2012-12-20T13:58:45+01:00</time>
      </trkpt>
      <trkpt lat="42.97782818735" lon="-5.77566638278">
        <ele>1522.28</ele>
        <time>2012-12-20T13:58:52+01:00</time>
      </trkpt>
      <trkpt lat="42.97783944935" lon="-5.77562541453">
        <ele>1521.25</ele>
        <time>2012-12-20T13:58:54+01:00</time>
      </trkpt>
      <trkpt lat="42.97785306761" lon="-5.77559455621">
        <ele>1517.6</ele>
        <time>2012-12-20T13:58:59+01:00</time>
      </trkpt>
      <trkpt lat="42.97785941224" lon="-5.77556048958">
        <ele>1517.82</ele>
        <time>2012-12-20T13:59:01+01:00</time>
      </trkpt>
      <trkpt lat="42.97787016949" lon="-5.77559652454">
        <ele>1516.14</ele>
        <time>2012-12-20T13:59:04+01:00</time>
      </trkpt>
      <trkpt lat="42.97787562127" lon="-5.77561858899">
        <ele>1514.65</ele>
        <time>2012-12-20T13:59:05+01:00</time>
      </trkpt>
      <trkpt lat="42.97788193043" lon="-5.77565195899">
        <ele>1513.03</ele>
        <time>2012-12-20T13:59:06+01:00</time>
      </trkpt>
      <trkpt lat="42.97788783008" lon="-5.77569039503">
        <ele>1511.86</ele>
        <time>2012-12-20T13:59:08+01:00</time>
      </trkpt>
      <trkpt lat="42.97788585519" lon="-5.77569491757">
        <ele>1512.46</ele>
        <time>2012-12-20T13:59:13+01:00</time>
      </trkpt>
      <trkpt lat="42.97788377184" lon="-5.77570255017">
        <ele>1509.99</ele>
        <time>2012-12-20T13:59:16+01:00</time>
      </trkpt>
      <trkpt lat="42.9778820016" lon="-5.77568894251">
        <ele>1510.34</ele>
        <time>2012-12-20T13:59:31+01:00</time>
      </trkpt>
      <trkpt lat="42.9778765501" lon="-5.77560914214">
        <ele>1509.91</ele>
        <time>2012-12-20T13:59:35+01:00</time>
      </trkpt>
      <trkpt lat="42.97787118405" lon="-5.77554619173">
        <ele>1507.86</ele>
        <time>2012-12-20T13:59:43+01:00</time>
      </trkpt>
      <trkpt lat="42.97785991746" lon="-5.77546927752">
        <ele>1506.49</ele>
        <time>2012-12-20T13:59:46+01:00</time>
      </trkpt>
      <trkpt lat="42.97785877499" lon="-5.77546923392">
        <ele>1507.11</ele>
        <time>2012-12-20T13:59:50+01:00</time>
      </trkpt>
      <trkpt lat="42.9778550285" lon="-5.77546211864">
        <ele>1506.66</ele>
        <time>2012-12-20T13:59:55+01:00</time>
      </trkpt>
      <trkpt lat="42.97785000874" lon="-5.77542657951">
        <ele>1506.01</ele>
        <time>2012-12-20T14:00:10+01:00</time>
      </trkpt>
      <trkpt lat="42.97785891919" lon="-5.77541505446">
        <ele>1505.52</ele>
        <time>2012-12-20T14:00:19+01:00</time>
      </trkpt>
      <trkpt lat="42.97788053149" lon="-5.77543480228">
        <ele>1503.69</ele>
        <time>2012-12-20T14:00:24+01:00</time>
      </trkpt>
      <trkpt lat="42.97789068775" lon="-5.77546604332">
        <ele>1502.96</ele>
        <time>2012-12-20T14:00:26+01:00</time>
      </trkpt>
      <trkpt lat="42.97789717502" lon="-5.77548599979">
        <ele>1502.18</ele>
        <time>2012-12-20T14:00:30+01:00</time>
      </trkpt>
      <trkpt lat="42.97790800428" lon="-5.77551869299">
        <ele>1502.54</ele>
        <time>2012-12-20T14:00:32+01:00</time>
      </trkpt>
      <trkpt lat="42.97791339795" lon="-5.77555381505">
        <ele>1502.03</ele>
        <time>2012-12-20T14:00:34+01:00</time>
      </trkpt>
      <trkpt lat="42.97790614586" lon="-5.77560343742">
        <ele>1501.72</ele>
        <time>2012-12-20T14:00:35+01:00</time>
      </trkpt>
      <trkpt lat="42.97789105298" lon="-5.77561948896">
        <ele>1501.46</ele>
        <time>2012-12-20T14:00:35+01:00</time>
      </trkpt>
      <trkpt lat="42.9778612761" lon="-5.77564889282">
        <ele>1501.24</ele>
        <time>2012-12-20T14:00:37+01:00</time>
      </trkpt>
      <trkpt lat="42.97783178434" lon="-5.77566114384">
        <ele>1500.92</ele>
        <time>2012-12-20T14:00:38+01:00</time>
      </trkpt>
      <trkpt lat="42.9778357431" lon="-5.77563616846">
        <ele>1498.2</ele>
        <time>2012-12-20T14:00:43+01:00</time>
      </trkpt>
      <trkpt lat="42.97785567912" lon="-5.77562661363">
        <ele>1497.25</ele>
        <time>2012-12-20T14:00:44+01:00</time>
      </trkpt>
      <trkpt lat="42.97783991856" lon="-5.77559908757">
        <ele>1497.73</ele>
        <time>2012-12-20T14:00:47+01:00</time>
      </trkpt>
      <trkpt lat="42.97781931971" lon="-5.77558881556">
        <ele>1497.1</ele>
        <time>2012-12-20T14:00:49+01:00</time>
      </trkpt>
      <trkpt lat="42.9778168397" lon="-5.77558803793">
        <ele>1496.23</ele>
        <time>2012-12-20T14:00:51+01:00</time>
      </trkpt>
      <trkpt lat="42.97781568021" lon="-5.7755884936">
        <ele>1495.74</ele>
        <time>2012-12-20T14:00:53+01:00</time>
      </trkpt>
      <trkpt lat="42.97781506135" lon="-5.77559189909">
        <ele>1495.37</ele>
        <time>2012-12-20T14:00:55+01:00</time>
      </trkpt>
    </trkseg>
  </trk>
</gpx>